<?xml version='1.0' encoding='UTF-8'?>
<gpx version="1.1" creator="https://www.komoot.de" xmlns="http://www.topografix.com/GPX/1/1" xmlns:xsi="http://www.w3.org/2001/XMLSchema-instance" xsi:schemaLocation="http://www.topografix.com/GPX/1/1 http://www.topografix.com/GPX/1/1/gpx.xsd">
  <metadata>
    <name>RTF 2026 - Tour 1 (170 km - 1920 hm)</name>
    <author>
      <link href="https://www.komoot.de">
        <text>komoot</text>
        <type>text/html</type>
      </link>
    </author>
  </metadata>
  <trk>
    <name>RTF 2026 - Tour 1 (170 km - 1920 hm)</name>
    <trkseg>
      <trkpt lat="48.581898" lon="10.022061">
        <ele>604.080513</ele>
        <time>2025-11-11T18:21:17.401Z</time>
      </trkpt>
      <trkpt lat="48.581589" lon="10.022428">
        <ele>604.080513</ele>
        <time>2025-11-11T18:21:22.637Z</time>
      </trkpt>
      <trkpt lat="48.581327" lon="10.022431">
        <ele>604.080513</ele>
        <time>2025-11-11T18:21:26.072Z</time>
      </trkpt>
      <trkpt lat="48.581224" lon="10.022377">
        <ele>604.080513</ele>
        <time>2025-11-11T18:21:27.481Z</time>
      </trkpt>
      <trkpt lat="48.581097" lon="10.023435">
        <ele>601.827806</ele>
        <time>2025-11-11T18:21:45.992Z</time>
      </trkpt>
      <trkpt lat="48.581012" lon="10.023558">
        <ele>601.367631</ele>
        <time>2025-11-11T18:21:47.575Z</time>
      </trkpt>
      <trkpt lat="48.580982" lon="10.023956">
        <ele>600.331274</ele>
        <time>2025-11-11T18:21:51.256Z</time>
      </trkpt>
      <trkpt lat="48.580947" lon="10.024679">
        <ele>598.455747</ele>
        <time>2025-11-11T18:21:58.391Z</time>
      </trkpt>
      <trkpt lat="48.580945" lon="10.024714">
        <ele>598.364859</ele>
        <time>2025-11-11T18:21:58.751Z</time>
      </trkpt>
      <trkpt lat="48.580915" lon="10.024863">
        <ele>597.961913</ele>
        <time>2025-11-11T18:22:00.438Z</time>
      </trkpt>
      <trkpt lat="48.581143" lon="10.024942">
        <ele>597.047146</ele>
        <time>2025-11-11T18:22:03.244Z</time>
      </trkpt>
      <trkpt lat="48.581185" lon="10.024952">
        <ele>597.094264</ele>
        <time>2025-11-11T18:22:03.790Z</time>
      </trkpt>
      <trkpt lat="48.581332" lon="10.024963">
        <ele>597.260056</ele>
        <time>2025-11-11T18:22:05.735Z</time>
      </trkpt>
      <trkpt lat="48.581417" lon="10.024964">
        <ele>597.355808</ele>
        <time>2025-11-11T18:22:06.925Z</time>
      </trkpt>
      <trkpt lat="48.581447" lon="10.024965">
        <ele>597.389610</ele>
        <time>2025-11-11T18:22:07.385Z</time>
      </trkpt>
      <trkpt lat="48.581621" lon="10.024987">
        <ele>597.586298</ele>
        <time>2025-11-11T18:22:10.315Z</time>
      </trkpt>
      <trkpt lat="48.581685" lon="10.025041">
        <ele>597.668862</ele>
        <time>2025-11-11T18:22:11.648Z</time>
      </trkpt>
      <trkpt lat="48.581747" lon="10.025149">
        <ele>597.775422</ele>
        <time>2025-11-11T18:22:13.490Z</time>
      </trkpt>
      <trkpt lat="48.581825" lon="10.025404">
        <ele>597.984780</ele>
        <time>2025-11-11T18:22:17.469Z</time>
      </trkpt>
      <trkpt lat="48.581872" lon="10.025799">
        <ele>598.283860</ele>
        <time>2025-11-11T18:22:23.751Z</time>
      </trkpt>
      <trkpt lat="48.581886" lon="10.026008">
        <ele>598.440404</ele>
        <time>2025-11-11T18:22:27.091Z</time>
      </trkpt>
      <trkpt lat="48.581885" lon="10.026207">
        <ele>598.588705</ele>
        <time>2025-11-11T18:22:30.269Z</time>
      </trkpt>
      <trkpt lat="48.581885" lon="10.026271">
        <ele>598.636398</ele>
        <time>2025-11-11T18:22:31.346Z</time>
      </trkpt>
      <trkpt lat="48.581880" lon="10.026535">
        <ele>598.833213</ele>
        <time>2025-11-11T18:22:35.568Z</time>
      </trkpt>
      <trkpt lat="48.581877" lon="10.026677">
        <ele>598.939086</ele>
        <time>2025-11-11T18:22:37.775Z</time>
      </trkpt>
      <trkpt lat="48.581874" lon="10.026813">
        <ele>599.040491</ele>
        <time>2025-11-11T18:22:39.879Z</time>
      </trkpt>
      <trkpt lat="48.581874" lon="10.026860">
        <ele>599.074215</ele>
        <time>2025-11-11T18:22:40.571Z</time>
      </trkpt>
      <trkpt lat="48.581871" lon="10.027220">
        <ele>599.221263</ele>
        <time>2025-11-11T18:22:45.946Z</time>
      </trkpt>
      <trkpt lat="48.581871" lon="10.027369">
        <ele>599.282120</ele>
        <time>2025-11-11T18:22:48.033Z</time>
      </trkpt>
      <trkpt lat="48.581866" lon="10.027569">
        <ele>599.363866</ele>
        <time>2025-11-11T18:22:50.783Z</time>
      </trkpt>
      <trkpt lat="48.581865" lon="10.027999">
        <ele>599.539495</ele>
        <time>2025-11-11T18:22:56.443Z</time>
      </trkpt>
      <trkpt lat="48.581866" lon="10.028034">
        <ele>599.553803</ele>
        <time>2025-11-11T18:22:56.880Z</time>
      </trkpt>
      <trkpt lat="48.581885" lon="10.028268">
        <ele>599.650095</ele>
        <time>2025-11-11T18:22:59.647Z</time>
      </trkpt>
      <trkpt lat="48.581951" lon="10.028776">
        <ele>599.861544</ele>
        <time>2025-11-11T18:23:05.209Z</time>
      </trkpt>
      <trkpt lat="48.582003" lon="10.029174">
        <ele>600.027241</ele>
        <time>2025-11-11T18:23:08.966Z</time>
      </trkpt>
      <trkpt lat="48.582053" lon="10.029949">
        <ele>599.711105</ele>
        <time>2025-11-11T18:23:15.419Z</time>
      </trkpt>
      <trkpt lat="48.582065" lon="10.030618">
        <ele>598.915532</ele>
        <time>2025-11-11T18:23:20.369Z</time>
      </trkpt>
      <trkpt lat="48.582085" lon="10.031130">
        <ele>598.305827</ele>
        <time>2025-11-11T18:23:24.064Z</time>
      </trkpt>
      <trkpt lat="48.582124" lon="10.031514">
        <ele>597.843995</ele>
        <time>2025-11-11T18:23:26.841Z</time>
      </trkpt>
      <trkpt lat="48.582297" lon="10.032803">
        <ele>596.152745</ele>
        <time>2025-11-11T18:23:36.151Z</time>
      </trkpt>
      <trkpt lat="48.582310" lon="10.032896">
        <ele>596.018227</ele>
        <time>2025-11-11T18:23:36.811Z</time>
      </trkpt>
      <trkpt lat="48.582624" lon="10.034873">
        <ele>593.140923</ele>
        <time>2025-11-11T18:23:51.445Z</time>
      </trkpt>
      <trkpt lat="48.582786" lon="10.035820">
        <ele>592.061417</ele>
        <time>2025-11-11T18:23:58.800Z</time>
      </trkpt>
      <trkpt lat="48.582951" lon="10.036524">
        <ele>591.243637</ele>
        <time>2025-11-11T18:24:04.393Z</time>
      </trkpt>
      <trkpt lat="48.583108" lon="10.037144">
        <ele>590.516746</ele>
        <time>2025-11-11T18:24:09.403Z</time>
      </trkpt>
      <trkpt lat="48.583364" lon="10.038235">
        <ele>589.283903</ele>
        <time>2025-11-11T18:24:18.208Z</time>
      </trkpt>
      <trkpt lat="48.583493" lon="10.038890">
        <ele>588.565174</ele>
        <time>2025-11-11T18:24:23.279Z</time>
      </trkpt>
      <trkpt lat="48.583403" lon="10.039001">
        <ele>588.380515</ele>
        <time>2025-11-11T18:24:24.579Z</time>
      </trkpt>
      <trkpt lat="48.583347" lon="10.039225">
        <ele>588.128678</ele>
        <time>2025-11-11T18:24:26.350Z</time>
      </trkpt>
      <trkpt lat="48.583398" lon="10.040146">
        <ele>587.188787</ele>
        <time>2025-11-11T18:24:33.292Z</time>
      </trkpt>
      <trkpt lat="48.583445" lon="10.041357">
        <ele>586.284345</ele>
        <time>2025-11-11T18:24:43.160Z</time>
      </trkpt>
      <trkpt lat="48.583386" lon="10.042495">
        <ele>585.433280</ele>
        <time>2025-11-11T18:24:52.644Z</time>
      </trkpt>
      <trkpt lat="48.583233" lon="10.044033">
        <ele>583.222759</ele>
        <time>2025-11-11T18:25:04.339Z</time>
      </trkpt>
      <trkpt lat="48.583105" lon="10.045314">
        <ele>581.206114</ele>
        <time>2025-11-11T18:25:13.060Z</time>
      </trkpt>
      <trkpt lat="48.583090" lon="10.045900">
        <ele>580.057817</ele>
        <time>2025-11-11T18:25:16.974Z</time>
      </trkpt>
      <trkpt lat="48.583126" lon="10.046489">
        <ele>578.833562</ele>
        <time>2025-11-11T18:25:20.939Z</time>
      </trkpt>
      <trkpt lat="48.583347" lon="10.047901">
        <ele>575.830447</ele>
        <time>2025-11-11T18:25:30.714Z</time>
      </trkpt>
      <trkpt lat="48.583380" lon="10.048455">
        <ele>574.875543</ele>
        <time>2025-11-11T18:25:34.456Z</time>
      </trkpt>
      <trkpt lat="48.583376" lon="10.048784">
        <ele>574.385268</ele>
        <time>2025-11-11T18:25:36.680Z</time>
      </trkpt>
      <trkpt lat="48.583312" lon="10.049812">
        <ele>572.846837</ele>
        <time>2025-11-11T18:25:43.861Z</time>
      </trkpt>
      <trkpt lat="48.583310" lon="10.050355">
        <ele>572.037784</ele>
        <time>2025-11-11T18:25:47.883Z</time>
      </trkpt>
      <trkpt lat="48.583360" lon="10.050808">
        <ele>571.353508</ele>
        <time>2025-11-11T18:25:51.479Z</time>
      </trkpt>
      <trkpt lat="48.583504" lon="10.051680">
        <ele>570.444527</ele>
        <time>2025-11-11T18:25:59.046Z</time>
      </trkpt>
      <trkpt lat="48.583848" lon="10.053430">
        <ele>568.614352</ele>
        <time>2025-11-11T18:26:13.195Z</time>
      </trkpt>
      <trkpt lat="48.583964" lon="10.053847">
        <ele>567.554922</ele>
        <time>2025-11-11T18:26:16.245Z</time>
      </trkpt>
      <trkpt lat="48.584527" lon="10.055000">
        <ele>564.151266</ele>
        <time>2025-11-11T18:26:25.510Z</time>
      </trkpt>
      <trkpt lat="48.584679" lon="10.055362">
        <ele>563.132929</ele>
        <time>2025-11-11T18:26:28.243Z</time>
      </trkpt>
      <trkpt lat="48.584794" lon="10.055730">
        <ele>562.166301</ele>
        <time>2025-11-11T18:26:30.851Z</time>
      </trkpt>
      <trkpt lat="48.585113" lon="10.057690">
        <ele>556.813303</ele>
        <time>2025-11-11T18:26:44.006Z</time>
      </trkpt>
      <trkpt lat="48.585211" lon="10.058179">
        <ele>555.457647</ele>
        <time>2025-11-11T18:26:47.304Z</time>
      </trkpt>
      <trkpt lat="48.585356" lon="10.058754">
        <ele>553.452498</ele>
        <time>2025-11-11T18:26:51.232Z</time>
      </trkpt>
      <trkpt lat="48.585689" lon="10.059664">
        <ele>549.764628</ele>
        <time>2025-11-11T18:26:57.706Z</time>
      </trkpt>
      <trkpt lat="48.585878" lon="10.060256">
        <ele>547.433594</ele>
        <time>2025-11-11T18:27:01.731Z</time>
      </trkpt>
      <trkpt lat="48.586047" lon="10.060960">
        <ele>544.640106</ele>
        <time>2025-11-11T18:27:06.253Z</time>
      </trkpt>
      <trkpt lat="48.586613" lon="10.064272">
        <ele>529.992065</ele>
        <time>2025-11-11T18:27:26.595Z</time>
      </trkpt>
      <trkpt lat="48.586893" lon="10.065785">
        <ele>524.308626</ele>
        <time>2025-11-11T18:27:36.224Z</time>
      </trkpt>
      <trkpt lat="48.586936" lon="10.066022">
        <ele>523.419617</ele>
        <time>2025-11-11T18:27:37.840Z</time>
      </trkpt>
      <trkpt lat="48.587013" lon="10.066422">
        <ele>523.065927</ele>
        <time>2025-11-11T18:27:40.709Z</time>
      </trkpt>
      <trkpt lat="48.587048" lon="10.066786">
        <ele>522.912745</ele>
        <time>2025-11-11T18:27:43.405Z</time>
      </trkpt>
      <trkpt lat="48.587016" lon="10.067252">
        <ele>522.717635</ele>
        <time>2025-11-11T18:27:47.281Z</time>
      </trkpt>
      <trkpt lat="48.586916" lon="10.067733">
        <ele>522.507660</ele>
        <time>2025-11-11T18:27:52.619Z</time>
      </trkpt>
      <trkpt lat="48.586804" lon="10.068085">
        <ele>522.344991</ele>
        <time>2025-11-11T18:27:57.439Z</time>
      </trkpt>
      <trkpt lat="48.586032" lon="10.069524">
        <ele>522.015455</ele>
        <time>2025-11-11T18:28:21.424Z</time>
      </trkpt>
      <trkpt lat="48.585895" lon="10.069860">
        <ele>521.993502</ele>
        <time>2025-11-11T18:28:25.465Z</time>
      </trkpt>
      <trkpt lat="48.584579" lon="10.075637">
        <ele>517.144579</ele>
        <time>2025-11-11T18:29:11.624Z</time>
      </trkpt>
      <trkpt lat="48.584422" lon="10.076809">
        <ele>516.586632</ele>
        <time>2025-11-11T18:29:22.588Z</time>
      </trkpt>
      <trkpt lat="48.584395" lon="10.077364">
        <ele>516.446701</ele>
        <time>2025-11-11T18:29:28.114Z</time>
      </trkpt>
      <trkpt lat="48.584330" lon="10.081160">
        <ele>516.004284</ele>
        <time>2025-11-11T18:30:01.770Z</time>
      </trkpt>
      <trkpt lat="48.584266" lon="10.082993">
        <ele>518.708544</ele>
        <time>2025-11-11T18:30:27.452Z</time>
      </trkpt>
      <trkpt lat="48.584246" lon="10.083781">
        <ele>520.117934</ele>
        <time>2025-11-11T18:30:43.567Z</time>
      </trkpt>
      <trkpt lat="48.584172" lon="10.085269">
        <ele>523.881790</ele>
        <time>2025-11-11T18:31:17.965Z</time>
      </trkpt>
      <trkpt lat="48.584201" lon="10.086377">
        <ele>526.988133</ele>
        <time>2025-11-11T18:31:41.301Z</time>
      </trkpt>
      <trkpt lat="48.584286" lon="10.087018">
        <ele>528.754518</ele>
        <time>2025-11-11T18:31:53.416Z</time>
      </trkpt>
      <trkpt lat="48.584448" lon="10.087774">
        <ele>530.568416</ele>
        <time>2025-11-11T18:32:07.683Z</time>
      </trkpt>
      <trkpt lat="48.584628" lon="10.088376">
        <ele>532.076363</ele>
        <time>2025-11-11T18:32:19.595Z</time>
      </trkpt>
      <trkpt lat="48.584890" lon="10.089092">
        <ele>533.944043</ele>
        <time>2025-11-11T18:32:35.077Z</time>
      </trkpt>
      <trkpt lat="48.585424" lon="10.090466">
        <ele>538.469721</ele>
        <time>2025-11-11T18:33:08.473Z</time>
      </trkpt>
      <trkpt lat="48.585611" lon="10.090860">
        <ele>539.914800</ele>
        <time>2025-11-11T18:33:19.080Z</time>
      </trkpt>
      <trkpt lat="48.585886" lon="10.091325">
        <ele>541.773547</ele>
        <time>2025-11-11T18:33:33.028Z</time>
      </trkpt>
      <trkpt lat="48.586166" lon="10.091728">
        <ele>543.597550</ele>
        <time>2025-11-11T18:33:46.610Z</time>
      </trkpt>
      <trkpt lat="48.586429" lon="10.092023">
        <ele>545.237566</ele>
        <time>2025-11-11T18:33:58.495Z</time>
      </trkpt>
      <trkpt lat="48.586748" lon="10.092308">
        <ele>547.093195</ele>
        <time>2025-11-11T18:34:11.802Z</time>
      </trkpt>
      <trkpt lat="48.587370" lon="10.092785">
        <ele>550.585944</ele>
        <time>2025-11-11T18:34:36.207Z</time>
      </trkpt>
      <trkpt lat="48.587655" lon="10.093010">
        <ele>552.062335</ele>
        <time>2025-11-11T18:34:47.252Z</time>
      </trkpt>
      <trkpt lat="48.587908" lon="10.093307">
        <ele>553.144764</ele>
        <time>2025-11-11T18:34:57.952Z</time>
      </trkpt>
      <trkpt lat="48.588115" lon="10.093624">
        <ele>554.140442</ele>
        <time>2025-11-11T18:35:07.196Z</time>
      </trkpt>
      <trkpt lat="48.588264" lon="10.093924">
        <ele>554.979002</ele>
        <time>2025-11-11T18:35:14.419Z</time>
      </trkpt>
      <trkpt lat="48.588444" lon="10.094460">
        <ele>556.322649</ele>
        <time>2025-11-11T18:35:25.113Z</time>
      </trkpt>
      <trkpt lat="48.588518" lon="10.094782">
        <ele>557.084595</ele>
        <time>2025-11-11T18:35:30.769Z</time>
      </trkpt>
      <trkpt lat="48.588547" lon="10.094924">
        <ele>557.416781</ele>
        <time>2025-11-11T18:35:33.102Z</time>
      </trkpt>
      <trkpt lat="48.588705" lon="10.095810">
        <ele>558.430765</ele>
        <time>2025-11-11T18:35:45.699Z</time>
      </trkpt>
      <trkpt lat="48.588755" lon="10.096326">
        <ele>558.843222</ele>
        <time>2025-11-11T18:35:51.817Z</time>
      </trkpt>
      <trkpt lat="48.588771" lon="10.097407">
        <ele>559.698390</ele>
        <time>2025-11-11T18:36:04.656Z</time>
      </trkpt>
      <trkpt lat="48.588789" lon="10.097820">
        <ele>560.031232</ele>
        <time>2025-11-11T18:36:09.957Z</time>
      </trkpt>
      <trkpt lat="48.588883" lon="10.098359">
        <ele>560.669165</ele>
        <time>2025-11-11T18:36:17.479Z</time>
      </trkpt>
      <trkpt lat="48.589151" lon="10.099329">
        <ele>561.872217</ele>
        <time>2025-11-11T18:36:33.106Z</time>
      </trkpt>
      <trkpt lat="48.589303" lon="10.099781">
        <ele>562.452514</ele>
        <time>2025-11-11T18:36:41.177Z</time>
      </trkpt>
      <trkpt lat="48.589526" lon="10.100296">
        <ele>563.144767</ele>
        <time>2025-11-11T18:36:50.539Z</time>
      </trkpt>
      <trkpt lat="48.589642" lon="10.100651">
        <ele>563.422802</ele>
        <time>2025-11-11T18:36:56.100Z</time>
      </trkpt>
      <trkpt lat="48.589820" lon="10.101377">
        <ele>563.966484</ele>
        <time>2025-11-11T18:37:05.696Z</time>
      </trkpt>
      <trkpt lat="48.589844" lon="10.101635">
        <ele>564.149430</ele>
        <time>2025-11-11T18:37:08.729Z</time>
      </trkpt>
      <trkpt lat="48.589843" lon="10.101876">
        <ele>564.318660</ele>
        <time>2025-11-11T18:37:11.529Z</time>
      </trkpt>
      <trkpt lat="48.589757" lon="10.102971">
        <ele>565.114056</ele>
        <time>2025-11-11T18:37:24.262Z</time>
      </trkpt>
      <trkpt lat="48.589748" lon="10.103385">
        <ele>565.510537</ele>
        <time>2025-11-11T18:37:29.243Z</time>
      </trkpt>
      <trkpt lat="48.589789" lon="10.103679">
        <ele>565.798131</ele>
        <time>2025-11-11T18:37:33.054Z</time>
      </trkpt>
      <trkpt lat="48.590163" lon="10.105416">
        <ele>567.546594</ele>
        <time>2025-11-11T18:38:00.432Z</time>
      </trkpt>
      <trkpt lat="48.590331" lon="10.105955">
        <ele>567.579424</ele>
        <time>2025-11-11T18:38:08.235Z</time>
      </trkpt>
      <trkpt lat="48.590266" lon="10.106080">
        <ele>567.560940</ele>
        <time>2025-11-11T18:38:10.100Z</time>
      </trkpt>
      <trkpt lat="48.590210" lon="10.106284">
        <ele>567.535265</ele>
        <time>2025-11-11T18:38:12.560Z</time>
      </trkpt>
      <trkpt lat="48.589906" lon="10.107913">
        <ele>567.338506</ele>
        <time>2025-11-11T18:38:26.943Z</time>
      </trkpt>
      <trkpt lat="48.589838" lon="10.108535">
        <ele>566.815250</ele>
        <time>2025-11-11T18:38:31.591Z</time>
      </trkpt>
      <trkpt lat="48.589893" lon="10.109023">
        <ele>566.297822</ele>
        <time>2025-11-11T18:38:35.366Z</time>
      </trkpt>
      <trkpt lat="48.589984" lon="10.109541">
        <ele>565.737618</ele>
        <time>2025-11-11T18:38:39.445Z</time>
      </trkpt>
      <trkpt lat="48.590002" lon="10.109626">
        <ele>565.644331</ele>
        <time>2025-11-11T18:38:40.125Z</time>
      </trkpt>
      <trkpt lat="48.590073" lon="10.109883">
        <ele>565.353216</ele>
        <time>2025-11-11T18:38:42.229Z</time>
      </trkpt>
      <trkpt lat="48.590170" lon="10.110164">
        <ele>565.021913</ele>
        <time>2025-11-11T18:38:44.583Z</time>
      </trkpt>
      <trkpt lat="48.590353" lon="10.110500">
        <ele>564.566977</ele>
        <time>2025-11-11T18:38:47.767Z</time>
      </trkpt>
      <trkpt lat="48.590858" lon="10.111257">
        <ele>563.076091</ele>
        <time>2025-11-11T18:38:55.688Z</time>
      </trkpt>
      <trkpt lat="48.591056" lon="10.111632">
        <ele>562.396859</ele>
        <time>2025-11-11T18:38:59.092Z</time>
      </trkpt>
      <trkpt lat="48.591124" lon="10.111563">
        <ele>562.221590</ele>
        <time>2025-11-11T18:38:59.976Z</time>
      </trkpt>
      <trkpt lat="48.591436" lon="10.112325">
        <ele>560.952983</ele>
        <time>2025-11-11T18:39:06.278Z</time>
      </trkpt>
      <trkpt lat="48.591636" lon="10.113033">
        <ele>559.820459</ele>
        <time>2025-11-11T18:39:11.729Z</time>
      </trkpt>
      <trkpt lat="48.591670" lon="10.113381">
        <ele>559.294745</ele>
        <time>2025-11-11T18:39:14.186Z</time>
      </trkpt>
      <trkpt lat="48.591678" lon="10.113752">
        <ele>558.740007</ele>
        <time>2025-11-11T18:39:16.781Z</time>
      </trkpt>
      <trkpt lat="48.591662" lon="10.113892">
        <ele>558.527683</ele>
        <time>2025-11-11T18:39:17.772Z</time>
      </trkpt>
      <trkpt lat="48.591604" lon="10.114381">
        <ele>557.785237</ele>
        <time>2025-11-11T18:39:21.256Z</time>
      </trkpt>
      <trkpt lat="48.591619" lon="10.114705">
        <ele>557.299848</ele>
        <time>2025-11-11T18:39:23.592Z</time>
      </trkpt>
      <trkpt lat="48.591678" lon="10.114920">
        <ele>556.951983</ele>
        <time>2025-11-11T18:39:25.298Z</time>
      </trkpt>
      <trkpt lat="48.591737" lon="10.115065">
        <ele>556.697566</ele>
        <time>2025-11-11T18:39:26.545Z</time>
      </trkpt>
      <trkpt lat="48.591931" lon="10.115268">
        <ele>556.327571</ele>
        <time>2025-11-11T18:39:29.189Z</time>
      </trkpt>
      <trkpt lat="48.592013" lon="10.115288">
        <ele>556.216148</ele>
        <time>2025-11-11T18:39:30.145Z</time>
      </trkpt>
      <trkpt lat="48.592207" lon="10.115212">
        <ele>555.947308</ele>
        <time>2025-11-11T18:39:32.453Z</time>
      </trkpt>
      <trkpt lat="48.592252" lon="10.115259">
        <ele>555.873939</ele>
        <time>2025-11-11T18:39:33.068Z</time>
      </trkpt>
      <trkpt lat="48.592146" lon="10.115359">
        <ele>555.706332</ele>
        <time>2025-11-11T18:39:34.518Z</time>
      </trkpt>
      <trkpt lat="48.592071" lon="10.115389">
        <ele>555.602260</ele>
        <time>2025-11-11T18:39:35.436Z</time>
      </trkpt>
      <trkpt lat="48.592000" lon="10.115492">
        <ele>555.470262</ele>
        <time>2025-11-11T18:39:36.579Z</time>
      </trkpt>
      <trkpt lat="48.591979" lon="10.115637">
        <ele>555.338560</ele>
        <time>2025-11-11T18:39:37.756Z</time>
      </trkpt>
      <trkpt lat="48.592002" lon="10.115753">
        <ele>555.231111</ele>
        <time>2025-11-11T18:39:38.704Z</time>
      </trkpt>
      <trkpt lat="48.592000" lon="10.115958">
        <ele>555.049201</ele>
        <time>2025-11-11T18:39:40.340Z</time>
      </trkpt>
      <trkpt lat="48.591922" lon="10.116343">
        <ele>554.691935</ele>
        <time>2025-11-11T18:39:43.680Z</time>
      </trkpt>
      <trkpt lat="48.591200" lon="10.119148">
        <ele>552.289907</ele>
        <time>2025-11-11T18:40:07.599Z</time>
      </trkpt>
      <trkpt lat="48.590895" lon="10.120511">
        <ele>551.149777</ele>
        <time>2025-11-11T18:40:18.614Z</time>
      </trkpt>
      <trkpt lat="48.590840" lon="10.120838">
        <ele>550.880817</ele>
        <time>2025-11-11T18:40:21.196Z</time>
      </trkpt>
      <trkpt lat="48.590631" lon="10.122200">
        <ele>549.811882</ele>
        <time>2025-11-11T18:40:32.375Z</time>
      </trkpt>
      <trkpt lat="48.590630" lon="10.122205">
        <ele>549.809439</ele>
        <time>2025-11-11T18:40:32.415Z</time>
      </trkpt>
      <trkpt lat="48.590562" lon="10.122871">
        <ele>549.494342</ele>
        <time>2025-11-11T18:40:38.142Z</time>
      </trkpt>
      <trkpt lat="48.590497" lon="10.124103">
        <ele>548.916450</ele>
        <time>2025-11-11T18:40:48.926Z</time>
      </trkpt>
      <trkpt lat="48.590492" lon="10.124737">
        <ele>548.619981</ele>
        <time>2025-11-11T18:40:54.380Z</time>
      </trkpt>
      <trkpt lat="48.590524" lon="10.125769">
        <ele>548.267676</ele>
        <time>2025-11-11T18:41:02.864Z</time>
      </trkpt>
      <trkpt lat="48.590593" lon="10.126747">
        <ele>547.936242</ele>
        <time>2025-11-11T18:41:11.118Z</time>
      </trkpt>
      <trkpt lat="48.590675" lon="10.127418">
        <ele>547.706302</ele>
        <time>2025-11-11T18:41:17.590Z</time>
      </trkpt>
      <trkpt lat="48.590800" lon="10.128206">
        <ele>548.016023</ele>
        <time>2025-11-11T18:41:26.360Z</time>
      </trkpt>
      <trkpt lat="48.590957" lon="10.128949">
        <ele>548.352703</ele>
        <time>2025-11-11T18:41:35.741Z</time>
      </trkpt>
      <trkpt lat="48.591299" lon="10.130254">
        <ele>548.997138</ele>
        <time>2025-11-11T18:41:52.892Z</time>
      </trkpt>
      <trkpt lat="48.591511" lon="10.130915">
        <ele>549.441406</ele>
        <time>2025-11-11T18:42:01.611Z</time>
      </trkpt>
      <trkpt lat="48.591653" lon="10.131360">
        <ele>549.740209</ele>
        <time>2025-11-11T18:42:07.450Z</time>
      </trkpt>
      <trkpt lat="48.591770" lon="10.131667">
        <ele>549.954486</ele>
        <time>2025-11-11T18:42:11.638Z</time>
      </trkpt>
      <trkpt lat="48.592365" lon="10.132958">
        <ele>551.071444</ele>
        <time>2025-11-11T18:42:31.748Z</time>
      </trkpt>
      <trkpt lat="48.592572" lon="10.133362">
        <ele>551.508588</ele>
        <time>2025-11-11T18:42:38.426Z</time>
      </trkpt>
      <trkpt lat="48.593091" lon="10.134256">
        <ele>552.526099</ele>
        <time>2025-11-11T18:42:54.433Z</time>
      </trkpt>
      <trkpt lat="48.593544" lon="10.134898">
        <ele>553.241743</ele>
        <time>2025-11-11T18:43:07.160Z</time>
      </trkpt>
      <trkpt lat="48.593866" lon="10.135286">
        <ele>553.680442</ele>
        <time>2025-11-11T18:43:15.482Z</time>
      </trkpt>
      <trkpt lat="48.594446" lon="10.135915">
        <ele>554.440926</ele>
        <time>2025-11-11T18:43:29.506Z</time>
      </trkpt>
      <trkpt lat="48.595167" lon="10.136597">
        <ele>554.105817</ele>
        <time>2025-11-11T18:43:43.406Z</time>
      </trkpt>
      <trkpt lat="48.596206" lon="10.137306">
        <ele>552.797043</ele>
        <time>2025-11-11T18:43:56.561Z</time>
      </trkpt>
      <trkpt lat="48.596663" lon="10.137554">
        <ele>551.654966</ele>
        <time>2025-11-11T18:44:01.413Z</time>
      </trkpt>
      <trkpt lat="48.597361" lon="10.137888">
        <ele>549.710004</ele>
        <time>2025-11-11T18:44:08.638Z</time>
      </trkpt>
      <trkpt lat="48.597680" lon="10.138008">
        <ele>548.836709</ele>
        <time>2025-11-11T18:44:11.964Z</time>
      </trkpt>
      <trkpt lat="48.598501" lon="10.138169">
        <ele>548.202043</ele>
        <time>2025-11-11T18:44:22.087Z</time>
      </trkpt>
      <trkpt lat="48.599192" lon="10.138231">
        <ele>548.630787</ele>
        <time>2025-11-11T18:44:37.452Z</time>
      </trkpt>
      <trkpt lat="48.600112" lon="10.138217">
        <ele>548.712410</ele>
        <time>2025-11-11T18:44:56.640Z</time>
      </trkpt>
      <trkpt lat="48.601538" lon="10.138150">
        <ele>547.204373</ele>
        <time>2025-11-11T18:45:12.796Z</time>
      </trkpt>
      <trkpt lat="48.602570" lon="10.138072">
        <ele>545.331954</ele>
        <time>2025-11-11T18:45:23.928Z</time>
      </trkpt>
      <trkpt lat="48.603375" lon="10.138069">
        <ele>543.821706</ele>
        <time>2025-11-11T18:45:33.058Z</time>
      </trkpt>
      <trkpt lat="48.604062" lon="10.138152">
        <ele>542.838839</ele>
        <time>2025-11-11T18:45:40.992Z</time>
      </trkpt>
      <trkpt lat="48.604376" lon="10.138219">
        <ele>542.395643</ele>
        <time>2025-11-11T18:45:44.660Z</time>
      </trkpt>
      <trkpt lat="48.604838" lon="10.138370">
        <ele>541.735039</ele>
        <time>2025-11-11T18:45:50.140Z</time>
      </trkpt>
      <trkpt lat="48.605871" lon="10.138882">
        <ele>540.222207</ele>
        <time>2025-11-11T18:46:03.258Z</time>
      </trkpt>
      <trkpt lat="48.606851" lon="10.139477">
        <ele>538.755688</ele>
        <time>2025-11-11T18:46:15.856Z</time>
      </trkpt>
      <trkpt lat="48.607651" lon="10.139901">
        <ele>536.000577</ele>
        <time>2025-11-11T18:46:24.699Z</time>
      </trkpt>
      <trkpt lat="48.608267" lon="10.140051">
        <ele>533.949969</ele>
        <time>2025-11-11T18:46:30.792Z</time>
      </trkpt>
      <trkpt lat="48.608919" lon="10.140064">
        <ele>531.708709</ele>
        <time>2025-11-11T18:46:37.068Z</time>
      </trkpt>
      <trkpt lat="48.609232" lon="10.140016">
        <ele>530.574650</ele>
        <time>2025-11-11T18:46:40.087Z</time>
      </trkpt>
      <trkpt lat="48.609496" lon="10.139925">
        <ele>529.598604</ele>
        <time>2025-11-11T18:46:42.695Z</time>
      </trkpt>
      <trkpt lat="48.609997" lon="10.139679">
        <ele>527.699855</ele>
        <time>2025-11-11T18:46:48.113Z</time>
      </trkpt>
      <trkpt lat="48.610596" lon="10.139244">
        <ele>525.144052</ele>
        <time>2025-11-11T18:46:55.094Z</time>
      </trkpt>
      <trkpt lat="48.610919" lon="10.139001">
        <ele>523.641587</ele>
        <time>2025-11-11T18:46:58.701Z</time>
      </trkpt>
      <trkpt lat="48.611247" lon="10.138747">
        <ele>522.106885</ele>
        <time>2025-11-11T18:47:02.298Z</time>
      </trkpt>
      <trkpt lat="48.611649" lon="10.138496">
        <ele>520.295579</ele>
        <time>2025-11-11T18:47:06.516Z</time>
      </trkpt>
      <trkpt lat="48.611922" lon="10.138388">
        <ele>519.120337</ele>
        <time>2025-11-11T18:47:09.155Z</time>
      </trkpt>
      <trkpt lat="48.612172" lon="10.138320">
        <ele>517.776510</ele>
        <time>2025-11-11T18:47:11.453Z</time>
      </trkpt>
      <trkpt lat="48.612409" lon="10.138300">
        <ele>516.427669</ele>
        <time>2025-11-11T18:47:13.610Z</time>
      </trkpt>
      <trkpt lat="48.612688" lon="10.138326">
        <ele>514.839253</ele>
        <time>2025-11-11T18:47:16.157Z</time>
      </trkpt>
      <trkpt lat="48.612993" lon="10.138427">
        <ele>513.065047</ele>
        <time>2025-11-11T18:47:19.029Z</time>
      </trkpt>
      <trkpt lat="48.613584" lon="10.138769">
        <ele>509.469310</ele>
        <time>2025-11-11T18:47:24.891Z</time>
      </trkpt>
      <trkpt lat="48.613892" lon="10.139019">
        <ele>507.773735</ele>
        <time>2025-11-11T18:47:28.171Z</time>
      </trkpt>
      <trkpt lat="48.614093" lon="10.139244">
        <ele>506.714100</ele>
        <time>2025-11-11T18:47:30.556Z</time>
      </trkpt>
      <trkpt lat="48.614245" lon="10.139496">
        <ele>505.758429</ele>
        <time>2025-11-11T18:47:32.747Z</time>
      </trkpt>
      <trkpt lat="48.614703" lon="10.140337">
        <ele>502.705897</ele>
        <time>2025-11-11T18:47:39.749Z</time>
      </trkpt>
      <trkpt lat="48.614901" lon="10.140739">
        <ele>501.301494</ele>
        <time>2025-11-11T18:47:43.025Z</time>
      </trkpt>
      <trkpt lat="48.615229" lon="10.141211">
        <ele>499.652781</ele>
        <time>2025-11-11T18:47:47.576Z</time>
      </trkpt>
      <trkpt lat="48.615335" lon="10.141326">
        <ele>499.191962</ele>
        <time>2025-11-11T18:47:48.872Z</time>
      </trkpt>
      <trkpt lat="48.615891" lon="10.142033">
        <ele>496.625993</ele>
        <time>2025-11-11T18:47:56.080Z</time>
      </trkpt>
      <trkpt lat="48.616001" lon="10.142197">
        <ele>496.080375</ele>
        <time>2025-11-11T18:47:57.612Z</time>
      </trkpt>
      <trkpt lat="48.616184" lon="10.142705">
        <ele>494.729278</ele>
        <time>2025-11-11T18:48:01.471Z</time>
      </trkpt>
      <trkpt lat="48.616553" lon="10.143937">
        <ele>491.865247</ele>
        <time>2025-11-11T18:48:10.501Z</time>
      </trkpt>
      <trkpt lat="48.616699" lon="10.144663">
        <ele>490.262613</ele>
        <time>2025-11-11T18:48:15.608Z</time>
      </trkpt>
      <trkpt lat="48.616760" lon="10.145078">
        <ele>489.364759</ele>
        <time>2025-11-11T18:48:18.482Z</time>
      </trkpt>
      <trkpt lat="48.616792" lon="10.145626">
        <ele>488.184030</ele>
        <time>2025-11-11T18:48:22.221Z</time>
      </trkpt>
      <trkpt lat="48.616695" lon="10.146365">
        <ele>486.550015</ele>
        <time>2025-11-11T18:48:27.232Z</time>
      </trkpt>
      <trkpt lat="48.616686" lon="10.146567">
        <ele>486.110927</ele>
        <time>2025-11-11T18:48:28.557Z</time>
      </trkpt>
      <trkpt lat="48.616721" lon="10.146756">
        <ele>485.685249</ele>
        <time>2025-11-11T18:48:29.844Z</time>
      </trkpt>
      <trkpt lat="48.616810" lon="10.146982">
        <ele>485.114732</ele>
        <time>2025-11-11T18:48:31.595Z</time>
      </trkpt>
      <trkpt lat="48.617053" lon="10.147522">
        <ele>483.698022</ele>
        <time>2025-11-11T18:48:36.056Z</time>
      </trkpt>
      <trkpt lat="48.617330" lon="10.148039">
        <ele>482.288123</ele>
        <time>2025-11-11T18:48:40.463Z</time>
      </trkpt>
      <trkpt lat="48.617534" lon="10.148495">
        <ele>481.147175</ele>
        <time>2025-11-11T18:48:44.079Z</time>
      </trkpt>
      <trkpt lat="48.617575" lon="10.148739">
        <ele>480.625484</ele>
        <time>2025-11-11T18:48:46.452Z</time>
      </trkpt>
      <trkpt lat="48.617661" lon="10.148898">
        <ele>480.199781</ele>
        <time>2025-11-11T18:48:48.408Z</time>
      </trkpt>
      <trkpt lat="48.617548" lon="10.149073">
        <ele>479.692867</ele>
        <time>2025-11-11T18:48:50.024Z</time>
      </trkpt>
      <trkpt lat="48.617412" lon="10.149262">
        <ele>479.113977</ele>
        <time>2025-11-11T18:48:51.911Z</time>
      </trkpt>
      <trkpt lat="48.617298" lon="10.149473">
        <ele>478.549297</ele>
        <time>2025-11-11T18:48:53.793Z</time>
      </trkpt>
      <trkpt lat="48.617252" lon="10.149638">
        <ele>478.178225</ele>
        <time>2025-11-11T18:48:55.031Z</time>
      </trkpt>
      <trkpt lat="48.617229" lon="10.149872">
        <ele>477.688000</ele>
        <time>2025-11-11T18:48:56.657Z</time>
      </trkpt>
      <trkpt lat="48.617250" lon="10.150094">
        <ele>477.277984</ele>
        <time>2025-11-11T18:48:58.194Z</time>
      </trkpt>
      <trkpt lat="48.617290" lon="10.150531">
        <ele>476.714141</ele>
        <time>2025-11-11T18:49:01.227Z</time>
      </trkpt>
      <trkpt lat="48.617373" lon="10.151071">
        <ele>476.005578</ele>
        <time>2025-11-11T18:49:05.187Z</time>
      </trkpt>
      <trkpt lat="48.617492" lon="10.151408">
        <ele>475.517278</ele>
        <time>2025-11-11T18:49:07.891Z</time>
      </trkpt>
      <trkpt lat="48.617742" lon="10.151782">
        <ele>474.837516</ele>
        <time>2025-11-11T18:49:11.768Z</time>
      </trkpt>
      <trkpt lat="48.617846" lon="10.151832">
        <ele>474.626544</ele>
        <time>2025-11-11T18:49:13.019Z</time>
      </trkpt>
      <trkpt lat="48.618045" lon="10.151882">
        <ele>474.236550</ele>
        <time>2025-11-11T18:49:15.459Z</time>
      </trkpt>
      <trkpt lat="48.618209" lon="10.151953">
        <ele>473.906762</ele>
        <time>2025-11-11T18:49:17.593Z</time>
      </trkpt>
      <trkpt lat="48.618260" lon="10.152023">
        <ele>473.853390</ele>
        <time>2025-11-11T18:49:18.470Z</time>
      </trkpt>
      <trkpt lat="48.618391" lon="10.152226">
        <ele>473.742082</ele>
        <time>2025-11-11T18:49:20.905Z</time>
      </trkpt>
      <trkpt lat="48.618643" lon="10.152804">
        <ele>473.470417</ele>
        <time>2025-11-11T18:49:26.821Z</time>
      </trkpt>
      <trkpt lat="48.618710" lon="10.152895">
        <ele>473.416973</ele>
        <time>2025-11-11T18:49:27.977Z</time>
      </trkpt>
      <trkpt lat="48.618787" lon="10.152999">
        <ele>473.355706</ele>
        <time>2025-11-11T18:49:29.310Z</time>
      </trkpt>
      <trkpt lat="48.619006" lon="10.152954">
        <ele>473.224530</ele>
        <time>2025-11-11T18:49:32.217Z</time>
      </trkpt>
      <trkpt lat="48.619186" lon="10.152918">
        <ele>473.116766</ele>
        <time>2025-11-11T18:49:34.686Z</time>
      </trkpt>
      <trkpt lat="48.619299" lon="10.152949">
        <ele>473.048603</ele>
        <time>2025-11-11T18:49:36.284Z</time>
      </trkpt>
      <trkpt lat="48.619385" lon="10.153011">
        <ele>472.992060</ele>
        <time>2025-11-11T18:49:37.582Z</time>
      </trkpt>
      <trkpt lat="48.619494" lon="10.153189">
        <ele>472.896861</ele>
        <time>2025-11-11T18:49:39.838Z</time>
      </trkpt>
      <trkpt lat="48.619561" lon="10.153552">
        <ele>472.759381</ele>
        <time>2025-11-11T18:49:43.392Z</time>
      </trkpt>
      <trkpt lat="48.619638" lon="10.154155">
        <ele>472.553103</ele>
        <time>2025-11-11T18:49:48.737Z</time>
      </trkpt>
      <trkpt lat="48.619659" lon="10.154310">
        <ele>472.499960</ele>
        <time>2025-11-11T18:49:50.062Z</time>
      </trkpt>
      <trkpt lat="48.619694" lon="10.154629">
        <ele>472.391350</ele>
        <time>2025-11-11T18:49:52.733Z</time>
      </trkpt>
      <trkpt lat="48.619699" lon="10.154702">
        <ele>472.366699</ele>
        <time>2025-11-11T18:49:53.345Z</time>
      </trkpt>
      <trkpt lat="48.619705" lon="10.154812">
        <ele>472.329628</ele>
        <time>2025-11-11T18:49:54.250Z</time>
      </trkpt>
      <trkpt lat="48.619712" lon="10.154946">
        <ele>472.284480</ele>
        <time>2025-11-11T18:49:55.359Z</time>
      </trkpt>
      <trkpt lat="48.619764" lon="10.155864">
        <ele>471.975016</ele>
        <time>2025-11-11T18:50:03.223Z</time>
      </trkpt>
      <trkpt lat="48.619852" lon="10.156708">
        <ele>472.521300</ele>
        <time>2025-11-11T18:50:11.292Z</time>
      </trkpt>
      <trkpt lat="48.619988" lon="10.157602">
        <ele>473.384061</ele>
        <time>2025-11-11T18:50:21.962Z</time>
      </trkpt>
      <trkpt lat="48.620099" lon="10.158336">
        <ele>474.092202</ele>
        <time>2025-11-11T18:50:33.416Z</time>
      </trkpt>
      <trkpt lat="48.620258" lon="10.159483">
        <ele>476.972304</ele>
        <time>2025-11-11T18:50:56.967Z</time>
      </trkpt>
      <trkpt lat="48.620331" lon="10.159852">
        <ele>478.219024</ele>
        <time>2025-11-11T18:51:05.963Z</time>
      </trkpt>
      <trkpt lat="48.620773" lon="10.160502">
        <ele>481.237369</ele>
        <time>2025-11-11T18:51:28.350Z</time>
      </trkpt>
      <trkpt lat="48.621190" lon="10.160985">
        <ele>483.834421</ele>
        <time>2025-11-11T18:51:48.044Z</time>
      </trkpt>
      <trkpt lat="48.621389" lon="10.161279">
        <ele>485.261095</ele>
        <time>2025-11-11T18:51:59.422Z</time>
      </trkpt>
      <trkpt lat="48.621563" lon="10.161647">
        <ele>486.795111</ele>
        <time>2025-11-11T18:52:11.128Z</time>
      </trkpt>
      <trkpt lat="48.621594" lon="10.161951">
        <ele>487.838001</ele>
        <time>2025-11-11T18:52:19.105Z</time>
      </trkpt>
      <trkpt lat="48.621598" lon="10.161999">
        <ele>488.002031</ele>
        <time>2025-11-11T18:52:20.378Z</time>
      </trkpt>
      <trkpt lat="48.621697" lon="10.162174">
        <ele>488.782976</ele>
        <time>2025-11-11T18:52:25.962Z</time>
      </trkpt>
      <trkpt lat="48.621770" lon="10.162303">
        <ele>489.358720</ele>
        <time>2025-11-11T18:52:29.560Z</time>
      </trkpt>
      <trkpt lat="48.621954" lon="10.162859">
        <ele>491.466845</ele>
        <time>2025-11-11T18:52:41.500Z</time>
      </trkpt>
      <trkpt lat="48.622019" lon="10.163055">
        <ele>492.210309</ele>
        <time>2025-11-11T18:52:46.258Z</time>
      </trkpt>
      <trkpt lat="48.622097" lon="10.163291">
        <ele>492.695834</ele>
        <time>2025-11-11T18:52:52.079Z</time>
      </trkpt>
      <trkpt lat="48.622151" lon="10.163443">
        <ele>492.886160</ele>
        <time>2025-11-11T18:52:56.149Z</time>
      </trkpt>
      <trkpt lat="48.622165" lon="10.163483">
        <ele>492.936080</ele>
        <time>2025-11-11T18:52:57.078Z</time>
      </trkpt>
      <trkpt lat="48.622218" lon="10.163627">
        <ele>493.117863</ele>
        <time>2025-11-11T18:53:00.745Z</time>
      </trkpt>
      <trkpt lat="48.622242" lon="10.163690">
        <ele>493.198062</ele>
        <time>2025-11-11T18:53:02.042Z</time>
      </trkpt>
      <trkpt lat="48.622277" lon="10.163764">
        <ele>493.298420</ele>
        <time>2025-11-11T18:53:03.956Z</time>
      </trkpt>
      <trkpt lat="48.622360" lon="10.163858">
        <ele>493.471417</ele>
        <time>2025-11-11T18:53:06.443Z</time>
      </trkpt>
      <trkpt lat="48.622351" lon="10.164026">
        <ele>493.657318</ele>
        <time>2025-11-11T18:53:09.427Z</time>
      </trkpt>
      <trkpt lat="48.622391" lon="10.164171">
        <ele>493.830612</ele>
        <time>2025-11-11T18:53:11.922Z</time>
      </trkpt>
      <trkpt lat="48.622486" lon="10.164554">
        <ele>494.281797</ele>
        <time>2025-11-11T18:53:17.683Z</time>
      </trkpt>
      <trkpt lat="48.622637" lon="10.165029">
        <ele>494.863125</ele>
        <time>2025-11-11T18:53:23.247Z</time>
      </trkpt>
      <trkpt lat="48.622702" lon="10.165311">
        <ele>495.192518</ele>
        <time>2025-11-11T18:53:25.899Z</time>
      </trkpt>
      <trkpt lat="48.622826" lon="10.165916">
        <ele>494.344608</ele>
        <time>2025-11-11T18:53:31.958Z</time>
      </trkpt>
      <trkpt lat="48.622882" lon="10.166184">
        <ele>493.429778</ele>
        <time>2025-11-11T18:53:33.984Z</time>
      </trkpt>
      <trkpt lat="48.622976" lon="10.166581">
        <ele>492.057233</ele>
        <time>2025-11-11T18:53:36.720Z</time>
      </trkpt>
      <trkpt lat="48.622929" lon="10.167386">
        <ele>489.426931</ele>
        <time>2025-11-11T18:53:41.605Z</time>
      </trkpt>
      <trkpt lat="48.623001" lon="10.167876">
        <ele>487.793158</ele>
        <time>2025-11-11T18:53:44.558Z</time>
      </trkpt>
      <trkpt lat="48.623059" lon="10.168143">
        <ele>486.878408</ele>
        <time>2025-11-11T18:53:46.198Z</time>
      </trkpt>
      <trkpt lat="48.623152" lon="10.168412">
        <ele>485.499549</ele>
        <time>2025-11-11T18:53:47.974Z</time>
      </trkpt>
      <trkpt lat="48.623215" lon="10.168566">
        <ele>484.604134</ele>
        <time>2025-11-11T18:53:49.034Z</time>
      </trkpt>
      <trkpt lat="48.623250" lon="10.168654">
        <ele>484.096366</ele>
        <time>2025-11-11T18:53:49.640Z</time>
      </trkpt>
      <trkpt lat="48.623278" lon="10.168722">
        <ele>483.700271</ele>
        <time>2025-11-11T18:53:50.102Z</time>
      </trkpt>
      <trkpt lat="48.623302" lon="10.168791">
        <ele>483.314780</ele>
        <time>2025-11-11T18:53:50.557Z</time>
      </trkpt>
      <trkpt lat="48.623316" lon="10.168824">
        <ele>483.120912</ele>
        <time>2025-11-11T18:53:50.786Z</time>
      </trkpt>
      <trkpt lat="48.623481" lon="10.169229">
        <ele>480.768775</ele>
        <time>2025-11-11T18:53:53.521Z</time>
      </trkpt>
      <trkpt lat="48.623530" lon="10.169360">
        <ele>480.024593</ele>
        <time>2025-11-11T18:53:54.380Z</time>
      </trkpt>
      <trkpt lat="48.623610" lon="10.169575">
        <ele>478.804770</ele>
        <time>2025-11-11T18:53:55.797Z</time>
      </trkpt>
      <trkpt lat="48.623646" lon="10.169749">
        <ele>477.903345</ele>
        <time>2025-11-11T18:53:56.854Z</time>
      </trkpt>
      <trkpt lat="48.623502" lon="10.169752">
        <ele>476.826173</ele>
        <time>2025-11-11T18:53:58.142Z</time>
      </trkpt>
      <trkpt lat="48.623097" lon="10.169895">
        <ele>473.715501</ele>
        <time>2025-11-11T18:54:01.921Z</time>
      </trkpt>
      <trkpt lat="48.623038" lon="10.169914">
        <ele>473.264314</ele>
        <time>2025-11-11T18:54:02.480Z</time>
      </trkpt>
      <trkpt lat="48.622862" lon="10.169968">
        <ele>472.796486</ele>
        <time>2025-11-11T18:54:04.164Z</time>
      </trkpt>
      <trkpt lat="48.622796" lon="10.169992">
        <ele>472.639017</ele>
        <time>2025-11-11T18:54:04.817Z</time>
      </trkpt>
      <trkpt lat="48.622616" lon="10.170050">
        <ele>472.212083</ele>
        <time>2025-11-11T18:54:06.605Z</time>
      </trkpt>
      <trkpt lat="48.622358" lon="10.170135">
        <ele>471.599541</ele>
        <time>2025-11-11T18:54:09.233Z</time>
      </trkpt>
      <trkpt lat="48.621955" lon="10.170267">
        <ele>470.642992</ele>
        <time>2025-11-11T18:54:13.717Z</time>
      </trkpt>
      <trkpt lat="48.621927" lon="10.170276">
        <ele>470.576587</ele>
        <time>2025-11-11T18:54:14.069Z</time>
      </trkpt>
      <trkpt lat="48.621687" lon="10.170354">
        <ele>470.007127</ele>
        <time>2025-11-11T18:54:17.720Z</time>
      </trkpt>
      <trkpt lat="48.621598" lon="10.170385">
        <ele>469.795261</ele>
        <time>2025-11-11T18:54:19.339Z</time>
      </trkpt>
      <trkpt lat="48.621459" lon="10.170426">
        <ele>469.466734</ele>
        <time>2025-11-11T18:54:21.752Z</time>
      </trkpt>
      <trkpt lat="48.621424" lon="10.170437">
        <ele>469.383806</ele>
        <time>2025-11-11T18:54:22.319Z</time>
      </trkpt>
      <trkpt lat="48.621254" lon="10.170488">
        <ele>469.023798</ele>
        <time>2025-11-11T18:54:24.868Z</time>
      </trkpt>
      <trkpt lat="48.621020" lon="10.170559">
        <ele>469.120850</ele>
        <time>2025-11-11T18:54:28.293Z</time>
      </trkpt>
      <trkpt lat="48.620995" lon="10.170566">
        <ele>469.131189</ele>
        <time>2025-11-11T18:54:28.667Z</time>
      </trkpt>
      <trkpt lat="48.620802" lon="10.170625">
        <ele>469.211260</ele>
        <time>2025-11-11T18:54:31.745Z</time>
      </trkpt>
      <trkpt lat="48.620686" lon="10.170660">
        <ele>469.259362</ele>
        <time>2025-11-11T18:54:33.602Z</time>
      </trkpt>
      <trkpt lat="48.620593" lon="10.170696">
        <ele>469.298399</ele>
        <time>2025-11-11T18:54:35.176Z</time>
      </trkpt>
      <trkpt lat="48.620553" lon="10.170713">
        <ele>469.315295</ele>
        <time>2025-11-11T18:54:35.802Z</time>
      </trkpt>
      <trkpt lat="48.620500" lon="10.170736">
        <ele>469.337717</ele>
        <time>2025-11-11T18:54:36.688Z</time>
      </trkpt>
      <trkpt lat="48.620358" lon="10.170846">
        <ele>469.402593</ele>
        <time>2025-11-11T18:54:39.232Z</time>
      </trkpt>
      <trkpt lat="48.620235" lon="10.170883">
        <ele>469.453591</ele>
        <time>2025-11-11T18:54:41.271Z</time>
      </trkpt>
      <trkpt lat="48.620124" lon="10.170924">
        <ele>469.500056</ele>
        <time>2025-11-11T18:54:43.273Z</time>
      </trkpt>
      <trkpt lat="48.620052" lon="10.170862">
        <ele>469.533747</ele>
        <time>2025-11-11T18:54:44.783Z</time>
      </trkpt>
      <trkpt lat="48.620004" lon="10.170888">
        <ele>469.554480</ele>
        <time>2025-11-11T18:54:45.673Z</time>
      </trkpt>
      <trkpt lat="48.619976" lon="10.170953">
        <ele>469.575336</ele>
        <time>2025-11-11T18:54:46.535Z</time>
      </trkpt>
      <trkpt lat="48.619908" lon="10.170977">
        <ele>469.603731</ele>
        <time>2025-11-11T18:54:47.843Z</time>
      </trkpt>
      <trkpt lat="48.619736" lon="10.171051">
        <ele>469.676450</ele>
        <time>2025-11-11T18:54:51.048Z</time>
      </trkpt>
      <trkpt lat="48.619563" lon="10.171059">
        <ele>469.746834</ele>
        <time>2025-11-11T18:54:54.117Z</time>
      </trkpt>
      <trkpt lat="48.619376" lon="10.171107">
        <ele>469.721399</ele>
        <time>2025-11-11T18:54:57.433Z</time>
      </trkpt>
      <trkpt lat="48.619248" lon="10.171152">
        <ele>469.701766</ele>
        <time>2025-11-11T18:54:59.756Z</time>
      </trkpt>
      <trkpt lat="48.619111" lon="10.171227">
        <ele>469.679999</ele>
        <time>2025-11-11T18:55:02.331Z</time>
      </trkpt>
      <trkpt lat="48.618945" lon="10.171410">
        <ele>469.649312</ele>
        <time>2025-11-11T18:55:05.989Z</time>
      </trkpt>
      <trkpt lat="48.618787" lon="10.171755">
        <ele>469.607861</ele>
        <time>2025-11-11T18:55:10.427Z</time>
      </trkpt>
      <trkpt lat="48.618470" lon="10.172350">
        <ele>469.532387</ele>
        <time>2025-11-11T18:55:17.312Z</time>
      </trkpt>
      <trkpt lat="48.618401" lon="10.172475">
        <ele>469.516304</ele>
        <time>2025-11-11T18:55:18.654Z</time>
      </trkpt>
      <trkpt lat="48.618241" lon="10.172717">
        <ele>469.482500</ele>
        <time>2025-11-11T18:55:21.286Z</time>
      </trkpt>
      <trkpt lat="48.618133" lon="10.172899">
        <ele>469.342360</ele>
        <time>2025-11-11T18:55:23.087Z</time>
      </trkpt>
      <trkpt lat="48.618054" lon="10.173184">
        <ele>469.150133</ele>
        <time>2025-11-11T18:55:25.335Z</time>
      </trkpt>
      <trkpt lat="48.617826" lon="10.174490">
        <ele>468.309936</ele>
        <time>2025-11-11T18:55:35.548Z</time>
      </trkpt>
      <trkpt lat="48.617774" lon="10.174844">
        <ele>468.084372</ele>
        <time>2025-11-11T18:55:38.631Z</time>
      </trkpt>
      <trkpt lat="48.617765" lon="10.174897">
        <ele>468.050335</ele>
        <time>2025-11-11T18:55:39.120Z</time>
      </trkpt>
      <trkpt lat="48.617727" lon="10.175211">
        <ele>467.851777</ele>
        <time>2025-11-11T18:55:42.254Z</time>
      </trkpt>
      <trkpt lat="48.617721" lon="10.175273">
        <ele>467.812801</ele>
        <time>2025-11-11T18:55:42.944Z</time>
      </trkpt>
      <trkpt lat="48.617701" lon="10.175560">
        <ele>467.889486</ele>
        <time>2025-11-11T18:55:46.337Z</time>
      </trkpt>
      <trkpt lat="48.617680" lon="10.175915">
        <ele>468.035203</ele>
        <time>2025-11-11T18:55:50.848Z</time>
      </trkpt>
      <trkpt lat="48.617646" lon="10.176592">
        <ele>468.312781</ele>
        <time>2025-11-11T18:55:59.163Z</time>
      </trkpt>
      <trkpt lat="48.617642" lon="10.176637">
        <ele>468.331344</ele>
        <time>2025-11-11T18:55:59.702Z</time>
      </trkpt>
      <trkpt lat="48.617621" lon="10.176869">
        <ele>468.427079</ele>
        <time>2025-11-11T18:56:02.455Z</time>
      </trkpt>
      <trkpt lat="48.617604" lon="10.177020">
        <ele>468.489702</ele>
        <time>2025-11-11T18:56:04.260Z</time>
      </trkpt>
      <trkpt lat="48.617601" lon="10.177048">
        <ele>468.501299</ele>
        <time>2025-11-11T18:56:04.595Z</time>
      </trkpt>
      <trkpt lat="48.617587" lon="10.177131">
        <ele>468.536319</ele>
        <time>2025-11-11T18:56:05.627Z</time>
      </trkpt>
      <trkpt lat="48.617616" lon="10.177254">
        <ele>468.589708</ele>
        <time>2025-11-11T18:56:07.147Z</time>
      </trkpt>
      <trkpt lat="48.617531" lon="10.177228">
        <ele>468.643339</ele>
        <time>2025-11-11T18:56:08.698Z</time>
      </trkpt>
      <trkpt lat="48.617323" lon="10.177066">
        <ele>468.788023</ele>
        <time>2025-11-11T18:56:12.870Z</time>
      </trkpt>
      <trkpt lat="48.617080" lon="10.176881">
        <ele>468.954198</ele>
        <time>2025-11-11T18:56:17.554Z</time>
      </trkpt>
      <trkpt lat="48.616949" lon="10.176798">
        <ele>469.038796</ele>
        <time>2025-11-11T18:56:19.902Z</time>
      </trkpt>
      <trkpt lat="48.616573" lon="10.176649">
        <ele>469.270317</ele>
        <time>2025-11-11T18:56:26.099Z</time>
      </trkpt>
      <trkpt lat="48.616377" lon="10.176591">
        <ele>469.389277</ele>
        <time>2025-11-11T18:56:29.034Z</time>
      </trkpt>
      <trkpt lat="48.616201" lon="10.176572">
        <ele>469.494377</ele>
        <time>2025-11-11T18:56:31.958Z</time>
      </trkpt>
      <trkpt lat="48.616016" lon="10.176538">
        <ele>469.605382</ele>
        <time>2025-11-11T18:56:35.360Z</time>
      </trkpt>
      <trkpt lat="48.615617" lon="10.176469">
        <ele>469.844593</ele>
        <time>2025-11-11T18:56:42.860Z</time>
      </trkpt>
      <trkpt lat="48.615325" lon="10.176484">
        <ele>470.026124</ele>
        <time>2025-11-11T18:56:48.177Z</time>
      </trkpt>
      <trkpt lat="48.615194" lon="10.176558">
        <ele>470.122701</ele>
        <time>2025-11-11T18:56:50.700Z</time>
      </trkpt>
      <trkpt lat="48.615050" lon="10.176693">
        <ele>470.239706</ele>
        <time>2025-11-11T18:56:53.786Z</time>
      </trkpt>
      <trkpt lat="48.614918" lon="10.176800">
        <ele>470.343136</ele>
        <time>2025-11-11T18:56:56.514Z</time>
      </trkpt>
      <trkpt lat="48.614243" lon="10.177044">
        <ele>470.822443</ele>
        <time>2025-11-11T18:57:08.873Z</time>
      </trkpt>
      <trkpt lat="48.613480" lon="10.177574">
        <ele>471.308442</ele>
        <time>2025-11-11T18:57:22.626Z</time>
      </trkpt>
      <trkpt lat="48.613220" lon="10.177741">
        <ele>471.406391</ele>
        <time>2025-11-11T18:57:27.566Z</time>
      </trkpt>
      <trkpt lat="48.612696" lon="10.177994">
        <ele>471.597124</ele>
        <time>2025-11-11T18:57:36.656Z</time>
      </trkpt>
      <trkpt lat="48.612359" lon="10.178027">
        <ele>471.714226</ele>
        <time>2025-11-11T18:57:41.669Z</time>
      </trkpt>
      <trkpt lat="48.611836" lon="10.177876">
        <ele>472.040608</ele>
        <time>2025-11-11T18:57:49.700Z</time>
      </trkpt>
      <trkpt lat="48.611561" lon="10.177906">
        <ele>472.357029</ele>
        <time>2025-11-11T18:57:54.459Z</time>
      </trkpt>
      <trkpt lat="48.610787" lon="10.178176">
        <ele>473.268621</ele>
        <time>2025-11-11T18:58:10.565Z</time>
      </trkpt>
      <trkpt lat="48.610331" lon="10.178433">
        <ele>473.827098</ele>
        <time>2025-11-11T18:58:21.277Z</time>
      </trkpt>
      <trkpt lat="48.609887" lon="10.178458">
        <ele>474.068019</ele>
        <time>2025-11-11T18:58:31.219Z</time>
      </trkpt>
      <trkpt lat="48.608807" lon="10.178305">
        <ele>474.543702</ele>
        <time>2025-11-11T18:58:47.929Z</time>
      </trkpt>
      <trkpt lat="48.608637" lon="10.178241">
        <ele>474.620526</ele>
        <time>2025-11-11T18:58:50.271Z</time>
      </trkpt>
      <trkpt lat="48.608337" lon="10.178039">
        <ele>474.557811</ele>
        <time>2025-11-11T18:58:54.753Z</time>
      </trkpt>
      <trkpt lat="48.607937" lon="10.177931">
        <ele>474.238932</ele>
        <time>2025-11-11T18:59:00.352Z</time>
      </trkpt>
      <trkpt lat="48.607551" lon="10.177704">
        <ele>473.913908</ele>
        <time>2025-11-11T18:59:05.544Z</time>
      </trkpt>
      <trkpt lat="48.607094" lon="10.177317">
        <ele>473.502864</ele>
        <time>2025-11-11T18:59:12.443Z</time>
      </trkpt>
      <trkpt lat="48.606518" lon="10.176645">
        <ele>472.505322</ele>
        <time>2025-11-11T18:59:20.658Z</time>
      </trkpt>
      <trkpt lat="48.606293" lon="10.176438">
        <ele>472.044468</ele>
        <time>2025-11-11T18:59:23.472Z</time>
      </trkpt>
      <trkpt lat="48.606142" lon="10.176331">
        <ele>471.752667</ele>
        <time>2025-11-11T18:59:25.245Z</time>
      </trkpt>
      <trkpt lat="48.605961" lon="10.176250">
        <ele>471.422362</ele>
        <time>2025-11-11T18:59:27.267Z</time>
      </trkpt>
      <trkpt lat="48.605835" lon="10.176234">
        <ele>471.201100</ele>
        <time>2025-11-11T18:59:28.648Z</time>
      </trkpt>
      <trkpt lat="48.605659" lon="10.176130">
        <ele>470.870445</ele>
        <time>2025-11-11T18:59:30.743Z</time>
      </trkpt>
      <trkpt lat="48.605578" lon="10.175982">
        <ele>470.648145</ele>
        <time>2025-11-11T18:59:32.176Z</time>
      </trkpt>
      <trkpt lat="48.605387" lon="10.175105">
        <ele>469.892571</ele>
        <time>2025-11-11T18:59:39.376Z</time>
      </trkpt>
      <trkpt lat="48.605302" lon="10.174897">
        <ele>469.770067</ele>
        <time>2025-11-11T18:59:41.405Z</time>
      </trkpt>
      <trkpt lat="48.605101" lon="10.174612">
        <ele>469.561305</ele>
        <time>2025-11-11T18:59:44.958Z</time>
      </trkpt>
      <trkpt lat="48.604904" lon="10.174481">
        <ele>469.398251</ele>
        <time>2025-11-11T18:59:47.765Z</time>
      </trkpt>
      <trkpt lat="48.604613" lon="10.174406">
        <ele>469.174588</ele>
        <time>2025-11-11T18:59:51.648Z</time>
      </trkpt>
      <trkpt lat="48.604333" lon="10.174453">
        <ele>468.961136</ele>
        <time>2025-11-11T18:59:55.473Z</time>
      </trkpt>
      <trkpt lat="48.603794" lon="10.174744">
        <ele>468.710836</ele>
        <time>2025-11-11T19:00:03.079Z</time>
      </trkpt>
      <trkpt lat="48.603374" lon="10.175067">
        <ele>468.625231</ele>
        <time>2025-11-11T19:00:09.254Z</time>
      </trkpt>
      <trkpt lat="48.603084" lon="10.175372">
        <ele>468.561056</ele>
        <time>2025-11-11T19:00:14.167Z</time>
      </trkpt>
      <trkpt lat="48.602671" lon="10.175562">
        <ele>468.482627</ele>
        <time>2025-11-11T19:00:20.955Z</time>
      </trkpt>
      <trkpt lat="48.602449" lon="10.175778">
        <ele>468.453840</ele>
        <time>2025-11-11T19:00:25.425Z</time>
      </trkpt>
      <trkpt lat="48.602357" lon="10.175909">
        <ele>468.491843</ele>
        <time>2025-11-11T19:00:27.396Z</time>
      </trkpt>
      <trkpt lat="48.602079" lon="10.176489">
        <ele>468.634302</ele>
        <time>2025-11-11T19:00:34.319Z</time>
      </trkpt>
      <trkpt lat="48.601825" lon="10.177124">
        <ele>468.781892</ele>
        <time>2025-11-11T19:00:42.367Z</time>
      </trkpt>
      <trkpt lat="48.601683" lon="10.177550">
        <ele>468.876767</ele>
        <time>2025-11-11T19:00:48.070Z</time>
      </trkpt>
      <trkpt lat="48.601644" lon="10.177653">
        <ele>468.900372</ele>
        <time>2025-11-11T19:00:49.474Z</time>
      </trkpt>
      <trkpt lat="48.601401" lon="10.178236">
        <ele>469.226674</ele>
        <time>2025-11-11T19:00:56.738Z</time>
      </trkpt>
      <trkpt lat="48.601300" lon="10.178408">
        <ele>469.430931</ele>
        <time>2025-11-11T19:00:58.905Z</time>
      </trkpt>
      <trkpt lat="48.601197" lon="10.178558">
        <ele>469.622949</ele>
        <time>2025-11-11T19:01:00.869Z</time>
      </trkpt>
      <trkpt lat="48.600920" lon="10.178834">
        <ele>470.068390</ele>
        <time>2025-11-11T19:01:05.875Z</time>
      </trkpt>
      <trkpt lat="48.600781" lon="10.179042">
        <ele>470.330979</ele>
        <time>2025-11-11T19:01:09.309Z</time>
      </trkpt>
      <trkpt lat="48.600661" lon="10.179292">
        <ele>470.605293</ele>
        <time>2025-11-11T19:01:13.125Z</time>
      </trkpt>
      <trkpt lat="48.600482" lon="10.179814">
        <ele>471.127441</ele>
        <time>2025-11-11T19:01:21.037Z</time>
      </trkpt>
      <trkpt lat="48.600385" lon="10.180176">
        <ele>471.892284</ele>
        <time>2025-11-11T19:01:27.847Z</time>
      </trkpt>
      <trkpt lat="48.600235" lon="10.181184">
        <ele>477.838776</ele>
        <time>2025-11-11T19:01:54.524Z</time>
      </trkpt>
      <trkpt lat="48.600162" lon="10.181416">
        <ele>479.317468</ele>
        <time>2025-11-11T19:02:03.599Z</time>
      </trkpt>
      <trkpt lat="48.600072" lon="10.181607">
        <ele>480.667260</ele>
        <time>2025-11-11T19:02:12.402Z</time>
      </trkpt>
      <trkpt lat="48.600031" lon="10.181695">
        <ele>481.286810</ele>
        <time>2025-11-11T19:02:16.593Z</time>
      </trkpt>
      <trkpt lat="48.599939" lon="10.181873">
        <ele>482.587047</ele>
        <time>2025-11-11T19:02:25.605Z</time>
      </trkpt>
      <trkpt lat="48.599720" lon="10.182257">
        <ele>485.505469</ele>
        <time>2025-11-11T19:02:46.936Z</time>
      </trkpt>
      <trkpt lat="48.599726" lon="10.182858">
        <ele>489.381810</ele>
        <time>2025-11-11T19:03:13.836Z</time>
      </trkpt>
      <trkpt lat="48.599652" lon="10.183664">
        <ele>495.085784</ele>
        <time>2025-11-11T19:03:49.117Z</time>
      </trkpt>
      <trkpt lat="48.599655" lon="10.184431">
        <ele>500.462292</ele>
        <time>2025-11-11T19:04:17.188Z</time>
      </trkpt>
      <trkpt lat="48.599583" lon="10.184632">
        <ele>502.064649</ele>
        <time>2025-11-11T19:04:24.850Z</time>
      </trkpt>
      <trkpt lat="48.599503" lon="10.184936">
        <ele>504.358110</ele>
        <time>2025-11-11T19:04:35.894Z</time>
      </trkpt>
      <trkpt lat="48.599488" lon="10.185387">
        <ele>507.017790</ele>
        <time>2025-11-11T19:04:50.661Z</time>
      </trkpt>
      <trkpt lat="48.599537" lon="10.185992">
        <ele>509.754714</ele>
        <time>2025-11-11T19:05:08.606Z</time>
      </trkpt>
      <trkpt lat="48.599604" lon="10.186559">
        <ele>512.341031</ele>
        <time>2025-11-11T19:05:25.486Z</time>
      </trkpt>
      <trkpt lat="48.599646" lon="10.186736">
        <ele>513.185425</ele>
        <time>2025-11-11T19:05:30.805Z</time>
      </trkpt>
      <trkpt lat="48.599336" lon="10.186784">
        <ele>515.301303</ele>
        <time>2025-11-11T19:05:43.780Z</time>
      </trkpt>
      <trkpt lat="48.599313" lon="10.186924">
        <ele>515.949054</ele>
        <time>2025-11-11T19:05:47.489Z</time>
      </trkpt>
      <trkpt lat="48.599292" lon="10.187129">
        <ele>516.880546</ele>
        <time>2025-11-11T19:05:52.920Z</time>
      </trkpt>
      <trkpt lat="48.599293" lon="10.187315">
        <ele>517.715771</ele>
        <time>2025-11-11T19:05:57.604Z</time>
      </trkpt>
      <trkpt lat="48.599291" lon="10.187505">
        <ele>518.399612</ele>
        <time>2025-11-11T19:06:02.049Z</time>
      </trkpt>
      <trkpt lat="48.599292" lon="10.187610">
        <ele>518.538130</ele>
        <time>2025-11-11T19:06:04.174Z</time>
      </trkpt>
      <trkpt lat="48.599287" lon="10.187879">
        <ele>518.893103</ele>
        <time>2025-11-11T19:06:09.542Z</time>
      </trkpt>
      <trkpt lat="48.599274" lon="10.188043">
        <ele>519.110981</ele>
        <time>2025-11-11T19:06:12.507Z</time>
      </trkpt>
      <trkpt lat="48.599262" lon="10.188165">
        <ele>519.273680</ele>
        <time>2025-11-11T19:06:14.684Z</time>
      </trkpt>
      <trkpt lat="48.599194" lon="10.188373">
        <ele>519.579744</ele>
        <time>2025-11-11T19:06:18.677Z</time>
      </trkpt>
      <trkpt lat="48.599125" lon="10.188581">
        <ele>519.886697</ele>
        <time>2025-11-11T19:06:22.669Z</time>
      </trkpt>
      <trkpt lat="48.599393" lon="10.188784">
        <ele>520.484572</ele>
        <time>2025-11-11T19:06:29.451Z</time>
      </trkpt>
      <trkpt lat="48.601292" lon="10.190270">
        <ele>521.617756</ele>
        <time>2025-11-11T19:09:18.457Z</time>
      </trkpt>
      <trkpt lat="48.602104" lon="10.190905">
        <ele>521.039573</ele>
        <time>2025-11-11T19:10:29.050Z</time>
      </trkpt>
      <trkpt lat="48.601609" lon="10.193381">
        <ele>519.107250</ele>
        <time>2025-11-11T19:10:49.573Z</time>
      </trkpt>
      <trkpt lat="48.601701" lon="10.193799">
        <ele>518.614502</ele>
        <time>2025-11-11T19:10:52.929Z</time>
      </trkpt>
      <trkpt lat="48.602027" lon="10.194143">
        <ele>517.942137</ele>
        <time>2025-11-11T19:10:57.466Z</time>
      </trkpt>
      <trkpt lat="48.603839" lon="10.195677">
        <ele>512.824299</ele>
        <time>2025-11-11T19:11:19.924Z</time>
      </trkpt>
      <trkpt lat="48.604677" lon="10.196354">
        <ele>508.397056</ele>
        <time>2025-11-11T19:11:32.944Z</time>
      </trkpt>
      <trkpt lat="48.604777" lon="10.196492">
        <ele>507.597679</ele>
        <time>2025-11-11T19:11:34.715Z</time>
      </trkpt>
      <trkpt lat="48.604837" lon="10.196644">
        <ele>506.906483</ele>
        <time>2025-11-11T19:11:36.232Z</time>
      </trkpt>
      <trkpt lat="48.604872" lon="10.196846">
        <ele>506.091138</ele>
        <time>2025-11-11T19:11:38.020Z</time>
      </trkpt>
      <trkpt lat="48.604602" lon="10.198821">
        <ele>498.286697</ele>
        <time>2025-11-11T19:11:55.141Z</time>
      </trkpt>
      <trkpt lat="48.604571" lon="10.199205">
        <ele>496.812727</ele>
        <time>2025-11-11T19:11:58.479Z</time>
      </trkpt>
      <trkpt lat="48.604578" lon="10.199416">
        <ele>496.007768</ele>
        <time>2025-11-11T19:12:00.313Z</time>
      </trkpt>
      <trkpt lat="48.604608" lon="10.199533">
        <ele>495.529636</ele>
        <time>2025-11-11T19:12:01.406Z</time>
      </trkpt>
      <trkpt lat="48.603976" lon="10.200357">
        <ele>490.728847</ele>
        <time>2025-11-11T19:12:09.280Z</time>
      </trkpt>
      <trkpt lat="48.603646" lon="10.200679">
        <ele>488.983632</ele>
        <time>2025-11-11T19:12:13.073Z</time>
      </trkpt>
      <trkpt lat="48.603018" lon="10.201079">
        <ele>485.955494</ele>
        <time>2025-11-11T19:12:19.638Z</time>
      </trkpt>
      <trkpt lat="48.601054" lon="10.202132">
        <ele>477.124719</ele>
        <time>2025-11-11T19:12:39.706Z</time>
      </trkpt>
      <trkpt lat="48.600167" lon="10.202577">
        <ele>473.628263</ele>
        <time>2025-11-11T19:12:48.984Z</time>
      </trkpt>
      <trkpt lat="48.599662" lon="10.202831">
        <ele>471.815951</ele>
        <time>2025-11-11T19:12:54.434Z</time>
      </trkpt>
      <trkpt lat="48.599179" lon="10.203007">
        <ele>470.124107</ele>
        <time>2025-11-11T19:12:59.469Z</time>
      </trkpt>
      <trkpt lat="48.598367" lon="10.203204">
        <ele>467.438948</ele>
        <time>2025-11-11T19:13:07.594Z</time>
      </trkpt>
      <trkpt lat="48.598222" lon="10.203211">
        <ele>466.975146</ele>
        <time>2025-11-11T19:13:09.023Z</time>
      </trkpt>
      <trkpt lat="48.598051" lon="10.203178">
        <ele>466.424024</ele>
        <time>2025-11-11T19:13:10.737Z</time>
      </trkpt>
      <trkpt lat="48.597366" lon="10.202936">
        <ele>464.175099</ele>
        <time>2025-11-11T19:13:17.866Z</time>
      </trkpt>
      <trkpt lat="48.597155" lon="10.202944">
        <ele>463.500319</ele>
        <time>2025-11-11T19:13:20.031Z</time>
      </trkpt>
      <trkpt lat="48.596925" lon="10.202980">
        <ele>463.506867</ele>
        <time>2025-11-11T19:13:22.537Z</time>
      </trkpt>
      <trkpt lat="48.596809" lon="10.202998">
        <ele>463.532734</ele>
        <time>2025-11-11T19:13:23.838Z</time>
      </trkpt>
      <trkpt lat="48.596779" lon="10.203003">
        <ele>463.539429</ele>
        <time>2025-11-11T19:13:24.171Z</time>
      </trkpt>
      <trkpt lat="48.596421" lon="10.203049">
        <ele>463.619130</ele>
        <time>2025-11-11T19:13:28.782Z</time>
      </trkpt>
      <trkpt lat="48.595701" lon="10.203140">
        <ele>463.779404</ele>
        <time>2025-11-11T19:13:42.071Z</time>
      </trkpt>
      <trkpt lat="48.595402" lon="10.203216">
        <ele>463.846661</ele>
        <time>2025-11-11T19:13:48.791Z</time>
      </trkpt>
      <trkpt lat="48.595339" lon="10.203227">
        <ele>463.875048</ele>
        <time>2025-11-11T19:13:50.384Z</time>
      </trkpt>
      <trkpt lat="48.595058" lon="10.203317">
        <ele>464.218477</ele>
        <time>2025-11-11T19:13:58.120Z</time>
      </trkpt>
      <trkpt lat="48.594941" lon="10.203341">
        <ele>464.359648</ele>
        <time>2025-11-11T19:14:01.547Z</time>
      </trkpt>
      <trkpt lat="48.594634" lon="10.203481">
        <ele>464.743040</ele>
        <time>2025-11-11T19:14:11.395Z</time>
      </trkpt>
      <trkpt lat="48.594025" lon="10.203864">
        <ele>465.531659</ele>
        <time>2025-11-11T19:14:24.876Z</time>
      </trkpt>
      <trkpt lat="48.593731" lon="10.204043">
        <ele>465.910606</ele>
        <time>2025-11-11T19:14:28.618Z</time>
      </trkpt>
      <trkpt lat="48.593592" lon="10.204198">
        <ele>465.764923</ele>
        <time>2025-11-11T19:14:30.552Z</time>
      </trkpt>
      <trkpt lat="48.593479" lon="10.204349">
        <ele>465.363276</ele>
        <time>2025-11-11T19:14:32.192Z</time>
      </trkpt>
      <trkpt lat="48.593360" lon="10.204527">
        <ele>464.917453</ele>
        <time>2025-11-11T19:14:33.936Z</time>
      </trkpt>
      <trkpt lat="48.593116" lon="10.204793">
        <ele>464.116300</ele>
        <time>2025-11-11T19:14:37.002Z</time>
      </trkpt>
      <trkpt lat="48.592904" lon="10.204943">
        <ele>463.492914</ele>
        <time>2025-11-11T19:14:39.352Z</time>
      </trkpt>
      <trkpt lat="48.592308" lon="10.205212">
        <ele>461.836372</ele>
        <time>2025-11-11T19:14:45.435Z</time>
      </trkpt>
      <trkpt lat="48.592165" lon="10.205265">
        <ele>461.444244</ele>
        <time>2025-11-11T19:14:46.945Z</time>
      </trkpt>
      <trkpt lat="48.592019" lon="10.205331">
        <ele>461.135385</ele>
        <time>2025-11-11T19:14:48.613Z</time>
      </trkpt>
      <trkpt lat="48.591835" lon="10.205410">
        <ele>460.901563</ele>
        <time>2025-11-11T19:14:50.899Z</time>
      </trkpt>
      <trkpt lat="48.591556" lon="10.205548">
        <ele>460.542716</ele>
        <time>2025-11-11T19:14:54.629Z</time>
      </trkpt>
      <trkpt lat="48.591306" lon="10.205622">
        <ele>460.231306</ele>
        <time>2025-11-11T19:14:57.930Z</time>
      </trkpt>
      <trkpt lat="48.591105" lon="10.205610">
        <ele>459.985405</ele>
        <time>2025-11-11T19:15:00.496Z</time>
      </trkpt>
      <trkpt lat="48.590680" lon="10.205571">
        <ele>459.464914</ele>
        <time>2025-11-11T19:15:05.484Z</time>
      </trkpt>
      <trkpt lat="48.590376" lon="10.205635">
        <ele>459.089709</ele>
        <time>2025-11-11T19:15:09.110Z</time>
      </trkpt>
      <trkpt lat="48.590069" lon="10.205700">
        <ele>459.201434</ele>
        <time>2025-11-11T19:15:13.216Z</time>
      </trkpt>
      <trkpt lat="48.589283" lon="10.205789">
        <ele>459.771955</ele>
        <time>2025-11-11T19:15:24.918Z</time>
      </trkpt>
      <trkpt lat="48.588739" lon="10.205868">
        <ele>460.167529</ele>
        <time>2025-11-11T19:15:36.901Z</time>
      </trkpt>
      <trkpt lat="48.587537" lon="10.206074">
        <ele>462.275628</ele>
        <time>2025-11-11T19:16:07.044Z</time>
      </trkpt>
      <trkpt lat="48.587028" lon="10.206255">
        <ele>463.299942</ele>
        <time>2025-11-11T19:16:18.005Z</time>
      </trkpt>
      <trkpt lat="48.586543" lon="10.206502">
        <ele>464.439369</ele>
        <time>2025-11-11T19:16:27.154Z</time>
      </trkpt>
      <trkpt lat="48.585394" lon="10.207231">
        <ele>467.609595</ele>
        <time>2025-11-11T19:16:58.174Z</time>
      </trkpt>
      <trkpt lat="48.584775" lon="10.207710">
        <ele>469.182055</ele>
        <time>2025-11-11T19:17:19.931Z</time>
      </trkpt>
      <trkpt lat="48.584488" lon="10.207954">
        <ele>469.847860</ele>
        <time>2025-11-11T19:17:29.342Z</time>
      </trkpt>
      <trkpt lat="48.584269" lon="10.208179">
        <ele>470.383277</ele>
        <time>2025-11-11T19:17:36.419Z</time>
      </trkpt>
      <trkpt lat="48.584143" lon="10.208318">
        <ele>470.698681</ele>
        <time>2025-11-11T19:17:40.207Z</time>
      </trkpt>
      <trkpt lat="48.583892" lon="10.208598">
        <ele>471.329444</ele>
        <time>2025-11-11T19:17:46.136Z</time>
      </trkpt>
      <trkpt lat="48.583381" lon="10.209251">
        <ele>471.280398</ele>
        <time>2025-11-11T19:17:54.647Z</time>
      </trkpt>
      <trkpt lat="48.583134" lon="10.209671">
        <ele>470.346476</ele>
        <time>2025-11-11T19:17:59.304Z</time>
      </trkpt>
      <trkpt lat="48.582954" lon="10.210061">
        <ele>469.556191</ele>
        <time>2025-11-11T19:18:03.008Z</time>
      </trkpt>
      <trkpt lat="48.582740" lon="10.210711">
        <ele>468.349583</ele>
        <time>2025-11-11T19:18:07.812Z</time>
      </trkpt>
      <trkpt lat="48.582492" lon="10.211595">
        <ele>465.670931</ele>
        <time>2025-11-11T19:18:13.746Z</time>
      </trkpt>
      <trkpt lat="48.582223" lon="10.212284">
        <ele>462.506931</ele>
        <time>2025-11-11T19:18:18.461Z</time>
      </trkpt>
      <trkpt lat="48.581609" lon="10.213341">
        <ele>456.943864</ele>
        <time>2025-11-11T19:18:26.838Z</time>
      </trkpt>
      <trkpt lat="48.581171" lon="10.212787">
        <ele>455.892979</ele>
        <time>2025-11-11T19:18:32.784Z</time>
      </trkpt>
      <trkpt lat="48.580861" lon="10.212457">
        <ele>455.271282</ele>
        <time>2025-11-11T19:18:37.372Z</time>
      </trkpt>
      <trkpt lat="48.580622" lon="10.212271">
        <ele>454.830509</ele>
        <time>2025-11-11T19:18:41.024Z</time>
      </trkpt>
      <trkpt lat="48.580235" lon="10.212029">
        <ele>454.143798</ele>
        <time>2025-11-11T19:18:47.092Z</time>
      </trkpt>
      <trkpt lat="48.579602" lon="10.211729">
        <ele>453.858810</ele>
        <time>2025-11-11T19:18:57.024Z</time>
      </trkpt>
      <trkpt lat="48.579216" lon="10.211624">
        <ele>453.876796</ele>
        <time>2025-11-11T19:19:02.566Z</time>
      </trkpt>
      <trkpt lat="48.578331" lon="10.211441">
        <ele>453.917758</ele>
        <time>2025-11-11T19:19:15.772Z</time>
      </trkpt>
      <trkpt lat="48.578098" lon="10.211315">
        <ele>453.980423</ele>
        <time>2025-11-11T19:19:20.020Z</time>
      </trkpt>
      <trkpt lat="48.577841" lon="10.211084">
        <ele>454.067022</ele>
        <time>2025-11-11T19:19:25.091Z</time>
      </trkpt>
      <trkpt lat="48.577668" lon="10.210781">
        <ele>454.143712</ele>
        <time>2025-11-11T19:19:29.400Z</time>
      </trkpt>
      <trkpt lat="48.577470" lon="10.210202">
        <ele>454.268600</ele>
        <time>2025-11-11T19:19:36.133Z</time>
      </trkpt>
      <trkpt lat="48.577331" lon="10.209807">
        <ele>454.354328</ele>
        <time>2025-11-11T19:19:40.670Z</time>
      </trkpt>
      <trkpt lat="48.577063" lon="10.209276">
        <ele>454.619663</ele>
        <time>2025-11-11T19:19:47.557Z</time>
      </trkpt>
      <trkpt lat="48.576444" lon="10.208390">
        <ele>455.675489</ele>
        <time>2025-11-11T19:20:02.928Z</time>
      </trkpt>
      <trkpt lat="48.576177" lon="10.208053">
        <ele>456.106303</ele>
        <time>2025-11-11T19:20:11.131Z</time>
      </trkpt>
      <trkpt lat="48.575657" lon="10.207465">
        <ele>457.082307</ele>
        <time>2025-11-11T19:20:25.545Z</time>
      </trkpt>
      <trkpt lat="48.575357" lon="10.207152">
        <ele>457.853270</ele>
        <time>2025-11-11T19:20:34.016Z</time>
      </trkpt>
      <trkpt lat="48.575214" lon="10.207009">
        <ele>458.215907</ele>
        <time>2025-11-11T19:20:38.179Z</time>
      </trkpt>
      <trkpt lat="48.575086" lon="10.206924">
        <ele>458.511594</ele>
        <time>2025-11-11T19:20:41.606Z</time>
      </trkpt>
      <trkpt lat="48.574591" lon="10.206704">
        <ele>459.602802</ele>
        <time>2025-11-11T19:20:54.047Z</time>
      </trkpt>
      <trkpt lat="48.574023" lon="10.206358">
        <ele>460.647252</ele>
        <time>2025-11-11T19:21:07.688Z</time>
      </trkpt>
      <trkpt lat="48.573826" lon="10.206283">
        <ele>460.824049</ele>
        <time>2025-11-11T19:21:12.601Z</time>
      </trkpt>
      <trkpt lat="48.573004" lon="10.206169">
        <ele>461.542408</ele>
        <time>2025-11-11T19:21:30.609Z</time>
      </trkpt>
      <trkpt lat="48.571938" lon="10.206075">
        <ele>462.463201</ele>
        <time>2025-11-11T19:21:43.217Z</time>
      </trkpt>
      <trkpt lat="48.571829" lon="10.206056">
        <ele>462.556824</ele>
        <time>2025-11-11T19:21:44.788Z</time>
      </trkpt>
      <trkpt lat="48.571246" lon="10.205833">
        <ele>463.069965</ele>
        <time>2025-11-11T19:21:55.767Z</time>
      </trkpt>
      <trkpt lat="48.570825" lon="10.205621">
        <ele>463.448607</ele>
        <time>2025-11-11T19:22:05.984Z</time>
      </trkpt>
      <trkpt lat="48.570666" lon="10.205598">
        <ele>463.593684</ele>
        <time>2025-11-11T19:22:09.991Z</time>
      </trkpt>
      <trkpt lat="48.570553" lon="10.205630">
        <ele>463.758407</ele>
        <time>2025-11-11T19:22:13.150Z</time>
      </trkpt>
      <trkpt lat="48.570386" lon="10.205753">
        <ele>464.024586</ele>
        <time>2025-11-11T19:22:18.658Z</time>
      </trkpt>
      <trkpt lat="48.570036" lon="10.206214">
        <ele>464.689795</ele>
        <time>2025-11-11T19:22:33.748Z</time>
      </trkpt>
      <trkpt lat="48.569910" lon="10.206402">
        <ele>464.943490</ele>
        <time>2025-11-11T19:22:37.989Z</time>
      </trkpt>
      <trkpt lat="48.569511" lon="10.207309">
        <ele>465.976096</ele>
        <time>2025-11-11T19:22:48.553Z</time>
      </trkpt>
      <trkpt lat="48.568937" lon="10.208451">
        <ele>464.765741</ele>
        <time>2025-11-11T19:22:59.104Z</time>
      </trkpt>
      <trkpt lat="48.568684" lon="10.209157">
        <ele>463.878436</ele>
        <time>2025-11-11T19:23:04.871Z</time>
      </trkpt>
      <trkpt lat="48.568341" lon="10.210704">
        <ele>462.299969</ele>
        <time>2025-11-11T19:23:17.228Z</time>
      </trkpt>
      <trkpt lat="48.568215" lon="10.211037">
        <ele>461.965054</ele>
        <time>2025-11-11T19:23:20.190Z</time>
      </trkpt>
      <trkpt lat="48.568121" lon="10.211176">
        <ele>461.791529</ele>
        <time>2025-11-11T19:23:21.733Z</time>
      </trkpt>
      <trkpt lat="48.567996" lon="10.211284">
        <ele>461.601549</ele>
        <time>2025-11-11T19:23:23.439Z</time>
      </trkpt>
      <trkpt lat="48.567817" lon="10.211348">
        <ele>461.358852</ele>
        <time>2025-11-11T19:23:25.622Z</time>
      </trkpt>
      <trkpt lat="48.567503" lon="10.211260">
        <ele>460.937490</ele>
        <time>2025-11-11T19:23:29.495Z</time>
      </trkpt>
      <trkpt lat="48.567372" lon="10.211144">
        <ele>460.745904</ele>
        <time>2025-11-11T19:23:31.370Z</time>
      </trkpt>
      <trkpt lat="48.567324" lon="10.211058">
        <ele>460.672387</ele>
        <time>2025-11-11T19:23:32.287Z</time>
      </trkpt>
      <trkpt lat="48.567287" lon="10.210682">
        <ele>460.423988</ele>
        <time>2025-11-11T19:23:35.396Z</time>
      </trkpt>
      <trkpt lat="48.567285" lon="10.209475">
        <ele>459.635271</ele>
        <time>2025-11-11T19:23:45.345Z</time>
      </trkpt>
      <trkpt lat="48.567342" lon="10.208301">
        <ele>458.984518</ele>
        <time>2025-11-11T19:23:54.665Z</time>
      </trkpt>
      <trkpt lat="48.567311" lon="10.208058">
        <ele>458.970447</ele>
        <time>2025-11-11T19:23:56.685Z</time>
      </trkpt>
      <trkpt lat="48.567271" lon="10.207944">
        <ele>458.963110</ele>
        <time>2025-11-11T19:23:57.732Z</time>
      </trkpt>
      <trkpt lat="48.567222" lon="10.207859">
        <ele>458.956700</ele>
        <time>2025-11-11T19:23:58.667Z</time>
      </trkpt>
      <trkpt lat="48.567154" lon="10.207807">
        <ele>458.950152</ele>
        <time>2025-11-11T19:23:59.622Z</time>
      </trkpt>
      <trkpt lat="48.566964" lon="10.207765">
        <ele>458.933652</ele>
        <time>2025-11-11T19:24:02.029Z</time>
      </trkpt>
      <trkpt lat="48.566709" lon="10.207826">
        <ele>458.911469</ele>
        <time>2025-11-11T19:24:05.288Z</time>
      </trkpt>
      <trkpt lat="48.566282" lon="10.208009">
        <ele>458.873332</ele>
        <time>2025-11-11T19:24:11.360Z</time>
      </trkpt>
      <trkpt lat="48.565796" lon="10.208303">
        <ele>459.493321</ele>
        <time>2025-11-11T19:24:21.014Z</time>
      </trkpt>
      <trkpt lat="48.565676" lon="10.208379">
        <ele>460.058007</ele>
        <time>2025-11-11T19:24:24.528Z</time>
      </trkpt>
      <trkpt lat="48.564956" lon="10.209013">
        <ele>463.674599</ele>
        <time>2025-11-11T19:24:51.877Z</time>
      </trkpt>
      <trkpt lat="48.564850" lon="10.209069">
        <ele>464.161939</ele>
        <time>2025-11-11T19:24:55.984Z</time>
      </trkpt>
      <trkpt lat="48.564699" lon="10.209074">
        <ele>464.817430</ele>
        <time>2025-11-11T19:25:01.718Z</time>
      </trkpt>
      <trkpt lat="48.564537" lon="10.208908">
        <ele>465.666909</ele>
        <time>2025-11-11T19:25:09.389Z</time>
      </trkpt>
      <trkpt lat="48.563921" lon="10.207652">
        <ele>469.812976</ele>
        <time>2025-11-11T19:25:50.267Z</time>
      </trkpt>
      <trkpt lat="48.563738" lon="10.207147">
        <ele>471.304553</ele>
        <time>2025-11-11T19:26:02.104Z</time>
      </trkpt>
      <trkpt lat="48.563698" lon="10.206898">
        <ele>471.968361</ele>
        <time>2025-11-11T19:26:06.697Z</time>
      </trkpt>
      <trkpt lat="48.563713" lon="10.205679">
        <ele>473.249406</ele>
        <time>2025-11-11T19:26:21.685Z</time>
      </trkpt>
      <trkpt lat="48.563848" lon="10.204191">
        <ele>472.062189</ele>
        <time>2025-11-11T19:26:32.606Z</time>
      </trkpt>
      <trkpt lat="48.563860" lon="10.203720">
        <ele>471.689604</ele>
        <time>2025-11-11T19:26:35.908Z</time>
      </trkpt>
      <trkpt lat="48.563759" lon="10.202289">
        <ele>470.253111</ele>
        <time>2025-11-11T19:26:46.628Z</time>
      </trkpt>
      <trkpt lat="48.563758" lon="10.202031">
        <ele>469.987459</ele>
        <time>2025-11-11T19:26:48.712Z</time>
      </trkpt>
      <trkpt lat="48.563756" lon="10.201550">
        <ele>469.492193</ele>
        <time>2025-11-11T19:26:52.608Z</time>
      </trkpt>
      <trkpt lat="48.563821" lon="10.199459">
        <ele>467.202308</ele>
        <time>2025-11-11T19:27:08.545Z</time>
      </trkpt>
      <trkpt lat="48.563857" lon="10.199137">
        <ele>466.833863</ele>
        <time>2025-11-11T19:27:10.943Z</time>
      </trkpt>
      <trkpt lat="48.564216" lon="10.197396">
        <ele>465.290699</ele>
        <time>2025-11-11T19:27:24.193Z</time>
      </trkpt>
      <trkpt lat="48.564256" lon="10.196792">
        <ele>464.997746</ele>
        <time>2025-11-11T19:27:28.944Z</time>
      </trkpt>
      <trkpt lat="48.564211" lon="10.196144">
        <ele>464.683296</ele>
        <time>2025-11-11T19:27:35.024Z</time>
      </trkpt>
      <trkpt lat="48.564097" lon="10.195665">
        <ele>464.437630</ele>
        <time>2025-11-11T19:27:40.823Z</time>
      </trkpt>
      <trkpt lat="48.563977" lon="10.195342">
        <ele>464.471019</ele>
        <time>2025-11-11T19:27:45.172Z</time>
      </trkpt>
      <trkpt lat="48.563793" lon="10.195001">
        <ele>464.689510</ele>
        <time>2025-11-11T19:27:50.395Z</time>
      </trkpt>
      <trkpt lat="48.563630" lon="10.194832">
        <ele>464.837845</ele>
        <time>2025-11-11T19:27:53.975Z</time>
      </trkpt>
      <trkpt lat="48.563486" lon="10.194735">
        <ele>464.956150</ele>
        <time>2025-11-11T19:27:56.838Z</time>
      </trkpt>
      <trkpt lat="48.563246" lon="10.194683">
        <ele>465.138083</ele>
        <time>2025-11-11T19:28:01.227Z</time>
      </trkpt>
      <trkpt lat="48.563071" lon="10.194712">
        <ele>465.270187</ele>
        <time>2025-11-11T19:28:04.447Z</time>
      </trkpt>
      <trkpt lat="48.562689" lon="10.194835">
        <ele>465.563268</ele>
        <time>2025-11-11T19:28:11.447Z</time>
      </trkpt>
      <trkpt lat="48.562438" lon="10.194971">
        <ele>465.773449</ele>
        <time>2025-11-11T19:28:15.953Z</time>
      </trkpt>
      <trkpt lat="48.562202" lon="10.195054">
        <ele>465.991780</ele>
        <time>2025-11-11T19:28:20.084Z</time>
      </trkpt>
      <trkpt lat="48.561584" lon="10.195182">
        <ele>466.553835</ele>
        <time>2025-11-11T19:28:32.023Z</time>
      </trkpt>
      <trkpt lat="48.561310" lon="10.195151">
        <ele>466.801413</ele>
        <time>2025-11-11T19:28:37.228Z</time>
      </trkpt>
      <trkpt lat="48.560966" lon="10.194906">
        <ele>467.144080</ele>
        <time>2025-11-11T19:28:44.109Z</time>
      </trkpt>
      <trkpt lat="48.559965" lon="10.193683">
        <ele>469.439432</ele>
        <time>2025-11-11T19:29:08.452Z</time>
      </trkpt>
      <trkpt lat="48.559887" lon="10.193501">
        <ele>469.720052</ele>
        <time>2025-11-11T19:29:11.937Z</time>
      </trkpt>
      <trkpt lat="48.559869" lon="10.193445">
        <ele>469.800623</ele>
        <time>2025-11-11T19:29:12.922Z</time>
      </trkpt>
      <trkpt lat="48.559773" lon="10.193492">
        <ele>469.997960</ele>
        <time>2025-11-11T19:29:15.630Z</time>
      </trkpt>
      <trkpt lat="48.559668" lon="10.193497">
        <ele>470.203388</ele>
        <time>2025-11-11T19:29:18.464Z</time>
      </trkpt>
      <trkpt lat="48.559148" lon="10.193428">
        <ele>471.330112</ele>
        <time>2025-11-11T19:29:34.039Z</time>
      </trkpt>
      <trkpt lat="48.558776" lon="10.193434">
        <ele>472.264151</ele>
        <time>2025-11-11T19:29:45.621Z</time>
      </trkpt>
      <trkpt lat="48.558625" lon="10.193490">
        <ele>472.654522</ele>
        <time>2025-11-11T19:29:50.231Z</time>
      </trkpt>
      <trkpt lat="48.558483" lon="10.193605">
        <ele>473.059029</ele>
        <time>2025-11-11T19:29:54.680Z</time>
      </trkpt>
      <trkpt lat="48.558366" lon="10.193777">
        <ele>473.468886</ele>
        <time>2025-11-11T19:29:58.872Z</time>
      </trkpt>
      <trkpt lat="48.558259" lon="10.194069">
        <ele>474.023517</ele>
        <time>2025-11-11T19:30:04.083Z</time>
      </trkpt>
      <trkpt lat="48.558167" lon="10.194367">
        <ele>474.569938</ele>
        <time>2025-11-11T19:30:08.746Z</time>
      </trkpt>
      <trkpt lat="48.557991" lon="10.195127">
        <ele>475.508690</ele>
        <time>2025-11-11T19:30:17.903Z</time>
      </trkpt>
      <trkpt lat="48.557611" lon="10.196582">
        <ele>476.190009</ele>
        <time>2025-11-11T19:30:35.456Z</time>
      </trkpt>
      <trkpt lat="48.557532" lon="10.197112">
        <ele>476.426647</ele>
        <time>2025-11-11T19:30:42.215Z</time>
      </trkpt>
      <trkpt lat="48.557378" lon="10.197808">
        <ele>476.383162</ele>
        <time>2025-11-11T19:30:50.410Z</time>
      </trkpt>
      <trkpt lat="48.557257" lon="10.198390">
        <ele>476.155917</ele>
        <time>2025-11-11T19:30:56.290Z</time>
      </trkpt>
      <trkpt lat="48.557231" lon="10.198697">
        <ele>476.040624</ele>
        <time>2025-11-11T19:30:58.968Z</time>
      </trkpt>
      <trkpt lat="48.557256" lon="10.200391">
        <ele>475.683387</ele>
        <time>2025-11-11T19:31:11.776Z</time>
      </trkpt>
      <trkpt lat="48.557255" lon="10.202806">
        <ele>476.812602</ele>
        <time>2025-11-11T19:31:39.256Z</time>
      </trkpt>
      <trkpt lat="48.556073" lon="10.202310">
        <ele>482.542885</ele>
        <time>2025-11-11T19:32:20.995Z</time>
      </trkpt>
      <trkpt lat="48.555959" lon="10.202214">
        <ele>483.152526</ele>
        <time>2025-11-11T19:32:26.435Z</time>
      </trkpt>
      <trkpt lat="48.555889" lon="10.202218">
        <ele>483.479739</ele>
        <time>2025-11-11T19:32:29.253Z</time>
      </trkpt>
      <trkpt lat="48.555001" lon="10.201670">
        <ele>487.013701</ele>
        <time>2025-11-11T19:33:06.848Z</time>
      </trkpt>
      <trkpt lat="48.554718" lon="10.201356">
        <ele>488.114700</ele>
        <time>2025-11-11T19:33:17.013Z</time>
      </trkpt>
      <trkpt lat="48.554687" lon="10.201296">
        <ele>488.272678</ele>
        <time>2025-11-11T19:33:18.302Z</time>
      </trkpt>
      <trkpt lat="48.554592" lon="10.201110">
        <ele>488.760295</ele>
        <time>2025-11-11T19:33:22.034Z</time>
      </trkpt>
      <trkpt lat="48.554493" lon="10.200910">
        <ele>489.278639</ele>
        <time>2025-11-11T19:33:25.568Z</time>
      </trkpt>
      <trkpt lat="48.553986" lon="10.201440">
        <ele>490.766249</ele>
        <time>2025-11-11T19:33:34.804Z</time>
      </trkpt>
      <trkpt lat="48.553072" lon="10.202488">
        <ele>491.102257</ele>
        <time>2025-11-11T19:33:50.266Z</time>
      </trkpt>
      <trkpt lat="48.552797" lon="10.202617">
        <ele>491.186579</ele>
        <time>2025-11-11T19:33:55.803Z</time>
      </trkpt>
      <trkpt lat="48.552513" lon="10.202683">
        <ele>491.373227</ele>
        <time>2025-11-11T19:34:01.716Z</time>
      </trkpt>
      <trkpt lat="48.551509" lon="10.202489">
        <ele>492.952966</ele>
        <time>2025-11-11T19:34:25.216Z</time>
      </trkpt>
      <trkpt lat="48.551181" lon="10.202475">
        <ele>493.465090</ele>
        <time>2025-11-11T19:34:31.798Z</time>
      </trkpt>
      <trkpt lat="48.550934" lon="10.202484">
        <ele>493.850702</ele>
        <time>2025-11-11T19:34:36.699Z</time>
      </trkpt>
      <trkpt lat="48.550804" lon="10.202503">
        <ele>494.054353</ele>
        <time>2025-11-11T19:34:39.325Z</time>
      </trkpt>
      <trkpt lat="48.550796" lon="10.202420">
        <ele>494.085403</ele>
        <time>2025-11-11T19:34:40.201Z</time>
      </trkpt>
      <trkpt lat="48.550715" lon="10.202229">
        <ele>494.169377</ele>
        <time>2025-11-11T19:34:43.071Z</time>
      </trkpt>
      <trkpt lat="48.550557" lon="10.202190">
        <ele>494.258909</ele>
        <time>2025-11-11T19:34:46.058Z</time>
      </trkpt>
      <trkpt lat="48.550319" lon="10.202240">
        <ele>494.393291</ele>
        <time>2025-11-11T19:34:50.422Z</time>
      </trkpt>
      <trkpt lat="48.549658" lon="10.202395">
        <ele>494.767381</ele>
        <time>2025-11-11T19:35:00.264Z</time>
      </trkpt>
      <trkpt lat="48.549500" lon="10.202444">
        <ele>494.857584</ele>
        <time>2025-11-11T19:35:02.898Z</time>
      </trkpt>
      <trkpt lat="48.549205" lon="10.202407">
        <ele>495.023130</ele>
        <time>2025-11-11T19:35:07.736Z</time>
      </trkpt>
      <trkpt lat="48.549020" lon="10.202293">
        <ele>495.266698</ele>
        <time>2025-11-11T19:35:11.199Z</time>
      </trkpt>
      <trkpt lat="48.548819" lon="10.202078">
        <ele>495.647392</ele>
        <time>2025-11-11T19:35:15.846Z</time>
      </trkpt>
      <trkpt lat="48.548457" lon="10.201527">
        <ele>496.441736</ele>
        <time>2025-11-11T19:35:26.612Z</time>
      </trkpt>
      <trkpt lat="48.548348" lon="10.201425">
        <ele>496.639929</ele>
        <time>2025-11-11T19:35:29.433Z</time>
      </trkpt>
      <trkpt lat="48.547741" lon="10.201144">
        <ele>497.621257</ele>
        <time>2025-11-11T19:35:44.129Z</time>
      </trkpt>
      <trkpt lat="48.546920" lon="10.200725">
        <ele>498.902756</ele>
        <time>2025-11-11T19:36:04.084Z</time>
      </trkpt>
      <trkpt lat="48.546755" lon="10.200672">
        <ele>499.150002</ele>
        <time>2025-11-11T19:36:07.613Z</time>
      </trkpt>
      <trkpt lat="48.546555" lon="10.200652">
        <ele>499.443782</ele>
        <time>2025-11-11T19:36:11.510Z</time>
      </trkpt>
      <trkpt lat="48.545881" lon="10.200724">
        <ele>500.434124</ele>
        <time>2025-11-11T19:36:24.132Z</time>
      </trkpt>
      <trkpt lat="48.545379" lon="10.200712">
        <ele>500.994496</ele>
        <time>2025-11-11T19:36:33.202Z</time>
      </trkpt>
      <trkpt lat="48.544583" lon="10.200499">
        <ele>501.879464</ele>
        <time>2025-11-11T19:36:47.918Z</time>
      </trkpt>
      <trkpt lat="48.544233" lon="10.200535">
        <ele>502.263504</ele>
        <time>2025-11-11T19:36:54.546Z</time>
      </trkpt>
      <trkpt lat="48.543115" lon="10.200352">
        <ele>504.712286</ele>
        <time>2025-11-11T19:37:20.878Z</time>
      </trkpt>
      <trkpt lat="48.542938" lon="10.200366">
        <ele>505.131566</ele>
        <time>2025-11-11T19:37:25.471Z</time>
      </trkpt>
      <trkpt lat="48.542813" lon="10.200419">
        <ele>505.438693</ele>
        <time>2025-11-11T19:37:28.919Z</time>
      </trkpt>
      <trkpt lat="48.542553" lon="10.200637">
        <ele>506.142152</ele>
        <time>2025-11-11T19:37:36.900Z</time>
      </trkpt>
      <trkpt lat="48.542229" lon="10.201091">
        <ele>506.963598</ele>
        <time>2025-11-11T19:37:48.648Z</time>
      </trkpt>
      <trkpt lat="48.541901" lon="10.201091">
        <ele>507.382709</ele>
        <time>2025-11-11T19:37:56.889Z</time>
      </trkpt>
      <trkpt lat="48.541493" lon="10.200981">
        <ele>507.912282</ele>
        <time>2025-11-11T19:38:06.044Z</time>
      </trkpt>
      <trkpt lat="48.539412" lon="10.200205">
        <ele>509.031984</ele>
        <time>2025-11-11T19:38:38.007Z</time>
      </trkpt>
      <trkpt lat="48.539029" lon="10.199979">
        <ele>509.042565</ele>
        <time>2025-11-11T19:38:43.704Z</time>
      </trkpt>
      <trkpt lat="48.538721" lon="10.199622">
        <ele>509.334943</ele>
        <time>2025-11-11T19:38:49.655Z</time>
      </trkpt>
      <trkpt lat="48.538472" lon="10.199227">
        <ele>509.691041</ele>
        <time>2025-11-11T19:38:55.948Z</time>
      </trkpt>
      <trkpt lat="48.538234" lon="10.198878">
        <ele>510.018160</ele>
        <time>2025-11-11T19:39:02.377Z</time>
      </trkpt>
      <trkpt lat="48.538007" lon="10.198616">
        <ele>510.299891</ele>
        <time>2025-11-11T19:39:08.313Z</time>
      </trkpt>
      <trkpt lat="48.537739" lon="10.198423">
        <ele>510.592676</ele>
        <time>2025-11-11T19:39:14.715Z</time>
      </trkpt>
      <trkpt lat="48.537557" lon="10.198337">
        <ele>510.780728</ele>
        <time>2025-11-11T19:39:18.968Z</time>
      </trkpt>
      <trkpt lat="48.536264" lon="10.197703">
        <ele>511.342833</ele>
        <time>2025-11-11T19:39:45.759Z</time>
      </trkpt>
      <trkpt lat="48.536239" lon="10.197690">
        <ele>511.353325</ele>
        <time>2025-11-11T19:39:46.110Z</time>
      </trkpt>
      <trkpt lat="48.536116" lon="10.197629">
        <ele>511.404696</ele>
        <time>2025-11-11T19:39:47.830Z</time>
      </trkpt>
      <trkpt lat="48.535725" lon="10.197414">
        <ele>511.211170</ele>
        <time>2025-11-11T19:39:52.780Z</time>
      </trkpt>
      <trkpt lat="48.534957" lon="10.196371">
        <ele>507.694760</ele>
        <time>2025-11-11T19:40:03.153Z</time>
      </trkpt>
      <trkpt lat="48.534746" lon="10.196130">
        <ele>506.794084</ele>
        <time>2025-11-11T19:40:05.647Z</time>
      </trkpt>
      <trkpt lat="48.533853" lon="10.195251">
        <ele>504.543692</ele>
        <time>2025-11-11T19:40:15.928Z</time>
      </trkpt>
      <trkpt lat="48.533378" lon="10.194899">
        <ele>503.849144</ele>
        <time>2025-11-11T19:40:22.018Z</time>
      </trkpt>
      <trkpt lat="48.532805" lon="10.194887">
        <ele>503.096908</ele>
        <time>2025-11-11T19:40:33.146Z</time>
      </trkpt>
      <trkpt lat="48.532223" lon="10.194859">
        <ele>504.081748</ele>
        <time>2025-11-11T19:40:49.853Z</time>
      </trkpt>
      <trkpt lat="48.531668" lon="10.194761">
        <ele>505.142123</ele>
        <time>2025-11-11T19:41:05.726Z</time>
      </trkpt>
      <trkpt lat="48.531512" lon="10.194693">
        <ele>505.450244</ele>
        <time>2025-11-11T19:41:09.715Z</time>
      </trkpt>
      <trkpt lat="48.531345" lon="10.194737">
        <ele>505.771940</ele>
        <time>2025-11-11T19:41:13.366Z</time>
      </trkpt>
      <trkpt lat="48.531236" lon="10.194812">
        <ele>505.999244</ele>
        <time>2025-11-11T19:41:15.642Z</time>
      </trkpt>
      <trkpt lat="48.531194" lon="10.194468">
        <ele>506.438818</ele>
        <time>2025-11-11T19:41:19.133Z</time>
      </trkpt>
      <trkpt lat="48.531176" lon="10.194315">
        <ele>506.125396</ele>
        <time>2025-11-11T19:41:20.476Z</time>
      </trkpt>
      <trkpt lat="48.531131" lon="10.193988">
        <ele>505.311772</ele>
        <time>2025-11-11T19:41:23.038Z</time>
      </trkpt>
      <trkpt lat="48.531093" lon="10.193705">
        <ele>504.608325</ele>
        <time>2025-11-11T19:41:25.059Z</time>
      </trkpt>
      <trkpt lat="48.531041" lon="10.193468">
        <ele>504.000103</ele>
        <time>2025-11-11T19:41:26.697Z</time>
      </trkpt>
      <trkpt lat="48.530982" lon="10.193195">
        <ele>503.300525</ele>
        <time>2025-11-11T19:41:28.506Z</time>
      </trkpt>
      <trkpt lat="48.530929" lon="10.192944">
        <ele>502.658729</ele>
        <time>2025-11-11T19:41:30.133Z</time>
      </trkpt>
      <trkpt lat="48.530797" lon="10.192613">
        <ele>501.717449</ele>
        <time>2025-11-11T19:41:32.493Z</time>
      </trkpt>
      <trkpt lat="48.530557" lon="10.192268">
        <ele>500.498482</ele>
        <time>2025-11-11T19:41:35.525Z</time>
      </trkpt>
      <trkpt lat="48.530394" lon="10.191852">
        <ele>499.696293</ele>
        <time>2025-11-11T19:41:38.524Z</time>
      </trkpt>
      <trkpt lat="48.530351" lon="10.191790">
        <ele>499.634451</ele>
        <time>2025-11-11T19:41:39.106Z</time>
      </trkpt>
      <trkpt lat="48.530329" lon="10.191759">
        <ele>499.603152</ele>
        <time>2025-11-11T19:41:39.400Z</time>
      </trkpt>
      <trkpt lat="48.530255" lon="10.191664">
        <ele>499.502122</ele>
        <time>2025-11-11T19:41:40.347Z</time>
      </trkpt>
      <trkpt lat="48.529837" lon="10.191493">
        <ele>499.051657</ele>
        <time>2025-11-11T19:41:44.880Z</time>
      </trkpt>
      <trkpt lat="48.529725" lon="10.191408">
        <ele>498.921271</ele>
        <time>2025-11-11T19:41:46.349Z</time>
      </trkpt>
      <trkpt lat="48.529588" lon="10.191121">
        <ele>498.677569</ele>
        <time>2025-11-11T19:41:49.581Z</time>
      </trkpt>
      <trkpt lat="48.529562" lon="10.190912">
        <ele>498.531084</ele>
        <time>2025-11-11T19:41:51.970Z</time>
      </trkpt>
      <trkpt lat="48.529569" lon="10.190462">
        <ele>498.221021</ele>
        <time>2025-11-11T19:41:58.154Z</time>
      </trkpt>
      <trkpt lat="48.529571" lon="10.190397">
        <ele>498.176198</ele>
        <time>2025-11-11T19:41:59.174Z</time>
      </trkpt>
      <trkpt lat="48.529604" lon="10.190138">
        <ele>497.994517</ele>
        <time>2025-11-11T19:42:03.501Z</time>
      </trkpt>
      <trkpt lat="48.529639" lon="10.189860">
        <ele>498.423850</ele>
        <time>2025-11-11T19:42:08.696Z</time>
      </trkpt>
      <trkpt lat="48.529651" lon="10.189622">
        <ele>498.850081</ele>
        <time>2025-11-11T19:42:13.279Z</time>
      </trkpt>
      <trkpt lat="48.529641" lon="10.189340">
        <ele>499.354376</ele>
        <time>2025-11-11T19:42:18.486Z</time>
      </trkpt>
      <trkpt lat="48.529582" lon="10.188514">
        <ele>500.837938</ele>
        <time>2025-11-11T19:42:33.406Z</time>
      </trkpt>
      <trkpt lat="48.529569" lon="10.188298">
        <ele>501.225244</ele>
        <time>2025-11-11T19:42:37.107Z</time>
      </trkpt>
      <trkpt lat="48.529555" lon="10.187985">
        <ele>501.785449</ele>
        <time>2025-11-11T19:42:42.160Z</time>
      </trkpt>
      <trkpt lat="48.529509" lon="10.187577">
        <ele>502.524508</ele>
        <time>2025-11-11T19:42:48.676Z</time>
      </trkpt>
      <trkpt lat="48.529425" lon="10.187283">
        <ele>503.117793</ele>
        <time>2025-11-11T19:42:53.835Z</time>
      </trkpt>
      <trkpt lat="48.529273" lon="10.186934">
        <ele>503.922500</ele>
        <time>2025-11-11T19:43:00.833Z</time>
      </trkpt>
      <trkpt lat="48.529418" lon="10.186779">
        <ele>504.439304</ele>
        <time>2025-11-11T19:43:05.340Z</time>
      </trkpt>
      <trkpt lat="48.529442" lon="10.186663">
        <ele>504.673425</ele>
        <time>2025-11-11T19:43:07.385Z</time>
      </trkpt>
      <trkpt lat="48.529429" lon="10.186082">
        <ele>505.793338</ele>
        <time>2025-11-11T19:43:17.404Z</time>
      </trkpt>
      <trkpt lat="48.529456" lon="10.185338">
        <ele>507.228775</ele>
        <time>2025-11-11T19:43:30.496Z</time>
      </trkpt>
      <trkpt lat="48.529455" lon="10.185265">
        <ele>507.369437</ele>
        <time>2025-11-11T19:43:31.769Z</time>
      </trkpt>
      <trkpt lat="48.529454" lon="10.184920">
        <ele>508.034072</ele>
        <time>2025-11-11T19:43:38.207Z</time>
      </trkpt>
      <trkpt lat="48.529453" lon="10.184767">
        <ele>508.371918</ele>
        <time>2025-11-11T19:43:41.212Z</time>
      </trkpt>
      <trkpt lat="48.529452" lon="10.184558">
        <ele>508.838079</ele>
        <time>2025-11-11T19:43:45.369Z</time>
      </trkpt>
      <trkpt lat="48.529424" lon="10.184000">
        <ele>510.086198</ele>
        <time>2025-11-11T19:43:56.706Z</time>
      </trkpt>
      <trkpt lat="48.529238" lon="10.182636">
        <ele>513.192266</ele>
        <time>2025-11-11T19:44:24.308Z</time>
      </trkpt>
      <trkpt lat="48.529200" lon="10.181822">
        <ele>514.299747</ele>
        <time>2025-11-11T19:44:38.193Z</time>
      </trkpt>
      <trkpt lat="48.529302" lon="10.180696">
        <ele>514.825023</ele>
        <time>2025-11-11T19:44:51.378Z</time>
      </trkpt>
      <trkpt lat="48.529526" lon="10.178816">
        <ele>515.884880</ele>
        <time>2025-11-11T19:45:08.134Z</time>
      </trkpt>
      <trkpt lat="48.529790" lon="10.176846">
        <ele>517.307245</ele>
        <time>2025-11-11T19:45:36.688Z</time>
      </trkpt>
      <trkpt lat="48.529921" lon="10.176435">
        <ele>517.769236</ele>
        <time>2025-11-11T19:45:43.913Z</time>
      </trkpt>
      <trkpt lat="48.530100" lon="10.175899">
        <ele>518.377250</ele>
        <time>2025-11-11T19:45:52.787Z</time>
      </trkpt>
      <trkpt lat="48.530131" lon="10.175045">
        <ele>519.243523</ele>
        <time>2025-11-11T19:46:04.438Z</time>
      </trkpt>
      <trkpt lat="48.530060" lon="10.174415">
        <ele>519.890793</ele>
        <time>2025-11-11T19:46:12.887Z</time>
      </trkpt>
      <trkpt lat="48.529758" lon="10.171864">
        <ele>521.238680</ele>
        <time>2025-11-11T19:46:44.774Z</time>
      </trkpt>
      <trkpt lat="48.529663" lon="10.171567">
        <ele>521.379842</ele>
        <time>2025-11-11T19:46:47.820Z</time>
      </trkpt>
      <trkpt lat="48.529657" lon="10.171456">
        <ele>521.399591</ele>
        <time>2025-11-11T19:46:48.821Z</time>
      </trkpt>
      <trkpt lat="48.530363" lon="10.171488">
        <ele>521.588726</ele>
        <time>2025-11-11T19:46:58.175Z</time>
      </trkpt>
      <trkpt lat="48.530635" lon="10.171579">
        <ele>521.663328</ele>
        <time>2025-11-11T19:47:02.078Z</time>
      </trkpt>
      <trkpt lat="48.530957" lon="10.171757">
        <ele>521.755147</ele>
        <time>2025-11-11T19:47:07.142Z</time>
      </trkpt>
      <trkpt lat="48.531036" lon="10.170285">
        <ele>523.471127</ele>
        <time>2025-11-11T19:47:28.015Z</time>
      </trkpt>
      <trkpt lat="48.531025" lon="10.169909">
        <ele>524.117179</ele>
        <time>2025-11-11T19:47:34.758Z</time>
      </trkpt>
      <trkpt lat="48.530972" lon="10.169134">
        <ele>525.454579</ele>
        <time>2025-11-11T19:47:49.167Z</time>
      </trkpt>
      <trkpt lat="48.530770" lon="10.167098">
        <ele>529.481962</ele>
        <time>2025-11-11T19:48:27.072Z</time>
      </trkpt>
      <trkpt lat="48.530726" lon="10.166684">
        <ele>530.345121</ele>
        <time>2025-11-11T19:48:34.636Z</time>
      </trkpt>
      <trkpt lat="48.530727" lon="10.166498">
        <ele>530.728030</ele>
        <time>2025-11-11T19:48:37.978Z</time>
      </trkpt>
      <trkpt lat="48.530762" lon="10.166104">
        <ele>531.546376</ele>
        <time>2025-11-11T19:48:45.071Z</time>
      </trkpt>
      <trkpt lat="48.531144" lon="10.163172">
        <ele>537.167199</ele>
        <time>2025-11-11T19:49:36.959Z</time>
      </trkpt>
      <trkpt lat="48.531307" lon="10.161409">
        <ele>540.057866</ele>
        <time>2025-11-11T19:50:05.335Z</time>
      </trkpt>
      <trkpt lat="48.531274" lon="10.161297">
        <ele>540.256931</ele>
        <time>2025-11-11T19:50:07.308Z</time>
      </trkpt>
      <trkpt lat="48.531116" lon="10.161281">
        <ele>540.645249</ele>
        <time>2025-11-11T19:50:11.215Z</time>
      </trkpt>
      <trkpt lat="48.530792" lon="10.161248">
        <ele>541.441569</ele>
        <time>2025-11-11T19:50:19.396Z</time>
      </trkpt>
      <trkpt lat="48.529917" lon="10.161234">
        <ele>542.728264</ele>
        <time>2025-11-11T19:50:41.326Z</time>
      </trkpt>
      <trkpt lat="48.529278" lon="10.161173">
        <ele>543.628011</ele>
        <time>2025-11-11T19:50:54.585Z</time>
      </trkpt>
      <trkpt lat="48.529489" lon="10.158271">
        <ele>542.622331</ele>
        <time>2025-11-11T19:51:18.663Z</time>
      </trkpt>
      <trkpt lat="48.529794" lon="10.153932">
        <ele>538.215670</ele>
        <time>2025-11-11T19:51:51.191Z</time>
      </trkpt>
      <trkpt lat="48.530056" lon="10.150282">
        <ele>535.215544</ele>
        <time>2025-11-11T19:52:20.795Z</time>
      </trkpt>
      <trkpt lat="48.530031" lon="10.150055">
        <ele>535.040360</ele>
        <time>2025-11-11T19:52:22.522Z</time>
      </trkpt>
      <trkpt lat="48.529810" lon="10.149219">
        <ele>533.617469</ele>
        <time>2025-11-11T19:52:29.379Z</time>
      </trkpt>
      <trkpt lat="48.529708" lon="10.148758">
        <ele>532.742658</ele>
        <time>2025-11-11T19:52:32.818Z</time>
      </trkpt>
      <trkpt lat="48.529673" lon="10.148497">
        <ele>532.263366</ele>
        <time>2025-11-11T19:52:34.610Z</time>
      </trkpt>
      <trkpt lat="48.529699" lon="10.147780">
        <ele>530.970949</ele>
        <time>2025-11-11T19:52:39.281Z</time>
      </trkpt>
      <trkpt lat="48.528964" lon="10.147632">
        <ele>529.454387</ele>
        <time>2025-11-11T19:52:46.781Z</time>
      </trkpt>
      <trkpt lat="48.528892" lon="10.147586">
        <ele>529.342667</ele>
        <time>2025-11-11T19:52:47.574Z</time>
      </trkpt>
      <trkpt lat="48.528773" lon="10.147312">
        <ele>529.032577</ele>
        <time>2025-11-11T19:52:49.745Z</time>
      </trkpt>
      <trkpt lat="48.528826" lon="10.147210">
        <ele>528.909882</ele>
        <time>2025-11-11T19:52:50.600Z</time>
      </trkpt>
      <trkpt lat="48.528938" lon="10.146938">
        <ele>528.606771</ele>
        <time>2025-11-11T19:52:52.726Z</time>
      </trkpt>
      <trkpt lat="48.529086" lon="10.146358">
        <ele>528.018547</ele>
        <time>2025-11-11T19:52:57.844Z</time>
      </trkpt>
      <trkpt lat="48.529118" lon="10.146240">
        <ele>527.897877</ele>
        <time>2025-11-11T19:52:59.199Z</time>
      </trkpt>
      <trkpt lat="48.529248" lon="10.145829">
        <ele>527.466838</ele>
        <time>2025-11-11T19:53:05.664Z</time>
      </trkpt>
      <trkpt lat="48.529350" lon="10.145616">
        <ele>527.856284</ele>
        <time>2025-11-11T19:53:10.207Z</time>
      </trkpt>
      <trkpt lat="48.529445" lon="10.145529">
        <ele>528.160226</ele>
        <time>2025-11-11T19:53:13.158Z</time>
      </trkpt>
      <trkpt lat="48.529616" lon="10.145493">
        <ele>528.632541</ele>
        <time>2025-11-11T19:53:17.807Z</time>
      </trkpt>
      <trkpt lat="48.529781" lon="10.145538">
        <ele>529.091220</ele>
        <time>2025-11-11T19:53:22.461Z</time>
      </trkpt>
      <trkpt lat="48.530585" lon="10.145732">
        <ele>531.318557</ele>
        <time>2025-11-11T19:53:47.236Z</time>
      </trkpt>
      <trkpt lat="48.530739" lon="10.145766">
        <ele>531.744321</ele>
        <time>2025-11-11T19:53:51.577Z</time>
      </trkpt>
      <trkpt lat="48.531395" lon="10.145891">
        <ele>531.589834</ele>
        <time>2025-11-11T19:54:05.534Z</time>
      </trkpt>
      <trkpt lat="48.531928" lon="10.145982">
        <ele>530.647743</ele>
        <time>2025-11-11T19:54:12.099Z</time>
      </trkpt>
      <trkpt lat="48.532204" lon="10.145990">
        <ele>530.162906</ele>
        <time>2025-11-11T19:54:14.916Z</time>
      </trkpt>
      <trkpt lat="48.532526" lon="10.145944">
        <ele>529.594841</ele>
        <time>2025-11-11T19:54:18.037Z</time>
      </trkpt>
      <trkpt lat="48.532895" lon="10.145765">
        <ele>528.317311</ele>
        <time>2025-11-11T19:54:21.654Z</time>
      </trkpt>
      <trkpt lat="48.533223" lon="10.145489">
        <ele>526.273479</ele>
        <time>2025-11-11T19:54:25.102Z</time>
      </trkpt>
      <trkpt lat="48.533716" lon="10.144931">
        <ele>522.919915</ele>
        <time>2025-11-11T19:54:30.704Z</time>
      </trkpt>
      <trkpt lat="48.534168" lon="10.144333">
        <ele>519.648971</ele>
        <time>2025-11-11T19:54:36.312Z</time>
      </trkpt>
      <trkpt lat="48.534479" lon="10.143758">
        <ele>517.925648</ele>
        <time>2025-11-11T19:54:41.135Z</time>
      </trkpt>
      <trkpt lat="48.534596" lon="10.143484">
        <ele>517.210272</ele>
        <time>2025-11-11T19:54:43.348Z</time>
      </trkpt>
      <trkpt lat="48.534700" lon="10.143201">
        <ele>516.500096</ele>
        <time>2025-11-11T19:54:45.581Z</time>
      </trkpt>
      <trkpt lat="48.534779" lon="10.142898">
        <ele>515.785576</ele>
        <time>2025-11-11T19:54:47.850Z</time>
      </trkpt>
      <trkpt lat="48.534970" lon="10.141818">
        <ele>513.311387</ele>
        <time>2025-11-11T19:54:55.615Z</time>
      </trkpt>
      <trkpt lat="48.535088" lon="10.141291">
        <ele>511.863793</ele>
        <time>2025-11-11T19:54:59.307Z</time>
      </trkpt>
      <trkpt lat="48.535311" lon="10.140568">
        <ele>509.788383</ele>
        <time>2025-11-11T19:55:04.435Z</time>
      </trkpt>
      <trkpt lat="48.535755" lon="10.139637">
        <ele>506.802912</ele>
        <time>2025-11-11T19:55:11.665Z</time>
      </trkpt>
      <trkpt lat="48.535972" lon="10.139306">
        <ele>505.709821</ele>
        <time>2025-11-11T19:55:14.672Z</time>
      </trkpt>
      <trkpt lat="48.536278" lon="10.138909">
        <ele>504.363533</ele>
        <time>2025-11-11T19:55:18.786Z</time>
      </trkpt>
      <trkpt lat="48.536679" lon="10.138496">
        <ele>502.743713</ele>
        <time>2025-11-11T19:55:23.764Z</time>
      </trkpt>
      <trkpt lat="48.536772" lon="10.138405">
        <ele>502.373896</ele>
        <time>2025-11-11T19:55:24.912Z</time>
      </trkpt>
      <trkpt lat="48.537066" lon="10.138201">
        <ele>501.294132</ele>
        <time>2025-11-11T19:55:28.218Z</time>
      </trkpt>
      <trkpt lat="48.538084" lon="10.137696">
        <ele>498.679293</ele>
        <time>2025-11-11T19:55:38.997Z</time>
      </trkpt>
      <trkpt lat="48.538179" lon="10.137594">
        <ele>498.430902</ele>
        <time>2025-11-11T19:55:40.172Z</time>
      </trkpt>
      <trkpt lat="48.538295" lon="10.137392">
        <ele>498.053617</ele>
        <time>2025-11-11T19:55:42.015Z</time>
      </trkpt>
      <trkpt lat="48.538371" lon="10.137199">
        <ele>497.736774</ele>
        <time>2025-11-11T19:55:43.640Z</time>
      </trkpt>
      <trkpt lat="48.538414" lon="10.136942">
        <ele>497.362752</ele>
        <time>2025-11-11T19:55:45.661Z</time>
      </trkpt>
      <trkpt lat="48.538395" lon="10.136473">
        <ele>496.699761</ele>
        <time>2025-11-11T19:55:49.711Z</time>
      </trkpt>
      <trkpt lat="48.538269" lon="10.135696">
        <ele>497.090738</ele>
        <time>2025-11-11T19:55:58.775Z</time>
      </trkpt>
      <trkpt lat="48.538243" lon="10.135388">
        <ele>497.336750</ele>
        <time>2025-11-11T19:56:03.169Z</time>
      </trkpt>
      <trkpt lat="48.538272" lon="10.135020">
        <ele>497.630383</ele>
        <time>2025-11-11T19:56:08.922Z</time>
      </trkpt>
      <trkpt lat="48.538297" lon="10.134643">
        <ele>497.930585</ele>
        <time>2025-11-11T19:56:14.765Z</time>
      </trkpt>
      <trkpt lat="48.538298" lon="10.134499">
        <ele>498.044686</ele>
        <time>2025-11-11T19:56:16.928Z</time>
      </trkpt>
      <trkpt lat="48.538379" lon="10.134456">
        <ele>498.147428</ele>
        <time>2025-11-11T19:56:18.831Z</time>
      </trkpt>
      <trkpt lat="48.538454" lon="10.134277">
        <ele>498.315265</ele>
        <time>2025-11-11T19:56:21.883Z</time>
      </trkpt>
      <trkpt lat="48.538595" lon="10.133803">
        <ele>498.722349</ele>
        <time>2025-11-11T19:56:28.929Z</time>
      </trkpt>
      <trkpt lat="48.538777" lon="10.133198">
        <ele>499.168536</ele>
        <time>2025-11-11T19:56:36.934Z</time>
      </trkpt>
      <trkpt lat="48.538778" lon="10.133197">
        <ele>499.169752</ele>
        <time>2025-11-11T19:56:36.952Z</time>
      </trkpt>
      <trkpt lat="48.538863" lon="10.132988">
        <ele>499.334443</ele>
        <time>2025-11-11T19:56:39.853Z</time>
      </trkpt>
      <trkpt lat="48.538968" lon="10.132805">
        <ele>499.497034</ele>
        <time>2025-11-11T19:56:42.728Z</time>
      </trkpt>
      <trkpt lat="48.539093" lon="10.132754">
        <ele>499.628340</ele>
        <time>2025-11-11T19:56:45.083Z</time>
      </trkpt>
      <trkpt lat="48.539128" lon="10.132629">
        <ele>499.719466</ele>
        <time>2025-11-11T19:56:46.719Z</time>
      </trkpt>
      <trkpt lat="48.539244" lon="10.131703">
        <ele>500.352249</ele>
        <time>2025-11-11T19:56:58.342Z</time>
      </trkpt>
      <trkpt lat="48.539278" lon="10.131394">
        <ele>500.604201</ele>
        <time>2025-11-11T19:57:02.326Z</time>
      </trkpt>
      <trkpt lat="48.539281" lon="10.131239">
        <ele>500.811546</ele>
        <time>2025-11-11T19:57:04.195Z</time>
      </trkpt>
      <trkpt lat="48.539249" lon="10.131027">
        <ele>501.102293</ele>
        <time>2025-11-11T19:57:06.913Z</time>
      </trkpt>
      <trkpt lat="48.539237" lon="10.130939">
        <ele>501.222431</ele>
        <time>2025-11-11T19:57:08.110Z</time>
      </trkpt>
      <trkpt lat="48.539177" lon="10.130538">
        <ele>501.772145</ele>
        <time>2025-11-11T19:57:13.677Z</time>
      </trkpt>
      <trkpt lat="48.539164" lon="10.130380">
        <ele>501.985039</ele>
        <time>2025-11-11T19:57:16.072Z</time>
      </trkpt>
      <trkpt lat="48.539138" lon="10.130120">
        <ele>502.336639</ele>
        <time>2025-11-11T19:57:20.056Z</time>
      </trkpt>
      <trkpt lat="48.539121" lon="10.129864">
        <ele>502.680665</ele>
        <time>2025-11-11T19:57:24.175Z</time>
      </trkpt>
      <trkpt lat="48.539098" lon="10.129531">
        <ele>503.128350</ele>
        <time>2025-11-11T19:57:29.846Z</time>
      </trkpt>
      <trkpt lat="48.539048" lon="10.129153">
        <ele>503.643778</ele>
        <time>2025-11-11T19:57:36.267Z</time>
      </trkpt>
      <trkpt lat="48.539033" lon="10.129040">
        <ele>503.797882</ele>
        <time>2025-11-11T19:57:38.252Z</time>
      </trkpt>
      <trkpt lat="48.538997" lon="10.128805">
        <ele>504.120412</ele>
        <time>2025-11-11T19:57:42.301Z</time>
      </trkpt>
      <trkpt lat="48.538948" lon="10.128278">
        <ele>505.000254</ele>
        <time>2025-11-11T19:57:51.380Z</time>
      </trkpt>
      <trkpt lat="48.538940" lon="10.128148">
        <ele>505.218091</ele>
        <time>2025-11-11T19:57:53.693Z</time>
      </trkpt>
      <trkpt lat="48.538930" lon="10.127990">
        <ele>505.482911</ele>
        <time>2025-11-11T19:57:56.436Z</time>
      </trkpt>
      <trkpt lat="48.538901" lon="10.127524">
        <ele>506.263846</ele>
        <time>2025-11-11T19:58:04.590Z</time>
      </trkpt>
      <trkpt lat="48.538562" lon="10.127462">
        <ele>507.124342</ele>
        <time>2025-11-11T19:58:13.203Z</time>
      </trkpt>
      <trkpt lat="48.538348" lon="10.127379">
        <ele>507.681104</ele>
        <time>2025-11-11T19:58:18.530Z</time>
      </trkpt>
      <trkpt lat="48.538327" lon="10.127237">
        <ele>507.923868</ele>
        <time>2025-11-11T19:58:20.760Z</time>
      </trkpt>
      <trkpt lat="48.538372" lon="10.126990">
        <ele>508.351301</ele>
        <time>2025-11-11T19:58:24.709Z</time>
      </trkpt>
      <trkpt lat="48.538055" lon="10.126836">
        <ele>509.035680</ele>
        <time>2025-11-11T19:58:32.418Z</time>
      </trkpt>
      <trkpt lat="48.538053" lon="10.126732">
        <ele>509.156082</ele>
        <time>2025-11-11T19:58:34.003Z</time>
      </trkpt>
      <trkpt lat="48.538000" lon="10.126631">
        <ele>509.305216</ele>
        <time>2025-11-11T19:58:35.970Z</time>
      </trkpt>
      <trkpt lat="48.537904" lon="10.126610">
        <ele>509.474751</ele>
        <time>2025-11-11T19:58:38.192Z</time>
      </trkpt>
      <trkpt lat="48.537852" lon="10.126652">
        <ele>509.577813</ele>
        <time>2025-11-11T19:58:39.585Z</time>
      </trkpt>
      <trkpt lat="48.537815" lon="10.126746">
        <ele>509.704363</ele>
        <time>2025-11-11T19:58:41.266Z</time>
      </trkpt>
      <trkpt lat="48.537816" lon="10.126840">
        <ele>509.813156</ele>
        <time>2025-11-11T19:58:42.696Z</time>
      </trkpt>
      <trkpt lat="48.537702" lon="10.126902">
        <ele>510.024923</ele>
        <time>2025-11-11T19:58:45.546Z</time>
      </trkpt>
      <trkpt lat="48.537641" lon="10.126936">
        <ele>510.138565</ele>
        <time>2025-11-11T19:58:47.101Z</time>
      </trkpt>
      <trkpt lat="48.537482" lon="10.127058">
        <ele>510.450263</ele>
        <time>2025-11-11T19:58:51.204Z</time>
      </trkpt>
      <trkpt lat="48.537361" lon="10.127079">
        <ele>510.663132</ele>
        <time>2025-11-11T19:58:53.943Z</time>
      </trkpt>
      <trkpt lat="48.536602" lon="10.127113">
        <ele>511.827856</ele>
        <time>2025-11-11T19:59:09.441Z</time>
      </trkpt>
      <trkpt lat="48.536389" lon="10.127122">
        <ele>511.825219</ele>
        <time>2025-11-11T19:59:13.286Z</time>
      </trkpt>
      <trkpt lat="48.536137" lon="10.127133">
        <ele>511.822099</ele>
        <time>2025-11-11T19:59:17.534Z</time>
      </trkpt>
      <trkpt lat="48.535844" lon="10.127146">
        <ele>511.818471</ele>
        <time>2025-11-11T19:59:21.975Z</time>
      </trkpt>
      <trkpt lat="48.533451" lon="10.127357">
        <ele>510.664221</ele>
        <time>2025-11-11T19:59:53.049Z</time>
      </trkpt>
      <trkpt lat="48.532222" lon="10.127434">
        <ele>509.384341</ele>
        <time>2025-11-11T20:00:07.409Z</time>
      </trkpt>
      <trkpt lat="48.530053" lon="10.126332">
        <ele>507.197542</ele>
        <time>2025-11-11T20:00:35.200Z</time>
      </trkpt>
      <trkpt lat="48.529427" lon="10.126060">
        <ele>506.885642</ele>
        <time>2025-11-11T20:00:43.963Z</time>
      </trkpt>
      <trkpt lat="48.529593" lon="10.128680">
        <ele>507.324509</ele>
        <time>2025-11-11T20:01:12.183Z</time>
      </trkpt>
      <trkpt lat="48.529619" lon="10.129931">
        <ele>507.946459</ele>
        <time>2025-11-11T20:01:26.997Z</time>
      </trkpt>
      <trkpt lat="48.529608" lon="10.130769">
        <ele>508.362958</ele>
        <time>2025-11-11T20:01:37.265Z</time>
      </trkpt>
      <trkpt lat="48.529571" lon="10.131427">
        <ele>508.750885</ele>
        <time>2025-11-11T20:01:45.407Z</time>
      </trkpt>
      <trkpt lat="48.529549" lon="10.131723">
        <ele>508.960976</ele>
        <time>2025-11-11T20:01:49.099Z</time>
      </trkpt>
      <trkpt lat="48.529380" lon="10.134317">
        <ele>510.827032</ele>
        <time>2025-11-11T20:02:22.399Z</time>
      </trkpt>
      <trkpt lat="48.529525" lon="10.136547">
        <ele>512.537537</ele>
        <time>2025-11-11T20:02:51.515Z</time>
      </trkpt>
      <trkpt lat="48.529720" lon="10.139276">
        <ele>513.532814</ele>
        <time>2025-11-11T20:03:25.098Z</time>
      </trkpt>
      <trkpt lat="48.528002" lon="10.139753">
        <ele>509.645072</ele>
        <time>2025-11-11T20:03:43.761Z</time>
      </trkpt>
      <trkpt lat="48.526408" lon="10.140473">
        <ele>502.494231</ele>
        <time>2025-11-11T20:03:59.642Z</time>
      </trkpt>
      <trkpt lat="48.526222" lon="10.140635">
        <ele>501.576606</ele>
        <time>2025-11-11T20:04:01.675Z</time>
      </trkpt>
      <trkpt lat="48.525095" lon="10.142023">
        <ele>495.704510</ele>
        <time>2025-11-11T20:04:15.678Z</time>
      </trkpt>
      <trkpt lat="48.524893" lon="10.142171">
        <ele>494.797967</ele>
        <time>2025-11-11T20:04:17.999Z</time>
      </trkpt>
      <trkpt lat="48.524207" lon="10.142553">
        <ele>492.880777</ele>
        <time>2025-11-11T20:04:25.724Z</time>
      </trkpt>
      <trkpt lat="48.524189" lon="10.142816">
        <ele>492.448991</ele>
        <time>2025-11-11T20:04:27.591Z</time>
      </trkpt>
      <trkpt lat="48.524046" lon="10.143164">
        <ele>491.780182</ele>
        <time>2025-11-11T20:04:30.528Z</time>
      </trkpt>
      <trkpt lat="48.523986" lon="10.143191">
        <ele>491.625807</ele>
        <time>2025-11-11T20:04:31.212Z</time>
      </trkpt>
      <trkpt lat="48.523775" lon="10.142997">
        <ele>491.016662</ele>
        <time>2025-11-11T20:04:33.919Z</time>
      </trkpt>
      <trkpt lat="48.523602" lon="10.142894">
        <ele>490.558121</ele>
        <time>2025-11-11T20:04:35.967Z</time>
      </trkpt>
      <trkpt lat="48.523416" lon="10.142823">
        <ele>490.085062</ele>
        <time>2025-11-11T20:04:38.067Z</time>
      </trkpt>
      <trkpt lat="48.523191" lon="10.142782">
        <ele>489.424761</ele>
        <time>2025-11-11T20:04:40.498Z</time>
      </trkpt>
      <trkpt lat="48.522770" lon="10.142627">
        <ele>488.156600</ele>
        <time>2025-11-11T20:04:44.921Z</time>
      </trkpt>
      <trkpt lat="48.522579" lon="10.142498">
        <ele>487.544260</ele>
        <time>2025-11-11T20:04:47.063Z</time>
      </trkpt>
      <trkpt lat="48.522427" lon="10.142347">
        <ele>487.011778</ele>
        <time>2025-11-11T20:04:48.926Z</time>
      </trkpt>
      <trkpt lat="48.522342" lon="10.142247">
        <ele>486.696423</ele>
        <time>2025-11-11T20:04:50.029Z</time>
      </trkpt>
      <trkpt lat="48.521449" lon="10.140760">
        <ele>482.683589</ele>
        <time>2025-11-11T20:05:03.483Z</time>
      </trkpt>
      <trkpt lat="48.521115" lon="10.140413">
        <ele>481.424594</ele>
        <time>2025-11-11T20:05:07.593Z</time>
      </trkpt>
      <trkpt lat="48.520552" lon="10.140130">
        <ele>479.581970</ele>
        <time>2025-11-11T20:05:13.672Z</time>
      </trkpt>
      <trkpt lat="48.520358" lon="10.140075">
        <ele>479.005734</ele>
        <time>2025-11-11T20:05:15.708Z</time>
      </trkpt>
      <trkpt lat="48.519439" lon="10.139912">
        <ele>476.552257</ele>
        <time>2025-11-11T20:05:25.279Z</time>
      </trkpt>
      <trkpt lat="48.518281" lon="10.139402">
        <ele>473.887613</ele>
        <time>2025-11-11T20:05:38.105Z</time>
      </trkpt>
      <trkpt lat="48.517986" lon="10.139318">
        <ele>473.478807</ele>
        <time>2025-11-11T20:05:41.436Z</time>
      </trkpt>
      <trkpt lat="48.516804" lon="10.139242">
        <ele>471.957804</ele>
        <time>2025-11-11T20:05:55.925Z</time>
      </trkpt>
      <trkpt lat="48.516506" lon="10.139165">
        <ele>471.822592</ele>
        <time>2025-11-11T20:06:00.506Z</time>
      </trkpt>
      <trkpt lat="48.516280" lon="10.139056">
        <ele>471.716485</ele>
        <time>2025-11-11T20:06:04.263Z</time>
      </trkpt>
      <trkpt lat="48.516211" lon="10.139005">
        <ele>471.682126</ele>
        <time>2025-11-11T20:06:05.481Z</time>
      </trkpt>
      <trkpt lat="48.515594" lon="10.138568">
        <ele>471.377326</ele>
        <time>2025-11-11T20:06:15.840Z</time>
      </trkpt>
      <trkpt lat="48.515243" lon="10.138436">
        <ele>471.215551</ele>
        <time>2025-11-11T20:06:20.439Z</time>
      </trkpt>
      <trkpt lat="48.514850" lon="10.138385">
        <ele>470.302869</ele>
        <time>2025-11-11T20:06:24.957Z</time>
      </trkpt>
      <trkpt lat="48.514747" lon="10.138384">
        <ele>470.042551</ele>
        <time>2025-11-11T20:06:26.067Z</time>
      </trkpt>
      <trkpt lat="48.514345" lon="10.138309">
        <ele>469.018846</ele>
        <time>2025-11-11T20:06:30.293Z</time>
      </trkpt>
      <trkpt lat="48.514125" lon="10.138218">
        <ele>468.442345</ele>
        <time>2025-11-11T20:06:32.598Z</time>
      </trkpt>
      <trkpt lat="48.513854" lon="10.137999">
        <ele>467.665482</ele>
        <time>2025-11-11T20:06:35.672Z</time>
      </trkpt>
      <trkpt lat="48.513532" lon="10.137603">
        <ele>466.629376</ele>
        <time>2025-11-11T20:06:39.853Z</time>
      </trkpt>
      <trkpt lat="48.513272" lon="10.137241">
        <ele>466.072959</ele>
        <time>2025-11-11T20:06:43.516Z</time>
      </trkpt>
      <trkpt lat="48.513002" lon="10.136945">
        <ele>465.548026</ele>
        <time>2025-11-11T20:06:47.084Z</time>
      </trkpt>
      <trkpt lat="48.512741" lon="10.136773">
        <ele>465.100023</ele>
        <time>2025-11-11T20:06:50.239Z</time>
      </trkpt>
      <trkpt lat="48.512263" lon="10.136584">
        <ele>464.322707</ele>
        <time>2025-11-11T20:06:56.321Z</time>
      </trkpt>
      <trkpt lat="48.511856" lon="10.136497">
        <ele>463.877192</ele>
        <time>2025-11-11T20:07:02.280Z</time>
      </trkpt>
      <trkpt lat="48.511444" lon="10.136316">
        <ele>464.130834</ele>
        <time>2025-11-11T20:07:09.444Z</time>
      </trkpt>
      <trkpt lat="48.511235" lon="10.136150">
        <ele>464.270435</ele>
        <time>2025-11-11T20:07:13.722Z</time>
      </trkpt>
      <trkpt lat="48.510229" lon="10.134923">
        <ele>464.938807</ele>
        <time>2025-11-11T20:07:37.528Z</time>
      </trkpt>
      <trkpt lat="48.509995" lon="10.134665">
        <ele>464.999933</ele>
        <time>2025-11-11T20:07:42.144Z</time>
      </trkpt>
      <trkpt lat="48.509793" lon="10.134505">
        <ele>465.048053</ele>
        <time>2025-11-11T20:07:45.722Z</time>
      </trkpt>
      <trkpt lat="48.509645" lon="10.134434">
        <ele>465.080811</ele>
        <time>2025-11-11T20:07:48.101Z</time>
      </trkpt>
      <trkpt lat="48.509424" lon="10.134392">
        <ele>465.127798</ele>
        <time>2025-11-11T20:07:51.470Z</time>
      </trkpt>
      <trkpt lat="48.508209" lon="10.134337">
        <ele>465.600280</ele>
        <time>2025-11-11T20:08:09.110Z</time>
      </trkpt>
      <trkpt lat="48.508001" lon="10.134256">
        <ele>465.727633</ele>
        <time>2025-11-11T20:08:12.662Z</time>
      </trkpt>
      <trkpt lat="48.507951" lon="10.134156">
        <ele>465.776842</ele>
        <time>2025-11-11T20:08:14.079Z</time>
      </trkpt>
      <trkpt lat="48.507846" lon="10.134128">
        <ele>465.840056</ele>
        <time>2025-11-11T20:08:15.928Z</time>
      </trkpt>
      <trkpt lat="48.507762" lon="10.134233">
        <ele>465.904717</ele>
        <time>2025-11-11T20:08:17.876Z</time>
      </trkpt>
      <trkpt lat="48.507571" lon="10.134283">
        <ele>466.019644</ele>
        <time>2025-11-11T20:08:21.528Z</time>
      </trkpt>
      <trkpt lat="48.507503" lon="10.134280">
        <ele>466.059976</ele>
        <time>2025-11-11T20:08:22.842Z</time>
      </trkpt>
      <trkpt lat="48.506791" lon="10.134222">
        <ele>466.211769</ele>
        <time>2025-11-11T20:08:37.031Z</time>
      </trkpt>
      <trkpt lat="48.506447" lon="10.134194">
        <ele>466.050735</ele>
        <time>2025-11-11T20:08:43.154Z</time>
      </trkpt>
      <trkpt lat="48.506081" lon="10.134213">
        <ele>465.879551</ele>
        <time>2025-11-11T20:08:49.226Z</time>
      </trkpt>
      <trkpt lat="48.505882" lon="10.134086">
        <ele>465.778557</ele>
        <time>2025-11-11T20:08:52.226Z</time>
      </trkpt>
      <trkpt lat="48.505772" lon="10.133987">
        <ele>465.718691</ele>
        <time>2025-11-11T20:08:53.784Z</time>
      </trkpt>
      <trkpt lat="48.505581" lon="10.133873">
        <ele>465.622682</ele>
        <time>2025-11-11T20:08:56.080Z</time>
      </trkpt>
      <trkpt lat="48.505440" lon="10.133807">
        <ele>465.553676</ele>
        <time>2025-11-11T20:08:57.653Z</time>
      </trkpt>
      <trkpt lat="48.505102" lon="10.133698">
        <ele>464.983959</ele>
        <time>2025-11-11T20:09:01.156Z</time>
      </trkpt>
      <trkpt lat="48.504930" lon="10.133735">
        <ele>464.565676</ele>
        <time>2025-11-11T20:09:02.874Z</time>
      </trkpt>
      <trkpt lat="48.504737" lon="10.133890">
        <ele>464.039333</ele>
        <time>2025-11-11T20:09:05.049Z</time>
      </trkpt>
      <trkpt lat="48.504568" lon="10.134025">
        <ele>463.578985</ele>
        <time>2025-11-11T20:09:06.982Z</time>
      </trkpt>
      <trkpt lat="48.504527" lon="10.134045">
        <ele>463.475248</ele>
        <time>2025-11-11T20:09:07.427Z</time>
      </trkpt>
      <trkpt lat="48.504480" lon="10.134067">
        <ele>463.356776</ele>
        <time>2025-11-11T20:09:07.929Z</time>
      </trkpt>
      <trkpt lat="48.504076" lon="10.134229">
        <ele>462.350384</ele>
        <time>2025-11-11T20:09:12.306Z</time>
      </trkpt>
      <trkpt lat="48.503965" lon="10.134205">
        <ele>462.080418</ele>
        <time>2025-11-11T20:09:13.492Z</time>
      </trkpt>
      <trkpt lat="48.503925" lon="10.134071">
        <ele>461.845974</ele>
        <time>2025-11-11T20:09:14.546Z</time>
      </trkpt>
      <trkpt lat="48.503905" lon="10.133751">
        <ele>461.333255</ele>
        <time>2025-11-11T20:09:16.916Z</time>
      </trkpt>
      <trkpt lat="48.503887" lon="10.133353">
        <ele>461.208773</ele>
        <time>2025-11-11T20:09:20.298Z</time>
      </trkpt>
      <trkpt lat="48.503879" lon="10.133135">
        <ele>461.245341</ele>
        <time>2025-11-11T20:09:22.396Z</time>
      </trkpt>
      <trkpt lat="48.503867" lon="10.132935">
        <ele>461.278976</ele>
        <time>2025-11-11T20:09:24.515Z</time>
      </trkpt>
      <trkpt lat="48.503866" lon="10.132906">
        <ele>461.283840</ele>
        <time>2025-11-11T20:09:24.827Z</time>
      </trkpt>
      <trkpt lat="48.503856" lon="10.132644">
        <ele>461.327795</ele>
        <time>2025-11-11T20:09:27.868Z</time>
      </trkpt>
      <trkpt lat="48.503846" lon="10.132341">
        <ele>461.378606</ele>
        <time>2025-11-11T20:09:31.599Z</time>
      </trkpt>
      <trkpt lat="48.503842" lon="10.132180">
        <ele>461.405591</ele>
        <time>2025-11-11T20:09:33.517Z</time>
      </trkpt>
      <trkpt lat="48.503825" lon="10.131901">
        <ele>461.452517</ele>
        <time>2025-11-11T20:09:36.829Z</time>
      </trkpt>
      <trkpt lat="48.503778" lon="10.131453">
        <ele>461.528487</ele>
        <time>2025-11-11T20:09:42.370Z</time>
      </trkpt>
      <trkpt lat="48.503766" lon="10.131358">
        <ele>461.544685</ele>
        <time>2025-11-11T20:09:43.553Z</time>
      </trkpt>
      <trkpt lat="48.503680" lon="10.130847">
        <ele>461.677902</ele>
        <time>2025-11-11T20:09:49.605Z</time>
      </trkpt>
      <trkpt lat="48.503602" lon="10.130515">
        <ele>461.882628</ele>
        <time>2025-11-11T20:09:53.472Z</time>
      </trkpt>
      <trkpt lat="48.503536" lon="10.130250">
        <ele>462.047164</ele>
        <time>2025-11-11T20:09:56.744Z</time>
      </trkpt>
      <trkpt lat="48.503438" lon="10.129858">
        <ele>462.290669</ele>
        <time>2025-11-11T20:10:01.590Z</time>
      </trkpt>
      <trkpt lat="48.503313" lon="10.129378">
        <ele>462.590415</ele>
        <time>2025-11-11T20:10:07.850Z</time>
      </trkpt>
      <trkpt lat="48.503240" lon="10.129100">
        <ele>462.764212</ele>
        <time>2025-11-11T20:10:11.630Z</time>
      </trkpt>
      <trkpt lat="48.503200" lon="10.128938">
        <ele>462.864691</ele>
        <time>2025-11-11T20:10:13.851Z</time>
      </trkpt>
      <trkpt lat="48.503117" lon="10.128602">
        <ele>463.073102</ele>
        <time>2025-11-11T20:10:18.487Z</time>
      </trkpt>
      <trkpt lat="48.503051" lon="10.128362">
        <ele>463.174058</ele>
        <time>2025-11-11T20:10:21.871Z</time>
      </trkpt>
      <trkpt lat="48.502989" lon="10.128065">
        <ele>463.068332</ele>
        <time>2025-11-11T20:10:25.977Z</time>
      </trkpt>
      <trkpt lat="48.502884" lon="10.127581">
        <ele>462.895416</ele>
        <time>2025-11-11T20:10:32.587Z</time>
      </trkpt>
      <trkpt lat="48.502810" lon="10.127249">
        <ele>462.776485</ele>
        <time>2025-11-11T20:10:36.721Z</time>
      </trkpt>
      <trkpt lat="48.502704" lon="10.126653">
        <ele>462.566963</ele>
        <time>2025-11-11T20:10:41.919Z</time>
      </trkpt>
      <trkpt lat="48.502600" lon="10.126238">
        <ele>462.416317</ele>
        <time>2025-11-11T20:10:45.161Z</time>
      </trkpt>
      <trkpt lat="48.502547" lon="10.126383">
        <ele>462.360091</ele>
        <time>2025-11-11T20:10:46.806Z</time>
      </trkpt>
      <trkpt lat="48.502464" lon="10.126489">
        <ele>462.304375</ele>
        <time>2025-11-11T20:10:48.410Z</time>
      </trkpt>
      <trkpt lat="48.502382" lon="10.126562">
        <ele>462.210650</ele>
        <time>2025-11-11T20:10:49.833Z</time>
      </trkpt>
      <trkpt lat="48.502188" lon="10.126698">
        <ele>461.778015</ele>
        <time>2025-11-11T20:10:52.999Z</time>
      </trkpt>
      <trkpt lat="48.501959" lon="10.126858">
        <ele>461.267628</ele>
        <time>2025-11-11T20:10:56.741Z</time>
      </trkpt>
      <trkpt lat="48.501659" lon="10.127068">
        <ele>460.598778</ele>
        <time>2025-11-11T20:11:01.650Z</time>
      </trkpt>
      <trkpt lat="48.501646" lon="10.127077">
        <ele>460.569851</ele>
        <time>2025-11-11T20:11:01.863Z</time>
      </trkpt>
      <trkpt lat="48.501482" lon="10.127200">
        <ele>460.199454</ele>
        <time>2025-11-11T20:11:04.621Z</time>
      </trkpt>
      <trkpt lat="48.501460" lon="10.127217">
        <ele>460.149465</ele>
        <time>2025-11-11T20:11:05.007Z</time>
      </trkpt>
      <trkpt lat="48.501372" lon="10.127285">
        <ele>459.949508</ele>
        <time>2025-11-11T20:11:06.508Z</time>
      </trkpt>
      <trkpt lat="48.501344" lon="10.127307">
        <ele>459.885662</ele>
        <time>2025-11-11T20:11:06.990Z</time>
      </trkpt>
      <trkpt lat="48.501193" lon="10.127417">
        <ele>459.546541</ele>
        <time>2025-11-11T20:11:09.618Z</time>
      </trkpt>
      <trkpt lat="48.501061" lon="10.127514">
        <ele>459.249600</ele>
        <time>2025-11-11T20:11:12.036Z</time>
      </trkpt>
      <trkpt lat="48.501027" lon="10.127538">
        <ele>459.173683</ele>
        <time>2025-11-11T20:11:12.702Z</time>
      </trkpt>
      <trkpt lat="48.500712" lon="10.127759">
        <ele>458.617473</ele>
        <time>2025-11-11T20:11:19.168Z</time>
      </trkpt>
      <trkpt lat="48.500591" lon="10.127846">
        <ele>458.591455</ele>
        <time>2025-11-11T20:11:21.772Z</time>
      </trkpt>
      <trkpt lat="48.500526" lon="10.127896">
        <ele>458.577293</ele>
        <time>2025-11-11T20:11:23.192Z</time>
      </trkpt>
      <trkpt lat="48.500112" lon="10.128222">
        <ele>458.486645</ele>
        <time>2025-11-11T20:11:32.873Z</time>
      </trkpt>
      <trkpt lat="48.499978" lon="10.128316">
        <ele>458.457960</ele>
        <time>2025-11-11T20:11:35.870Z</time>
      </trkpt>
      <trkpt lat="48.499764" lon="10.128466">
        <ele>458.412157</ele>
        <time>2025-11-11T20:11:40.558Z</time>
      </trkpt>
      <trkpt lat="48.499691" lon="10.128518">
        <ele>458.396487</ele>
        <time>2025-11-11T20:11:41.649Z</time>
      </trkpt>
      <trkpt lat="48.497898" lon="10.129568">
        <ele>458.303522</ele>
        <time>2025-11-11T20:12:19.875Z</time>
      </trkpt>
      <trkpt lat="48.497262" lon="10.129953">
        <ele>458.381465</ele>
        <time>2025-11-11T20:12:34.472Z</time>
      </trkpt>
      <trkpt lat="48.496345" lon="10.130459">
        <ele>458.684436</ele>
        <time>2025-11-11T20:12:55.696Z</time>
      </trkpt>
      <trkpt lat="48.496231" lon="10.130520">
        <ele>458.721968</ele>
        <time>2025-11-11T20:12:57.702Z</time>
      </trkpt>
      <trkpt lat="48.496169" lon="10.130401">
        <ele>458.753095</ele>
        <time>2025-11-11T20:12:59.367Z</time>
      </trkpt>
      <trkpt lat="48.495322" lon="10.128807">
        <ele>459.134678</ele>
        <time>2025-11-11T20:13:20.529Z</time>
      </trkpt>
      <trkpt lat="48.495061" lon="10.128316">
        <ele>459.247748</ele>
        <time>2025-11-11T20:13:27.175Z</time>
      </trkpt>
      <trkpt lat="48.494541" lon="10.127459">
        <ele>459.422355</ele>
        <time>2025-11-11T20:13:39.601Z</time>
      </trkpt>
      <trkpt lat="48.494065" lon="10.126551">
        <ele>459.559788</ele>
        <time>2025-11-11T20:13:51.850Z</time>
      </trkpt>
      <trkpt lat="48.494045" lon="10.126452">
        <ele>459.572074</ele>
        <time>2025-11-11T20:13:52.912Z</time>
      </trkpt>
      <trkpt lat="48.493606" lon="10.125719">
        <ele>459.672444</ele>
        <time>2025-11-11T20:14:02.730Z</time>
      </trkpt>
      <trkpt lat="48.493504" lon="10.125591">
        <ele>459.660633</ele>
        <time>2025-11-11T20:14:04.683Z</time>
      </trkpt>
      <trkpt lat="48.493432" lon="10.125552">
        <ele>459.653823</ele>
        <time>2025-11-11T20:14:05.781Z</time>
      </trkpt>
      <trkpt lat="48.493423" lon="10.125540">
        <ele>459.652754</ele>
        <time>2025-11-11T20:14:05.961Z</time>
      </trkpt>
      <trkpt lat="48.493028" lon="10.124879">
        <ele>459.600242</ele>
        <time>2025-11-11T20:14:14.376Z</time>
      </trkpt>
      <trkpt lat="48.492910" lon="10.124680">
        <ele>459.584488</ele>
        <time>2025-11-11T20:14:16.970Z</time>
      </trkpt>
      <trkpt lat="48.492856" lon="10.124593">
        <ele>459.577455</ele>
        <time>2025-11-11T20:14:18.137Z</time>
      </trkpt>
      <trkpt lat="48.492644" lon="10.124240">
        <ele>459.549349</ele>
        <time>2025-11-11T20:14:22.596Z</time>
      </trkpt>
      <trkpt lat="48.492480" lon="10.123950">
        <ele>459.526857</ele>
        <time>2025-11-11T20:14:26.106Z</time>
      </trkpt>
      <trkpt lat="48.492441" lon="10.123789">
        <ele>459.522784</ele>
        <time>2025-11-11T20:14:27.686Z</time>
      </trkpt>
      <trkpt lat="48.492426" lon="10.123645">
        <ele>459.557864</ele>
        <time>2025-11-11T20:14:29.065Z</time>
      </trkpt>
      <trkpt lat="48.492438" lon="10.123414">
        <ele>459.613626</ele>
        <time>2025-11-11T20:14:31.347Z</time>
      </trkpt>
      <trkpt lat="48.492445" lon="10.123352">
        <ele>459.628762</ele>
        <time>2025-11-11T20:14:31.980Z</time>
      </trkpt>
      <trkpt lat="48.492461" lon="10.123202">
        <ele>459.665325</ele>
        <time>2025-11-11T20:14:33.589Z</time>
      </trkpt>
      <trkpt lat="48.492483" lon="10.122948">
        <ele>459.726972</ele>
        <time>2025-11-11T20:14:36.349Z</time>
      </trkpt>
      <trkpt lat="48.492534" lon="10.122240">
        <ele>459.898360</ele>
        <time>2025-11-11T20:14:44.493Z</time>
      </trkpt>
      <trkpt lat="48.492546" lon="10.122021">
        <ele>459.951243</ele>
        <time>2025-11-11T20:14:47.092Z</time>
      </trkpt>
      <trkpt lat="48.492559" lon="10.121809">
        <ele>460.002481</ele>
        <time>2025-11-11T20:14:49.539Z</time>
      </trkpt>
      <trkpt lat="48.492567" lon="10.121676">
        <ele>460.034619</ele>
        <time>2025-11-11T20:14:51.026Z</time>
      </trkpt>
      <trkpt lat="48.492573" lon="10.121571">
        <ele>460.059982</ele>
        <time>2025-11-11T20:14:52.142Z</time>
      </trkpt>
      <trkpt lat="48.492597" lon="10.121210">
        <ele>460.147295</ele>
        <time>2025-11-11T20:14:56.057Z</time>
      </trkpt>
      <trkpt lat="48.492617" lon="10.120867">
        <ele>460.211480</ele>
        <time>2025-11-11T20:14:59.795Z</time>
      </trkpt>
      <trkpt lat="48.492622" lon="10.120752">
        <ele>460.230446</ele>
        <time>2025-11-11T20:15:01.097Z</time>
      </trkpt>
      <trkpt lat="48.492631" lon="10.120590">
        <ele>460.257199</ele>
        <time>2025-11-11T20:15:02.902Z</time>
      </trkpt>
      <trkpt lat="48.492642" lon="10.120408">
        <ele>460.287274</ele>
        <time>2025-11-11T20:15:04.922Z</time>
      </trkpt>
      <trkpt lat="48.492646" lon="10.120353">
        <ele>460.296379</ele>
        <time>2025-11-11T20:15:05.529Z</time>
      </trkpt>
      <trkpt lat="48.492650" lon="10.120270">
        <ele>460.310074</ele>
        <time>2025-11-11T20:15:06.408Z</time>
      </trkpt>
      <trkpt lat="48.492660" lon="10.120090">
        <ele>460.339800</ele>
        <time>2025-11-11T20:15:08.273Z</time>
      </trkpt>
      <trkpt lat="48.492672" lon="10.119843">
        <ele>460.380556</ele>
        <time>2025-11-11T20:15:10.794Z</time>
      </trkpt>
      <trkpt lat="48.492672" lon="10.119783">
        <ele>460.390430</ele>
        <time>2025-11-11T20:15:11.400Z</time>
      </trkpt>
      <trkpt lat="48.492669" lon="10.119633">
        <ele>460.415126</ele>
        <time>2025-11-11T20:15:12.981Z</time>
      </trkpt>
      <trkpt lat="48.492616" lon="10.119154">
        <ele>460.495043</ele>
        <time>2025-11-11T20:15:17.778Z</time>
      </trkpt>
      <trkpt lat="48.492541" lon="10.118938">
        <ele>460.535173</ele>
        <time>2025-11-11T20:15:20.095Z</time>
      </trkpt>
      <trkpt lat="48.492394" lon="10.118641">
        <ele>460.596175</ele>
        <time>2025-11-11T20:15:23.556Z</time>
      </trkpt>
      <trkpt lat="48.492391" lon="10.118509">
        <ele>460.618294</ele>
        <time>2025-11-11T20:15:24.927Z</time>
      </trkpt>
      <trkpt lat="48.492384" lon="10.118361">
        <ele>460.691743</ele>
        <time>2025-11-11T20:15:26.485Z</time>
      </trkpt>
      <trkpt lat="48.492423" lon="10.118287">
        <ele>460.738546</ele>
        <time>2025-11-11T20:15:27.558Z</time>
      </trkpt>
      <trkpt lat="48.492444" lon="10.118146">
        <ele>460.810085</ele>
        <time>2025-11-11T20:15:29.213Z</time>
      </trkpt>
      <trkpt lat="48.492429" lon="10.118060">
        <ele>460.854106</ele>
        <time>2025-11-11T20:15:30.312Z</time>
      </trkpt>
      <trkpt lat="48.492359" lon="10.117948">
        <ele>460.930314</ele>
        <time>2025-11-11T20:15:32.127Z</time>
      </trkpt>
      <trkpt lat="48.492311" lon="10.117791">
        <ele>461.015904</ele>
        <time>2025-11-11T20:15:34.216Z</time>
      </trkpt>
      <trkpt lat="48.492273" lon="10.117692">
        <ele>461.072538</ele>
        <time>2025-11-11T20:15:35.648Z</time>
      </trkpt>
      <trkpt lat="48.492141" lon="10.117332">
        <ele>461.276203</ele>
        <time>2025-11-11T20:15:40.669Z</time>
      </trkpt>
      <trkpt lat="48.492080" lon="10.117155">
        <ele>461.374961</ele>
        <time>2025-11-11T20:15:43.139Z</time>
      </trkpt>
      <trkpt lat="48.492030" lon="10.116988">
        <ele>461.465674</ele>
        <time>2025-11-11T20:15:45.499Z</time>
      </trkpt>
      <trkpt lat="48.491956" lon="10.116539">
        <ele>461.694710</ele>
        <time>2025-11-11T20:15:51.135Z</time>
      </trkpt>
      <trkpt lat="48.491899" lon="10.116190">
        <ele>461.872642</ele>
        <time>2025-11-11T20:15:55.438Z</time>
      </trkpt>
      <trkpt lat="48.491887" lon="10.116120">
        <ele>461.908434</ele>
        <time>2025-11-11T20:15:56.342Z</time>
      </trkpt>
      <trkpt lat="48.491748" lon="10.115311">
        <ele>462.210595</ele>
        <time>2025-11-11T20:16:06.498Z</time>
      </trkpt>
      <trkpt lat="48.491694" lon="10.114998">
        <ele>462.321218</ele>
        <time>2025-11-11T20:16:10.173Z</time>
      </trkpt>
      <trkpt lat="48.491644" lon="10.114673">
        <ele>462.435332</ele>
        <time>2025-11-11T20:16:13.743Z</time>
      </trkpt>
      <trkpt lat="48.491495" lon="10.113610">
        <ele>462.806951</ele>
        <time>2025-11-11T20:16:25.381Z</time>
      </trkpt>
      <trkpt lat="48.491385" lon="10.112959">
        <ele>463.003142</ele>
        <time>2025-11-11T20:16:32.642Z</time>
      </trkpt>
      <trkpt lat="48.491182" lon="10.112196">
        <ele>463.220204</ele>
        <time>2025-11-11T20:16:41.679Z</time>
      </trkpt>
      <trkpt lat="48.490994" lon="10.111704">
        <ele>463.370138</ele>
        <time>2025-11-11T20:16:47.751Z</time>
      </trkpt>
      <trkpt lat="48.490756" lon="10.111238">
        <ele>463.525459</ele>
        <time>2025-11-11T20:16:54.183Z</time>
      </trkpt>
      <trkpt lat="48.490524" lon="10.110779">
        <ele>463.697145</ele>
        <time>2025-11-11T20:17:00.454Z</time>
      </trkpt>
      <trkpt lat="48.490436" lon="10.110521">
        <ele>463.794305</ele>
        <time>2025-11-11T20:17:03.612Z</time>
      </trkpt>
      <trkpt lat="48.490415" lon="10.110356">
        <ele>463.850564</ele>
        <time>2025-11-11T20:17:05.433Z</time>
      </trkpt>
      <trkpt lat="48.490444" lon="10.110134">
        <ele>463.926330</ele>
        <time>2025-11-11T20:17:07.915Z</time>
      </trkpt>
      <trkpt lat="48.490509" lon="10.109930">
        <ele>464.002123</ele>
        <time>2025-11-11T20:17:10.343Z</time>
      </trkpt>
      <trkpt lat="48.490956" lon="10.109086">
        <ele>464.363887</ele>
        <time>2025-11-11T20:17:22.199Z</time>
      </trkpt>
      <trkpt lat="48.491014" lon="10.108997">
        <ele>464.405682</ele>
        <time>2025-11-11T20:17:23.634Z</time>
      </trkpt>
      <trkpt lat="48.490999" lon="10.108899">
        <ele>464.439360</ele>
        <time>2025-11-11T20:17:25.193Z</time>
      </trkpt>
      <trkpt lat="48.490898" lon="10.108274">
        <ele>464.782351</ele>
        <time>2025-11-11T20:17:35.227Z</time>
      </trkpt>
      <trkpt lat="48.490828" lon="10.107367">
        <ele>465.366669</ele>
        <time>2025-11-11T20:17:50.097Z</time>
      </trkpt>
      <trkpt lat="48.490720" lon="10.106762">
        <ele>465.767611</ele>
        <time>2025-11-11T20:18:00.391Z</time>
      </trkpt>
      <trkpt lat="48.490523" lon="10.105866">
        <ele>466.324057</ele>
        <time>2025-11-11T20:18:15.525Z</time>
      </trkpt>
      <trkpt lat="48.490404" lon="10.105237">
        <ele>466.576860</ele>
        <time>2025-11-11T20:18:25.581Z</time>
      </trkpt>
      <trkpt lat="48.490378" lon="10.104991">
        <ele>466.673134</ele>
        <time>2025-11-11T20:18:29.346Z</time>
      </trkpt>
      <trkpt lat="48.490358" lon="10.103785">
        <ele>467.139367</ele>
        <time>2025-11-11T20:18:46.878Z</time>
      </trkpt>
      <trkpt lat="48.490329" lon="10.103426">
        <ele>467.279139</ele>
        <time>2025-11-11T20:18:52.062Z</time>
      </trkpt>
      <trkpt lat="48.490032" lon="10.101695">
        <ele>467.809595</ele>
        <time>2025-11-11T20:19:17.574Z</time>
      </trkpt>
      <trkpt lat="48.489944" lon="10.100662">
        <ele>468.122480</ele>
        <time>2025-11-11T20:19:33.056Z</time>
      </trkpt>
      <trkpt lat="48.489925" lon="10.099067">
        <ele>468.770638</ele>
        <time>2025-11-11T20:19:57.235Z</time>
      </trkpt>
      <trkpt lat="48.489807" lon="10.099108">
        <ele>468.844871</ele>
        <time>2025-11-11T20:20:00.054Z</time>
      </trkpt>
      <trkpt lat="48.489792" lon="10.098968">
        <ele>468.902492</ele>
        <time>2025-11-11T20:20:01.756Z</time>
      </trkpt>
      <trkpt lat="48.489258" lon="10.096602">
        <ele>470.104137</ele>
        <time>2025-11-11T20:20:30.200Z</time>
      </trkpt>
      <trkpt lat="48.489109" lon="10.096075">
        <ele>470.397303</ele>
        <time>2025-11-11T20:20:37.057Z</time>
      </trkpt>
      <trkpt lat="48.488656" lon="10.094483">
        <ele>471.396491</ele>
        <time>2025-11-11T20:21:00.085Z</time>
      </trkpt>
      <trkpt lat="48.488236" lon="10.093636">
        <ele>472.025551</ele>
        <time>2025-11-11T20:21:12.629Z</time>
      </trkpt>
      <trkpt lat="48.487997" lon="10.093177">
        <ele>472.247705</ele>
        <time>2025-11-11T20:21:18.902Z</time>
      </trkpt>
      <trkpt lat="48.487905" lon="10.092996">
        <ele>472.283542</ele>
        <time>2025-11-11T20:21:21.285Z</time>
      </trkpt>
      <trkpt lat="48.487382" lon="10.091909">
        <ele>472.494578</ele>
        <time>2025-11-11T20:21:34.257Z</time>
      </trkpt>
      <trkpt lat="48.487328" lon="10.091754">
        <ele>472.522090</ele>
        <time>2025-11-11T20:21:36.077Z</time>
      </trkpt>
      <trkpt lat="48.487274" lon="10.091599">
        <ele>472.549602</ele>
        <time>2025-11-11T20:21:37.957Z</time>
      </trkpt>
      <trkpt lat="48.487153" lon="10.091028">
        <ele>472.667252</ele>
        <time>2025-11-11T20:21:44.492Z</time>
      </trkpt>
      <trkpt lat="48.487074" lon="10.090497">
        <ele>472.890321</ele>
        <time>2025-11-11T20:21:50.617Z</time>
      </trkpt>
      <trkpt lat="48.486964" lon="10.089577">
        <ele>473.273508</ele>
        <time>2025-11-11T20:22:04.838Z</time>
      </trkpt>
      <trkpt lat="48.486859" lon="10.088860">
        <ele>473.574490</ele>
        <time>2025-11-11T20:22:15.937Z</time>
      </trkpt>
      <trkpt lat="48.486650" lon="10.087034">
        <ele>474.494650</ele>
        <time>2025-11-11T20:22:44.536Z</time>
      </trkpt>
      <trkpt lat="48.486582" lon="10.085726">
        <ele>475.176242</ele>
        <time>2025-11-11T20:23:05.178Z</time>
      </trkpt>
      <trkpt lat="48.486165" lon="10.081271">
        <ele>477.446633</ele>
        <time>2025-11-11T20:24:13.978Z</time>
      </trkpt>
      <trkpt lat="48.486101" lon="10.079709">
        <ele>478.382005</ele>
        <time>2025-11-11T20:24:39.019Z</time>
      </trkpt>
      <trkpt lat="48.485970" lon="10.078715">
        <ele>479.054623</ele>
        <time>2025-11-11T20:24:55.499Z</time>
      </trkpt>
      <trkpt lat="48.485910" lon="10.077808">
        <ele>479.659576</ele>
        <time>2025-11-11T20:25:10.107Z</time>
      </trkpt>
      <trkpt lat="48.485968" lon="10.076962">
        <ele>480.079821</ele>
        <time>2025-11-11T20:25:23.387Z</time>
      </trkpt>
      <trkpt lat="48.486075" lon="10.076035">
        <ele>480.521492</ele>
        <time>2025-11-11T20:25:37.648Z</time>
      </trkpt>
      <trkpt lat="48.486016" lon="10.075659">
        <ele>480.702860</ele>
        <time>2025-11-11T20:25:43.439Z</time>
      </trkpt>
      <trkpt lat="48.485973" lon="10.075440">
        <ele>480.810071</ele>
        <time>2025-11-11T20:25:46.862Z</time>
      </trkpt>
      <trkpt lat="48.485914" lon="10.074758">
        <ele>481.182712</ele>
        <time>2025-11-11T20:25:57.171Z</time>
      </trkpt>
      <trkpt lat="48.485908" lon="10.074532">
        <ele>481.330269</ele>
        <time>2025-11-11T20:26:00.623Z</time>
      </trkpt>
      <trkpt lat="48.485985" lon="10.074084">
        <ele>481.632202</ele>
        <time>2025-11-11T20:26:07.745Z</time>
      </trkpt>
      <trkpt lat="48.485985" lon="10.073968">
        <ele>481.707879</ele>
        <time>2025-11-11T20:26:09.582Z</time>
      </trkpt>
      <trkpt lat="48.485938" lon="10.073709">
        <ele>481.883064</ele>
        <time>2025-11-11T20:26:13.857Z</time>
      </trkpt>
      <trkpt lat="48.485373" lon="10.071178">
        <ele>483.677895</ele>
        <time>2025-11-11T20:26:58.296Z</time>
      </trkpt>
      <trkpt lat="48.485371" lon="10.071169">
        <ele>483.684470</ele>
        <time>2025-11-11T20:26:58.455Z</time>
      </trkpt>
      <trkpt lat="48.485191" lon="10.070007">
        <ele>484.511076</ele>
        <time>2025-11-11T20:27:17.788Z</time>
      </trkpt>
      <trkpt lat="48.485086" lon="10.069489">
        <ele>484.776878</ele>
        <time>2025-11-11T20:27:25.957Z</time>
      </trkpt>
      <trkpt lat="48.485051" lon="10.069339">
        <ele>484.834862</ele>
        <time>2025-11-11T20:27:27.730Z</time>
      </trkpt>
      <trkpt lat="48.484986" lon="10.069088">
        <ele>484.933120</ele>
        <time>2025-11-11T20:27:30.658Z</time>
      </trkpt>
      <trkpt lat="48.484214" lon="10.067000">
        <ele>486.133794</ele>
        <time>2025-11-11T20:27:56.302Z</time>
      </trkpt>
      <trkpt lat="48.483571" lon="10.065251">
        <ele>488.360515</ele>
        <time>2025-11-11T20:28:25.977Z</time>
      </trkpt>
      <trkpt lat="48.483331" lon="10.064845">
        <ele>489.031310</ele>
        <time>2025-11-11T20:28:35.229Z</time>
      </trkpt>
      <trkpt lat="48.483262" lon="10.064593">
        <ele>489.400708</ele>
        <time>2025-11-11T20:28:39.872Z</time>
      </trkpt>
      <trkpt lat="48.483357" lon="10.064491">
        <ele>489.639040</ele>
        <time>2025-11-11T20:28:43.455Z</time>
      </trkpt>
      <trkpt lat="48.483467" lon="10.064378">
        <ele>489.911050</ele>
        <time>2025-11-11T20:28:47.521Z</time>
      </trkpt>
      <trkpt lat="48.484228" lon="10.063695">
        <ele>491.720940</ele>
        <time>2025-11-11T20:29:13.263Z</time>
      </trkpt>
      <trkpt lat="48.484398" lon="10.063558">
        <ele>492.114881</ele>
        <time>2025-11-11T20:29:18.361Z</time>
      </trkpt>
      <trkpt lat="48.484540" lon="10.063504">
        <ele>492.348222</ele>
        <time>2025-11-11T20:29:22.010Z</time>
      </trkpt>
      <trkpt lat="48.484504" lon="10.063116">
        <ele>492.392155</ele>
        <time>2025-11-11T20:29:26.938Z</time>
      </trkpt>
      <trkpt lat="48.484414" lon="10.062620">
        <ele>492.449821</ele>
        <time>2025-11-11T20:29:33.018Z</time>
      </trkpt>
      <trkpt lat="48.484016" lon="10.061268">
        <ele>492.615710</ele>
        <time>2025-11-11T20:29:46.431Z</time>
      </trkpt>
      <trkpt lat="48.483781" lon="10.060495">
        <ele>492.905483</ele>
        <time>2025-11-11T20:29:53.660Z</time>
      </trkpt>
      <trkpt lat="48.483909" lon="10.060266">
        <ele>493.040301</ele>
        <time>2025-11-11T20:29:56.287Z</time>
      </trkpt>
      <trkpt lat="48.483914" lon="10.060155">
        <ele>493.090373</ele>
        <time>2025-11-11T20:29:57.292Z</time>
      </trkpt>
      <trkpt lat="48.483948" lon="10.059524">
        <ele>493.375299</ele>
        <time>2025-11-11T20:30:04.177Z</time>
      </trkpt>
      <trkpt lat="48.483964" lon="10.059318">
        <ele>493.468646</ele>
        <time>2025-11-11T20:30:06.807Z</time>
      </trkpt>
      <trkpt lat="48.484002" lon="10.058999">
        <ele>493.614516</ele>
        <time>2025-11-11T20:30:11.223Z</time>
      </trkpt>
      <trkpt lat="48.484059" lon="10.058639">
        <ele>493.781097</ele>
        <time>2025-11-11T20:30:16.784Z</time>
      </trkpt>
      <trkpt lat="48.484111" lon="10.058310">
        <ele>494.133547</ele>
        <time>2025-11-11T20:30:22.153Z</time>
      </trkpt>
      <trkpt lat="48.484181" lon="10.058024">
        <ele>494.690361</ele>
        <time>2025-11-11T20:30:27.238Z</time>
      </trkpt>
      <trkpt lat="48.484362" lon="10.057313">
        <ele>496.081385</ele>
        <time>2025-11-11T20:30:40.550Z</time>
      </trkpt>
      <trkpt lat="48.484414" lon="10.056827">
        <ele>496.980484</ele>
        <time>2025-11-11T20:30:49.175Z</time>
      </trkpt>
      <trkpt lat="48.484504" lon="10.055808">
        <ele>498.884753</ele>
        <time>2025-11-11T20:31:06.818Z</time>
      </trkpt>
      <trkpt lat="48.484495" lon="10.055563">
        <ele>499.684268</ele>
        <time>2025-11-11T20:31:12.139Z</time>
      </trkpt>
      <trkpt lat="48.484450" lon="10.055334">
        <ele>500.462527</ele>
        <time>2025-11-11T20:31:17.487Z</time>
      </trkpt>
      <trkpt lat="48.484507" lon="10.054987">
        <ele>501.627370</ele>
        <time>2025-11-11T20:31:25.894Z</time>
      </trkpt>
      <trkpt lat="48.484588" lon="10.054058">
        <ele>504.680432</ele>
        <time>2025-11-11T20:31:49.849Z</time>
      </trkpt>
      <trkpt lat="48.484640" lon="10.053733">
        <ele>505.769802</ele>
        <time>2025-11-11T20:31:59.412Z</time>
      </trkpt>
      <trkpt lat="48.484765" lon="10.053326">
        <ele>507.231383</ele>
        <time>2025-11-11T20:32:13.261Z</time>
      </trkpt>
      <trkpt lat="48.484870" lon="10.053123">
        <ele>508.251462</ele>
        <time>2025-11-11T20:32:21.407Z</time>
      </trkpt>
      <trkpt lat="48.485644" lon="10.052022">
        <ele>515.820685</ele>
        <time>2025-11-11T20:33:16.556Z</time>
      </trkpt>
      <trkpt lat="48.485864" lon="10.051834">
        <ele>517.619734</ele>
        <time>2025-11-11T20:33:29.770Z</time>
      </trkpt>
      <trkpt lat="48.486040" lon="10.051746">
        <ele>518.939027</ele>
        <time>2025-11-11T20:33:38.971Z</time>
      </trkpt>
      <trkpt lat="48.486225" lon="10.051720">
        <ele>520.261079</ele>
        <time>2025-11-11T20:33:47.806Z</time>
      </trkpt>
      <trkpt lat="48.486689" lon="10.051820">
        <ele>521.402299</ele>
        <time>2025-11-11T20:34:07.112Z</time>
      </trkpt>
      <trkpt lat="48.486728" lon="10.051831">
        <ele>521.486882</ele>
        <time>2025-11-11T20:34:08.553Z</time>
      </trkpt>
      <trkpt lat="48.487263" lon="10.052233">
        <ele>522.761058</ele>
        <time>2025-11-11T20:34:26.247Z</time>
      </trkpt>
      <trkpt lat="48.487250" lon="10.050662">
        <ele>524.003575</ele>
        <time>2025-11-11T20:34:44.880Z</time>
      </trkpt>
      <trkpt lat="48.487275" lon="10.045457">
        <ele>520.950666</ele>
        <time>2025-11-11T20:35:44.842Z</time>
      </trkpt>
      <trkpt lat="48.487285" lon="10.044108">
        <ele>520.787921</ele>
        <time>2025-11-11T20:36:02.144Z</time>
      </trkpt>
      <trkpt lat="48.487288" lon="10.042713">
        <ele>520.833361</ele>
        <time>2025-11-11T20:36:21.049Z</time>
      </trkpt>
      <trkpt lat="48.487293" lon="10.041049">
        <ele>521.854211</ele>
        <time>2025-11-11T20:36:46.437Z</time>
      </trkpt>
      <trkpt lat="48.487301" lon="10.038451">
        <ele>524.572358</ele>
        <time>2025-11-11T20:37:34.348Z</time>
      </trkpt>
      <trkpt lat="48.487321" lon="10.036195">
        <ele>527.119738</ele>
        <time>2025-11-11T20:38:15.440Z</time>
      </trkpt>
      <trkpt lat="48.487331" lon="10.034728">
        <ele>528.460436</ele>
        <time>2025-11-11T20:38:41.857Z</time>
      </trkpt>
      <trkpt lat="48.487342" lon="10.033219">
        <ele>527.539502</ele>
        <time>2025-11-11T20:39:02.597Z</time>
      </trkpt>
      <trkpt lat="48.487342" lon="10.032851">
        <ele>527.314927</ele>
        <time>2025-11-11T20:39:06.564Z</time>
      </trkpt>
      <trkpt lat="48.487204" lon="10.032806">
        <ele>527.184931</ele>
        <time>2025-11-11T20:39:08.071Z</time>
      </trkpt>
      <trkpt lat="48.487143" lon="10.032786">
        <ele>527.127454</ele>
        <time>2025-11-11T20:39:08.713Z</time>
      </trkpt>
      <trkpt lat="48.486982" lon="10.032734">
        <ele>526.975855</ele>
        <time>2025-11-11T20:39:10.387Z</time>
      </trkpt>
      <trkpt lat="48.486673" lon="10.032633">
        <ele>525.772319</ele>
        <time>2025-11-11T20:39:13.503Z</time>
      </trkpt>
      <trkpt lat="48.486622" lon="10.032616">
        <ele>525.507099</ele>
        <time>2025-11-11T20:39:14.004Z</time>
      </trkpt>
      <trkpt lat="48.486587" lon="10.032605">
        <ele>525.325555</ele>
        <time>2025-11-11T20:39:14.349Z</time>
      </trkpt>
      <trkpt lat="48.486532" lon="10.032590">
        <ele>525.041742</ele>
        <time>2025-11-11T20:39:14.868Z</time>
      </trkpt>
      <trkpt lat="48.486358" lon="10.032544">
        <ele>524.144716</ele>
        <time>2025-11-11T20:39:16.520Z</time>
      </trkpt>
      <trkpt lat="48.486309" lon="10.032531">
        <ele>523.892079</ele>
        <time>2025-11-11T20:39:16.978Z</time>
      </trkpt>
      <trkpt lat="48.486213" lon="10.032505">
        <ele>523.396803</ele>
        <time>2025-11-11T20:39:17.878Z</time>
      </trkpt>
      <trkpt lat="48.485860" lon="10.032411">
        <ele>521.576580</ele>
        <time>2025-11-11T20:39:21.182Z</time>
      </trkpt>
      <trkpt lat="48.485667" lon="10.032360">
        <ele>520.581616</ele>
        <time>2025-11-11T20:39:22.985Z</time>
      </trkpt>
      <trkpt lat="48.485410" lon="10.032323">
        <ele>519.270654</ele>
        <time>2025-11-11T20:39:25.366Z</time>
      </trkpt>
      <trkpt lat="48.485402" lon="10.032265">
        <ele>519.071260</ele>
        <time>2025-11-11T20:39:25.730Z</time>
      </trkpt>
      <trkpt lat="48.485365" lon="10.032028">
        <ele>518.251755</ele>
        <time>2025-11-11T20:39:27.219Z</time>
      </trkpt>
      <trkpt lat="48.485323" lon="10.031801">
        <ele>517.545438</ele>
        <time>2025-11-11T20:39:28.670Z</time>
      </trkpt>
      <trkpt lat="48.485302" lon="10.031687">
        <ele>517.264578</ele>
        <time>2025-11-11T20:39:29.401Z</time>
      </trkpt>
      <trkpt lat="48.485284" lon="10.031594">
        <ele>517.034604</ele>
        <time>2025-11-11T20:39:30.003Z</time>
      </trkpt>
      <trkpt lat="48.485256" lon="10.031440">
        <ele>516.655548</ele>
        <time>2025-11-11T20:39:30.997Z</time>
      </trkpt>
      <trkpt lat="48.485253" lon="10.031408">
        <ele>516.578833</ele>
        <time>2025-11-11T20:39:31.204Z</time>
      </trkpt>
      <trkpt lat="48.485233" lon="10.031172">
        <ele>516.014075</ele>
        <time>2025-11-11T20:39:32.699Z</time>
      </trkpt>
      <trkpt lat="48.485226" lon="10.031047">
        <ele>515.716304</ele>
        <time>2025-11-11T20:39:33.485Z</time>
      </trkpt>
      <trkpt lat="48.485219" lon="10.030840">
        <ele>515.224305</ele>
        <time>2025-11-11T20:39:34.807Z</time>
      </trkpt>
      <trkpt lat="48.485203" lon="10.030626">
        <ele>514.713108</ele>
        <time>2025-11-11T20:39:36.191Z</time>
      </trkpt>
      <trkpt lat="48.485173" lon="10.030071">
        <ele>513.391321</ele>
        <time>2025-11-11T20:39:39.927Z</time>
      </trkpt>
      <trkpt lat="48.485061" lon="10.029361">
        <ele>511.658906</ele>
        <time>2025-11-11T20:39:45.200Z</time>
      </trkpt>
      <trkpt lat="48.485045" lon="10.028998">
        <ele>511.150517</ele>
        <time>2025-11-11T20:39:47.937Z</time>
      </trkpt>
      <trkpt lat="48.485042" lon="10.028925">
        <ele>511.096261</ele>
        <time>2025-11-11T20:39:48.499Z</time>
      </trkpt>
      <trkpt lat="48.485011" lon="10.028317">
        <ele>510.643910</ele>
        <time>2025-11-11T20:39:53.217Z</time>
      </trkpt>
      <trkpt lat="48.484937" lon="10.027790">
        <ele>510.244302</ele>
        <time>2025-11-11T20:39:57.511Z</time>
      </trkpt>
      <trkpt lat="48.484867" lon="10.027399">
        <ele>509.943861</ele>
        <time>2025-11-11T20:40:00.850Z</time>
      </trkpt>
      <trkpt lat="48.484721" lon="10.027065">
        <ele>509.647067</ele>
        <time>2025-11-11T20:40:04.231Z</time>
      </trkpt>
      <trkpt lat="48.484712" lon="10.027046">
        <ele>509.629743</ele>
        <time>2025-11-11T20:40:04.422Z</time>
      </trkpt>
      <trkpt lat="48.484394" lon="10.026385">
        <ele>509.355631</ele>
        <time>2025-11-11T20:40:11.337Z</time>
      </trkpt>
      <trkpt lat="48.484341" lon="10.026281">
        <ele>509.375674</ele>
        <time>2025-11-11T20:40:12.440Z</time>
      </trkpt>
      <trkpt lat="48.484144" lon="10.026008">
        <ele>509.437331</ele>
        <time>2025-11-11T20:40:15.957Z</time>
      </trkpt>
      <trkpt lat="48.484122" lon="10.025978">
        <ele>509.444166</ele>
        <time>2025-11-11T20:40:16.351Z</time>
      </trkpt>
      <trkpt lat="48.483840" lon="10.025652">
        <ele>509.526055</ele>
        <time>2025-11-11T20:40:21.747Z</time>
      </trkpt>
      <trkpt lat="48.483489" lon="10.025270">
        <ele>509.625814</ele>
        <time>2025-11-11T20:40:29.030Z</time>
      </trkpt>
      <trkpt lat="48.483788" lon="10.024931">
        <ele>509.712025</ele>
        <time>2025-11-11T20:40:36.254Z</time>
      </trkpt>
      <trkpt lat="48.484076" lon="10.024622">
        <ele>510.657882</ele>
        <time>2025-11-11T20:40:43.611Z</time>
      </trkpt>
      <trkpt lat="48.484323" lon="10.024430">
        <ele>511.414564</ele>
        <time>2025-11-11T20:40:49.959Z</time>
      </trkpt>
      <trkpt lat="48.484769" lon="10.024117">
        <ele>512.754120</ele>
        <time>2025-11-11T20:41:03.070Z</time>
      </trkpt>
      <trkpt lat="48.485390" lon="10.023838">
        <ele>514.518665</ele>
        <time>2025-11-11T20:41:22.401Z</time>
      </trkpt>
      <trkpt lat="48.485716" lon="10.023784">
        <ele>515.560138</ele>
        <time>2025-11-11T20:41:32.156Z</time>
      </trkpt>
      <trkpt lat="48.486047" lon="10.023730">
        <ele>516.634920</ele>
        <time>2025-11-11T20:41:41.795Z</time>
      </trkpt>
      <trkpt lat="48.486044" lon="10.023222">
        <ele>517.721929</ele>
        <time>2025-11-11T20:41:51.237Z</time>
      </trkpt>
      <trkpt lat="48.485958" lon="10.021658">
        <ele>521.199397</ele>
        <time>2025-11-11T20:42:18.347Z</time>
      </trkpt>
      <trkpt lat="48.485926" lon="10.021407">
        <ele>521.845068</ele>
        <time>2025-11-11T20:42:23.029Z</time>
      </trkpt>
      <trkpt lat="48.485830" lon="10.020975">
        <ele>522.996040</ele>
        <time>2025-11-11T20:42:31.721Z</time>
      </trkpt>
      <trkpt lat="48.485758" lon="10.020512">
        <ele>524.197381</ele>
        <time>2025-11-11T20:42:41.179Z</time>
      </trkpt>
      <trkpt lat="48.485738" lon="10.019938">
        <ele>525.649362</ele>
        <time>2025-11-11T20:42:53.160Z</time>
      </trkpt>
      <trkpt lat="48.485757" lon="10.019296">
        <ele>527.272731</ele>
        <time>2025-11-11T20:43:07.109Z</time>
      </trkpt>
      <trkpt lat="48.485790" lon="10.019013">
        <ele>528.149464</ele>
        <time>2025-11-11T20:43:13.565Z</time>
      </trkpt>
      <trkpt lat="48.485927" lon="10.018409">
        <ele>530.097511</ele>
        <time>2025-11-11T20:43:27.995Z</time>
      </trkpt>
      <trkpt lat="48.486634" lon="10.016454">
        <ele>536.702889</ele>
        <time>2025-11-11T20:44:16.642Z</time>
      </trkpt>
      <trkpt lat="48.486744" lon="10.016012">
        <ele>537.938666</ele>
        <time>2025-11-11T20:44:27.943Z</time>
      </trkpt>
      <trkpt lat="48.486843" lon="10.015291">
        <ele>539.865910</ele>
        <time>2025-11-11T20:44:44.558Z</time>
      </trkpt>
      <trkpt lat="48.486901" lon="10.014532">
        <ele>541.865703</ele>
        <time>2025-11-11T20:45:00.140Z</time>
      </trkpt>
      <trkpt lat="48.486959" lon="10.014570">
        <ele>542.115414</ele>
        <time>2025-11-11T20:45:01.934Z</time>
      </trkpt>
      <trkpt lat="48.487190" lon="10.006763">
        <ele>547.455480</ele>
        <time>2025-11-11T20:46:38.076Z</time>
      </trkpt>
      <trkpt lat="48.487686" lon="10.006867">
        <ele>547.740534</ele>
        <time>2025-11-11T20:46:44.402Z</time>
      </trkpt>
      <trkpt lat="48.486632" lon="10.003803">
        <ele>550.000090</ele>
        <time>2025-11-11T20:47:22.976Z</time>
      </trkpt>
      <trkpt lat="48.486376" lon="10.003159">
        <ele>551.246313</ele>
        <time>2025-11-11T20:47:35.831Z</time>
      </trkpt>
      <trkpt lat="48.485827" lon="10.002728">
        <ele>552.795880</ele>
        <time>2025-11-11T20:47:54.680Z</time>
      </trkpt>
      <trkpt lat="48.485628" lon="10.002569">
        <ele>553.848145</ele>
        <time>2025-11-11T20:48:02.296Z</time>
      </trkpt>
      <trkpt lat="48.485238" lon="10.000796">
        <ele>560.313481</ele>
        <time>2025-11-11T20:48:46.894Z</time>
      </trkpt>
      <trkpt lat="48.485117" lon="10.000439">
        <ele>561.701214</ele>
        <time>2025-11-11T20:48:56.794Z</time>
      </trkpt>
      <trkpt lat="48.484629" lon="9.999618">
        <ele>566.198703</ele>
        <time>2025-11-11T20:49:24.722Z</time>
      </trkpt>
      <trkpt lat="48.484624" lon="9.999606">
        <ele>566.258143</ele>
        <time>2025-11-11T20:49:25.092Z</time>
      </trkpt>
      <trkpt lat="48.484003" lon="9.998211">
        <ele>573.305184</ele>
        <time>2025-11-11T20:50:11.913Z</time>
      </trkpt>
      <trkpt lat="48.483919" lon="9.997975">
        <ele>574.252242</ele>
        <time>2025-11-11T20:50:19.323Z</time>
      </trkpt>
      <trkpt lat="48.483640" lon="9.997235">
        <ele>576.980028</ele>
        <time>2025-11-11T20:50:41.567Z</time>
      </trkpt>
      <trkpt lat="48.482768" lon="9.994459">
        <ele>585.021759</ele>
        <time>2025-11-11T20:51:43.016Z</time>
      </trkpt>
      <trkpt lat="48.482733" lon="9.994292">
        <ele>585.355652</ele>
        <time>2025-11-11T20:51:45.859Z</time>
      </trkpt>
      <trkpt lat="48.482735" lon="9.994116">
        <ele>585.691218</ele>
        <time>2025-11-11T20:51:48.650Z</time>
      </trkpt>
      <trkpt lat="48.482941" lon="9.993010">
        <ele>587.698842</ele>
        <time>2025-11-11T20:52:05.907Z</time>
      </trkpt>
      <trkpt lat="48.483060" lon="9.992645">
        <ele>588.048699</ele>
        <time>2025-11-11T20:52:11.282Z</time>
      </trkpt>
      <trkpt lat="48.483317" lon="9.992149">
        <ele>588.590183</ele>
        <time>2025-11-11T20:52:19.151Z</time>
      </trkpt>
      <trkpt lat="48.483289" lon="9.992082">
        <ele>588.658306</ele>
        <time>2025-11-11T20:52:20.145Z</time>
      </trkpt>
      <trkpt lat="48.483248" lon="9.991990">
        <ele>588.753657</ele>
        <time>2025-11-11T20:52:21.524Z</time>
      </trkpt>
      <trkpt lat="48.483255" lon="9.991847">
        <ele>588.876986</ele>
        <time>2025-11-11T20:52:23.340Z</time>
      </trkpt>
      <trkpt lat="48.483237" lon="9.991771">
        <ele>588.946401</ele>
        <time>2025-11-11T20:52:24.356Z</time>
      </trkpt>
      <trkpt lat="48.482851" lon="9.990808">
        <ele>589.907028</ele>
        <time>2025-11-11T20:52:39.086Z</time>
      </trkpt>
      <trkpt lat="48.482613" lon="9.990074">
        <ele>590.447015</ele>
        <time>2025-11-11T20:52:50.157Z</time>
      </trkpt>
      <trkpt lat="48.482420" lon="9.989220">
        <ele>591.043279</ele>
        <time>2025-11-11T20:53:01.719Z</time>
      </trkpt>
      <trkpt lat="48.482376" lon="9.988986">
        <ele>591.204020</ele>
        <time>2025-11-11T20:53:04.732Z</time>
      </trkpt>
      <trkpt lat="48.482391" lon="9.988926">
        <ele>591.246397</ele>
        <time>2025-11-11T20:53:05.521Z</time>
      </trkpt>
      <trkpt lat="48.482307" lon="9.988471">
        <ele>591.558529</ele>
        <time>2025-11-11T20:53:11.023Z</time>
      </trkpt>
      <trkpt lat="48.482255" lon="9.988199">
        <ele>591.744739</ele>
        <time>2025-11-11T20:53:14.124Z</time>
      </trkpt>
      <trkpt lat="48.482230" lon="9.987933">
        <ele>591.920071</ele>
        <time>2025-11-11T20:53:16.967Z</time>
      </trkpt>
      <trkpt lat="48.482219" lon="9.987606">
        <ele>592.133750</ele>
        <time>2025-11-11T20:53:20.429Z</time>
      </trkpt>
      <trkpt lat="48.482174" lon="9.987265">
        <ele>592.360659</ele>
        <time>2025-11-11T20:53:24.070Z</time>
      </trkpt>
      <trkpt lat="48.481990" lon="9.986616">
        <ele>592.821323</ele>
        <time>2025-11-11T20:53:32.265Z</time>
      </trkpt>
      <trkpt lat="48.481899" lon="9.986295">
        <ele>593.049168</ele>
        <time>2025-11-11T20:53:36.984Z</time>
      </trkpt>
      <trkpt lat="48.481870" lon="9.986160">
        <ele>593.141782</ele>
        <time>2025-11-11T20:53:39.027Z</time>
      </trkpt>
      <trkpt lat="48.481836" lon="9.985869">
        <ele>593.334622</ele>
        <time>2025-11-11T20:53:43.458Z</time>
      </trkpt>
      <trkpt lat="48.481771" lon="9.985662">
        <ele>593.497724</ele>
        <time>2025-11-11T20:53:46.920Z</time>
      </trkpt>
      <trkpt lat="48.481646" lon="9.985005">
        <ele>594.106829</ele>
        <time>2025-11-11T20:53:57.429Z</time>
      </trkpt>
      <trkpt lat="48.481583" lon="9.984783">
        <ele>594.322026</ele>
        <time>2025-11-11T20:54:01.105Z</time>
      </trkpt>
      <trkpt lat="48.481470" lon="9.984436">
        <ele>594.666546</ele>
        <time>2025-11-11T20:54:06.843Z</time>
      </trkpt>
      <trkpt lat="48.481240" lon="9.983789">
        <ele>595.320783</ele>
        <time>2025-11-11T20:54:16.481Z</time>
      </trkpt>
      <trkpt lat="48.481230" lon="9.983763">
        <ele>595.347571</ele>
        <time>2025-11-11T20:54:16.811Z</time>
      </trkpt>
      <trkpt lat="48.481215" lon="9.983727">
        <ele>595.385463</ele>
        <time>2025-11-11T20:54:17.295Z</time>
      </trkpt>
      <trkpt lat="48.481096" lon="9.983427">
        <ele>595.697013</ele>
        <time>2025-11-11T20:54:21.375Z</time>
      </trkpt>
      <trkpt lat="48.480932" lon="9.983018">
        <ele>595.868105</ele>
        <time>2025-11-11T20:54:26.633Z</time>
      </trkpt>
      <trkpt lat="48.480897" lon="9.982922">
        <ele>595.869331</ele>
        <time>2025-11-11T20:54:27.678Z</time>
      </trkpt>
      <trkpt lat="48.480691" lon="9.982355">
        <ele>595.876565</ele>
        <time>2025-11-11T20:54:33.726Z</time>
      </trkpt>
      <trkpt lat="48.480510" lon="9.981782">
        <ele>595.883666</ele>
        <time>2025-11-11T20:54:39.525Z</time>
      </trkpt>
      <trkpt lat="48.480339" lon="9.981176">
        <ele>595.891035</ele>
        <time>2025-11-11T20:54:45.884Z</time>
      </trkpt>
      <trkpt lat="48.480230" lon="9.980682">
        <ele>595.894830</ele>
        <time>2025-11-11T20:54:51.172Z</time>
      </trkpt>
      <trkpt lat="48.480172" lon="9.980282">
        <ele>595.893732</ele>
        <time>2025-11-11T20:54:55.198Z</time>
      </trkpt>
      <trkpt lat="48.480115" lon="9.980051">
        <ele>595.893072</ele>
        <time>2025-11-11T20:54:57.476Z</time>
      </trkpt>
      <trkpt lat="48.480084" lon="9.979854">
        <ele>595.892529</ele>
        <time>2025-11-11T20:54:59.379Z</time>
      </trkpt>
      <trkpt lat="48.480047" lon="9.979588">
        <ele>595.891801</ele>
        <time>2025-11-11T20:55:01.973Z</time>
      </trkpt>
      <trkpt lat="48.479961" lon="9.978740">
        <ele>595.889502</ele>
        <time>2025-11-11T20:55:10.579Z</time>
      </trkpt>
      <trkpt lat="48.479943" lon="9.978015">
        <ele>595.908662</ele>
        <time>2025-11-11T20:55:17.600Z</time>
      </trkpt>
      <trkpt lat="48.479979" lon="9.977018">
        <ele>596.049727</ele>
        <time>2025-11-11T20:55:27.430Z</time>
      </trkpt>
      <trkpt lat="48.480077" lon="9.976157">
        <ele>596.173148</ele>
        <time>2025-11-11T20:55:36.738Z</time>
      </trkpt>
      <trkpt lat="48.480226" lon="9.975267">
        <ele>596.340768</ele>
        <time>2025-11-11T20:55:46.795Z</time>
      </trkpt>
      <trkpt lat="48.480441" lon="9.974438">
        <ele>596.617783</ele>
        <time>2025-11-11T20:55:56.957Z</time>
      </trkpt>
      <trkpt lat="48.480775" lon="9.973472">
        <ele>596.956822</ele>
        <time>2025-11-11T20:56:09.015Z</time>
      </trkpt>
      <trkpt lat="48.481267" lon="9.972466">
        <ele>597.263691</ele>
        <time>2025-11-11T20:56:22.553Z</time>
      </trkpt>
      <trkpt lat="48.481695" lon="9.971761">
        <ele>597.454996</ele>
        <time>2025-11-11T20:56:32.725Z</time>
      </trkpt>
      <trkpt lat="48.482126" lon="9.971146">
        <ele>597.634091</ele>
        <time>2025-11-11T20:56:42.056Z</time>
      </trkpt>
      <trkpt lat="48.482963" lon="9.969931">
        <ele>598.387313</ele>
        <time>2025-11-11T20:57:00.868Z</time>
      </trkpt>
      <trkpt lat="48.483497" lon="9.968793">
        <ele>599.143330</ele>
        <time>2025-11-11T20:57:18.278Z</time>
      </trkpt>
      <trkpt lat="48.483927" lon="9.967665">
        <ele>600.280951</ele>
        <time>2025-11-11T20:57:37.403Z</time>
      </trkpt>
      <trkpt lat="48.484267" lon="9.966433">
        <ele>601.285759</ele>
        <time>2025-11-11T20:57:54.837Z</time>
      </trkpt>
      <trkpt lat="48.484371" lon="9.965953">
        <ele>601.375740</ele>
        <time>2025-11-11T20:58:00.300Z</time>
      </trkpt>
      <trkpt lat="48.484474" lon="9.965438">
        <ele>601.471589</ele>
        <time>2025-11-11T20:58:05.463Z</time>
      </trkpt>
      <trkpt lat="48.484559" lon="9.964882">
        <ele>601.573259</ele>
        <time>2025-11-11T20:58:10.626Z</time>
      </trkpt>
      <trkpt lat="48.484674" lon="9.963871">
        <ele>601.872883</ele>
        <time>2025-11-11T20:58:20.176Z</time>
      </trkpt>
      <trkpt lat="48.484797" lon="9.962486">
        <ele>603.153463</ele>
        <time>2025-11-11T20:58:39.035Z</time>
      </trkpt>
      <trkpt lat="48.484857" lon="9.961104">
        <ele>604.382675</ele>
        <time>2025-11-11T20:59:00.303Z</time>
      </trkpt>
      <trkpt lat="48.484863" lon="9.960687">
        <ele>604.691432</ele>
        <time>2025-11-11T20:59:06.460Z</time>
      </trkpt>
      <trkpt lat="48.484866" lon="9.959575">
        <ele>605.514596</ele>
        <time>2025-11-11T20:59:21.000Z</time>
      </trkpt>
      <trkpt lat="48.484843" lon="9.958596">
        <ele>606.225409</ele>
        <time>2025-11-11T20:59:31.626Z</time>
      </trkpt>
      <trkpt lat="48.484738" lon="9.957161">
        <ele>606.356380</ele>
        <time>2025-11-11T20:59:46.573Z</time>
      </trkpt>
      <trkpt lat="48.484612" lon="9.955850">
        <ele>606.478908</ele>
        <time>2025-11-11T20:59:59.729Z</time>
      </trkpt>
      <trkpt lat="48.484560" lon="9.954928">
        <ele>606.591161</ele>
        <time>2025-11-11T21:00:08.287Z</time>
      </trkpt>
      <trkpt lat="48.484677" lon="9.953898">
        <ele>606.717933</ele>
        <time>2025-11-11T21:00:18.671Z</time>
      </trkpt>
      <trkpt lat="48.484996" lon="9.951680">
        <ele>607.683850</ele>
        <time>2025-11-11T21:00:45.620Z</time>
      </trkpt>
      <trkpt lat="48.485669" lon="9.947001">
        <ele>610.362583</ele>
        <time>2025-11-11T21:01:44.652Z</time>
      </trkpt>
      <trkpt lat="48.485832" lon="9.945859">
        <ele>610.816585</ele>
        <time>2025-11-11T21:01:58.024Z</time>
      </trkpt>
      <trkpt lat="48.486032" lon="9.944471">
        <ele>610.976681</ele>
        <time>2025-11-11T21:02:12.830Z</time>
      </trkpt>
      <trkpt lat="48.486382" lon="9.942049">
        <ele>610.775000</ele>
        <time>2025-11-11T21:02:35.349Z</time>
      </trkpt>
      <trkpt lat="48.486703" lon="9.939804">
        <ele>610.668740</ele>
        <time>2025-11-11T21:02:56.988Z</time>
      </trkpt>
      <trkpt lat="48.486762" lon="9.939386">
        <ele>610.859048</ele>
        <time>2025-11-11T21:03:01.747Z</time>
      </trkpt>
      <trkpt lat="48.487036" lon="9.937493">
        <ele>611.721859</ele>
        <time>2025-11-11T21:03:25.437Z</time>
      </trkpt>
      <trkpt lat="48.487136" lon="9.936728">
        <ele>612.005819</ele>
        <time>2025-11-11T21:03:34.747Z</time>
      </trkpt>
      <trkpt lat="48.487150" lon="9.936175">
        <ele>612.195596</ele>
        <time>2025-11-11T21:03:40.968Z</time>
      </trkpt>
      <trkpt lat="48.487049" lon="9.934143">
        <ele>612.889501</ele>
        <time>2025-11-11T21:04:02.712Z</time>
      </trkpt>
      <trkpt lat="48.486969" lon="9.933024">
        <ele>613.264377</ele>
        <time>2025-11-11T21:04:15.446Z</time>
      </trkpt>
      <trkpt lat="48.486690" lon="9.930505">
        <ele>613.719275</ele>
        <time>2025-11-11T21:04:44.407Z</time>
      </trkpt>
      <trkpt lat="48.486517" lon="9.929034">
        <ele>613.699875</ele>
        <time>2025-11-11T21:04:57.959Z</time>
      </trkpt>
      <trkpt lat="48.486370" lon="9.927612">
        <ele>613.119225</ele>
        <time>2025-11-11T21:05:09.810Z</time>
      </trkpt>
      <trkpt lat="48.486275" lon="9.925865">
        <ele>612.846162</ele>
        <time>2025-11-11T21:05:25.245Z</time>
      </trkpt>
      <trkpt lat="48.486131" lon="9.925039">
        <ele>613.016919</ele>
        <time>2025-11-11T21:05:34.653Z</time>
      </trkpt>
      <trkpt lat="48.485869" lon="9.923756">
        <ele>613.289812</ele>
        <time>2025-11-11T21:05:50.759Z</time>
      </trkpt>
      <trkpt lat="48.485500" lon="9.922261">
        <ele>613.644118</ele>
        <time>2025-11-11T21:06:08.339Z</time>
      </trkpt>
      <trkpt lat="48.484824" lon="9.920190">
        <ele>614.157751</ele>
        <time>2025-11-11T21:06:30.871Z</time>
      </trkpt>
      <trkpt lat="48.484751" lon="9.919871">
        <ele>614.232928</ele>
        <time>2025-11-11T21:06:34.618Z</time>
      </trkpt>
      <trkpt lat="48.484384" lon="9.917804">
        <ele>614.506582</ele>
        <time>2025-11-11T21:06:59.671Z</time>
      </trkpt>
      <trkpt lat="48.484212" lon="9.916466">
        <ele>614.570880</ele>
        <time>2025-11-11T21:07:12.384Z</time>
      </trkpt>
      <trkpt lat="48.484203" lon="9.916412">
        <ele>614.573506</ele>
        <time>2025-11-11T21:07:12.836Z</time>
      </trkpt>
      <trkpt lat="48.484034" lon="9.915865">
        <ele>614.535818</ele>
        <time>2025-11-11T21:07:17.946Z</time>
      </trkpt>
      <trkpt lat="48.484015" lon="9.915817">
        <ele>614.530497</ele>
        <time>2025-11-11T21:07:18.409Z</time>
      </trkpt>
      <trkpt lat="48.483968" lon="9.915713">
        <ele>614.518518</ele>
        <time>2025-11-11T21:07:19.440Z</time>
      </trkpt>
      <trkpt lat="48.483882" lon="9.915532">
        <ele>614.497325</ele>
        <time>2025-11-11T21:07:21.276Z</time>
      </trkpt>
      <trkpt lat="48.483762" lon="9.915278">
        <ele>614.467641</ele>
        <time>2025-11-11T21:07:23.933Z</time>
      </trkpt>
      <trkpt lat="48.483731" lon="9.915212">
        <ele>614.459942</ele>
        <time>2025-11-11T21:07:24.599Z</time>
      </trkpt>
      <trkpt lat="48.483627" lon="9.914991">
        <ele>614.434149</ele>
        <time>2025-11-11T21:07:26.973Z</time>
      </trkpt>
      <trkpt lat="48.483514" lon="9.914775">
        <ele>614.407961</ele>
        <time>2025-11-11T21:07:29.537Z</time>
      </trkpt>
      <trkpt lat="48.483418" lon="9.914597">
        <ele>614.386123</ele>
        <time>2025-11-11T21:07:31.821Z</time>
      </trkpt>
      <trkpt lat="48.483368" lon="9.914504">
        <ele>614.374727</ele>
        <time>2025-11-11T21:07:33.032Z</time>
      </trkpt>
      <trkpt lat="48.483305" lon="9.914392">
        <ele>614.360747</ele>
        <time>2025-11-11T21:07:34.588Z</time>
      </trkpt>
      <trkpt lat="48.483162" lon="9.914146">
        <ele>614.329608</ele>
        <time>2025-11-11T21:07:38.324Z</time>
      </trkpt>
      <trkpt lat="48.482950" lon="9.913753">
        <ele>614.926160</ele>
        <time>2025-11-11T21:07:44.723Z</time>
      </trkpt>
      <trkpt lat="48.482906" lon="9.913648">
        <ele>615.102918</ele>
        <time>2025-11-11T21:07:46.403Z</time>
      </trkpt>
      <trkpt lat="48.482804" lon="9.913331">
        <ele>615.604315</ele>
        <time>2025-11-11T21:07:51.266Z</time>
      </trkpt>
      <trkpt lat="48.482736" lon="9.913076">
        <ele>615.995418</ele>
        <time>2025-11-11T21:07:55.139Z</time>
      </trkpt>
      <trkpt lat="48.482543" lon="9.912120">
        <ele>617.417413</ele>
        <time>2025-11-11T21:08:11.989Z</time>
      </trkpt>
      <trkpt lat="48.482512" lon="9.911943">
        <ele>617.677912</ele>
        <time>2025-11-11T21:08:15.313Z</time>
      </trkpt>
      <trkpt lat="48.482472" lon="9.911597">
        <ele>618.177672</ele>
        <time>2025-11-11T21:08:21.734Z</time>
      </trkpt>
      <trkpt lat="48.482453" lon="9.911402">
        <ele>618.594380</ele>
        <time>2025-11-11T21:08:25.427Z</time>
      </trkpt>
      <trkpt lat="48.482444" lon="9.911306">
        <ele>618.800639</ele>
        <time>2025-11-11T21:08:27.277Z</time>
      </trkpt>
      <trkpt lat="48.482408" lon="9.910984">
        <ele>619.495322</ele>
        <time>2025-11-11T21:08:33.663Z</time>
      </trkpt>
      <trkpt lat="48.482361" lon="9.910568">
        <ele>620.393066</ele>
        <time>2025-11-11T21:08:41.840Z</time>
      </trkpt>
      <trkpt lat="48.482269" lon="9.909964">
        <ele>621.711479</ele>
        <time>2025-11-11T21:08:53.840Z</time>
      </trkpt>
      <trkpt lat="48.482194" lon="9.909672">
        <ele>622.377674</ele>
        <time>2025-11-11T21:08:59.869Z</time>
      </trkpt>
      <trkpt lat="48.482160" lon="9.909602">
        <ele>622.562289</ele>
        <time>2025-11-11T21:09:01.574Z</time>
      </trkpt>
      <trkpt lat="48.481895" lon="9.909112">
        <ele>623.907637</ele>
        <time>2025-11-11T21:09:12.415Z</time>
      </trkpt>
      <trkpt lat="48.481809" lon="9.908845">
        <ele>624.235145</ele>
        <time>2025-11-11T21:09:17.175Z</time>
      </trkpt>
      <trkpt lat="48.481715" lon="9.908490">
        <ele>624.624818</ele>
        <time>2025-11-11T21:09:23.175Z</time>
      </trkpt>
      <trkpt lat="48.481670" lon="9.908283">
        <ele>624.846881</ele>
        <time>2025-11-11T21:09:26.590Z</time>
      </trkpt>
      <trkpt lat="48.481604" lon="9.908023">
        <ele>625.130682</ele>
        <time>2025-11-11T21:09:30.719Z</time>
      </trkpt>
      <trkpt lat="48.481488" lon="9.907305">
        <ele>625.884003</ele>
        <time>2025-11-11T21:09:40.297Z</time>
      </trkpt>
      <trkpt lat="48.481477" lon="9.907194">
        <ele>625.998409</ele>
        <time>2025-11-11T21:09:41.613Z</time>
      </trkpt>
      <trkpt lat="48.481467" lon="9.906623">
        <ele>626.580664</ele>
        <time>2025-11-11T21:09:48.316Z</time>
      </trkpt>
      <trkpt lat="48.481495" lon="9.906396">
        <ele>626.747911</ele>
        <time>2025-11-11T21:09:51.043Z</time>
      </trkpt>
      <trkpt lat="48.481381" lon="9.906349">
        <ele>626.798778</ele>
        <time>2025-11-11T21:09:53.126Z</time>
      </trkpt>
      <trkpt lat="48.481034" lon="9.906361">
        <ele>626.948174</ele>
        <time>2025-11-11T21:09:58.963Z</time>
      </trkpt>
      <trkpt lat="48.480720" lon="9.906378">
        <ele>627.083414</ele>
        <time>2025-11-11T21:10:04.212Z</time>
      </trkpt>
      <trkpt lat="48.480566" lon="9.906393">
        <ele>627.149837</ele>
        <time>2025-11-11T21:10:06.673Z</time>
      </trkpt>
      <trkpt lat="48.480501" lon="9.906399">
        <ele>627.177866</ele>
        <time>2025-11-11T21:10:07.732Z</time>
      </trkpt>
      <trkpt lat="48.480218" lon="9.906469">
        <ele>627.301302</ele>
        <time>2025-11-11T21:10:12.296Z</time>
      </trkpt>
      <trkpt lat="48.480182" lon="9.906070">
        <ele>627.416194</ele>
        <time>2025-11-11T21:10:18.066Z</time>
      </trkpt>
      <trkpt lat="48.480165" lon="9.905665">
        <ele>627.491887</ele>
        <time>2025-11-11T21:10:23.967Z</time>
      </trkpt>
      <trkpt lat="48.480153" lon="9.905395">
        <ele>627.483983</ele>
        <time>2025-11-11T21:10:27.798Z</time>
      </trkpt>
      <trkpt lat="48.480137" lon="9.905035">
        <ele>627.473445</ele>
        <time>2025-11-11T21:10:32.756Z</time>
      </trkpt>
      <trkpt lat="48.480135" lon="9.904982">
        <ele>627.471894</ele>
        <time>2025-11-11T21:10:33.460Z</time>
      </trkpt>
      <trkpt lat="48.480112" lon="9.904350">
        <ele>627.453407</ele>
        <time>2025-11-11T21:10:41.999Z</time>
      </trkpt>
      <trkpt lat="48.480101" lon="9.904035">
        <ele>627.444194</ele>
        <time>2025-11-11T21:10:46.169Z</time>
      </trkpt>
      <trkpt lat="48.480097" lon="9.903917">
        <ele>627.440743</ele>
        <time>2025-11-11T21:10:47.705Z</time>
      </trkpt>
      <trkpt lat="48.480051" lon="9.901159">
        <ele>627.273709</ele>
        <time>2025-11-11T21:11:22.435Z</time>
      </trkpt>
      <trkpt lat="48.479998" lon="9.898643">
        <ele>627.450532</ele>
        <time>2025-11-11T21:11:58.698Z</time>
      </trkpt>
      <trkpt lat="48.479982" lon="9.897705">
        <ele>627.578335</ele>
        <time>2025-11-11T21:12:11.828Z</time>
      </trkpt>
      <trkpt lat="48.479988" lon="9.896446">
        <ele>626.664155</ele>
        <time>2025-11-11T21:12:27.294Z</time>
      </trkpt>
      <trkpt lat="48.479982" lon="9.893988">
        <ele>624.455715</ele>
        <time>2025-11-11T21:12:53.394Z</time>
      </trkpt>
      <trkpt lat="48.480085" lon="9.892215">
        <ele>622.506571</ele>
        <time>2025-11-11T21:13:11.861Z</time>
      </trkpt>
      <trkpt lat="48.480087" lon="9.891960">
        <ele>622.641480</ele>
        <time>2025-11-11T21:13:14.868Z</time>
      </trkpt>
      <trkpt lat="48.480056" lon="9.891647">
        <ele>622.808902</ele>
        <time>2025-11-11T21:13:18.875Z</time>
      </trkpt>
      <trkpt lat="48.479565" lon="9.889034">
        <ele>624.198649</ele>
        <time>2025-11-11T21:14:06.545Z</time>
      </trkpt>
      <trkpt lat="48.479250" lon="9.887360">
        <ele>624.982070</ele>
        <time>2025-11-11T21:14:33.486Z</time>
      </trkpt>
      <trkpt lat="48.479120" lon="9.886723">
        <ele>624.976587</ele>
        <time>2025-11-11T21:14:41.942Z</time>
      </trkpt>
      <trkpt lat="48.478662" lon="9.884945">
        <ele>623.827844</ele>
        <time>2025-11-11T21:15:03.452Z</time>
      </trkpt>
      <trkpt lat="48.478332" lon="9.882704">
        <ele>623.666317</ele>
        <time>2025-11-11T21:15:29.616Z</time>
      </trkpt>
      <trkpt lat="48.478188" lon="9.882212">
        <ele>623.711301</ele>
        <time>2025-11-11T21:15:38.579Z</time>
      </trkpt>
      <trkpt lat="48.477375" lon="9.880195">
        <ele>627.465078</ele>
        <time>2025-11-11T21:16:30.359Z</time>
      </trkpt>
      <trkpt lat="48.477143" lon="9.879595">
        <ele>628.780128</ele>
        <time>2025-11-11T21:16:42.474Z</time>
      </trkpt>
      <trkpt lat="48.477116" lon="9.879525">
        <ele>628.904193</ele>
        <time>2025-11-11T21:16:43.798Z</time>
      </trkpt>
      <trkpt lat="48.477077" lon="9.879438">
        <ele>628.991843</ele>
        <time>2025-11-11T21:16:45.511Z</time>
      </trkpt>
      <trkpt lat="48.476892" lon="9.878974">
        <ele>629.443726</ele>
        <time>2025-11-11T21:16:53.861Z</time>
      </trkpt>
      <trkpt lat="48.476330" lon="9.877680">
        <ele>630.734792</ele>
        <time>2025-11-11T21:17:13.548Z</time>
      </trkpt>
      <trkpt lat="48.473843" lon="9.871473">
        <ele>632.339453</ele>
        <time>2025-11-11T21:18:26.822Z</time>
      </trkpt>
      <trkpt lat="48.469712" lon="9.863895">
        <ele>637.384275</ele>
        <time>2025-11-11T21:20:28.555Z</time>
      </trkpt>
      <trkpt lat="48.469310" lon="9.863115">
        <ele>636.893611</ele>
        <time>2025-11-11T21:20:36.481Z</time>
      </trkpt>
      <trkpt lat="48.469164" lon="9.862620">
        <ele>636.624538</ele>
        <time>2025-11-11T21:20:40.543Z</time>
      </trkpt>
      <trkpt lat="48.469000" lon="9.860735">
        <ele>636.238525</ele>
        <time>2025-11-11T21:20:56.019Z</time>
      </trkpt>
      <trkpt lat="48.468838" lon="9.858612">
        <ele>636.462899</ele>
        <time>2025-11-11T21:21:21.509Z</time>
      </trkpt>
      <trkpt lat="48.466138" lon="9.857633">
        <ele>638.503020</ele>
        <time>2025-11-11T21:22:06.538Z</time>
      </trkpt>
      <trkpt lat="48.464090" lon="9.856896">
        <ele>642.578204</ele>
        <time>2025-11-11T21:23:00.130Z</time>
      </trkpt>
      <trkpt lat="48.463777" lon="9.856783">
        <ele>643.128133</ele>
        <time>2025-11-11T21:23:06.874Z</time>
      </trkpt>
      <trkpt lat="48.460416" lon="9.855568">
        <ele>644.580267</ele>
        <time>2025-11-11T21:24:00.974Z</time>
      </trkpt>
      <trkpt lat="48.460619" lon="9.852966">
        <ele>645.577727</ele>
        <time>2025-11-11T21:24:33.593Z</time>
      </trkpt>
      <trkpt lat="48.458638" lon="9.852272">
        <ele>643.778316</ele>
        <time>2025-11-11T21:24:58.327Z</time>
      </trkpt>
      <trkpt lat="48.458572" lon="9.852246">
        <ele>643.650136</ele>
        <time>2025-11-11T21:24:59.117Z</time>
      </trkpt>
      <trkpt lat="48.457825" lon="9.853755">
        <ele>641.303608</ele>
        <time>2025-11-11T21:25:13.215Z</time>
      </trkpt>
      <trkpt lat="48.457378" lon="9.854539">
        <ele>639.716957</ele>
        <time>2025-11-11T21:25:20.352Z</time>
      </trkpt>
      <trkpt lat="48.456871" lon="9.855438">
        <ele>637.547231</ele>
        <time>2025-11-11T21:25:28.253Z</time>
      </trkpt>
      <trkpt lat="48.456506" lon="9.856155">
        <ele>635.885360</ele>
        <time>2025-11-11T21:25:34.402Z</time>
      </trkpt>
      <trkpt lat="48.456256" lon="9.856714">
        <ele>635.384074</ele>
        <time>2025-11-11T21:25:39.296Z</time>
      </trkpt>
      <trkpt lat="48.455405" lon="9.858711">
        <ele>634.360688</ele>
        <time>2025-11-11T21:26:01.011Z</time>
      </trkpt>
      <trkpt lat="48.455404" lon="9.858714">
        <ele>634.361436</ele>
        <time>2025-11-11T21:26:01.048Z</time>
      </trkpt>
      <trkpt lat="48.454977" lon="9.859499">
        <ele>634.587496</ele>
        <time>2025-11-11T21:26:13.065Z</time>
      </trkpt>
      <trkpt lat="48.454383" lon="9.860347">
        <ele>634.862129</ele>
        <time>2025-11-11T21:26:27.274Z</time>
      </trkpt>
      <trkpt lat="48.452433" lon="9.862386">
        <ele>633.474706</ele>
        <time>2025-11-11T21:26:58.510Z</time>
      </trkpt>
      <trkpt lat="48.452025" lon="9.862840">
        <ele>632.755212</ele>
        <time>2025-11-11T21:27:04.351Z</time>
      </trkpt>
      <trkpt lat="48.451684" lon="9.863556">
        <ele>631.925681</ele>
        <time>2025-11-11T21:27:10.911Z</time>
      </trkpt>
      <trkpt lat="48.451434" lon="9.863952">
        <ele>631.375890</ele>
        <time>2025-11-11T21:27:14.930Z</time>
      </trkpt>
      <trkpt lat="48.450734" lon="9.864758">
        <ele>629.648112</ele>
        <time>2025-11-11T21:27:24.692Z</time>
      </trkpt>
      <trkpt lat="48.450228" lon="9.865452">
        <ele>628.306265</ele>
        <time>2025-11-11T21:27:32.159Z</time>
      </trkpt>
      <trkpt lat="48.450096" lon="9.865779">
        <ele>627.842402</ele>
        <time>2025-11-11T21:27:34.918Z</time>
      </trkpt>
      <trkpt lat="48.449705" lon="9.866924">
        <ele>626.509984</ele>
        <time>2025-11-11T21:27:44.327Z</time>
      </trkpt>
      <trkpt lat="48.449704" lon="9.866928">
        <ele>626.505561</ele>
        <time>2025-11-11T21:27:44.357Z</time>
      </trkpt>
      <trkpt lat="48.449525" lon="9.867547">
        <ele>625.806911</ele>
        <time>2025-11-11T21:27:49.513Z</time>
      </trkpt>
      <trkpt lat="48.449433" lon="9.867787">
        <ele>625.520115</ele>
        <time>2025-11-11T21:27:51.675Z</time>
      </trkpt>
      <trkpt lat="48.449033" lon="9.869234">
        <ele>625.278185</ele>
        <time>2025-11-11T21:28:05.269Z</time>
      </trkpt>
      <trkpt lat="48.448462" lon="9.871510">
        <ele>626.103822</ele>
        <time>2025-11-11T21:28:34.481Z</time>
      </trkpt>
      <trkpt lat="48.448290" lon="9.872288">
        <ele>626.703082</ele>
        <time>2025-11-11T21:28:46.029Z</time>
      </trkpt>
      <trkpt lat="48.448240" lon="9.872545">
        <ele>626.898793</ele>
        <time>2025-11-11T21:28:49.747Z</time>
      </trkpt>
      <trkpt lat="48.448115" lon="9.872932">
        <ele>627.213337</ele>
        <time>2025-11-11T21:28:55.510Z</time>
      </trkpt>
      <trkpt lat="48.447708" lon="9.873633">
        <ele>627.249764</ele>
        <time>2025-11-11T21:29:06.376Z</time>
      </trkpt>
      <trkpt lat="48.447558" lon="9.873985">
        <ele>627.164073</ele>
        <time>2025-11-11T21:29:10.260Z</time>
      </trkpt>
      <trkpt lat="48.447442" lon="9.874297">
        <ele>627.090816</ele>
        <time>2025-11-11T21:29:13.296Z</time>
      </trkpt>
      <trkpt lat="48.447138" lon="9.875356">
        <ele>626.854474</ele>
        <time>2025-11-11T21:29:22.541Z</time>
      </trkpt>
      <trkpt lat="48.446812" lon="9.876643">
        <ele>626.478190</ele>
        <time>2025-11-11T21:29:34.276Z</time>
      </trkpt>
      <trkpt lat="48.446723" lon="9.877189">
        <ele>626.321842</ele>
        <time>2025-11-11T21:29:39.792Z</time>
      </trkpt>
      <trkpt lat="48.446693" lon="9.877605">
        <ele>626.205480</ele>
        <time>2025-11-11T21:29:43.963Z</time>
      </trkpt>
      <trkpt lat="48.446707" lon="9.878354">
        <ele>625.857913</ele>
        <time>2025-11-11T21:29:51.510Z</time>
      </trkpt>
      <trkpt lat="48.446760" lon="9.880420">
        <ele>624.333435</ele>
        <time>2025-11-11T21:30:08.488Z</time>
      </trkpt>
      <trkpt lat="48.446760" lon="9.880427">
        <ele>624.328274</ele>
        <time>2025-11-11T21:30:08.534Z</time>
      </trkpt>
      <trkpt lat="48.446755" lon="9.881103">
        <ele>623.264123</ele>
        <time>2025-11-11T21:30:13.249Z</time>
      </trkpt>
      <trkpt lat="48.446711" lon="9.881861">
        <ele>621.444888</ele>
        <time>2025-11-11T21:30:18.339Z</time>
      </trkpt>
      <trkpt lat="48.446606" lon="9.884823">
        <ele>613.809097</ele>
        <time>2025-11-11T21:30:37.359Z</time>
      </trkpt>
      <trkpt lat="48.446600" lon="9.885222">
        <ele>612.695014</ele>
        <time>2025-11-11T21:30:39.898Z</time>
      </trkpt>
      <trkpt lat="48.446642" lon="9.886115">
        <ele>610.195974</ele>
        <time>2025-11-11T21:30:45.643Z</time>
      </trkpt>
      <trkpt lat="48.446688" lon="9.886585">
        <ele>609.106297</ele>
        <time>2025-11-11T21:30:48.732Z</time>
      </trkpt>
      <trkpt lat="48.446691" lon="9.887044">
        <ele>608.086260</ele>
        <time>2025-11-11T21:30:51.754Z</time>
      </trkpt>
      <trkpt lat="48.446601" lon="9.887654">
        <ele>606.697592</ele>
        <time>2025-11-11T21:30:55.960Z</time>
      </trkpt>
      <trkpt lat="48.446483" lon="9.888079">
        <ele>605.673760</ele>
        <time>2025-11-11T21:30:59.088Z</time>
      </trkpt>
      <trkpt lat="48.446208" lon="9.888708">
        <ele>604.001355</ele>
        <time>2025-11-11T21:31:04.154Z</time>
      </trkpt>
      <trkpt lat="48.446066" lon="9.889032">
        <ele>603.481896</ele>
        <time>2025-11-11T21:31:06.837Z</time>
      </trkpt>
      <trkpt lat="48.446017" lon="9.888985">
        <ele>603.364777</ele>
        <time>2025-11-11T21:31:07.709Z</time>
      </trkpt>
      <trkpt lat="48.445889" lon="9.889297">
        <ele>602.874052</ele>
        <time>2025-11-11T21:31:10.274Z</time>
      </trkpt>
      <trkpt lat="48.445780" lon="9.889453">
        <ele>602.570964</ele>
        <time>2025-11-11T21:31:11.860Z</time>
      </trkpt>
      <trkpt lat="48.445712" lon="9.889707">
        <ele>602.204567</ele>
        <time>2025-11-11T21:31:13.754Z</time>
      </trkpt>
      <trkpt lat="48.445687" lon="9.889761">
        <ele>602.116479</ele>
        <time>2025-11-11T21:31:14.204Z</time>
      </trkpt>
      <trkpt lat="48.445465" lon="9.890242">
        <ele>601.332633</ele>
        <time>2025-11-11T21:31:18.308Z</time>
      </trkpt>
      <trkpt lat="48.445359" lon="9.890418">
        <ele>601.014638</ele>
        <time>2025-11-11T21:31:20.055Z</time>
      </trkpt>
      <trkpt lat="48.445136" lon="9.890688">
        <ele>600.437854</ele>
        <time>2025-11-11T21:31:23.581Z</time>
      </trkpt>
      <trkpt lat="48.444792" lon="9.890938">
        <ele>600.665883</ele>
        <time>2025-11-11T21:31:30.165Z</time>
      </trkpt>
      <trkpt lat="48.444238" lon="9.891201">
        <ele>601.143575</ele>
        <time>2025-11-11T21:31:41.445Z</time>
      </trkpt>
      <trkpt lat="48.444154" lon="9.891235">
        <ele>601.215107</ele>
        <time>2025-11-11T21:31:43.342Z</time>
      </trkpt>
      <trkpt lat="48.444004" lon="9.891287">
        <ele>601.341694</ele>
        <time>2025-11-11T21:31:46.703Z</time>
      </trkpt>
      <trkpt lat="48.442983" lon="9.891736">
        <ele>601.369296</ele>
        <time>2025-11-11T21:32:07.991Z</time>
      </trkpt>
      <trkpt lat="48.442740" lon="9.891849">
        <ele>601.086841</ele>
        <time>2025-11-11T21:32:11.093Z</time>
      </trkpt>
      <trkpt lat="48.442092" lon="9.892265">
        <ele>600.304544</ele>
        <time>2025-11-11T21:32:18.802Z</time>
      </trkpt>
      <trkpt lat="48.441104" lon="9.892808">
        <ele>599.319260</ele>
        <time>2025-11-11T21:32:34.760Z</time>
      </trkpt>
      <trkpt lat="48.440700" lon="9.893178">
        <ele>598.927164</ele>
        <time>2025-11-11T21:32:43.101Z</time>
      </trkpt>
      <trkpt lat="48.440492" lon="9.893402">
        <ele>598.715134</ele>
        <time>2025-11-11T21:32:48.282Z</time>
      </trkpt>
      <trkpt lat="48.439903" lon="9.893885">
        <ele>598.585646</ele>
        <time>2025-11-11T21:33:04.747Z</time>
      </trkpt>
      <trkpt lat="48.439624" lon="9.894096">
        <ele>598.859444</ele>
        <time>2025-11-11T21:33:12.797Z</time>
      </trkpt>
      <trkpt lat="48.439189" lon="9.894322">
        <ele>599.263033</ele>
        <time>2025-11-11T21:33:24.058Z</time>
      </trkpt>
      <trkpt lat="48.438270" lon="9.894395">
        <ele>600.025992</ele>
        <time>2025-11-11T21:33:45.285Z</time>
      </trkpt>
      <trkpt lat="48.437833" lon="9.894603">
        <ele>600.287016</ele>
        <time>2025-11-11T21:33:54.968Z</time>
      </trkpt>
      <trkpt lat="48.437222" lon="9.895146">
        <ele>600.691019</ele>
        <time>2025-11-11T21:34:10.998Z</time>
      </trkpt>
      <trkpt lat="48.436951" lon="9.895340">
        <ele>600.861901</ele>
        <time>2025-11-11T21:34:17.926Z</time>
      </trkpt>
      <trkpt lat="48.436603" lon="9.895536">
        <ele>601.158141</ele>
        <time>2025-11-11T21:34:26.429Z</time>
      </trkpt>
      <trkpt lat="48.436568" lon="9.895549">
        <ele>601.195224</ele>
        <time>2025-11-11T21:34:27.232Z</time>
      </trkpt>
      <trkpt lat="48.436141" lon="9.895716">
        <ele>601.649041</ele>
        <time>2025-11-11T21:34:37.108Z</time>
      </trkpt>
      <trkpt lat="48.435382" lon="9.895887">
        <ele>602.438526</ele>
        <time>2025-11-11T21:34:55.165Z</time>
      </trkpt>
      <trkpt lat="48.435192" lon="9.895960">
        <ele>602.640236</ele>
        <time>2025-11-11T21:35:00.145Z</time>
      </trkpt>
      <trkpt lat="48.434883" lon="9.896161">
        <ele>603.226140</ele>
        <time>2025-11-11T21:35:09.341Z</time>
      </trkpt>
      <trkpt lat="48.434378" lon="9.896644">
        <ele>604.721231</ele>
        <time>2025-11-11T21:35:27.682Z</time>
      </trkpt>
      <trkpt lat="48.434225" lon="9.896779">
        <ele>605.164411</ele>
        <time>2025-11-11T21:35:33.592Z</time>
      </trkpt>
      <trkpt lat="48.433676" lon="9.896969">
        <ele>606.572490</ele>
        <time>2025-11-11T21:35:52.745Z</time>
      </trkpt>
      <trkpt lat="48.433086" lon="9.897068">
        <ele>606.776119</ele>
        <time>2025-11-11T21:36:10.469Z</time>
      </trkpt>
      <trkpt lat="48.432732" lon="9.897182">
        <ele>606.118460</ele>
        <time>2025-11-11T21:36:18.522Z</time>
      </trkpt>
      <trkpt lat="48.432395" lon="9.897317">
        <ele>605.484945</ele>
        <time>2025-11-11T21:36:24.451Z</time>
      </trkpt>
      <trkpt lat="48.431894" lon="9.897512">
        <ele>604.544874</ele>
        <time>2025-11-11T21:36:31.910Z</time>
      </trkpt>
      <trkpt lat="48.431690" lon="9.897623">
        <ele>604.150835</ele>
        <time>2025-11-11T21:36:34.797Z</time>
      </trkpt>
      <trkpt lat="48.431013" lon="9.898318">
        <ele>598.077735</ele>
        <time>2025-11-11T21:36:45.120Z</time>
      </trkpt>
      <trkpt lat="48.430916" lon="9.898399">
        <ele>597.209125</ele>
        <time>2025-11-11T21:36:46.499Z</time>
      </trkpt>
      <trkpt lat="48.430765" lon="9.898522">
        <ele>595.864675</ele>
        <time>2025-11-11T21:36:48.630Z</time>
      </trkpt>
      <trkpt lat="48.430502" lon="9.898745">
        <ele>593.501007</ele>
        <time>2025-11-11T21:36:52.390Z</time>
      </trkpt>
      <trkpt lat="48.430383" lon="9.898894">
        <ele>592.289192</ele>
        <time>2025-11-11T21:36:54.329Z</time>
      </trkpt>
      <trkpt lat="48.429960" lon="9.899571">
        <ele>586.771381</ele>
        <time>2025-11-11T21:37:02.039Z</time>
      </trkpt>
      <trkpt lat="48.429723" lon="9.899819">
        <ele>583.893037</ele>
        <time>2025-11-11T21:37:05.626Z</time>
      </trkpt>
      <trkpt lat="48.429525" lon="9.899941">
        <ele>581.759082</ele>
        <time>2025-11-11T21:37:08.275Z</time>
      </trkpt>
      <trkpt lat="48.429339" lon="9.899993">
        <ele>579.871892</ele>
        <time>2025-11-11T21:37:10.596Z</time>
      </trkpt>
      <trkpt lat="48.429063" lon="9.900002">
        <ele>577.117877</ele>
        <time>2025-11-11T21:37:13.943Z</time>
      </trkpt>
      <trkpt lat="48.428776" lon="9.899877">
        <ele>574.137601</ele>
        <time>2025-11-11T21:37:17.490Z</time>
      </trkpt>
      <trkpt lat="48.428709" lon="9.899831">
        <ele>573.403117</ele>
        <time>2025-11-11T21:37:18.369Z</time>
      </trkpt>
      <trkpt lat="48.428357" lon="9.899590">
        <ele>569.295765</ele>
        <time>2025-11-11T21:37:22.982Z</time>
      </trkpt>
      <trkpt lat="48.428185" lon="9.899521">
        <ele>567.340093</ele>
        <time>2025-11-11T21:37:25.129Z</time>
      </trkpt>
      <trkpt lat="48.427898" lon="9.899482">
        <ele>564.173870</ele>
        <time>2025-11-11T21:37:28.602Z</time>
      </trkpt>
      <trkpt lat="48.427604" lon="9.899602">
        <ele>560.827142</ele>
        <time>2025-11-11T21:37:32.250Z</time>
      </trkpt>
      <trkpt lat="48.427277" lon="9.899848">
        <ele>556.811410</ele>
        <time>2025-11-11T21:37:36.649Z</time>
      </trkpt>
      <trkpt lat="48.427114" lon="9.899926">
        <ele>554.932315</ele>
        <time>2025-11-11T21:37:38.702Z</time>
      </trkpt>
      <trkpt lat="48.426929" lon="9.899918">
        <ele>552.898779</ele>
        <time>2025-11-11T21:37:40.928Z</time>
      </trkpt>
      <trkpt lat="48.426571" lon="9.899742">
        <ele>549.366576</ele>
        <time>2025-11-11T21:37:45.640Z</time>
      </trkpt>
      <trkpt lat="48.426372" lon="9.899680">
        <ele>547.520906</ele>
        <time>2025-11-11T21:37:48.211Z</time>
      </trkpt>
      <trkpt lat="48.426147" lon="9.899686">
        <ele>545.476990</ele>
        <time>2025-11-11T21:37:50.974Z</time>
      </trkpt>
      <trkpt lat="48.425894" lon="9.899737">
        <ele>543.158613</ele>
        <time>2025-11-11T21:37:54.089Z</time>
      </trkpt>
      <trkpt lat="48.425588" lon="9.899812">
        <ele>540.342803</ele>
        <time>2025-11-11T21:37:57.874Z</time>
      </trkpt>
      <trkpt lat="48.425419" lon="9.899809">
        <ele>538.807729</ele>
        <time>2025-11-11T21:37:59.957Z</time>
      </trkpt>
      <trkpt lat="48.425046" lon="9.899736">
        <ele>535.497502</ele>
        <time>2025-11-11T21:38:04.685Z</time>
      </trkpt>
      <trkpt lat="48.424330" lon="9.899445">
        <ele>530.122373</ele>
        <time>2025-11-11T21:38:14.148Z</time>
      </trkpt>
      <trkpt lat="48.424164" lon="9.899342">
        <ele>528.821170</ele>
        <time>2025-11-11T21:38:16.411Z</time>
      </trkpt>
      <trkpt lat="48.423998" lon="9.899240">
        <ele>527.521791</ele>
        <time>2025-11-11T21:38:18.000Z</time>
      </trkpt>
      <trkpt lat="48.423423" lon="9.898703">
        <ele>522.760997</ele>
        <time>2025-11-11T21:38:24.055Z</time>
      </trkpt>
      <trkpt lat="48.422821" lon="9.898219">
        <ele>520.513308</ele>
        <time>2025-11-11T21:38:30.457Z</time>
      </trkpt>
      <trkpt lat="48.422712" lon="9.898136">
        <ele>520.111004</ele>
        <time>2025-11-11T21:38:31.639Z</time>
      </trkpt>
      <trkpt lat="48.422815" lon="9.898047">
        <ele>519.719880</ele>
        <time>2025-11-11T21:38:32.823Z</time>
      </trkpt>
      <trkpt lat="48.422941" lon="9.898033">
        <ele>519.303690</ele>
        <time>2025-11-11T21:38:34.125Z</time>
      </trkpt>
      <trkpt lat="48.423338" lon="9.898077">
        <ele>517.992379</ele>
        <time>2025-11-11T21:38:38.687Z</time>
      </trkpt>
      <trkpt lat="48.423740" lon="9.898124">
        <ele>516.893351</ele>
        <time>2025-11-11T21:38:44.655Z</time>
      </trkpt>
      <trkpt lat="48.423932" lon="9.898462">
        <ele>516.688147</ele>
        <time>2025-11-11T21:38:49.561Z</time>
      </trkpt>
      <trkpt lat="48.424162" lon="9.898719">
        <ele>516.489144</ele>
        <time>2025-11-11T21:38:54.090Z</time>
      </trkpt>
      <trkpt lat="48.424334" lon="9.898836">
        <ele>516.357987</ele>
        <time>2025-11-11T21:38:56.926Z</time>
      </trkpt>
      <trkpt lat="48.425112" lon="9.898917">
        <ele>515.815983</ele>
        <time>2025-11-11T21:39:06.485Z</time>
      </trkpt>
      <trkpt lat="48.425472" lon="9.898802">
        <ele>515.418559</ele>
        <time>2025-11-11T21:39:10.524Z</time>
      </trkpt>
      <trkpt lat="48.425745" lon="9.898593">
        <ele>514.996887</ele>
        <time>2025-11-11T21:39:13.826Z</time>
      </trkpt>
      <trkpt lat="48.425879" lon="9.898490">
        <ele>514.789741</ele>
        <time>2025-11-11T21:39:15.423Z</time>
      </trkpt>
      <trkpt lat="48.426011" lon="9.898387">
        <ele>514.585045</ele>
        <time>2025-11-11T21:39:17.027Z</time>
      </trkpt>
      <trkpt lat="48.426042" lon="9.898362">
        <ele>514.536627</ele>
        <time>2025-11-11T21:39:17.405Z</time>
      </trkpt>
      <trkpt lat="48.426232" lon="9.898136">
        <ele>514.203299</ele>
        <time>2025-11-11T21:39:20.158Z</time>
      </trkpt>
      <trkpt lat="48.426381" lon="9.897955">
        <ele>513.939752</ele>
        <time>2025-11-11T21:39:22.423Z</time>
      </trkpt>
      <trkpt lat="48.426525" lon="9.897779">
        <ele>513.684432</ele>
        <time>2025-11-11T21:39:24.691Z</time>
      </trkpt>
      <trkpt lat="48.426631" lon="9.897618">
        <ele>513.477184</ele>
        <time>2025-11-11T21:39:26.702Z</time>
      </trkpt>
      <trkpt lat="48.426749" lon="9.897415">
        <ele>513.230578</ele>
        <time>2025-11-11T21:39:29.342Z</time>
      </trkpt>
      <trkpt lat="48.427018" lon="9.896843">
        <ele>513.103865</ele>
        <time>2025-11-11T21:39:36.428Z</time>
      </trkpt>
      <trkpt lat="48.427048" lon="9.896767">
        <ele>513.088173</ele>
        <time>2025-11-11T21:39:37.250Z</time>
      </trkpt>
      <trkpt lat="48.427889" lon="9.894580">
        <ele>512.563574</ele>
        <time>2025-11-11T21:40:00.491Z</time>
      </trkpt>
      <trkpt lat="48.427935" lon="9.894478">
        <ele>512.526143</ele>
        <time>2025-11-11T21:40:01.518Z</time>
      </trkpt>
      <trkpt lat="48.427975" lon="9.894379">
        <ele>512.490964</ele>
        <time>2025-11-11T21:40:02.501Z</time>
      </trkpt>
      <trkpt lat="48.428244" lon="9.893718">
        <ele>512.255622</ele>
        <time>2025-11-11T21:40:09.015Z</time>
      </trkpt>
      <trkpt lat="48.428485" lon="9.893255">
        <ele>512.077022</ele>
        <time>2025-11-11T21:40:14.018Z</time>
      </trkpt>
      <trkpt lat="48.428922" lon="9.892773">
        <ele>512.023444</ele>
        <time>2025-11-11T21:40:21.562Z</time>
      </trkpt>
      <trkpt lat="48.429446" lon="9.892264">
        <ele>512.322583</ele>
        <time>2025-11-11T21:40:31.787Z</time>
      </trkpt>
      <trkpt lat="48.430567" lon="9.891574">
        <ele>512.922056</ele>
        <time>2025-11-11T21:40:53.969Z</time>
      </trkpt>
      <trkpt lat="48.430906" lon="9.891261">
        <ele>513.143017</ele>
        <time>2025-11-11T21:41:00.896Z</time>
      </trkpt>
      <trkpt lat="48.431432" lon="9.890499">
        <ele>513.548523</ele>
        <time>2025-11-11T21:41:13.134Z</time>
      </trkpt>
      <trkpt lat="48.432247" lon="9.889150">
        <ele>513.844442</ele>
        <time>2025-11-11T21:41:32.361Z</time>
      </trkpt>
      <trkpt lat="48.432992" lon="9.888122">
        <ele>513.918917</ele>
        <time>2025-11-11T21:41:47.471Z</time>
      </trkpt>
      <trkpt lat="48.434118" lon="9.886828">
        <ele>513.200747</ele>
        <time>2025-11-11T21:42:06.845Z</time>
      </trkpt>
      <trkpt lat="48.435108" lon="9.885974">
        <ele>512.427585</ele>
        <time>2025-11-11T21:42:20.489Z</time>
      </trkpt>
      <trkpt lat="48.435941" lon="9.884417">
        <ele>511.961203</ele>
        <time>2025-11-11T21:42:37.517Z</time>
      </trkpt>
      <trkpt lat="48.436256" lon="9.883823">
        <ele>512.564953</ele>
        <time>2025-11-11T21:42:46.244Z</time>
      </trkpt>
      <trkpt lat="48.436342" lon="9.883708">
        <ele>512.702533</ele>
        <time>2025-11-11T21:42:48.447Z</time>
      </trkpt>
      <trkpt lat="48.436608" lon="9.883652">
        <ele>513.023944</ele>
        <time>2025-11-11T21:42:53.936Z</time>
      </trkpt>
      <trkpt lat="48.436729" lon="9.883698">
        <ele>513.173280</ele>
        <time>2025-11-11T21:42:56.662Z</time>
      </trkpt>
      <trkpt lat="48.436841" lon="9.883833">
        <ele>513.344896</ele>
        <time>2025-11-11T21:42:59.954Z</time>
      </trkpt>
      <trkpt lat="48.437114" lon="9.884394">
        <ele>514.029640</ele>
        <time>2025-11-11T21:43:11.655Z</time>
      </trkpt>
      <trkpt lat="48.437461" lon="9.885008">
        <ele>515.386610</ele>
        <time>2025-11-11T21:43:26.946Z</time>
      </trkpt>
      <trkpt lat="48.437898" lon="9.885493">
        <ele>516.762774</ele>
        <time>2025-11-11T21:43:42.933Z</time>
      </trkpt>
      <trkpt lat="48.438269" lon="9.885734">
        <ele>517.787228</ele>
        <time>2025-11-11T21:43:53.093Z</time>
      </trkpt>
      <trkpt lat="48.438611" lon="9.885899">
        <ele>518.077835</ele>
        <time>2025-11-11T21:44:00.032Z</time>
      </trkpt>
      <trkpt lat="48.438899" lon="9.885961">
        <ele>517.537005</ele>
        <time>2025-11-11T21:44:03.649Z</time>
      </trkpt>
      <trkpt lat="48.439393" lon="9.885828">
        <ele>516.604116</ele>
        <time>2025-11-11T21:44:09.098Z</time>
      </trkpt>
      <trkpt lat="48.439585" lon="9.885697">
        <ele>516.212322</ele>
        <time>2025-11-11T21:44:11.263Z</time>
      </trkpt>
      <trkpt lat="48.439765" lon="9.885509">
        <ele>515.805221</ele>
        <time>2025-11-11T21:44:13.450Z</time>
      </trkpt>
      <trkpt lat="48.440103" lon="9.885058">
        <ele>514.978584</ele>
        <time>2025-11-11T21:44:17.923Z</time>
      </trkpt>
      <trkpt lat="48.440378" lon="9.884538">
        <ele>514.497213</ele>
        <time>2025-11-11T21:44:22.465Z</time>
      </trkpt>
      <trkpt lat="48.440556" lon="9.884030">
        <ele>514.081354</ele>
        <time>2025-11-11T21:44:26.820Z</time>
      </trkpt>
      <trkpt lat="48.440906" lon="9.882792">
        <ele>513.107245</ele>
        <time>2025-11-11T21:44:39.506Z</time>
      </trkpt>
      <trkpt lat="48.440972" lon="9.882624">
        <ele>513.048569</ele>
        <time>2025-11-11T21:44:41.844Z</time>
      </trkpt>
      <trkpt lat="48.441103" lon="9.882227">
        <ele>513.118258</ele>
        <time>2025-11-11T21:44:47.631Z</time>
      </trkpt>
      <trkpt lat="48.441225" lon="9.881555">
        <ele>513.227760</ele>
        <time>2025-11-11T21:44:56.546Z</time>
      </trkpt>
      <trkpt lat="48.441301" lon="9.880932">
        <ele>513.327318</ele>
        <time>2025-11-11T21:45:03.458Z</time>
      </trkpt>
      <trkpt lat="48.441306" lon="9.880407">
        <ele>513.409841</ele>
        <time>2025-11-11T21:45:08.362Z</time>
      </trkpt>
      <trkpt lat="48.441249" lon="9.879861">
        <ele>513.393018</ele>
        <time>2025-11-11T21:45:12.974Z</time>
      </trkpt>
      <trkpt lat="48.440989" lon="9.878893">
        <ele>513.094076</ele>
        <time>2025-11-11T21:45:21.338Z</time>
      </trkpt>
      <trkpt lat="48.440941" lon="9.878621">
        <ele>513.013507</ele>
        <time>2025-11-11T21:45:23.571Z</time>
      </trkpt>
      <trkpt lat="48.440949" lon="9.878346">
        <ele>512.934712</ele>
        <time>2025-11-11T21:45:25.904Z</time>
      </trkpt>
      <trkpt lat="48.440996" lon="9.878073">
        <ele>512.853976</ele>
        <time>2025-11-11T21:45:28.531Z</time>
      </trkpt>
      <trkpt lat="48.441195" lon="9.877412">
        <ele>512.785515</ele>
        <time>2025-11-11T21:45:36.310Z</time>
      </trkpt>
      <trkpt lat="48.441585" lon="9.875934">
        <ele>514.014945</ele>
        <time>2025-11-11T21:45:57.224Z</time>
      </trkpt>
      <trkpt lat="48.441705" lon="9.875598">
        <ele>514.309889</ele>
        <time>2025-11-11T21:46:02.713Z</time>
      </trkpt>
      <trkpt lat="48.441867" lon="9.875298">
        <ele>514.608874</ele>
        <time>2025-11-11T21:46:08.158Z</time>
      </trkpt>
      <trkpt lat="48.442386" lon="9.874811">
        <ele>515.389393</ele>
        <time>2025-11-11T21:46:20.381Z</time>
      </trkpt>
      <trkpt lat="48.442642" lon="9.874531">
        <ele>515.804328</ele>
        <time>2025-11-11T21:46:26.576Z</time>
      </trkpt>
      <trkpt lat="48.442991" lon="9.873974">
        <ele>516.471114</ele>
        <time>2025-11-11T21:46:37.397Z</time>
      </trkpt>
      <trkpt lat="48.443127" lon="9.873643">
        <ele>516.809951</ele>
        <time>2025-11-11T21:46:42.841Z</time>
      </trkpt>
      <trkpt lat="48.443352" lon="9.872549">
        <ele>517.146077</ele>
        <time>2025-11-11T21:46:56.589Z</time>
      </trkpt>
      <trkpt lat="48.443427" lon="9.872290">
        <ele>517.148644</ele>
        <time>2025-11-11T21:46:59.873Z</time>
      </trkpt>
      <trkpt lat="48.443454" lon="9.871940">
        <ele>517.151844</ele>
        <time>2025-11-11T21:47:03.799Z</time>
      </trkpt>
      <trkpt lat="48.443450" lon="9.871116">
        <ele>517.159327</ele>
        <time>2025-11-11T21:47:11.506Z</time>
      </trkpt>
      <trkpt lat="48.443487" lon="9.870682">
        <ele>517.163301</ele>
        <time>2025-11-11T21:47:14.985Z</time>
      </trkpt>
      <trkpt lat="48.443481" lon="9.869708">
        <ele>516.602503</ele>
        <time>2025-11-11T21:47:22.098Z</time>
      </trkpt>
      <trkpt lat="48.443563" lon="9.869331">
        <ele>516.362126</ele>
        <time>2025-11-11T21:47:25.118Z</time>
      </trkpt>
      <trkpt lat="48.443918" lon="9.868494">
        <ele>515.760222</ele>
        <time>2025-11-11T21:47:33.358Z</time>
      </trkpt>
      <trkpt lat="48.444088" lon="9.867983">
        <ele>515.629400</ele>
        <time>2025-11-11T21:47:39.158Z</time>
      </trkpt>
      <trkpt lat="48.444583" lon="9.866792">
        <ele>516.491523</ele>
        <time>2025-11-11T21:47:56.604Z</time>
      </trkpt>
      <trkpt lat="48.444718" lon="9.866411">
        <ele>516.756482</ele>
        <time>2025-11-11T21:48:02.400Z</time>
      </trkpt>
      <trkpt lat="48.444887" lon="9.865822">
        <ele>517.150127</ele>
        <time>2025-11-11T21:48:10.810Z</time>
      </trkpt>
      <trkpt lat="48.445001" lon="9.865567">
        <ele>517.479908</ele>
        <time>2025-11-11T21:48:14.743Z</time>
      </trkpt>
      <trkpt lat="48.445939" lon="9.863743">
        <ele>520.188619</ele>
        <time>2025-11-11T21:48:47.449Z</time>
      </trkpt>
      <trkpt lat="48.446171" lon="9.863261">
        <ele>521.330450</ele>
        <time>2025-11-11T21:48:57.471Z</time>
      </trkpt>
      <trkpt lat="48.446594" lon="9.862376">
        <ele>523.699054</ele>
        <time>2025-11-11T21:49:18.667Z</time>
      </trkpt>
      <trkpt lat="48.446652" lon="9.862108">
        <ele>524.311177</ele>
        <time>2025-11-11T21:49:24.442Z</time>
      </trkpt>
      <trkpt lat="48.446669" lon="9.861884">
        <ele>524.800741</ele>
        <time>2025-11-11T21:49:28.842Z</time>
      </trkpt>
      <trkpt lat="48.446684" lon="9.861695">
        <ele>525.214060</ele>
        <time>2025-11-11T21:49:32.391Z</time>
      </trkpt>
      <trkpt lat="48.446707" lon="9.861551">
        <ele>525.535677</ele>
        <time>2025-11-11T21:49:35.230Z</time>
      </trkpt>
      <trkpt lat="48.446756" lon="9.861424">
        <ele>525.854700</ele>
        <time>2025-11-11T21:49:38.088Z</time>
      </trkpt>
      <trkpt lat="48.446879" lon="9.861323">
        <ele>526.327900</ele>
        <time>2025-11-11T21:49:42.015Z</time>
      </trkpt>
      <trkpt lat="48.447668" lon="9.860903">
        <ele>529.753159</ele>
        <time>2025-11-11T21:50:05.958Z</time>
      </trkpt>
      <trkpt lat="48.448092" lon="9.860724">
        <ele>531.555603</ele>
        <time>2025-11-11T21:50:19.905Z</time>
      </trkpt>
      <trkpt lat="48.448336" lon="9.860596">
        <ele>532.613176</ele>
        <time>2025-11-11T21:50:28.640Z</time>
      </trkpt>
      <trkpt lat="48.448379" lon="9.860536">
        <ele>532.853021</ele>
        <time>2025-11-11T21:50:30.542Z</time>
      </trkpt>
      <trkpt lat="48.448433" lon="9.860459">
        <ele>533.157284</ele>
        <time>2025-11-11T21:50:33.187Z</time>
      </trkpt>
      <trkpt lat="48.448528" lon="9.860304">
        <ele>533.769934</ele>
        <time>2025-11-11T21:50:37.983Z</time>
      </trkpt>
      <trkpt lat="48.448620" lon="9.860173">
        <ele>534.469721</ele>
        <time>2025-11-11T21:50:42.387Z</time>
      </trkpt>
      <trkpt lat="48.448665" lon="9.860098">
        <ele>534.840665</ele>
        <time>2025-11-11T21:50:44.773Z</time>
      </trkpt>
      <trkpt lat="48.448717" lon="9.860021">
        <ele>535.243720</ele>
        <time>2025-11-11T21:50:47.306Z</time>
      </trkpt>
      <trkpt lat="48.448807" lon="9.859890">
        <ele>535.935507</ele>
        <time>2025-11-11T21:50:51.803Z</time>
      </trkpt>
      <trkpt lat="48.449094" lon="9.859512">
        <ele>538.042893</ele>
        <time>2025-11-11T21:51:05.980Z</time>
      </trkpt>
      <trkpt lat="48.449592" lon="9.859350">
        <ele>540.860142</ele>
        <time>2025-11-11T21:51:26.212Z</time>
      </trkpt>
      <trkpt lat="48.449832" lon="9.859168">
        <ele>542.345737</ele>
        <time>2025-11-11T21:51:36.614Z</time>
      </trkpt>
      <trkpt lat="48.449929" lon="9.858929">
        <ele>543.373437</ele>
        <time>2025-11-11T21:51:43.603Z</time>
      </trkpt>
      <trkpt lat="48.449961" lon="9.858789">
        <ele>543.753797</ele>
        <time>2025-11-11T21:51:47.289Z</time>
      </trkpt>
      <trkpt lat="48.449934" lon="9.858566">
        <ele>544.201769</ele>
        <time>2025-11-11T21:51:52.744Z</time>
      </trkpt>
      <trkpt lat="48.449879" lon="9.858385">
        <ele>544.595210</ele>
        <time>2025-11-11T21:51:57.412Z</time>
      </trkpt>
      <trkpt lat="48.449804" lon="9.858237">
        <ele>544.963281</ele>
        <time>2025-11-11T21:52:01.652Z</time>
      </trkpt>
      <trkpt lat="48.449660" lon="9.858074">
        <ele>545.499786</ele>
        <time>2025-11-11T21:52:07.539Z</time>
      </trkpt>
      <trkpt lat="48.449456" lon="9.857992">
        <ele>546.128824</ele>
        <time>2025-11-11T21:52:13.883Z</time>
      </trkpt>
      <trkpt lat="48.449304" lon="9.857841">
        <ele>546.671174</ele>
        <time>2025-11-11T21:52:18.758Z</time>
      </trkpt>
      <trkpt lat="48.449215" lon="9.857650">
        <ele>547.132465</ele>
        <time>2025-11-11T21:52:22.517Z</time>
      </trkpt>
      <trkpt lat="48.449188" lon="9.857454">
        <ele>547.528070</ele>
        <time>2025-11-11T21:52:25.487Z</time>
      </trkpt>
      <trkpt lat="48.449196" lon="9.857229">
        <ele>547.973357</ele>
        <time>2025-11-11T21:52:28.531Z</time>
      </trkpt>
      <trkpt lat="48.449267" lon="9.856421">
        <ele>548.932595</ele>
        <time>2025-11-11T21:52:36.617Z</time>
      </trkpt>
      <trkpt lat="48.449252" lon="9.856118">
        <ele>548.941661</ele>
        <time>2025-11-11T21:52:39.151Z</time>
      </trkpt>
      <trkpt lat="48.449180" lon="9.855677">
        <ele>548.955212</ele>
        <time>2025-11-11T21:52:42.896Z</time>
      </trkpt>
      <trkpt lat="48.449070" lon="9.855095">
        <ele>548.973269</ele>
        <time>2025-11-11T21:52:48.286Z</time>
      </trkpt>
      <trkpt lat="48.448775" lon="9.854118">
        <ele>549.027378</ele>
        <time>2025-11-11T21:53:00.132Z</time>
      </trkpt>
      <trkpt lat="48.448736" lon="9.853882">
        <ele>549.124665</ele>
        <time>2025-11-11T21:53:03.015Z</time>
      </trkpt>
      <trkpt lat="48.448729" lon="9.853655">
        <ele>549.215564</ele>
        <time>2025-11-11T21:53:05.811Z</time>
      </trkpt>
      <trkpt lat="48.448753" lon="9.853475">
        <ele>549.289004</ele>
        <time>2025-11-11T21:53:08.146Z</time>
      </trkpt>
      <trkpt lat="48.448828" lon="9.853231">
        <ele>549.396576</ele>
        <time>2025-11-11T21:53:11.586Z</time>
      </trkpt>
      <trkpt lat="48.448969" lon="9.853007">
        <ele>549.520101</ele>
        <time>2025-11-11T21:53:15.481Z</time>
      </trkpt>
      <trkpt lat="48.449427" lon="9.852527">
        <ele>549.856480</ele>
        <time>2025-11-11T21:53:25.274Z</time>
      </trkpt>
      <trkpt lat="48.449594" lon="9.852249">
        <ele>550.006506</ele>
        <time>2025-11-11T21:53:29.200Z</time>
      </trkpt>
      <trkpt lat="48.449752" lon="9.851887">
        <ele>550.049366</ele>
        <time>2025-11-11T21:53:33.584Z</time>
      </trkpt>
      <trkpt lat="48.450076" lon="9.851497">
        <ele>549.943385</ele>
        <time>2025-11-11T21:53:39.599Z</time>
      </trkpt>
      <trkpt lat="48.450120" lon="9.851385">
        <ele>549.921314</ele>
        <time>2025-11-11T21:53:40.808Z</time>
      </trkpt>
      <trkpt lat="48.450748" lon="9.849118">
        <ele>549.913525</ele>
        <time>2025-11-11T21:54:02.524Z</time>
      </trkpt>
      <trkpt lat="48.450886" lon="9.848133">
        <ele>550.307051</ele>
        <time>2025-11-11T21:54:12.450Z</time>
      </trkpt>
      <trkpt lat="48.450994" lon="9.847656">
        <ele>550.504071</ele>
        <time>2025-11-11T21:54:18.435Z</time>
      </trkpt>
      <trkpt lat="48.451169" lon="9.847129">
        <ele>550.978718</ele>
        <time>2025-11-11T21:54:27.531Z</time>
      </trkpt>
      <trkpt lat="48.451310" lon="9.846927">
        <ele>551.702216</ele>
        <time>2025-11-11T21:54:32.852Z</time>
      </trkpt>
      <trkpt lat="48.451440" lon="9.846815">
        <ele>552.259163</ele>
        <time>2025-11-11T21:54:37.162Z</time>
      </trkpt>
      <trkpt lat="48.451709" lon="9.846732">
        <ele>553.280512</ele>
        <time>2025-11-11T21:54:45.202Z</time>
      </trkpt>
      <trkpt lat="48.451981" lon="9.846559">
        <ele>554.378623</ele>
        <time>2025-11-11T21:54:53.967Z</time>
      </trkpt>
      <trkpt lat="48.452016" lon="9.846532">
        <ele>554.524866</ele>
        <time>2025-11-11T21:54:55.101Z</time>
      </trkpt>
      <trkpt lat="48.452319" lon="9.846188">
        <ele>555.935744</ele>
        <time>2025-11-11T21:55:06.939Z</time>
      </trkpt>
      <trkpt lat="48.452527" lon="9.845813">
        <ele>557.141788</ele>
        <time>2025-11-11T21:55:17.922Z</time>
      </trkpt>
      <trkpt lat="48.452646" lon="9.845538">
        <ele>558.324011</ele>
        <time>2025-11-11T21:55:25.462Z</time>
      </trkpt>
      <trkpt lat="48.452735" lon="9.845255">
        <ele>559.598618</ele>
        <time>2025-11-11T21:55:32.497Z</time>
      </trkpt>
      <trkpt lat="48.453055" lon="9.843706">
        <ele>566.201107</ele>
        <time>2025-11-11T21:56:13.547Z</time>
      </trkpt>
      <trkpt lat="48.453056" lon="9.843702">
        <ele>566.218503</ele>
        <time>2025-11-11T21:56:13.672Z</time>
      </trkpt>
      <trkpt lat="48.453141" lon="9.843145">
        <ele>568.612761</ele>
        <time>2025-11-11T21:56:31.623Z</time>
      </trkpt>
      <trkpt lat="48.453223" lon="9.841470">
        <ele>579.061574</ele>
        <time>2025-11-11T21:57:26.183Z</time>
      </trkpt>
      <trkpt lat="48.453268" lon="9.840935">
        <ele>582.416556</ele>
        <time>2025-11-11T21:57:45.643Z</time>
      </trkpt>
      <trkpt lat="48.453334" lon="9.840344">
        <ele>586.358460</ele>
        <time>2025-11-11T21:58:10.211Z</time>
      </trkpt>
      <trkpt lat="48.453440" lon="9.839846">
        <ele>590.421414</ele>
        <time>2025-11-11T21:58:33.427Z</time>
      </trkpt>
      <trkpt lat="48.453494" lon="9.839733">
        <ele>591.503359</ele>
        <time>2025-11-11T21:58:39.475Z</time>
      </trkpt>
      <trkpt lat="48.453550" lon="9.839681">
        <ele>592.273687</ele>
        <time>2025-11-11T21:58:43.841Z</time>
      </trkpt>
      <trkpt lat="48.453641" lon="9.839662">
        <ele>593.349725</ele>
        <time>2025-11-11T21:58:49.693Z</time>
      </trkpt>
      <trkpt lat="48.454129" lon="9.839837">
        <ele>599.225022</ele>
        <time>2025-11-11T21:59:21.122Z</time>
      </trkpt>
      <trkpt lat="48.454289" lon="9.839724">
        <ele>601.294469</ele>
        <time>2025-11-11T21:59:31.926Z</time>
      </trkpt>
      <trkpt lat="48.454337" lon="9.839536">
        <ele>602.859361</ele>
        <time>2025-11-11T21:59:40.041Z</time>
      </trkpt>
      <trkpt lat="48.454385" lon="9.838807">
        <ele>608.451795</ele>
        <time>2025-11-11T22:00:09.432Z</time>
      </trkpt>
      <trkpt lat="48.454505" lon="9.838307">
        <ele>612.397324</ele>
        <time>2025-11-11T22:00:29.922Z</time>
      </trkpt>
      <trkpt lat="48.454668" lon="9.837952">
        <ele>615.601151</ele>
        <time>2025-11-11T22:00:46.314Z</time>
      </trkpt>
      <trkpt lat="48.454779" lon="9.837781">
        <ele>617.376604</ele>
        <time>2025-11-11T22:00:55.530Z</time>
      </trkpt>
      <trkpt lat="48.454938" lon="9.837582">
        <ele>619.688505</ele>
        <time>2025-11-11T22:01:08.178Z</time>
      </trkpt>
      <trkpt lat="48.455448" lon="9.837054">
        <ele>626.561155</ele>
        <time>2025-11-11T22:01:47.584Z</time>
      </trkpt>
      <trkpt lat="48.455640" lon="9.836892">
        <ele>628.115714</ele>
        <time>2025-11-11T22:02:01.274Z</time>
      </trkpt>
      <trkpt lat="48.455793" lon="9.836825">
        <ele>629.241428</ele>
        <time>2025-11-11T22:02:10.577Z</time>
      </trkpt>
      <trkpt lat="48.456367" lon="9.836607">
        <ele>633.423790</ele>
        <time>2025-11-11T22:02:38.839Z</time>
      </trkpt>
      <trkpt lat="48.456465" lon="9.836585">
        <ele>634.123857</ele>
        <time>2025-11-11T22:02:42.627Z</time>
      </trkpt>
      <trkpt lat="48.456843" lon="9.836486">
        <ele>636.834666</ele>
        <time>2025-11-11T22:02:55.181Z</time>
      </trkpt>
      <trkpt lat="48.457307" lon="9.836461">
        <ele>639.508736</ele>
        <time>2025-11-11T22:03:07.828Z</time>
      </trkpt>
      <trkpt lat="48.457389" lon="9.836461">
        <ele>639.709943</ele>
        <time>2025-11-11T22:03:09.903Z</time>
      </trkpt>
      <trkpt lat="48.457561" lon="9.837534">
        <ele>641.506280</ele>
        <time>2025-11-11T22:03:27.203Z</time>
      </trkpt>
      <trkpt lat="48.457688" lon="9.838115">
        <ele>642.501750</ele>
        <time>2025-11-11T22:03:36.684Z</time>
      </trkpt>
      <trkpt lat="48.457936" lon="9.838817">
        <ele>643.776604</ele>
        <time>2025-11-11T22:03:49.282Z</time>
      </trkpt>
      <trkpt lat="48.457966" lon="9.838895">
        <ele>643.908813</ele>
        <time>2025-11-11T22:03:50.669Z</time>
      </trkpt>
      <trkpt lat="48.458258" lon="9.839509">
        <ele>645.016636</ele>
        <time>2025-11-11T22:04:02.874Z</time>
      </trkpt>
      <trkpt lat="48.458382" lon="9.839763">
        <ele>645.479086</ele>
        <time>2025-11-11T22:04:07.886Z</time>
      </trkpt>
      <trkpt lat="48.458505" lon="9.840008">
        <ele>645.929638</ele>
        <time>2025-11-11T22:04:12.757Z</time>
      </trkpt>
      <trkpt lat="48.458683" lon="9.840389">
        <ele>646.612973</ele>
        <time>2025-11-11T22:04:20.187Z</time>
      </trkpt>
      <trkpt lat="48.458987" lon="9.840804">
        <ele>647.519616</ele>
        <time>2025-11-11T22:04:29.890Z</time>
      </trkpt>
      <trkpt lat="48.459067" lon="9.840905">
        <ele>647.655562</ele>
        <time>2025-11-11T22:04:32.335Z</time>
      </trkpt>
      <trkpt lat="48.459298" lon="9.841285">
        <ele>648.000152</ele>
        <time>2025-11-11T22:04:40.127Z</time>
      </trkpt>
      <trkpt lat="48.459417" lon="9.841542">
        <ele>648.209680</ele>
        <time>2025-11-11T22:04:44.513Z</time>
      </trkpt>
      <trkpt lat="48.459486" lon="9.841757">
        <ele>648.369343</ele>
        <time>2025-11-11T22:04:47.621Z</time>
      </trkpt>
      <trkpt lat="48.459603" lon="9.842173">
        <ele>648.671397</ele>
        <time>2025-11-11T22:04:53.224Z</time>
      </trkpt>
      <trkpt lat="48.459668" lon="9.842230">
        <ele>648.747190</ele>
        <time>2025-11-11T22:04:54.575Z</time>
      </trkpt>
      <trkpt lat="48.459721" lon="9.842247">
        <ele>648.801810</ele>
        <time>2025-11-11T22:04:55.507Z</time>
      </trkpt>
      <trkpt lat="48.459955" lon="9.842301">
        <ele>649.040429</ele>
        <time>2025-11-11T22:04:59.443Z</time>
      </trkpt>
      <trkpt lat="48.459987" lon="9.842207">
        <ele>649.111059</ele>
        <time>2025-11-11T22:05:00.536Z</time>
      </trkpt>
      <trkpt lat="48.459986" lon="9.842102">
        <ele>649.181254</ele>
        <time>2025-11-11T22:05:01.644Z</time>
      </trkpt>
      <trkpt lat="48.459980" lon="9.842020">
        <ele>649.236399</ele>
        <time>2025-11-11T22:05:02.476Z</time>
      </trkpt>
      <trkpt lat="48.459968" lon="9.841833">
        <ele>649.361983</ele>
        <time>2025-11-11T22:05:04.410Z</time>
      </trkpt>
      <trkpt lat="48.460213" lon="9.841514">
        <ele>649.171942</ele>
        <time>2025-11-11T22:05:08.799Z</time>
      </trkpt>
      <trkpt lat="48.460311" lon="9.841425">
        <ele>649.088159</ele>
        <time>2025-11-11T22:05:10.268Z</time>
      </trkpt>
      <trkpt lat="48.460459" lon="9.841364">
        <ele>648.975793</ele>
        <time>2025-11-11T22:05:12.203Z</time>
      </trkpt>
      <trkpt lat="48.460506" lon="9.841357">
        <ele>648.941204</ele>
        <time>2025-11-11T22:05:12.783Z</time>
      </trkpt>
      <trkpt lat="48.460667" lon="9.841333">
        <ele>648.822717</ele>
        <time>2025-11-11T22:05:14.793Z</time>
      </trkpt>
      <trkpt lat="48.460937" lon="9.841359">
        <ele>648.624575</ele>
        <time>2025-11-11T22:05:18.181Z</time>
      </trkpt>
      <trkpt lat="48.461169" lon="9.841361">
        <ele>648.454662</ele>
        <time>2025-11-11T22:05:21.035Z</time>
      </trkpt>
      <trkpt lat="48.461416" lon="9.841434">
        <ele>648.270325</ele>
        <time>2025-11-11T22:05:24.098Z</time>
      </trkpt>
      <trkpt lat="48.461613" lon="9.841473">
        <ele>648.124810</ele>
        <time>2025-11-11T22:05:26.512Z</time>
      </trkpt>
      <trkpt lat="48.461947" lon="9.841524">
        <ele>647.771558</ele>
        <time>2025-11-11T22:05:30.573Z</time>
      </trkpt>
      <trkpt lat="48.462007" lon="9.841533">
        <ele>647.702827</ele>
        <time>2025-11-11T22:05:31.289Z</time>
      </trkpt>
      <trkpt lat="48.462210" lon="9.841563">
        <ele>647.470322</ele>
        <time>2025-11-11T22:05:33.689Z</time>
      </trkpt>
      <trkpt lat="48.462526" lon="9.841629">
        <ele>647.106679</ele>
        <time>2025-11-11T22:05:37.568Z</time>
      </trkpt>
      <trkpt lat="48.462691" lon="9.841645">
        <ele>646.918209</ele>
        <time>2025-11-11T22:05:39.584Z</time>
      </trkpt>
      <trkpt lat="48.462740" lon="9.841616">
        <ele>646.858208</ele>
        <time>2025-11-11T22:05:40.208Z</time>
      </trkpt>
      <trkpt lat="48.463722" lon="9.841852">
        <ele>645.699144</ele>
        <time>2025-11-11T22:05:52.100Z</time>
      </trkpt>
      <trkpt lat="48.464089" lon="9.841941">
        <ele>645.238950</ele>
        <time>2025-11-11T22:05:56.489Z</time>
      </trkpt>
      <trkpt lat="48.464217" lon="9.841900">
        <ele>645.076947</ele>
        <time>2025-11-11T22:05:58.023Z</time>
      </trkpt>
      <trkpt lat="48.464397" lon="9.841718">
        <ele>644.808650</ele>
        <time>2025-11-11T22:06:01.628Z</time>
      </trkpt>
      <trkpt lat="48.465301" lon="9.840882">
        <ele>643.709232</ele>
        <time>2025-11-11T22:06:19.502Z</time>
      </trkpt>
      <trkpt lat="48.465533" lon="9.840757">
        <ele>643.621859</ele>
        <time>2025-11-11T22:06:23.825Z</time>
      </trkpt>
      <trkpt lat="48.466113" lon="9.840521">
        <ele>643.408804</ele>
        <time>2025-11-11T22:06:35.014Z</time>
      </trkpt>
      <trkpt lat="48.466509" lon="9.840297">
        <ele>643.258807</ele>
        <time>2025-11-11T22:06:43.665Z</time>
      </trkpt>
      <trkpt lat="48.466822" lon="9.840027">
        <ele>643.239429</ele>
        <time>2025-11-11T22:06:51.488Z</time>
      </trkpt>
      <trkpt lat="48.467099" lon="9.839728">
        <ele>643.620981</ele>
        <time>2025-11-11T22:06:59.129Z</time>
      </trkpt>
      <trkpt lat="48.467410" lon="9.839267">
        <ele>644.109423</ele>
        <time>2025-11-11T22:07:09.373Z</time>
      </trkpt>
      <trkpt lat="48.467692" lon="9.838672">
        <ele>644.652607</ele>
        <time>2025-11-11T22:07:21.629Z</time>
      </trkpt>
      <trkpt lat="48.467972" lon="9.837719">
        <ele>645.593013</ele>
        <time>2025-11-11T22:07:40.734Z</time>
      </trkpt>
      <trkpt lat="48.468185" lon="9.837237">
        <ele>646.303623</ele>
        <time>2025-11-11T22:07:51.705Z</time>
      </trkpt>
      <trkpt lat="48.468274" lon="9.837034">
        <ele>646.602179</ele>
        <time>2025-11-11T22:07:56.414Z</time>
      </trkpt>
      <trkpt lat="48.468323" lon="9.836923">
        <ele>646.765772</ele>
        <time>2025-11-11T22:07:58.988Z</time>
      </trkpt>
      <trkpt lat="48.468348" lon="9.836866">
        <ele>646.849613</ele>
        <time>2025-11-11T22:08:00.065Z</time>
      </trkpt>
      <trkpt lat="48.469183" lon="9.834822">
        <ele>648.926272</ele>
        <time>2025-11-11T22:08:34.645Z</time>
      </trkpt>
      <trkpt lat="48.469398" lon="9.834342">
        <ele>649.160340</ele>
        <time>2025-11-11T22:08:41.052Z</time>
      </trkpt>
      <trkpt lat="48.469674" lon="9.833845">
        <ele>649.422301</ele>
        <time>2025-11-11T22:08:47.381Z</time>
      </trkpt>
      <trkpt lat="48.470103" lon="9.833127">
        <ele>649.172053</ele>
        <time>2025-11-11T22:08:55.689Z</time>
      </trkpt>
      <trkpt lat="48.470486" lon="9.832562">
        <ele>648.534542</ele>
        <time>2025-11-11T22:09:02.009Z</time>
      </trkpt>
      <trkpt lat="48.470654" lon="9.832377">
        <ele>648.287016</ele>
        <time>2025-11-11T22:09:04.405Z</time>
      </trkpt>
      <trkpt lat="48.470906" lon="9.832114">
        <ele>647.922355</ele>
        <time>2025-11-11T22:09:07.923Z</time>
      </trkpt>
      <trkpt lat="48.470985" lon="9.832036">
        <ele>647.809997</ele>
        <time>2025-11-11T22:09:08.992Z</time>
      </trkpt>
      <trkpt lat="48.471629" lon="9.831357">
        <ele>646.990578</ele>
        <time>2025-11-11T22:09:17.991Z</time>
      </trkpt>
      <trkpt lat="48.472192" lon="9.830708">
        <ele>646.315275</ele>
        <time>2025-11-11T22:09:26.512Z</time>
      </trkpt>
      <trkpt lat="48.472555" lon="9.830241">
        <ele>645.860587</ele>
        <time>2025-11-11T22:09:32.760Z</time>
      </trkpt>
      <trkpt lat="48.473466" lon="9.829062">
        <ele>645.702951</ele>
        <time>2025-11-11T22:09:50.903Z</time>
      </trkpt>
      <trkpt lat="48.473717" lon="9.828602">
        <ele>645.688846</ele>
        <time>2025-11-11T22:09:56.883Z</time>
      </trkpt>
      <trkpt lat="48.473825" lon="9.828305">
        <ele>645.680826</ele>
        <time>2025-11-11T22:10:00.224Z</time>
      </trkpt>
      <trkpt lat="48.474085" lon="9.827413">
        <ele>645.085196</ele>
        <time>2025-11-11T22:10:09.706Z</time>
      </trkpt>
      <trkpt lat="48.474398" lon="9.826571">
        <ele>644.386474</ele>
        <time>2025-11-11T22:10:17.890Z</time>
      </trkpt>
      <trkpt lat="48.474580" lon="9.826231">
        <ele>644.070171</ele>
        <time>2025-11-11T22:10:21.184Z</time>
      </trkpt>
      <trkpt lat="48.474845" lon="9.825814">
        <ele>643.570550</ele>
        <time>2025-11-11T22:10:25.299Z</time>
      </trkpt>
      <trkpt lat="48.475534" lon="9.824873">
        <ele>641.206210</ele>
        <time>2025-11-11T22:10:34.529Z</time>
      </trkpt>
      <trkpt lat="48.476126" lon="9.824321">
        <ele>639.435802</ele>
        <time>2025-11-11T22:10:41.730Z</time>
      </trkpt>
      <trkpt lat="48.476292" lon="9.824072">
        <ele>639.226170</ele>
        <time>2025-11-11T22:10:44.693Z</time>
      </trkpt>
      <trkpt lat="48.476333" lon="9.823991">
        <ele>639.277079</ele>
        <time>2025-11-11T22:10:45.693Z</time>
      </trkpt>
      <trkpt lat="48.476538" lon="9.823267">
        <ele>639.670353</ele>
        <time>2025-11-11T22:10:55.420Z</time>
      </trkpt>
      <trkpt lat="48.476810" lon="9.822674">
        <ele>640.030572</ele>
        <time>2025-11-11T22:11:06.410Z</time>
      </trkpt>
      <trkpt lat="48.476874" lon="9.822479">
        <ele>640.139265</ele>
        <time>2025-11-11T22:11:09.956Z</time>
      </trkpt>
      <trkpt lat="48.477037" lon="9.822012">
        <ele>640.402906</ele>
        <time>2025-11-11T22:11:17.732Z</time>
      </trkpt>
      <trkpt lat="48.477348" lon="9.821290">
        <ele>639.723878</ele>
        <time>2025-11-11T22:11:26.697Z</time>
      </trkpt>
      <trkpt lat="48.477417" lon="9.820957">
        <ele>639.329117</ele>
        <time>2025-11-11T22:11:29.328Z</time>
      </trkpt>
      <trkpt lat="48.477446" lon="9.820517">
        <ele>638.828810</ele>
        <time>2025-11-11T22:11:32.428Z</time>
      </trkpt>
      <trkpt lat="48.477502" lon="9.820116">
        <ele>638.365128</ele>
        <time>2025-11-11T22:11:35.214Z</time>
      </trkpt>
      <trkpt lat="48.477583" lon="9.819625">
        <ele>637.792627</ele>
        <time>2025-11-11T22:11:38.622Z</time>
      </trkpt>
      <trkpt lat="48.477673" lon="9.819299">
        <ele>637.393414</ele>
        <time>2025-11-11T22:11:40.998Z</time>
      </trkpt>
      <trkpt lat="48.477796" lon="9.818776">
        <ele>636.772911</ele>
        <time>2025-11-11T22:11:44.784Z</time>
      </trkpt>
      <trkpt lat="48.477900" lon="9.818100">
        <ele>635.996956</ele>
        <time>2025-11-11T22:11:49.718Z</time>
      </trkpt>
      <trkpt lat="48.477991" lon="9.817235">
        <ele>635.017657</ele>
        <time>2025-11-11T22:11:56.586Z</time>
      </trkpt>
      <trkpt lat="48.478227" lon="9.816016">
        <ele>633.224946</ele>
        <time>2025-11-11T22:12:08.448Z</time>
      </trkpt>
      <trkpt lat="48.478255" lon="9.815609">
        <ele>632.552035</ele>
        <time>2025-11-11T22:12:12.347Z</time>
      </trkpt>
      <trkpt lat="48.478255" lon="9.815136">
        <ele>631.774180</ele>
        <time>2025-11-11T22:12:16.058Z</time>
      </trkpt>
      <trkpt lat="48.478231" lon="9.814463">
        <ele>630.665823</ele>
        <time>2025-11-11T22:12:20.518Z</time>
      </trkpt>
      <trkpt lat="48.478206" lon="9.814277">
        <ele>630.353719</ele>
        <time>2025-11-11T22:12:21.670Z</time>
      </trkpt>
      <trkpt lat="48.478091" lon="9.814030">
        <ele>629.732043</ele>
        <time>2025-11-11T22:12:23.500Z</time>
      </trkpt>
      <trkpt lat="48.477693" lon="9.813623">
        <ele>626.408955</ele>
        <time>2025-11-11T22:12:27.818Z</time>
      </trkpt>
      <trkpt lat="48.477524" lon="9.813385">
        <ele>624.811100</ele>
        <time>2025-11-11T22:12:29.856Z</time>
      </trkpt>
      <trkpt lat="48.477444" lon="9.813159">
        <ele>623.637312</ele>
        <time>2025-11-11T22:12:31.344Z</time>
      </trkpt>
      <trkpt lat="48.477465" lon="9.812743">
        <ele>621.725891</ele>
        <time>2025-11-11T22:12:33.759Z</time>
      </trkpt>
      <trkpt lat="48.477778" lon="9.811783">
        <ele>617.232254</ele>
        <time>2025-11-11T22:12:40.124Z</time>
      </trkpt>
      <trkpt lat="48.477878" lon="9.811591">
        <ele>616.792037</ele>
        <time>2025-11-11T22:12:41.705Z</time>
      </trkpt>
      <trkpt lat="48.477979" lon="9.811457">
        <ele>616.426226</ele>
        <time>2025-11-11T22:12:43.067Z</time>
      </trkpt>
      <trkpt lat="48.478091" lon="9.811367">
        <ele>616.081101</ele>
        <time>2025-11-11T22:12:44.350Z</time>
      </trkpt>
      <trkpt lat="48.478225" lon="9.811287">
        <ele>615.689162</ele>
        <time>2025-11-11T22:12:45.828Z</time>
      </trkpt>
      <trkpt lat="48.478769" lon="9.811088">
        <ele>614.166781</ele>
        <time>2025-11-11T22:12:51.795Z</time>
      </trkpt>
      <trkpt lat="48.479045" lon="9.810903">
        <ele>613.345388</ele>
        <time>2025-11-11T22:12:55.154Z</time>
      </trkpt>
      <trkpt lat="48.479213" lon="9.810610">
        <ele>612.646965</ele>
        <time>2025-11-11T22:12:58.306Z</time>
      </trkpt>
      <trkpt lat="48.479292" lon="9.810328">
        <ele>613.286768</ele>
        <time>2025-11-11T22:13:01.350Z</time>
      </trkpt>
      <trkpt lat="48.479343" lon="9.810082">
        <ele>613.907745</ele>
        <time>2025-11-11T22:13:04.428Z</time>
      </trkpt>
      <trkpt lat="48.479342" lon="9.809727">
        <ele>614.763026</ele>
        <time>2025-11-11T22:13:09.308Z</time>
      </trkpt>
      <trkpt lat="48.479325" lon="9.809411">
        <ele>615.526842</ele>
        <time>2025-11-11T22:13:14.454Z</time>
      </trkpt>
      <trkpt lat="48.479238" lon="9.808897">
        <ele>616.804914</ele>
        <time>2025-11-11T22:13:25.064Z</time>
      </trkpt>
      <trkpt lat="48.479168" lon="9.808647">
        <ele>617.458747</ele>
        <time>2025-11-11T22:13:31.546Z</time>
      </trkpt>
      <trkpt lat="48.479042" lon="9.808340">
        <ele>618.328669</ele>
        <time>2025-11-11T22:13:41.170Z</time>
      </trkpt>
      <trkpt lat="48.478896" lon="9.808209">
        <ele>618.946061</ele>
        <time>2025-11-11T22:13:48.882Z</time>
      </trkpt>
      <trkpt lat="48.478755" lon="9.807977">
        <ele>620.417801</ele>
        <time>2025-11-11T22:13:59.070Z</time>
      </trkpt>
      <trkpt lat="48.478440" lon="9.806884">
        <ele>626.932867</ele>
        <time>2025-11-11T22:14:39.062Z</time>
      </trkpt>
      <trkpt lat="48.478374" lon="9.806562">
        <ele>628.775293</ele>
        <time>2025-11-11T22:14:50.238Z</time>
      </trkpt>
      <trkpt lat="48.478332" lon="9.806204">
        <ele>630.762705</ele>
        <time>2025-11-11T22:15:02.041Z</time>
      </trkpt>
      <trkpt lat="48.478336" lon="9.804586">
        <ele>638.600123</ele>
        <time>2025-11-11T22:15:51.836Z</time>
      </trkpt>
      <trkpt lat="48.478433" lon="9.802900">
        <ele>646.173797</ele>
        <time>2025-11-11T22:16:38.000Z</time>
      </trkpt>
      <trkpt lat="48.478416" lon="9.802586">
        <ele>646.828963</ele>
        <time>2025-11-11T22:16:45.136Z</time>
      </trkpt>
      <trkpt lat="48.478202" lon="9.801172">
        <ele>649.845174</ele>
        <time>2025-11-11T22:17:11.583Z</time>
      </trkpt>
      <trkpt lat="48.478179" lon="9.801038">
        <ele>650.133030</ele>
        <time>2025-11-11T22:17:13.559Z</time>
      </trkpt>
      <trkpt lat="48.477618" lon="9.796953">
        <ele>655.495327</ele>
        <time>2025-11-11T22:18:11.790Z</time>
      </trkpt>
      <trkpt lat="48.477067" lon="9.792893">
        <ele>661.734456</ele>
        <time>2025-11-11T22:19:15.435Z</time>
      </trkpt>
      <trkpt lat="48.477083" lon="9.792609">
        <ele>662.226665</ele>
        <time>2025-11-11T22:19:20.936Z</time>
      </trkpt>
      <trkpt lat="48.477212" lon="9.792387">
        <ele>662.736469</ele>
        <time>2025-11-11T22:19:26.674Z</time>
      </trkpt>
      <trkpt lat="48.477601" lon="9.792627">
        <ele>664.674095</ele>
        <time>2025-11-11T22:19:39.959Z</time>
      </trkpt>
      <trkpt lat="48.477840" lon="9.792701">
        <ele>665.834890</ele>
        <time>2025-11-11T22:19:48.359Z</time>
      </trkpt>
      <trkpt lat="48.478155" lon="9.792697">
        <ele>667.333618</ele>
        <time>2025-11-11T22:19:59.326Z</time>
      </trkpt>
      <trkpt lat="48.478165" lon="9.792831">
        <ele>667.758910</ele>
        <time>2025-11-11T22:20:11.035Z</time>
      </trkpt>
      <trkpt lat="48.478155" lon="9.792697">
        <ele>668.184203</ele>
        <time>2025-11-11T22:20:22.806Z</time>
      </trkpt>
      <trkpt lat="48.478316" lon="9.792669">
        <ele>668.955266</ele>
        <time>2025-11-11T22:20:28.477Z</time>
      </trkpt>
      <trkpt lat="48.478380" lon="9.792653">
        <ele>669.263912</ele>
        <time>2025-11-11T22:20:30.760Z</time>
      </trkpt>
      <trkpt lat="48.478656" lon="9.792536">
        <ele>670.627899</ele>
        <time>2025-11-11T22:20:40.851Z</time>
      </trkpt>
      <trkpt lat="48.478686" lon="9.792513">
        <ele>670.788005</ele>
        <time>2025-11-11T22:20:42.092Z</time>
      </trkpt>
      <trkpt lat="48.478841" lon="9.792393">
        <ele>671.590273</ele>
        <time>2025-11-11T22:20:48.698Z</time>
      </trkpt>
      <trkpt lat="48.479053" lon="9.792228">
        <ele>672.603444</ele>
        <time>2025-11-11T22:20:57.543Z</time>
      </trkpt>
      <trkpt lat="48.479158" lon="9.792196">
        <ele>673.058405</ele>
        <time>2025-11-11T22:21:01.503Z</time>
      </trkpt>
      <trkpt lat="48.479239" lon="9.792224">
        <ele>673.411340</ele>
        <time>2025-11-11T22:21:04.576Z</time>
      </trkpt>
      <trkpt lat="48.479457" lon="9.792326">
        <ele>674.380732</ele>
        <time>2025-11-11T22:21:12.628Z</time>
      </trkpt>
      <trkpt lat="48.479483" lon="9.792183">
        <ele>674.798202</ele>
        <time>2025-11-11T22:21:16.397Z</time>
      </trkpt>
      <trkpt lat="48.479502" lon="9.791653">
        <ele>676.292538</ele>
        <time>2025-11-11T22:21:29.822Z</time>
      </trkpt>
      <trkpt lat="48.479497" lon="9.791144">
        <ele>677.725728</ele>
        <time>2025-11-11T22:21:42.099Z</time>
      </trkpt>
      <trkpt lat="48.479436" lon="9.790527">
        <ele>679.107678</ele>
        <time>2025-11-11T22:21:55.231Z</time>
      </trkpt>
      <trkpt lat="48.479374" lon="9.789917">
        <ele>679.473229</ele>
        <time>2025-11-11T22:22:05.716Z</time>
      </trkpt>
      <trkpt lat="48.479327" lon="9.789694">
        <ele>679.611837</ele>
        <time>2025-11-11T22:22:08.312Z</time>
      </trkpt>
      <trkpt lat="48.479273" lon="9.789437">
        <ele>679.771534</ele>
        <time>2025-11-11T22:22:11.320Z</time>
      </trkpt>
      <trkpt lat="48.479052" lon="9.788377">
        <ele>680.429742</ele>
        <time>2025-11-11T22:22:23.154Z</time>
      </trkpt>
      <trkpt lat="48.478913" lon="9.787714">
        <ele>680.633294</ele>
        <time>2025-11-11T22:22:29.761Z</time>
      </trkpt>
      <trkpt lat="48.478764" lon="9.787159">
        <ele>680.661704</ele>
        <time>2025-11-11T22:22:35.590Z</time>
      </trkpt>
      <trkpt lat="48.478789" lon="9.787077">
        <ele>680.665987</ele>
        <time>2025-11-11T22:22:36.467Z</time>
      </trkpt>
      <trkpt lat="48.478840" lon="9.786532">
        <ele>680.692102</ele>
        <time>2025-11-11T22:22:41.860Z</time>
      </trkpt>
      <trkpt lat="48.478714" lon="9.785157">
        <ele>680.908980</ele>
        <time>2025-11-11T22:22:55.659Z</time>
      </trkpt>
      <trkpt lat="48.478382" lon="9.781885">
        <ele>682.357810</ele>
        <time>2025-11-11T22:23:37.203Z</time>
      </trkpt>
      <trkpt lat="48.478210" lon="9.780333">
        <ele>682.540177</ele>
        <time>2025-11-11T22:23:52.978Z</time>
      </trkpt>
      <trkpt lat="48.478040" lon="9.779358">
        <ele>681.564336</ele>
        <time>2025-11-11T22:24:00.933Z</time>
      </trkpt>
      <trkpt lat="48.477804" lon="9.778292">
        <ele>680.082571</ele>
        <time>2025-11-11T22:24:09.022Z</time>
      </trkpt>
      <trkpt lat="48.477692" lon="9.777035">
        <ele>678.224366</ele>
        <time>2025-11-11T22:24:17.748Z</time>
      </trkpt>
      <trkpt lat="48.477745" lon="9.775396">
        <ele>675.368274</ele>
        <time>2025-11-11T22:24:28.825Z</time>
      </trkpt>
      <trkpt lat="48.478218" lon="9.775092">
        <ele>674.222402</ele>
        <time>2025-11-11T22:24:34.341Z</time>
      </trkpt>
      <trkpt lat="48.477776" lon="9.773380">
        <ele>673.627796</ele>
        <time>2025-11-11T22:24:50.153Z</time>
      </trkpt>
      <trkpt lat="48.477753" lon="9.773293">
        <ele>673.597483</ele>
        <time>2025-11-11T22:24:51.243Z</time>
      </trkpt>
      <trkpt lat="48.477580" lon="9.772621">
        <ele>673.454574</ele>
        <time>2025-11-11T22:24:59.692Z</time>
      </trkpt>
      <trkpt lat="48.477106" lon="9.770850">
        <ele>674.927735</ele>
        <time>2025-11-11T22:25:23.421Z</time>
      </trkpt>
      <trkpt lat="48.476810" lon="9.767475">
        <ele>678.792018</ele>
        <time>2025-11-11T22:26:13.085Z</time>
      </trkpt>
      <trkpt lat="48.476776" lon="9.766876">
        <ele>679.745516</ele>
        <time>2025-11-11T22:26:23.101Z</time>
      </trkpt>
      <trkpt lat="48.476722" lon="9.766348">
        <ele>680.602600</ele>
        <time>2025-11-11T22:26:32.061Z</time>
      </trkpt>
      <trkpt lat="48.476665" lon="9.766117">
        <ele>680.998030</ele>
        <time>2025-11-11T22:26:36.275Z</time>
      </trkpt>
      <trkpt lat="48.475909" lon="9.764109">
        <ele>684.896295</ele>
        <time>2025-11-11T22:27:13.663Z</time>
      </trkpt>
      <trkpt lat="48.475701" lon="9.763654">
        <ele>685.895787</ele>
        <time>2025-11-11T22:27:22.929Z</time>
      </trkpt>
      <trkpt lat="48.475272" lon="9.763576">
        <ele>687.074517</ele>
        <time>2025-11-11T22:27:34.509Z</time>
      </trkpt>
      <trkpt lat="48.474713" lon="9.763470">
        <ele>688.669686</ele>
        <time>2025-11-11T22:27:52.824Z</time>
      </trkpt>
      <trkpt lat="48.474227" lon="9.763199">
        <ele>690.240422</ele>
        <time>2025-11-11T22:28:09.889Z</time>
      </trkpt>
      <trkpt lat="48.473380" lon="9.762490">
        <ele>693.176949</ele>
        <time>2025-11-11T22:28:41.569Z</time>
      </trkpt>
      <trkpt lat="48.472922" lon="9.762227">
        <ele>694.331668</ele>
        <time>2025-11-11T22:28:56.742Z</time>
      </trkpt>
      <trkpt lat="48.472557" lon="9.762090">
        <ele>695.135725</ele>
        <time>2025-11-11T22:29:08.067Z</time>
      </trkpt>
      <trkpt lat="48.472105" lon="9.761981">
        <ele>696.114239</ele>
        <time>2025-11-11T22:29:21.397Z</time>
      </trkpt>
      <trkpt lat="48.471182" lon="9.761834">
        <ele>697.695597</ele>
        <time>2025-11-11T22:29:45.311Z</time>
      </trkpt>
      <trkpt lat="48.470731" lon="9.761865">
        <ele>698.115697</ele>
        <time>2025-11-11T22:29:56.438Z</time>
      </trkpt>
      <trkpt lat="48.469573" lon="9.762156">
        <ele>699.031660</ele>
        <time>2025-11-11T22:30:24.098Z</time>
      </trkpt>
      <trkpt lat="48.469314" lon="9.762223">
        <ele>698.987107</ele>
        <time>2025-11-11T22:30:29.608Z</time>
      </trkpt>
      <trkpt lat="48.468606" lon="9.762240">
        <ele>698.867054</ele>
        <time>2025-11-11T22:30:42.661Z</time>
      </trkpt>
      <trkpt lat="48.467508" lon="9.762188">
        <ele>699.125031</ele>
        <time>2025-11-11T22:31:02.851Z</time>
      </trkpt>
      <trkpt lat="48.467631" lon="9.759270">
        <ele>701.072421</ele>
        <time>2025-11-11T22:31:42.492Z</time>
      </trkpt>
      <trkpt lat="48.467716" lon="9.757207">
        <ele>702.927758</ele>
        <time>2025-11-11T22:32:10.069Z</time>
      </trkpt>
      <trkpt lat="48.467734" lon="9.756588">
        <ele>703.502211</ele>
        <time>2025-11-11T22:32:18.253Z</time>
      </trkpt>
      <trkpt lat="48.467689" lon="9.756332">
        <ele>703.747758</ele>
        <time>2025-11-11T22:32:21.892Z</time>
      </trkpt>
      <trkpt lat="48.469164" lon="9.755159">
        <ele>704.854319</ele>
        <time>2025-11-11T22:32:56.450Z</time>
      </trkpt>
      <trkpt lat="48.469661" lon="9.754763">
        <ele>704.489318</ele>
        <time>2025-11-11T22:33:03.420Z</time>
      </trkpt>
      <trkpt lat="48.470743" lon="9.754418">
        <ele>703.752602</ele>
        <time>2025-11-11T22:33:15.020Z</time>
      </trkpt>
      <trkpt lat="48.471658" lon="9.754026">
        <ele>703.097152</ele>
        <time>2025-11-11T22:33:26.597Z</time>
      </trkpt>
      <trkpt lat="48.471989" lon="9.753854">
        <ele>702.855910</ele>
        <time>2025-11-11T22:33:33.447Z</time>
      </trkpt>
      <trkpt lat="48.472339" lon="9.753527">
        <ele>704.600302</ele>
        <time>2025-11-11T22:33:43.506Z</time>
      </trkpt>
      <trkpt lat="48.472618" lon="9.753109">
        <ele>706.417120</ele>
        <time>2025-11-11T22:33:55.845Z</time>
      </trkpt>
      <trkpt lat="48.472762" lon="9.752795">
        <ele>707.586586</ele>
        <time>2025-11-11T22:34:05.116Z</time>
      </trkpt>
      <trkpt lat="48.472937" lon="9.752251">
        <ele>709.438659</ele>
        <time>2025-11-11T22:34:21.333Z</time>
      </trkpt>
      <trkpt lat="48.473272" lon="9.750623">
        <ele>714.626814</ele>
        <time>2025-11-11T22:35:07.284Z</time>
      </trkpt>
      <trkpt lat="48.473310" lon="9.750419">
        <ele>715.269751</ele>
        <time>2025-11-11T22:35:12.546Z</time>
      </trkpt>
      <trkpt lat="48.473660" lon="9.745721">
        <ele>724.890321</ele>
        <time>2025-11-11T22:36:35.004Z</time>
      </trkpt>
      <trkpt lat="48.473735" lon="9.744828">
        <ele>725.501672</ele>
        <time>2025-11-11T22:36:46.493Z</time>
      </trkpt>
      <trkpt lat="48.473755" lon="9.744095">
        <ele>725.999928</ele>
        <time>2025-11-11T22:36:54.192Z</time>
      </trkpt>
      <trkpt lat="48.473738" lon="9.743447">
        <ele>726.122466</ele>
        <time>2025-11-11T22:37:00.027Z</time>
      </trkpt>
      <trkpt lat="48.473556" lon="9.740503">
        <ele>723.814844</ele>
        <time>2025-11-11T22:37:23.332Z</time>
      </trkpt>
      <trkpt lat="48.473539" lon="9.740310">
        <ele>723.583395</ele>
        <time>2025-11-11T22:37:24.775Z</time>
      </trkpt>
      <trkpt lat="48.473403" lon="9.737974">
        <ele>720.980364</ele>
        <time>2025-11-11T22:37:41.804Z</time>
      </trkpt>
      <trkpt lat="48.473411" lon="9.737537">
        <ele>720.729281</ele>
        <time>2025-11-11T22:37:45.114Z</time>
      </trkpt>
      <trkpt lat="48.473454" lon="9.737127">
        <ele>720.490873</ele>
        <time>2025-11-11T22:37:48.337Z</time>
      </trkpt>
      <trkpt lat="48.473971" lon="9.734188">
        <ele>720.048754</ele>
        <time>2025-11-11T22:38:16.612Z</time>
      </trkpt>
      <trkpt lat="48.474951" lon="9.728977">
        <ele>722.269244</ele>
        <time>2025-11-11T22:39:28.071Z</time>
      </trkpt>
      <trkpt lat="48.475167" lon="9.728304">
        <ele>722.061459</ele>
        <time>2025-11-11T22:39:34.107Z</time>
      </trkpt>
      <trkpt lat="48.476602" lon="9.724242">
        <ele>712.780500</ele>
        <time>2025-11-11T22:40:04.224Z</time>
      </trkpt>
      <trkpt lat="48.476763" lon="9.723924">
        <ele>712.013323</ele>
        <time>2025-11-11T22:40:06.954Z</time>
      </trkpt>
      <trkpt lat="48.476890" lon="9.723751">
        <ele>711.518413</ele>
        <time>2025-11-11T22:40:08.761Z</time>
      </trkpt>
      <trkpt lat="48.476945" lon="9.722739">
        <ele>710.182731</ele>
        <time>2025-11-11T22:40:16.295Z</time>
      </trkpt>
      <trkpt lat="48.477111" lon="9.722540">
        <ele>710.119134</ele>
        <time>2025-11-11T22:40:18.962Z</time>
      </trkpt>
      <trkpt lat="48.477391" lon="9.722100">
        <ele>709.997862</ele>
        <time>2025-11-11T22:40:25.545Z</time>
      </trkpt>
      <trkpt lat="48.477553" lon="9.721754">
        <ele>709.913638</ele>
        <time>2025-11-11T22:40:30.094Z</time>
      </trkpt>
      <trkpt lat="48.477874" lon="9.720829">
        <ele>709.728904</ele>
        <time>2025-11-11T22:40:40.465Z</time>
      </trkpt>
      <trkpt lat="48.478245" lon="9.719277">
        <ele>710.347504</ele>
        <time>2025-11-11T22:40:57.175Z</time>
      </trkpt>
      <trkpt lat="48.478417" lon="9.718788">
        <ele>710.555064</ele>
        <time>2025-11-11T22:41:03.546Z</time>
      </trkpt>
      <trkpt lat="48.478684" lon="9.718251">
        <ele>711.190644</ele>
        <time>2025-11-11T22:41:12.541Z</time>
      </trkpt>
      <trkpt lat="48.478784" lon="9.717957">
        <ele>711.944934</ele>
        <time>2025-11-11T22:41:17.712Z</time>
      </trkpt>
      <trkpt lat="48.478879" lon="9.717166">
        <ele>713.779912</ele>
        <time>2025-11-11T22:41:32.224Z</time>
      </trkpt>
      <trkpt lat="48.479373" lon="9.714923">
        <ele>719.451239</ele>
        <time>2025-11-11T22:42:24.033Z</time>
      </trkpt>
      <trkpt lat="48.479503" lon="9.712979">
        <ele>724.193753</ele>
        <time>2025-11-11T22:43:02.222Z</time>
      </trkpt>
      <trkpt lat="48.479625" lon="9.710805">
        <ele>727.232416</ele>
        <time>2025-11-11T22:43:35.404Z</time>
      </trkpt>
      <trkpt lat="48.480119" lon="9.707477">
        <ele>730.908828</ele>
        <time>2025-11-11T22:44:17.770Z</time>
      </trkpt>
      <trkpt lat="48.480286" lon="9.706349">
        <ele>734.025777</ele>
        <time>2025-11-11T22:44:40.309Z</time>
      </trkpt>
      <trkpt lat="48.480437" lon="9.705334">
        <ele>736.831118</ele>
        <time>2025-11-11T22:45:05.770Z</time>
      </trkpt>
      <trkpt lat="48.480623" lon="9.703515">
        <ele>744.149360</ele>
        <time>2025-11-11T22:45:56.457Z</time>
      </trkpt>
      <trkpt lat="48.481066" lon="9.702060">
        <ele>748.995169</ele>
        <time>2025-11-11T22:46:37.420Z</time>
      </trkpt>
      <trkpt lat="48.481211" lon="9.701639">
        <ele>749.611032</ele>
        <time>2025-11-11T22:46:46.371Z</time>
      </trkpt>
      <trkpt lat="48.482203" lon="9.700079">
        <ele>751.848579</ele>
        <time>2025-11-11T22:47:06.742Z</time>
      </trkpt>
      <trkpt lat="48.482555" lon="9.699404">
        <ele>752.034101</ele>
        <time>2025-11-11T22:47:16.103Z</time>
      </trkpt>
      <trkpt lat="48.483088" lon="9.698258">
        <ele>752.300551</ele>
        <time>2025-11-11T22:47:32.360Z</time>
      </trkpt>
      <trkpt lat="48.483707" lon="9.696830">
        <ele>751.802517</ele>
        <time>2025-11-11T22:47:48.649Z</time>
      </trkpt>
      <trkpt lat="48.483963" lon="9.695989">
        <ele>751.532392</ele>
        <time>2025-11-11T22:47:55.645Z</time>
      </trkpt>
      <trkpt lat="48.484084" lon="9.695739">
        <ele>751.633679</ele>
        <time>2025-11-11T22:47:58.012Z</time>
      </trkpt>
      <trkpt lat="48.484358" lon="9.695336">
        <ele>751.835835</ele>
        <time>2025-11-11T22:48:02.800Z</time>
      </trkpt>
      <trkpt lat="48.484923" lon="9.694790">
        <ele>752.190301</ele>
        <time>2025-11-11T22:48:15.041Z</time>
      </trkpt>
      <trkpt lat="48.485039" lon="9.694590">
        <ele>752.283360</ele>
        <time>2025-11-11T22:48:18.973Z</time>
      </trkpt>
      <trkpt lat="48.485165" lon="9.694172">
        <ele>752.444151</ele>
        <time>2025-11-11T22:48:25.791Z</time>
      </trkpt>
      <trkpt lat="48.485286" lon="9.693913">
        <ele>752.565644</ele>
        <time>2025-11-11T22:48:30.596Z</time>
      </trkpt>
      <trkpt lat="48.485503" lon="9.693667">
        <ele>752.728988</ele>
        <time>2025-11-11T22:48:37.043Z</time>
      </trkpt>
      <trkpt lat="48.485777" lon="9.693432">
        <ele>752.918659</ele>
        <time>2025-11-11T22:48:44.773Z</time>
      </trkpt>
      <trkpt lat="48.486636" lon="9.692946">
        <ele>753.470748</ele>
        <time>2025-11-11T22:49:00.263Z</time>
      </trkpt>
      <trkpt lat="48.486835" lon="9.692830">
        <ele>753.429666</ele>
        <time>2025-11-11T22:49:02.561Z</time>
      </trkpt>
      <trkpt lat="48.487137" lon="9.692684">
        <ele>752.754809</ele>
        <time>2025-11-11T22:49:05.820Z</time>
      </trkpt>
      <trkpt lat="48.487504" lon="9.692507">
        <ele>751.934885</ele>
        <time>2025-11-11T22:49:09.708Z</time>
      </trkpt>
      <trkpt lat="48.488123" lon="9.692207">
        <ele>750.551331</ele>
        <time>2025-11-11T22:49:16.354Z</time>
      </trkpt>
      <trkpt lat="48.488194" lon="9.691821">
        <ele>749.986333</ele>
        <time>2025-11-11T22:49:19.191Z</time>
      </trkpt>
      <trkpt lat="48.488218" lon="9.691696">
        <ele>749.802782</ele>
        <time>2025-11-11T22:49:20.180Z</time>
      </trkpt>
      <trkpt lat="48.488903" lon="9.690593">
        <ele>751.155110</ele>
        <time>2025-11-11T22:49:37.123Z</time>
      </trkpt>
      <trkpt lat="48.489169" lon="9.690149">
        <ele>751.736445</ele>
        <time>2025-11-11T22:49:47.567Z</time>
      </trkpt>
      <trkpt lat="48.489255" lon="9.689978">
        <ele>751.944943</ele>
        <time>2025-11-11T22:49:51.534Z</time>
      </trkpt>
      <trkpt lat="48.489386" lon="9.689628">
        <ele>752.335360</ele>
        <time>2025-11-11T22:49:59.295Z</time>
      </trkpt>
      <trkpt lat="48.489486" lon="9.689345">
        <ele>752.856329</ele>
        <time>2025-11-11T22:50:05.714Z</time>
      </trkpt>
      <trkpt lat="48.489610" lon="9.689288">
        <ele>753.190096</ele>
        <time>2025-11-11T22:50:09.689Z</time>
      </trkpt>
      <trkpt lat="48.489535" lon="9.688905">
        <ele>753.871612</ele>
        <time>2025-11-11T22:50:17.647Z</time>
      </trkpt>
      <trkpt lat="48.489444" lon="9.688317">
        <ele>754.902022</ele>
        <time>2025-11-11T22:50:28.632Z</time>
      </trkpt>
      <trkpt lat="48.489415" lon="9.687563">
        <ele>756.190881</ele>
        <time>2025-11-11T22:50:40.691Z</time>
      </trkpt>
      <trkpt lat="48.489416" lon="9.687230">
        <ele>756.759148</ele>
        <time>2025-11-11T22:50:45.088Z</time>
      </trkpt>
      <trkpt lat="48.489417" lon="9.687074">
        <ele>757.002906</ele>
        <time>2025-11-11T22:50:46.943Z</time>
      </trkpt>
      <trkpt lat="48.489430" lon="9.686563">
        <ele>757.059858</ele>
        <time>2025-11-11T22:50:52.571Z</time>
      </trkpt>
      <trkpt lat="48.489468" lon="9.686075">
        <ele>757.114580</ele>
        <time>2025-11-11T22:50:57.542Z</time>
      </trkpt>
      <trkpt lat="48.489480" lon="9.685915">
        <ele>757.132513</ele>
        <time>2025-11-11T22:50:59.019Z</time>
      </trkpt>
      <trkpt lat="48.489484" lon="9.685797">
        <ele>757.145672</ele>
        <time>2025-11-11T22:51:00.116Z</time>
      </trkpt>
      <trkpt lat="48.489556" lon="9.685734">
        <ele>757.159658</ele>
        <time>2025-11-11T22:51:01.216Z</time>
      </trkpt>
      <trkpt lat="48.489663" lon="9.685730">
        <ele>757.177643</ele>
        <time>2025-11-11T22:51:02.707Z</time>
      </trkpt>
      <trkpt lat="48.489814" lon="9.685677">
        <ele>757.203695</ele>
        <time>2025-11-11T22:51:04.882Z</time>
      </trkpt>
      <trkpt lat="48.489860" lon="9.685673">
        <ele>757.211438</ele>
        <time>2025-11-11T22:51:05.523Z</time>
      </trkpt>
      <trkpt lat="48.490218" lon="9.685675">
        <ele>757.271596</ele>
        <time>2025-11-11T22:51:10.689Z</time>
      </trkpt>
      <trkpt lat="48.490571" lon="9.685662">
        <ele>757.141209</ele>
        <time>2025-11-11T22:51:15.802Z</time>
      </trkpt>
      <trkpt lat="48.490856" lon="9.685651">
        <ele>756.856807</ele>
        <time>2025-11-11T22:51:20.077Z</time>
      </trkpt>
      <trkpt lat="48.490984" lon="9.685671">
        <ele>756.728434</ele>
        <time>2025-11-11T22:51:22.033Z</time>
      </trkpt>
      <trkpt lat="48.491299" lon="9.685753">
        <ele>756.409555</ele>
        <time>2025-11-11T22:51:26.547Z</time>
      </trkpt>
      <trkpt lat="48.491444" lon="9.685812">
        <ele>756.259740</ele>
        <time>2025-11-11T22:51:28.437Z</time>
      </trkpt>
      <trkpt lat="48.491687" lon="9.685974">
        <ele>755.994723</ele>
        <time>2025-11-11T22:51:31.544Z</time>
      </trkpt>
      <trkpt lat="48.491933" lon="9.686244">
        <ele>755.691266</ele>
        <time>2025-11-11T22:51:34.907Z</time>
      </trkpt>
      <trkpt lat="48.492162" lon="9.686370">
        <ele>755.307660</ele>
        <time>2025-11-11T22:51:37.505Z</time>
      </trkpt>
      <trkpt lat="48.492347" lon="9.686417">
        <ele>754.690952</ele>
        <time>2025-11-11T22:51:39.464Z</time>
      </trkpt>
      <trkpt lat="48.492717" lon="9.686469">
        <ele>753.469392</ele>
        <time>2025-11-11T22:51:43.244Z</time>
      </trkpt>
      <trkpt lat="48.492741" lon="9.686557">
        <ele>753.262081</ele>
        <time>2025-11-11T22:51:44.168Z</time>
      </trkpt>
      <trkpt lat="48.492780" lon="9.686588">
        <ele>753.117177</ele>
        <time>2025-11-11T22:51:44.795Z</time>
      </trkpt>
      <trkpt lat="48.492840" lon="9.686576">
        <ele>752.918215</ele>
        <time>2025-11-11T22:51:45.659Z</time>
      </trkpt>
      <trkpt lat="48.492876" lon="9.686506">
        <ele>752.725186</ele>
        <time>2025-11-11T22:51:46.500Z</time>
      </trkpt>
      <trkpt lat="48.493546" lon="9.686874">
        <ele>750.381334</ele>
        <time>2025-11-11T22:51:53.454Z</time>
      </trkpt>
      <trkpt lat="48.494045" lon="9.687148">
        <ele>749.363237</ele>
        <time>2025-11-11T22:51:58.781Z</time>
      </trkpt>
      <trkpt lat="48.494180" lon="9.687230">
        <ele>749.247036</ele>
        <time>2025-11-11T22:52:00.296Z</time>
      </trkpt>
      <trkpt lat="48.494299" lon="9.687301">
        <ele>749.144858</ele>
        <time>2025-11-11T22:52:01.668Z</time>
      </trkpt>
      <trkpt lat="48.494681" lon="9.687488">
        <ele>748.824187</ele>
        <time>2025-11-11T22:52:06.359Z</time>
      </trkpt>
      <trkpt lat="48.494903" lon="9.687604">
        <ele>748.636597</ele>
        <time>2025-11-11T22:52:09.493Z</time>
      </trkpt>
      <trkpt lat="48.495264" lon="9.687792">
        <ele>748.331660</ele>
        <time>2025-11-11T22:52:16.114Z</time>
      </trkpt>
      <trkpt lat="48.495704" lon="9.687981">
        <ele>748.791150</ele>
        <time>2025-11-11T22:52:26.843Z</time>
      </trkpt>
      <trkpt lat="48.496024" lon="9.688080">
        <ele>749.638792</ele>
        <time>2025-11-11T22:52:36.007Z</time>
      </trkpt>
      <trkpt lat="48.496192" lon="9.688126">
        <ele>750.081855</ele>
        <time>2025-11-11T22:52:41.080Z</time>
      </trkpt>
      <trkpt lat="48.496459" lon="9.688197">
        <ele>750.785371</ele>
        <time>2025-11-11T22:52:49.244Z</time>
      </trkpt>
      <trkpt lat="48.496977" lon="9.688439">
        <ele>752.192475</ele>
        <time>2025-11-11T22:53:03.669Z</time>
      </trkpt>
      <trkpt lat="48.497407" lon="9.688849">
        <ele>752.565145</ele>
        <time>2025-11-11T22:53:15.602Z</time>
      </trkpt>
      <trkpt lat="48.497861" lon="9.689363">
        <ele>752.000168</ele>
        <time>2025-11-11T22:53:24.251Z</time>
      </trkpt>
      <trkpt lat="48.498108" lon="9.689652">
        <ele>751.689048</ele>
        <time>2025-11-11T22:53:27.825Z</time>
      </trkpt>
      <trkpt lat="48.498258" lon="9.689827">
        <ele>751.500314</ele>
        <time>2025-11-11T22:53:29.847Z</time>
      </trkpt>
      <trkpt lat="48.498922" lon="9.690690">
        <ele>749.008906</ele>
        <time>2025-11-11T22:53:38.582Z</time>
      </trkpt>
      <trkpt lat="48.499769" lon="9.691699">
        <ele>743.685730</ele>
        <time>2025-11-11T22:53:52.921Z</time>
      </trkpt>
      <trkpt lat="48.499959" lon="9.692044">
        <ele>742.219362</ele>
        <time>2025-11-11T22:53:56.865Z</time>
      </trkpt>
      <trkpt lat="48.500098" lon="9.692463">
        <ele>740.778213</ele>
        <time>2025-11-11T22:54:01.007Z</time>
      </trkpt>
      <trkpt lat="48.500486" lon="9.693924">
        <ele>735.948648</ele>
        <time>2025-11-11T22:54:15.266Z</time>
      </trkpt>
      <trkpt lat="48.500763" lon="9.695072">
        <ele>732.418991</ele>
        <time>2025-11-11T22:54:26.692Z</time>
      </trkpt>
      <trkpt lat="48.500872" lon="9.695372">
        <ele>731.509812</ele>
        <time>2025-11-11T22:54:29.870Z</time>
      </trkpt>
      <trkpt lat="48.501022" lon="9.695604">
        <ele>730.648452</ele>
        <time>2025-11-11T22:54:32.884Z</time>
      </trkpt>
      <trkpt lat="48.501238" lon="9.695816">
        <ele>729.615137</ele>
        <time>2025-11-11T22:54:36.479Z</time>
      </trkpt>
      <trkpt lat="48.501508" lon="9.696014">
        <ele>728.411271</ele>
        <time>2025-11-11T22:54:40.643Z</time>
      </trkpt>
      <trkpt lat="48.501971" lon="9.696182">
        <ele>726.561028</ele>
        <time>2025-11-11T22:54:47.293Z</time>
      </trkpt>
      <trkpt lat="48.502302" lon="9.696199">
        <ele>725.887270</ele>
        <time>2025-11-11T22:54:52.012Z</time>
      </trkpt>
      <trkpt lat="48.502753" lon="9.696120">
        <ele>724.963621</ele>
        <time>2025-11-11T22:54:58.637Z</time>
      </trkpt>
      <trkpt lat="48.503296" lon="9.695977">
        <ele>723.842281</ele>
        <time>2025-11-11T22:55:07.237Z</time>
      </trkpt>
      <trkpt lat="48.503931" lon="9.695625">
        <ele>723.453493</ele>
        <time>2025-11-11T22:55:20.899Z</time>
      </trkpt>
      <trkpt lat="48.505140" lon="9.694779">
        <ele>726.127360</ele>
        <time>2025-11-11T22:56:02.708Z</time>
      </trkpt>
      <trkpt lat="48.505469" lon="9.694650">
        <ele>726.698388</ele>
        <time>2025-11-11T22:56:13.982Z</time>
      </trkpt>
      <trkpt lat="48.507570" lon="9.694429">
        <ele>727.652698</ele>
        <time>2025-11-11T22:57:03.809Z</time>
      </trkpt>
      <trkpt lat="48.508510" lon="9.694223">
        <ele>725.778895</ele>
        <time>2025-11-11T22:57:17.754Z</time>
      </trkpt>
      <trkpt lat="48.508688" lon="9.694225">
        <ele>725.427741</ele>
        <time>2025-11-11T22:57:20.284Z</time>
      </trkpt>
      <trkpt lat="48.509025" lon="9.694229">
        <ele>724.839185</ele>
        <time>2025-11-11T22:57:25.114Z</time>
      </trkpt>
      <trkpt lat="48.509815" lon="9.694406">
        <ele>723.926274</ele>
        <time>2025-11-11T22:57:37.591Z</time>
      </trkpt>
      <trkpt lat="48.510269" lon="9.694544">
        <ele>723.396908</ele>
        <time>2025-11-11T22:57:46.368Z</time>
      </trkpt>
      <trkpt lat="48.510461" lon="9.694651">
        <ele>723.162960</ele>
        <time>2025-11-11T22:57:50.665Z</time>
      </trkpt>
      <trkpt lat="48.510683" lon="9.694811">
        <ele>722.895392</ele>
        <time>2025-11-11T22:57:56.036Z</time>
      </trkpt>
      <trkpt lat="48.511464" lon="9.695581">
        <ele>724.047766</ele>
        <time>2025-11-11T22:58:18.922Z</time>
      </trkpt>
      <trkpt lat="48.511771" lon="9.695633">
        <ele>724.429400</ele>
        <time>2025-11-11T22:58:27.171Z</time>
      </trkpt>
      <trkpt lat="48.512072" lon="9.695495">
        <ele>724.818013</ele>
        <time>2025-11-11T22:58:35.738Z</time>
      </trkpt>
      <trkpt lat="48.512309" lon="9.695200">
        <ele>725.180785</ele>
        <time>2025-11-11T22:58:44.045Z</time>
      </trkpt>
      <trkpt lat="48.512890" lon="9.694477">
        <ele>725.932805</ele>
        <time>2025-11-11T22:59:03.690Z</time>
      </trkpt>
      <trkpt lat="48.514375" lon="9.692629">
        <ele>727.767881</ele>
        <time>2025-11-11T22:59:46.702Z</time>
      </trkpt>
      <trkpt lat="48.515085" lon="9.691640">
        <ele>728.708162</ele>
        <time>2025-11-11T23:00:10.927Z</time>
      </trkpt>
      <trkpt lat="48.516073" lon="9.690168">
        <ele>730.727047</ele>
        <time>2025-11-11T23:00:48.784Z</time>
      </trkpt>
      <trkpt lat="48.516681" lon="9.689418">
        <ele>731.470343</ele>
        <time>2025-11-11T23:01:07.331Z</time>
      </trkpt>
      <trkpt lat="48.517627" lon="9.688251">
        <ele>732.256403</ele>
        <time>2025-11-11T23:01:33.953Z</time>
      </trkpt>
      <trkpt lat="48.517865" lon="9.687995">
        <ele>732.397269</ele>
        <time>2025-11-11T23:01:40.838Z</time>
      </trkpt>
      <trkpt lat="48.518093" lon="9.687826">
        <ele>732.502775</ele>
        <time>2025-11-11T23:01:46.710Z</time>
      </trkpt>
      <trkpt lat="48.518758" lon="9.687502">
        <ele>732.793031</ele>
        <time>2025-11-11T23:02:02.402Z</time>
      </trkpt>
      <trkpt lat="48.519332" lon="9.687330">
        <ele>733.036110</ele>
        <time>2025-11-11T23:02:14.808Z</time>
      </trkpt>
      <trkpt lat="48.519776" lon="9.687024">
        <ele>733.119475</ele>
        <time>2025-11-11T23:02:24.604Z</time>
      </trkpt>
      <trkpt lat="48.520543" lon="9.686363">
        <ele>733.243528</ele>
        <time>2025-11-11T23:02:42.294Z</time>
      </trkpt>
      <trkpt lat="48.521567" lon="9.685241">
        <ele>733.819832</ele>
        <time>2025-11-11T23:03:09.990Z</time>
      </trkpt>
      <trkpt lat="48.523001" lon="9.683776">
        <ele>735.050187</ele>
        <time>2025-11-11T23:03:50.927Z</time>
      </trkpt>
      <trkpt lat="48.524078" lon="9.682393">
        <ele>736.091607</ele>
        <time>2025-11-11T23:04:24.182Z</time>
      </trkpt>
      <trkpt lat="48.526215" lon="9.678711">
        <ele>737.699369</ele>
        <time>2025-11-11T23:05:35.735Z</time>
      </trkpt>
      <trkpt lat="48.526165" lon="9.674772">
        <ele>738.989878</ele>
        <time>2025-11-11T23:06:18.942Z</time>
      </trkpt>
      <trkpt lat="48.526159" lon="9.674359">
        <ele>739.147036</ele>
        <time>2025-11-11T23:06:23.497Z</time>
      </trkpt>
      <trkpt lat="48.526355" lon="9.669661">
        <ele>742.604048</ele>
        <time>2025-11-11T23:07:19.552Z</time>
      </trkpt>
      <trkpt lat="48.529044" lon="9.669141">
        <ele>752.262674</ele>
        <time>2025-11-11T23:08:39.667Z</time>
      </trkpt>
      <trkpt lat="48.529355" lon="9.669122">
        <ele>753.599496</ele>
        <time>2025-11-11T23:08:51.312Z</time>
      </trkpt>
      <trkpt lat="48.530825" lon="9.669029">
        <ele>761.923903</ele>
        <time>2025-11-11T23:09:52.551Z</time>
      </trkpt>
      <trkpt lat="48.530972" lon="9.669019">
        <ele>762.756458</ele>
        <time>2025-11-11T23:09:57.905Z</time>
      </trkpt>
      <trkpt lat="48.531378" lon="9.668992">
        <ele>763.697263</ele>
        <time>2025-11-11T23:10:10.989Z</time>
      </trkpt>
      <trkpt lat="48.532529" lon="9.669062">
        <ele>763.487178</ele>
        <time>2025-11-11T23:10:27.443Z</time>
      </trkpt>
      <trkpt lat="48.532816" lon="9.669069">
        <ele>763.434829</ele>
        <time>2025-11-11T23:10:30.271Z</time>
      </trkpt>
      <trkpt lat="48.533910" lon="9.669122">
        <ele>760.985686</ele>
        <time>2025-11-11T23:10:40.809Z</time>
      </trkpt>
      <trkpt lat="48.534158" lon="9.669125">
        <ele>760.363817</ele>
        <time>2025-11-11T23:10:43.305Z</time>
      </trkpt>
      <trkpt lat="48.535496" lon="9.669098">
        <ele>761.076654</ele>
        <time>2025-11-11T23:11:04.060Z</time>
      </trkpt>
      <trkpt lat="48.535477" lon="9.668794">
        <ele>761.659135</ele>
        <time>2025-11-11T23:11:09.684Z</time>
      </trkpt>
      <trkpt lat="48.535290" lon="9.665887">
        <ele>770.474203</ele>
        <time>2025-11-11T23:12:19.931Z</time>
      </trkpt>
      <trkpt lat="48.535179" lon="9.664071">
        <ele>777.740685</ele>
        <time>2025-11-11T23:13:09.830Z</time>
      </trkpt>
      <trkpt lat="48.535056" lon="9.663242">
        <ele>781.258336</ele>
        <time>2025-11-11T23:13:33.724Z</time>
      </trkpt>
      <trkpt lat="48.535013" lon="9.662671">
        <ele>783.637849</ele>
        <time>2025-11-11T23:13:48.854Z</time>
      </trkpt>
      <trkpt lat="48.535358" lon="9.662419">
        <ele>785.957806</ele>
        <time>2025-11-11T23:14:03.087Z</time>
      </trkpt>
      <trkpt lat="48.535633" lon="9.662279">
        <ele>787.010151</ele>
        <time>2025-11-11T23:14:13.069Z</time>
      </trkpt>
      <trkpt lat="48.536151" lon="9.662253">
        <ele>788.889568</ele>
        <time>2025-11-11T23:14:29.771Z</time>
      </trkpt>
      <trkpt lat="48.537858" lon="9.662166">
        <ele>794.286618</ele>
        <time>2025-11-11T23:15:12.712Z</time>
      </trkpt>
      <trkpt lat="48.538148" lon="9.662091">
        <ele>795.039807</ele>
        <time>2025-11-11T23:15:19.584Z</time>
      </trkpt>
      <trkpt lat="48.539526" lon="9.661732">
        <ele>799.393394</ele>
        <time>2025-11-11T23:15:54.983Z</time>
      </trkpt>
      <trkpt lat="48.539884" lon="9.661598">
        <ele>800.782974</ele>
        <time>2025-11-11T23:16:06.491Z</time>
      </trkpt>
      <trkpt lat="48.540276" lon="9.661379">
        <ele>802.357645</ele>
        <time>2025-11-11T23:16:20.589Z</time>
      </trkpt>
      <trkpt lat="48.541013" lon="9.660739">
        <ele>804.739281</ele>
        <time>2025-11-11T23:16:49.000Z</time>
      </trkpt>
      <trkpt lat="48.541008" lon="9.660673">
        <ele>804.829597</ele>
        <time>2025-11-11T23:16:50.528Z</time>
      </trkpt>
      <trkpt lat="48.540982" lon="9.660341">
        <ele>805.284119</ele>
        <time>2025-11-11T23:16:57.844Z</time>
      </trkpt>
      <trkpt lat="48.541025" lon="9.660030">
        <ele>805.716064</ele>
        <time>2025-11-11T23:17:04.231Z</time>
      </trkpt>
      <trkpt lat="48.540678" lon="9.659889">
        <ele>806.453951</ele>
        <time>2025-11-11T23:17:11.558Z</time>
      </trkpt>
      <trkpt lat="48.540271" lon="9.659639">
        <ele>807.356181</ele>
        <time>2025-11-11T23:17:17.915Z</time>
      </trkpt>
      <trkpt lat="48.540009" lon="9.659454">
        <ele>806.922690</ele>
        <time>2025-11-11T23:17:21.318Z</time>
      </trkpt>
      <trkpt lat="48.539533" lon="9.659200">
        <ele>805.834457</ele>
        <time>2025-11-11T23:17:26.786Z</time>
      </trkpt>
      <trkpt lat="48.539056" lon="9.659051">
        <ele>804.784464</ele>
        <time>2025-11-11T23:17:31.913Z</time>
      </trkpt>
      <trkpt lat="48.538325" lon="9.658919">
        <ele>803.307997</ele>
        <time>2025-11-11T23:17:39.469Z</time>
      </trkpt>
      <trkpt lat="48.537755" lon="9.658776">
        <ele>802.430335</ele>
        <time>2025-11-11T23:17:45.507Z</time>
      </trkpt>
      <trkpt lat="48.537408" lon="9.658648">
        <ele>801.887768</ele>
        <time>2025-11-11T23:17:49.542Z</time>
      </trkpt>
      <trkpt lat="48.537057" lon="9.658470">
        <ele>801.325365</ele>
        <time>2025-11-11T23:17:54.150Z</time>
      </trkpt>
      <trkpt lat="48.537057" lon="9.658366">
        <ele>801.220768</ele>
        <time>2025-11-11T23:17:55.094Z</time>
      </trkpt>
      <trkpt lat="48.537174" lon="9.657177">
        <ele>800.917045</ele>
        <time>2025-11-11T23:18:08.701Z</time>
      </trkpt>
      <trkpt lat="48.537381" lon="9.655076">
        <ele>800.307952</ele>
        <time>2025-11-11T23:18:33.091Z</time>
      </trkpt>
      <trkpt lat="48.537390" lon="9.654967">
        <ele>799.933278</ele>
        <time>2025-11-11T23:18:33.862Z</time>
      </trkpt>
      <trkpt lat="48.537407" lon="9.654479">
        <ele>798.266425</ele>
        <time>2025-11-11T23:18:37.073Z</time>
      </trkpt>
      <trkpt lat="48.537383" lon="9.653848">
        <ele>796.110558</ele>
        <time>2025-11-11T23:18:40.959Z</time>
      </trkpt>
      <trkpt lat="48.537269" lon="9.653018">
        <ele>793.219185</ele>
        <time>2025-11-11T23:18:45.907Z</time>
      </trkpt>
      <trkpt lat="48.537163" lon="9.652464">
        <ele>791.574028</ele>
        <time>2025-11-11T23:18:49.275Z</time>
      </trkpt>
      <trkpt lat="48.536933" lon="9.651753">
        <ele>790.379733</ele>
        <time>2025-11-11T23:18:54.059Z</time>
      </trkpt>
      <trkpt lat="48.536885" lon="9.651624">
        <ele>790.156403</ele>
        <time>2025-11-11T23:18:54.996Z</time>
      </trkpt>
      <trkpt lat="48.536637" lon="9.650966">
        <ele>789.013695</ele>
        <time>2025-11-11T23:19:00.429Z</time>
      </trkpt>
      <trkpt lat="48.536510" lon="9.650595">
        <ele>788.383354</ele>
        <time>2025-11-11T23:19:05.567Z</time>
      </trkpt>
      <trkpt lat="48.536408" lon="9.650097">
        <ele>788.045320</ele>
        <time>2025-11-11T23:19:15.397Z</time>
      </trkpt>
      <trkpt lat="48.536236" lon="9.648958">
        <ele>792.227720</ele>
        <time>2025-11-11T23:19:43.479Z</time>
      </trkpt>
      <trkpt lat="48.536192" lon="9.648552">
        <ele>793.700571</ele>
        <time>2025-11-11T23:19:54.471Z</time>
      </trkpt>
      <trkpt lat="48.536214" lon="9.647317">
        <ele>797.894583</ele>
        <time>2025-11-11T23:20:28.436Z</time>
      </trkpt>
      <trkpt lat="48.536268" lon="9.646723">
        <ele>799.306436</ele>
        <time>2025-11-11T23:20:43.495Z</time>
      </trkpt>
      <trkpt lat="48.536424" lon="9.645698">
        <ele>801.783005</ele>
        <time>2025-11-11T23:21:03.541Z</time>
      </trkpt>
      <trkpt lat="48.536592" lon="9.645502">
        <ele>802.537962</ele>
        <time>2025-11-11T23:21:08.288Z</time>
      </trkpt>
      <trkpt lat="48.537399" lon="9.645489">
        <ele>804.493983</ele>
        <time>2025-11-11T23:21:23.513Z</time>
      </trkpt>
      <trkpt lat="48.537594" lon="9.645454">
        <ele>804.782376</ele>
        <time>2025-11-11T23:21:26.596Z</time>
      </trkpt>
      <trkpt lat="48.537808" lon="9.645370">
        <ele>805.107098</ele>
        <time>2025-11-11T23:21:30.078Z</time>
      </trkpt>
      <trkpt lat="48.538215" lon="9.645113">
        <ele>805.754959</ele>
        <time>2025-11-11T23:21:38.691Z</time>
      </trkpt>
      <trkpt lat="48.538465" lon="9.644854">
        <ele>806.200187</ele>
        <time>2025-11-11T23:21:46.033Z</time>
      </trkpt>
      <trkpt lat="48.540248" lon="9.642226">
        <ele>812.452651</ele>
        <time>2025-11-11T23:22:51.604Z</time>
      </trkpt>
      <trkpt lat="48.540312" lon="9.642053">
        <ele>812.717617</ele>
        <time>2025-11-11T23:22:54.555Z</time>
      </trkpt>
      <trkpt lat="48.540329" lon="9.641797">
        <ele>813.061617</ele>
        <time>2025-11-11T23:22:58.322Z</time>
      </trkpt>
      <trkpt lat="48.540313" lon="9.641605">
        <ele>813.320354</ele>
        <time>2025-11-11T23:23:01.113Z</time>
      </trkpt>
      <trkpt lat="48.540067" lon="9.640147">
        <ele>815.177889</ele>
        <time>2025-11-11T23:23:22.029Z</time>
      </trkpt>
      <trkpt lat="48.539968" lon="9.639698">
        <ele>815.411019</ele>
        <time>2025-11-11T23:23:28.784Z</time>
      </trkpt>
      <trkpt lat="48.539902" lon="9.639399">
        <ele>815.566284</ele>
        <time>2025-11-11T23:23:33.072Z</time>
      </trkpt>
      <trkpt lat="48.539654" lon="9.638643">
        <ele>815.981914</ele>
        <time>2025-11-11T23:23:43.675Z</time>
      </trkpt>
      <trkpt lat="48.539138" lon="9.637002">
        <ele>814.859916</ele>
        <time>2025-11-11T23:24:00.187Z</time>
      </trkpt>
      <trkpt lat="48.538906" lon="9.636325">
        <ele>813.554716</ele>
        <time>2025-11-11T23:24:05.801Z</time>
      </trkpt>
      <trkpt lat="48.538734" lon="9.635986">
        <ele>812.823462</ele>
        <time>2025-11-11T23:24:08.663Z</time>
      </trkpt>
      <trkpt lat="48.538585" lon="9.635776">
        <ele>812.296447</ele>
        <time>2025-11-11T23:24:10.624Z</time>
      </trkpt>
      <trkpt lat="48.538038" lon="9.635301">
        <ele>808.259536</ele>
        <time>2025-11-11T23:24:16.388Z</time>
      </trkpt>
      <trkpt lat="48.537998" lon="9.635086">
        <ele>807.048728</ele>
        <time>2025-11-11T23:24:17.690Z</time>
      </trkpt>
      <trkpt lat="48.538020" lon="9.634983">
        <ele>806.461955</ele>
        <time>2025-11-11T23:24:18.320Z</time>
      </trkpt>
      <trkpt lat="48.538371" lon="9.634473">
        <ele>802.473711</ele>
        <time>2025-11-11T23:24:22.552Z</time>
      </trkpt>
      <trkpt lat="48.538575" lon="9.634230">
        <ele>800.346264</ele>
        <time>2025-11-11T23:24:24.796Z</time>
      </trkpt>
      <trkpt lat="48.538787" lon="9.634016">
        <ele>798.258300</ele>
        <time>2025-11-11T23:24:26.990Z</time>
      </trkpt>
      <trkpt lat="48.539063" lon="9.633798">
        <ele>795.665204</ele>
        <time>2025-11-11T23:24:29.688Z</time>
      </trkpt>
      <trkpt lat="48.539363" lon="9.633605">
        <ele>792.909965</ele>
        <time>2025-11-11T23:24:32.533Z</time>
      </trkpt>
      <trkpt lat="48.540220" lon="9.633196">
        <ele>785.315812</ele>
        <time>2025-11-11T23:24:40.455Z</time>
      </trkpt>
      <trkpt lat="48.541095" lon="9.632579">
        <ele>778.119862</ele>
        <time>2025-11-11T23:24:48.960Z</time>
      </trkpt>
      <trkpt lat="48.542479" lon="9.631559">
        <ele>770.134316</ele>
        <time>2025-11-11T23:25:02.922Z</time>
      </trkpt>
      <trkpt lat="48.542547" lon="9.631478">
        <ele>770.240142</ele>
        <time>2025-11-11T23:25:03.923Z</time>
      </trkpt>
      <trkpt lat="48.542513" lon="9.630819">
        <ele>770.774913</ele>
        <time>2025-11-11T23:25:10.819Z</time>
      </trkpt>
      <trkpt lat="48.542516" lon="9.630490">
        <ele>771.041110</ele>
        <time>2025-11-11T23:25:16.044Z</time>
      </trkpt>
      <trkpt lat="48.542541" lon="9.630253">
        <ele>771.235270</ele>
        <time>2025-11-11T23:25:20.684Z</time>
      </trkpt>
      <trkpt lat="48.542573" lon="9.629950">
        <ele>771.483507</ele>
        <time>2025-11-11T23:25:27.636Z</time>
      </trkpt>
      <trkpt lat="48.542675" lon="9.629442">
        <ele>771.912980</ele>
        <time>2025-11-11T23:25:41.510Z</time>
      </trkpt>
      <trkpt lat="48.542840" lon="9.628962">
        <ele>773.963493</ele>
        <time>2025-11-11T23:25:56.539Z</time>
      </trkpt>
      <trkpt lat="48.543091" lon="9.628463">
        <ele>776.617397</ele>
        <time>2025-11-11T23:26:14.506Z</time>
      </trkpt>
      <trkpt lat="48.543272" lon="9.628184">
        <ele>778.271599</ele>
        <time>2025-11-11T23:26:25.440Z</time>
      </trkpt>
      <trkpt lat="48.544158" lon="9.626821">
        <ele>785.472982</ele>
        <time>2025-11-11T23:27:15.879Z</time>
      </trkpt>
      <trkpt lat="48.544450" lon="9.626556">
        <ele>786.981726</ele>
        <time>2025-11-11T23:27:27.039Z</time>
      </trkpt>
      <trkpt lat="48.545265" lon="9.626209">
        <ele>790.732014</ele>
        <time>2025-11-11T23:27:51.858Z</time>
      </trkpt>
      <trkpt lat="48.545695" lon="9.625920">
        <ele>792.377999</ele>
        <time>2025-11-11T23:28:04.809Z</time>
      </trkpt>
      <trkpt lat="48.545779" lon="9.625872">
        <ele>792.648983</ele>
        <time>2025-11-11T23:28:07.274Z</time>
      </trkpt>
      <trkpt lat="48.545948" lon="9.625804">
        <ele>793.176689</ele>
        <time>2025-11-11T23:28:12.119Z</time>
      </trkpt>
      <trkpt lat="48.546331" lon="9.625916">
        <ele>794.353774</ele>
        <time>2025-11-11T23:28:23.172Z</time>
      </trkpt>
      <trkpt lat="48.548574" lon="9.626407">
        <ele>799.031598</ele>
        <time>2025-11-11T23:29:20.464Z</time>
      </trkpt>
      <trkpt lat="48.548941" lon="9.626501">
        <ele>799.544268</ele>
        <time>2025-11-11T23:29:25.445Z</time>
      </trkpt>
      <trkpt lat="48.549161" lon="9.626623">
        <ele>798.201409</ele>
        <time>2025-11-11T23:29:28.026Z</time>
      </trkpt>
      <trkpt lat="48.549301" lon="9.626726">
        <ele>797.309126</ele>
        <time>2025-11-11T23:29:29.615Z</time>
      </trkpt>
      <trkpt lat="48.549524" lon="9.626991">
        <ele>795.683354</ele>
        <time>2025-11-11T23:29:32.365Z</time>
      </trkpt>
      <trkpt lat="48.550305" lon="9.628561">
        <ele>787.780643</ele>
        <time>2025-11-11T23:29:43.863Z</time>
      </trkpt>
      <trkpt lat="48.550514" lon="9.629097">
        <ele>784.394986</ele>
        <time>2025-11-11T23:29:47.439Z</time>
      </trkpt>
      <trkpt lat="48.550596" lon="9.629414">
        <ele>782.542670</ele>
        <time>2025-11-11T23:29:49.411Z</time>
      </trkpt>
      <trkpt lat="48.550695" lon="9.630133">
        <ele>778.545774</ele>
        <time>2025-11-11T23:29:53.710Z</time>
      </trkpt>
      <trkpt lat="48.550706" lon="9.630418">
        <ele>776.992036</ele>
        <time>2025-11-11T23:29:55.392Z</time>
      </trkpt>
      <trkpt lat="48.550685" lon="9.630830">
        <ele>774.743101</ele>
        <time>2025-11-11T23:29:57.819Z</time>
      </trkpt>
      <trkpt lat="48.550606" lon="9.631480">
        <ele>770.902865</ele>
        <time>2025-11-11T23:30:01.650Z</time>
      </trkpt>
      <trkpt lat="48.550590" lon="9.631944">
        <ele>768.189924</ele>
        <time>2025-11-11T23:30:04.345Z</time>
      </trkpt>
      <trkpt lat="48.550639" lon="9.632402">
        <ele>765.480988</ele>
        <time>2025-11-11T23:30:07.017Z</time>
      </trkpt>
      <trkpt lat="48.550743" lon="9.632894">
        <ele>762.465322</ele>
        <time>2025-11-11T23:30:09.968Z</time>
      </trkpt>
      <trkpt lat="48.550918" lon="9.633367">
        <ele>759.301410</ele>
        <time>2025-11-11T23:30:13.066Z</time>
      </trkpt>
      <trkpt lat="48.550987" lon="9.633527">
        <ele>758.287475</ele>
        <time>2025-11-11T23:30:14.165Z</time>
      </trkpt>
      <trkpt lat="48.551065" lon="9.633619">
        <ele>757.616320</ele>
        <time>2025-11-11T23:30:15.030Z</time>
      </trkpt>
      <trkpt lat="48.551246" lon="9.633685">
        <ele>756.353489</ele>
        <time>2025-11-11T23:30:16.656Z</time>
      </trkpt>
      <trkpt lat="48.551373" lon="9.633641">
        <ele>755.469790</ele>
        <time>2025-11-11T23:30:17.810Z</time>
      </trkpt>
      <trkpt lat="48.551686" lon="9.633068">
        <ele>752.134538</ele>
        <time>2025-11-11T23:30:22.297Z</time>
      </trkpt>
      <trkpt lat="48.551800" lon="9.632930">
        <ele>751.143769</ele>
        <time>2025-11-11T23:30:23.648Z</time>
      </trkpt>
      <trkpt lat="48.551986" lon="9.632791">
        <ele>749.736373</ele>
        <time>2025-11-11T23:30:25.576Z</time>
      </trkpt>
      <trkpt lat="48.552496" lon="9.632285">
        <ele>745.349637</ele>
        <time>2025-11-11T23:30:31.300Z</time>
      </trkpt>
      <trkpt lat="48.553024" lon="9.631863">
        <ele>740.080307</ele>
        <time>2025-11-11T23:30:36.648Z</time>
      </trkpt>
      <trkpt lat="48.553177" lon="9.631778">
        <ele>738.642273</ele>
        <time>2025-11-11T23:30:38.076Z</time>
      </trkpt>
      <trkpt lat="48.553546" lon="9.631659">
        <ele>735.313852</ele>
        <time>2025-11-11T23:30:41.322Z</time>
      </trkpt>
      <trkpt lat="48.554059" lon="9.631561">
        <ele>730.752457</ele>
        <time>2025-11-11T23:30:45.727Z</time>
      </trkpt>
      <trkpt lat="48.554566" lon="9.631383">
        <ele>725.329178</ele>
        <time>2025-11-11T23:30:50.140Z</time>
      </trkpt>
      <trkpt lat="48.554784" lon="9.631063">
        <ele>722.140818</ele>
        <time>2025-11-11T23:30:52.730Z</time>
      </trkpt>
      <trkpt lat="48.554890" lon="9.630960">
        <ele>720.818790</ele>
        <time>2025-11-11T23:30:53.811Z</time>
      </trkpt>
      <trkpt lat="48.555578" lon="9.630593">
        <ele>713.165278</ele>
        <time>2025-11-11T23:31:00.095Z</time>
      </trkpt>
      <trkpt lat="48.555875" lon="9.630355">
        <ele>709.839841</ele>
        <time>2025-11-11T23:31:03.001Z</time>
      </trkpt>
      <trkpt lat="48.556159" lon="9.630196">
        <ele>706.974079</ele>
        <time>2025-11-11T23:31:05.616Z</time>
      </trkpt>
      <trkpt lat="48.558448" lon="9.629569">
        <ele>686.913428</ele>
        <time>2025-11-11T23:31:25.785Z</time>
      </trkpt>
      <trkpt lat="48.558786" lon="9.629497">
        <ele>684.332549</ele>
        <time>2025-11-11T23:31:28.884Z</time>
      </trkpt>
      <trkpt lat="48.559120" lon="9.629472">
        <ele>681.804091</ele>
        <time>2025-11-11T23:31:32.004Z</time>
      </trkpt>
      <trkpt lat="48.559709" lon="9.629468">
        <ele>677.095931</ele>
        <time>2025-11-11T23:31:37.892Z</time>
      </trkpt>
      <trkpt lat="48.560078" lon="9.629518">
        <ele>674.103071</ele>
        <time>2025-11-11T23:31:41.342Z</time>
      </trkpt>
      <trkpt lat="48.560186" lon="9.629578">
        <ele>673.173508</ele>
        <time>2025-11-11T23:31:42.369Z</time>
      </trkpt>
      <trkpt lat="48.560272" lon="9.629668">
        <ele>672.328408</ele>
        <time>2025-11-11T23:31:43.280Z</time>
      </trkpt>
      <trkpt lat="48.560383" lon="9.629873">
        <ele>670.912309</ele>
        <time>2025-11-11T23:31:44.788Z</time>
      </trkpt>
      <trkpt lat="48.560482" lon="9.629910">
        <ele>670.088454</ele>
        <time>2025-11-11T23:31:45.665Z</time>
      </trkpt>
      <trkpt lat="48.560511" lon="9.629892">
        <ele>669.835187</ele>
        <time>2025-11-11T23:31:45.933Z</time>
      </trkpt>
      <trkpt lat="48.560551" lon="9.629808">
        <ele>669.281917</ele>
        <time>2025-11-11T23:31:46.511Z</time>
      </trkpt>
      <trkpt lat="48.560542" lon="9.629700">
        <ele>668.699941</ele>
        <time>2025-11-11T23:31:47.126Z</time>
      </trkpt>
      <trkpt lat="48.560246" lon="9.629352">
        <ele>665.193044</ele>
        <time>2025-11-11T23:31:50.284Z</time>
      </trkpt>
      <trkpt lat="48.560046" lon="9.629136">
        <ele>662.121649</ele>
        <time>2025-11-11T23:31:52.339Z</time>
      </trkpt>
      <trkpt lat="48.559746" lon="9.628968">
        <ele>658.124433</ele>
        <time>2025-11-11T23:31:54.985Z</time>
      </trkpt>
      <trkpt lat="48.558654" lon="9.628696">
        <ele>644.297315</ele>
        <time>2025-11-11T23:32:04.259Z</time>
      </trkpt>
      <trkpt lat="48.558126" lon="9.628638">
        <ele>642.746579</ele>
        <time>2025-11-11T23:32:09.005Z</time>
      </trkpt>
      <trkpt lat="48.557418" lon="9.628633">
        <ele>640.911788</ele>
        <time>2025-11-11T23:32:17.451Z</time>
      </trkpt>
      <trkpt lat="48.557109" lon="9.628598">
        <ele>640.108772</ele>
        <time>2025-11-11T23:32:25.808Z</time>
      </trkpt>
      <trkpt lat="48.556591" lon="9.628416">
        <ele>638.224631</ele>
        <time>2025-11-11T23:32:39.418Z</time>
      </trkpt>
      <trkpt lat="48.556288" lon="9.628448">
        <ele>636.851833</ele>
        <time>2025-11-11T23:32:43.791Z</time>
      </trkpt>
      <trkpt lat="48.556207" lon="9.628361">
        <ele>636.402657</ele>
        <time>2025-11-11T23:32:44.920Z</time>
      </trkpt>
      <trkpt lat="48.556201" lon="9.628302">
        <ele>636.224088</ele>
        <time>2025-11-11T23:32:45.397Z</time>
      </trkpt>
      <trkpt lat="48.556230" lon="9.628219">
        <ele>635.943322</ele>
        <time>2025-11-11T23:32:46.049Z</time>
      </trkpt>
      <trkpt lat="48.556283" lon="9.628158">
        <ele>635.642191</ele>
        <time>2025-11-11T23:32:46.763Z</time>
      </trkpt>
      <trkpt lat="48.556446" lon="9.628168">
        <ele>634.904880</ele>
        <time>2025-11-11T23:32:48.380Z</time>
      </trkpt>
      <trkpt lat="48.556739" lon="9.628182">
        <ele>633.579958</ele>
        <time>2025-11-11T23:32:51.052Z</time>
      </trkpt>
      <trkpt lat="48.557225" lon="9.628098">
        <ele>631.369077</ele>
        <time>2025-11-11T23:32:55.259Z</time>
      </trkpt>
      <trkpt lat="48.557608" lon="9.627932">
        <ele>627.149815</ele>
        <time>2025-11-11T23:32:58.584Z</time>
      </trkpt>
      <trkpt lat="48.558110" lon="9.627634">
        <ele>621.270656</ele>
        <time>2025-11-11T23:33:03.113Z</time>
      </trkpt>
      <trkpt lat="48.558986" lon="9.627340">
        <ele>611.559262</ele>
        <time>2025-11-11T23:33:10.845Z</time>
      </trkpt>
      <trkpt lat="48.559119" lon="9.627300">
        <ele>610.636738</ele>
        <time>2025-11-11T23:33:12.035Z</time>
      </trkpt>
      <trkpt lat="48.559242" lon="9.627276">
        <ele>609.793043</ele>
        <time>2025-11-11T23:33:13.136Z</time>
      </trkpt>
      <trkpt lat="48.559703" lon="9.627299">
        <ele>606.655236</ele>
        <time>2025-11-11T23:33:17.264Z</time>
      </trkpt>
      <trkpt lat="48.560349" lon="9.626963">
        <ele>602.007528</ele>
        <time>2025-11-11T23:33:23.563Z</time>
      </trkpt>
      <trkpt lat="48.560944" lon="9.626475">
        <ele>598.094544</ele>
        <time>2025-11-11T23:33:29.794Z</time>
      </trkpt>
      <trkpt lat="48.560986" lon="9.626435">
        <ele>597.871594</ele>
        <time>2025-11-11T23:33:30.256Z</time>
      </trkpt>
      <trkpt lat="48.561250" lon="9.626219">
        <ele>596.523394</ele>
        <time>2025-11-11T23:33:33.022Z</time>
      </trkpt>
      <trkpt lat="48.561343" lon="9.626106">
        <ele>595.987475</ele>
        <time>2025-11-11T23:33:34.139Z</time>
      </trkpt>
      <trkpt lat="48.561371" lon="9.626048">
        <ele>595.774110</ele>
        <time>2025-11-11T23:33:34.585Z</time>
      </trkpt>
      <trkpt lat="48.561443" lon="9.625684">
        <ele>594.645005</ele>
        <time>2025-11-11T23:33:36.985Z</time>
      </trkpt>
      <trkpt lat="48.561476" lon="9.625618">
        <ele>594.399164</ele>
        <time>2025-11-11T23:33:37.518Z</time>
      </trkpt>
      <trkpt lat="48.561687" lon="9.625325">
        <ele>593.112257</ele>
        <time>2025-11-11T23:33:40.379Z</time>
      </trkpt>
      <trkpt lat="48.561854" lon="9.625277">
        <ele>592.348859</ele>
        <time>2025-11-11T23:33:42.087Z</time>
      </trkpt>
      <trkpt lat="48.561934" lon="9.625273">
        <ele>591.989405</ele>
        <time>2025-11-11T23:33:42.902Z</time>
      </trkpt>
      <trkpt lat="48.562048" lon="9.625260">
        <ele>591.476008</ele>
        <time>2025-11-11T23:33:44.584Z</time>
      </trkpt>
      <trkpt lat="48.562082" lon="9.625278">
        <ele>591.342650</ele>
        <time>2025-11-11T23:33:45.665Z</time>
      </trkpt>
      <trkpt lat="48.562137" lon="9.625394">
        <ele>591.168403</ele>
        <time>2025-11-11T23:33:48.481Z</time>
      </trkpt>
      <trkpt lat="48.562244" lon="9.625721">
        <ele>590.722967</ele>
        <time>2025-11-11T23:33:51.038Z</time>
      </trkpt>
      <trkpt lat="48.562261" lon="9.625770">
        <ele>590.655410</ele>
        <time>2025-11-11T23:33:51.435Z</time>
      </trkpt>
      <trkpt lat="48.562375" lon="9.626086">
        <ele>590.215941</ele>
        <time>2025-11-11T23:33:54.089Z</time>
      </trkpt>
      <trkpt lat="48.562541" lon="9.626477">
        <ele>589.648701</ele>
        <time>2025-11-11T23:33:57.565Z</time>
      </trkpt>
      <trkpt lat="48.562719" lon="9.626802">
        <ele>589.133576</ele>
        <time>2025-11-11T23:34:00.819Z</time>
      </trkpt>
      <trkpt lat="48.562883" lon="9.627073">
        <ele>588.685173</ele>
        <time>2025-11-11T23:34:03.605Z</time>
      </trkpt>
      <trkpt lat="48.562955" lon="9.627188">
        <ele>588.491868</ele>
        <time>2025-11-11T23:34:04.820Z</time>
      </trkpt>
      <trkpt lat="48.563208" lon="9.627619">
        <ele>588.089165</ele>
        <time>2025-11-11T23:34:09.188Z</time>
      </trkpt>
      <trkpt lat="48.563329" lon="9.627853">
        <ele>588.153526</ele>
        <time>2025-11-11T23:34:11.761Z</time>
      </trkpt>
      <trkpt lat="48.563396" lon="9.627984">
        <ele>588.189409</ele>
        <time>2025-11-11T23:34:13.121Z</time>
      </trkpt>
      <trkpt lat="48.563561" lon="9.628412">
        <ele>588.296761</ele>
        <time>2025-11-11T23:34:17.210Z</time>
      </trkpt>
      <trkpt lat="48.563677" lon="9.628701">
        <ele>588.370017</ele>
        <time>2025-11-11T23:34:20.069Z</time>
      </trkpt>
      <trkpt lat="48.563909" lon="9.629185">
        <ele>588.499540</ele>
        <time>2025-11-11T23:34:28.060Z</time>
      </trkpt>
      <trkpt lat="48.564328" lon="9.629809">
        <ele>588.869050</ele>
        <time>2025-11-11T23:34:42.316Z</time>
      </trkpt>
      <trkpt lat="48.564569" lon="9.630164">
        <ele>589.307804</ele>
        <time>2025-11-11T23:34:50.857Z</time>
      </trkpt>
      <trkpt lat="48.565477" lon="9.631356">
        <ele>590.875813</ele>
        <time>2025-11-11T23:35:14.862Z</time>
      </trkpt>
      <trkpt lat="48.565580" lon="9.631510">
        <ele>590.947929</ele>
        <time>2025-11-11T23:35:16.448Z</time>
      </trkpt>
      <trkpt lat="48.565795" lon="9.632003">
        <ele>590.774030</ele>
        <time>2025-11-11T23:35:21.597Z</time>
      </trkpt>
      <trkpt lat="48.565895" lon="9.632297">
        <ele>590.676670</ele>
        <time>2025-11-11T23:35:25.400Z</time>
      </trkpt>
      <trkpt lat="48.566176" lon="9.632864">
        <ele>590.468033</ele>
        <time>2025-11-11T23:35:34.172Z</time>
      </trkpt>
      <trkpt lat="48.566530" lon="9.633558">
        <ele>590.209956</ele>
        <time>2025-11-11T23:35:41.150Z</time>
      </trkpt>
      <trkpt lat="48.566859" lon="9.634230">
        <ele>587.783034</ele>
        <time>2025-11-11T23:35:46.767Z</time>
      </trkpt>
      <trkpt lat="48.566936" lon="9.634452">
        <ele>586.954729</ele>
        <time>2025-11-11T23:35:48.478Z</time>
      </trkpt>
      <trkpt lat="48.567074" lon="9.635028">
        <ele>584.930321</ele>
        <time>2025-11-11T23:35:52.274Z</time>
      </trkpt>
      <trkpt lat="48.567294" lon="9.636113">
        <ele>581.178768</ele>
        <time>2025-11-11T23:35:58.925Z</time>
      </trkpt>
      <trkpt lat="48.567857" lon="9.639061">
        <ele>570.426993</ele>
        <time>2025-11-11T23:36:17.940Z</time>
      </trkpt>
      <trkpt lat="48.568113" lon="9.640383">
        <ele>566.929804</ele>
        <time>2025-11-11T23:36:26.691Z</time>
      </trkpt>
      <trkpt lat="48.568373" lon="9.641338">
        <ele>564.381808</ele>
        <time>2025-11-11T23:36:33.764Z</time>
      </trkpt>
      <trkpt lat="48.568527" lon="9.641807">
        <ele>563.880116</ele>
        <time>2025-11-11T23:36:37.587Z</time>
      </trkpt>
      <trkpt lat="48.568666" lon="9.642182">
        <ele>563.468251</ele>
        <time>2025-11-11T23:36:40.911Z</time>
      </trkpt>
      <trkpt lat="48.568892" lon="9.642739">
        <ele>562.842181</ele>
        <time>2025-11-11T23:36:46.290Z</time>
      </trkpt>
      <trkpt lat="48.569583" lon="9.644125">
        <ele>561.669500</ele>
        <time>2025-11-11T23:37:00.103Z</time>
      </trkpt>
      <trkpt lat="48.569652" lon="9.644259">
        <ele>561.630890</ele>
        <time>2025-11-11T23:37:01.501Z</time>
      </trkpt>
      <trkpt lat="48.569838" lon="9.644616">
        <ele>561.527565</ele>
        <time>2025-11-11T23:37:05.361Z</time>
      </trkpt>
      <trkpt lat="48.571547" lon="9.647913">
        <ele>561.623986</ele>
        <time>2025-11-11T23:37:48.592Z</time>
      </trkpt>
      <trkpt lat="48.571906" lon="9.648603">
        <ele>562.163892</ele>
        <time>2025-11-11T23:37:57.643Z</time>
      </trkpt>
      <trkpt lat="48.572183" lon="9.649144">
        <ele>562.584647</ele>
        <time>2025-11-11T23:38:05.548Z</time>
      </trkpt>
      <trkpt lat="48.572485" lon="9.649804">
        <ele>563.078219</ele>
        <time>2025-11-11T23:38:16.399Z</time>
      </trkpt>
      <trkpt lat="48.572693" lon="9.650340">
        <ele>563.551449</ele>
        <time>2025-11-11T23:38:26.780Z</time>
      </trkpt>
      <trkpt lat="48.573541" lon="9.653106">
        <ele>564.321083</ele>
        <time>2025-11-11T23:39:08.490Z</time>
      </trkpt>
      <trkpt lat="48.573574" lon="9.653218">
        <ele>564.053372</ele>
        <time>2025-11-11T23:39:09.324Z</time>
      </trkpt>
      <trkpt lat="48.574362" lon="9.655676">
        <ele>557.516688</ele>
        <time>2025-11-11T23:39:26.253Z</time>
      </trkpt>
      <trkpt lat="48.574541" lon="9.656218">
        <ele>555.748979</ele>
        <time>2025-11-11T23:39:30.059Z</time>
      </trkpt>
      <trkpt lat="48.574726" lon="9.656652">
        <ele>554.242438</ele>
        <time>2025-11-11T23:39:33.289Z</time>
      </trkpt>
      <trkpt lat="48.574773" lon="9.656753">
        <ele>553.882112</ele>
        <time>2025-11-11T23:39:34.063Z</time>
      </trkpt>
      <trkpt lat="48.575114" lon="9.657410">
        <ele>551.985697</ele>
        <time>2025-11-11T23:39:39.714Z</time>
      </trkpt>
      <trkpt lat="48.575457" lon="9.657951">
        <ele>552.655737</ele>
        <time>2025-11-11T23:39:44.839Z</time>
      </trkpt>
      <trkpt lat="48.575425" lon="9.658115">
        <ele>552.808636</ele>
        <time>2025-11-11T23:39:46.093Z</time>
      </trkpt>
      <trkpt lat="48.575426" lon="9.658226">
        <ele>552.907905</ele>
        <time>2025-11-11T23:39:46.980Z</time>
      </trkpt>
      <trkpt lat="48.575458" lon="9.658338">
        <ele>553.016999</ele>
        <time>2025-11-11T23:39:48.032Z</time>
      </trkpt>
      <trkpt lat="48.575618" lon="9.658704">
        <ele>553.409276</ele>
        <time>2025-11-11T23:39:53.469Z</time>
      </trkpt>
      <trkpt lat="48.575922" lon="9.659254">
        <ele>554.050141</ele>
        <time>2025-11-11T23:40:08.440Z</time>
      </trkpt>
      <trkpt lat="48.575732" lon="9.659575">
        <ele>555.550008</ele>
        <time>2025-11-11T23:40:23.113Z</time>
      </trkpt>
      <trkpt lat="48.575686" lon="9.659653">
        <ele>556.359975</ele>
        <time>2025-11-11T23:40:26.962Z</time>
      </trkpt>
      <trkpt lat="48.575392" lon="9.660185">
        <ele>561.733233</ele>
        <time>2025-11-11T23:40:55.304Z</time>
      </trkpt>
      <trkpt lat="48.575307" lon="9.660332">
        <ele>563.246595</ele>
        <time>2025-11-11T23:41:04.228Z</time>
      </trkpt>
      <trkpt lat="48.575215" lon="9.660492">
        <ele>564.889813</ele>
        <time>2025-11-11T23:41:14.425Z</time>
      </trkpt>
      <trkpt lat="48.575123" lon="9.660597">
        <ele>566.240496</ele>
        <time>2025-11-11T23:41:23.122Z</time>
      </trkpt>
      <trkpt lat="48.574903" lon="9.660680">
        <ele>568.897141</ele>
        <time>2025-11-11T23:41:40.512Z</time>
      </trkpt>
      <trkpt lat="48.574718" lon="9.660680">
        <ele>571.064631</ele>
        <time>2025-11-11T23:41:54.964Z</time>
      </trkpt>
      <trkpt lat="48.574567" lon="9.660591">
        <ele>572.963538</ele>
        <time>2025-11-11T23:42:07.570Z</time>
      </trkpt>
      <trkpt lat="48.574522" lon="9.660528">
        <ele>573.682201</ele>
        <time>2025-11-11T23:42:12.354Z</time>
      </trkpt>
      <trkpt lat="48.574463" lon="9.660342">
        <ele>575.281200</ele>
        <time>2025-11-11T23:42:22.979Z</time>
      </trkpt>
      <trkpt lat="48.574368" lon="9.659641">
        <ele>581.721327</ele>
        <time>2025-11-11T23:42:58.986Z</time>
      </trkpt>
      <trkpt lat="48.574294" lon="9.659344">
        <ele>584.583579</ele>
        <time>2025-11-11T23:43:14.481Z</time>
      </trkpt>
      <trkpt lat="48.574108" lon="9.657991">
        <ele>597.046833</ele>
        <time>2025-11-11T23:44:22.454Z</time>
      </trkpt>
      <trkpt lat="48.573367" lon="9.655616">
        <ele>618.588624</ele>
        <time>2025-11-11T23:46:34.012Z</time>
      </trkpt>
      <trkpt lat="48.572823" lon="9.654074">
        <ele>626.342333</ele>
        <time>2025-11-11T23:47:28.969Z</time>
      </trkpt>
      <trkpt lat="48.572550" lon="9.653470">
        <ele>628.776525</ele>
        <time>2025-11-11T23:47:42.938Z</time>
      </trkpt>
      <trkpt lat="48.572027" lon="9.652495">
        <ele>631.786008</ele>
        <time>2025-11-11T23:48:09.037Z</time>
      </trkpt>
      <trkpt lat="48.571583" lon="9.651790">
        <ele>633.159169</ele>
        <time>2025-11-11T23:48:27.275Z</time>
      </trkpt>
      <trkpt lat="48.571365" lon="9.651369">
        <ele>633.913398</ele>
        <time>2025-11-11T23:48:37.200Z</time>
      </trkpt>
      <trkpt lat="48.570842" lon="9.650218">
        <ele>635.383717</ele>
        <time>2025-11-11T23:49:03.215Z</time>
      </trkpt>
      <trkpt lat="48.570543" lon="9.649574">
        <ele>635.999164</ele>
        <time>2025-11-11T23:49:13.999Z</time>
      </trkpt>
      <trkpt lat="48.570181" lon="9.648925">
        <ele>636.663197</ele>
        <time>2025-11-11T23:49:27.125Z</time>
      </trkpt>
      <trkpt lat="48.569971" lon="9.648601">
        <ele>637.168408</ele>
        <time>2025-11-11T23:49:35.444Z</time>
      </trkpt>
      <trkpt lat="48.569672" lon="9.648224">
        <ele>638.163033</ele>
        <time>2025-11-11T23:49:45.818Z</time>
      </trkpt>
      <trkpt lat="48.569293" lon="9.647812">
        <ele>639.355528</ele>
        <time>2025-11-11T23:49:59.185Z</time>
      </trkpt>
      <trkpt lat="48.568975" lon="9.647529">
        <ele>640.298154</ele>
        <time>2025-11-11T23:50:08.940Z</time>
      </trkpt>
      <trkpt lat="48.568593" lon="9.647300">
        <ele>641.347842</ele>
        <time>2025-11-11T23:50:22.902Z</time>
      </trkpt>
      <trkpt lat="48.568096" lon="9.647094">
        <ele>646.128256</ele>
        <time>2025-11-11T23:50:44.343Z</time>
      </trkpt>
      <trkpt lat="48.567467" lon="9.646846">
        <ele>652.656371</ele>
        <time>2025-11-11T23:51:20.722Z</time>
      </trkpt>
      <trkpt lat="48.565923" lon="9.646067">
        <ele>671.369139</ele>
        <time>2025-11-11T23:53:33.144Z</time>
      </trkpt>
      <trkpt lat="48.565838" lon="9.645915">
        <ele>673.022470</ele>
        <time>2025-11-11T23:53:43.533Z</time>
      </trkpt>
      <trkpt lat="48.565553" lon="9.644462">
        <ele>683.307832</ele>
        <time>2025-11-11T23:54:44.149Z</time>
      </trkpt>
      <trkpt lat="48.565541" lon="9.644184">
        <ele>684.092088</ele>
        <time>2025-11-11T23:54:51.299Z</time>
      </trkpt>
      <trkpt lat="48.565562" lon="9.643872">
        <ele>684.974926</ele>
        <time>2025-11-11T23:54:58.329Z</time>
      </trkpt>
      <trkpt lat="48.565614" lon="9.643607">
        <ele>685.753028</ele>
        <time>2025-11-11T23:55:03.902Z</time>
      </trkpt>
      <trkpt lat="48.565847" lon="9.642821">
        <ele>688.177532</ele>
        <time>2025-11-11T23:55:18.994Z</time>
      </trkpt>
      <trkpt lat="48.565947" lon="9.642393">
        <ele>689.455270</ele>
        <time>2025-11-11T23:55:26.979Z</time>
      </trkpt>
      <trkpt lat="48.565992" lon="9.641997">
        <ele>690.974926</ele>
        <time>2025-11-11T23:55:35.356Z</time>
      </trkpt>
      <trkpt lat="48.566001" lon="9.641663">
        <ele>692.368075</ele>
        <time>2025-11-11T23:55:43.633Z</time>
      </trkpt>
      <trkpt lat="48.565974" lon="9.641378">
        <ele>693.567965</ele>
        <time>2025-11-11T23:55:51.755Z</time>
      </trkpt>
      <trkpt lat="48.565846" lon="9.640636">
        <ele>696.763709</ele>
        <time>2025-11-11T23:56:17.482Z</time>
      </trkpt>
      <trkpt lat="48.565551" lon="9.639264">
        <ele>702.902478</ele>
        <time>2025-11-11T23:57:08.548Z</time>
      </trkpt>
      <trkpt lat="48.565385" lon="9.638063">
        <ele>708.402947</ele>
        <time>2025-11-11T23:57:45.942Z</time>
      </trkpt>
      <trkpt lat="48.565373" lon="9.637834">
        <ele>709.432807</ele>
        <time>2025-11-11T23:57:52.662Z</time>
      </trkpt>
      <trkpt lat="48.565341" lon="9.637790">
        <ele>709.725907</ele>
        <time>2025-11-11T23:57:54.499Z</time>
      </trkpt>
      <trkpt lat="48.565306" lon="9.637805">
        <ele>709.972368</ele>
        <time>2025-11-11T23:57:56.135Z</time>
      </trkpt>
      <trkpt lat="48.565283" lon="9.637896">
        <ele>710.409080</ele>
        <time>2025-11-11T23:57:58.979Z</time>
      </trkpt>
      <trkpt lat="48.565356" lon="9.638413">
        <ele>712.779056</ele>
        <time>2025-11-11T23:58:14.532Z</time>
      </trkpt>
      <trkpt lat="48.565387" lon="9.639030">
        <ele>715.810943</ele>
        <time>2025-11-11T23:58:33.812Z</time>
      </trkpt>
      <trkpt lat="48.565412" lon="9.640026">
        <ele>720.788480</ele>
        <time>2025-11-11T23:59:06.366Z</time>
      </trkpt>
      <trkpt lat="48.565409" lon="9.641034">
        <ele>725.822417</ele>
        <time>2025-11-11T23:59:39.766Z</time>
      </trkpt>
      <trkpt lat="48.565377" lon="9.641515">
        <ele>728.635370</ele>
        <time>2025-11-11T23:59:57.908Z</time>
      </trkpt>
      <trkpt lat="48.565248" lon="9.642116">
        <ele>732.706997</ele>
        <time>2025-11-12T00:00:24.410Z</time>
      </trkpt>
      <trkpt lat="48.564868" lon="9.642990">
        <ele>739.446142</ele>
        <time>2025-11-12T00:01:10.160Z</time>
      </trkpt>
      <trkpt lat="48.564743" lon="9.643328">
        <ele>741.941369</ele>
        <time>2025-11-12T00:01:26.205Z</time>
      </trkpt>
      <trkpt lat="48.564581" lon="9.643914">
        <ele>744.822463</ele>
        <time>2025-11-12T00:01:49.665Z</time>
      </trkpt>
      <trkpt lat="48.564543" lon="9.644275">
        <ele>745.454018</ele>
        <time>2025-11-12T00:02:00.498Z</time>
      </trkpt>
      <trkpt lat="48.564582" lon="9.645450">
        <ele>747.486664</ele>
        <time>2025-11-12T00:02:21.449Z</time>
      </trkpt>
      <trkpt lat="48.564567" lon="9.646110">
        <ele>748.627644</ele>
        <time>2025-11-12T00:02:28.649Z</time>
      </trkpt>
      <trkpt lat="48.564465" lon="9.647008">
        <ele>750.069751</ele>
        <time>2025-11-12T00:02:39.953Z</time>
      </trkpt>
      <trkpt lat="48.564308" lon="9.647791">
        <ele>751.317682</ele>
        <time>2025-11-12T00:02:54.492Z</time>
      </trkpt>
      <trkpt lat="48.564208" lon="9.648091">
        <ele>751.830044</ele>
        <time>2025-11-12T00:03:00.453Z</time>
      </trkpt>
      <trkpt lat="48.563466" lon="9.649928">
        <ele>757.194951</ele>
        <time>2025-11-12T00:03:49.714Z</time>
      </trkpt>
      <trkpt lat="48.562474" lon="9.650638">
        <ele>762.102392</ele>
        <time>2025-11-12T00:04:28.314Z</time>
      </trkpt>
      <trkpt lat="48.562267" lon="9.650711">
        <ele>762.413349</ele>
        <time>2025-11-12T00:04:34.974Z</time>
      </trkpt>
      <trkpt lat="48.561967" lon="9.650935">
        <ele>762.902874</ele>
        <time>2025-11-12T00:04:44.455Z</time>
      </trkpt>
      <trkpt lat="48.561424" lon="9.651341">
        <ele>763.789157</ele>
        <time>2025-11-12T00:04:59.750Z</time>
      </trkpt>
      <trkpt lat="48.561077" lon="9.651672">
        <ele>764.389472</ele>
        <time>2025-11-12T00:05:06.968Z</time>
      </trkpt>
      <trkpt lat="48.560918" lon="9.651830">
        <ele>764.281415</ele>
        <time>2025-11-12T00:05:10.030Z</time>
      </trkpt>
      <trkpt lat="48.560820" lon="9.651878">
        <ele>763.902826</ele>
        <time>2025-11-12T00:05:11.655Z</time>
      </trkpt>
      <trkpt lat="48.560600" lon="9.651969">
        <ele>763.064601</ele>
        <time>2025-11-12T00:05:15.096Z</time>
      </trkpt>
      <trkpt lat="48.559753" lon="9.652302">
        <ele>759.848316</ele>
        <time>2025-11-12T00:05:27.317Z</time>
      </trkpt>
      <trkpt lat="48.559277" lon="9.652551">
        <ele>757.997193</ele>
        <time>2025-11-12T00:05:34.186Z</time>
      </trkpt>
      <trkpt lat="48.558594" lon="9.652742">
        <ele>754.598571</ele>
        <time>2025-11-12T00:05:43.555Z</time>
      </trkpt>
      <trkpt lat="48.557781" lon="9.653034">
        <ele>750.489776</ele>
        <time>2025-11-12T00:05:54.886Z</time>
      </trkpt>
      <trkpt lat="48.557274" lon="9.653131">
        <ele>747.866688</ele>
        <time>2025-11-12T00:06:01.873Z</time>
      </trkpt>
      <trkpt lat="48.556303" lon="9.653184">
        <ele>742.621719</ele>
        <time>2025-11-12T00:06:14.833Z</time>
      </trkpt>
      <trkpt lat="48.555761" lon="9.653115">
        <ele>739.685584</ele>
        <time>2025-11-12T00:06:21.971Z</time>
      </trkpt>
      <trkpt lat="48.555203" lon="9.653188">
        <ele>737.197203</ele>
        <time>2025-11-12T00:06:29.394Z</time>
      </trkpt>
      <trkpt lat="48.553540" lon="9.652784">
        <ele>730.985560</ele>
        <time>2025-11-12T00:06:53.193Z</time>
      </trkpt>
      <trkpt lat="48.553405" lon="9.653822">
        <ele>729.911864</ele>
        <time>2025-11-12T00:07:01.255Z</time>
      </trkpt>
      <trkpt lat="48.553399" lon="9.654236">
        <ele>729.491560</ele>
        <time>2025-11-12T00:07:04.691Z</time>
      </trkpt>
      <trkpt lat="48.553440" lon="9.654556">
        <ele>729.160736</ele>
        <time>2025-11-12T00:07:07.498Z</time>
      </trkpt>
      <trkpt lat="48.553515" lon="9.654884">
        <ele>728.850961</ele>
        <time>2025-11-12T00:07:10.657Z</time>
      </trkpt>
      <trkpt lat="48.553656" lon="9.655270">
        <ele>729.348446</ele>
        <time>2025-11-12T00:07:15.592Z</time>
      </trkpt>
      <trkpt lat="48.554052" lon="9.656006">
        <ele>730.418706</ele>
        <time>2025-11-12T00:07:29.399Z</time>
      </trkpt>
      <trkpt lat="48.554141" lon="9.656237">
        <ele>730.720306</ele>
        <time>2025-11-12T00:07:33.753Z</time>
      </trkpt>
      <trkpt lat="48.554176" lon="9.656424">
        <ele>730.939588</ele>
        <time>2025-11-12T00:07:37.582Z</time>
      </trkpt>
      <trkpt lat="48.554180" lon="9.656593">
        <ele>731.130407</ele>
        <time>2025-11-12T00:07:40.883Z</time>
      </trkpt>
      <trkpt lat="48.554104" lon="9.657167">
        <ele>731.790933</ele>
        <time>2025-11-12T00:07:49.837Z</time>
      </trkpt>
      <trkpt lat="48.554151" lon="9.657566">
        <ele>732.627227</ele>
        <time>2025-11-12T00:07:56.530Z</time>
      </trkpt>
      <trkpt lat="48.554246" lon="9.657870">
        <ele>733.413378</ele>
        <time>2025-11-12T00:08:02.770Z</time>
      </trkpt>
      <trkpt lat="48.554446" lon="9.658543">
        <ele>735.138527</ele>
        <time>2025-11-12T00:08:17.566Z</time>
      </trkpt>
      <trkpt lat="48.554461" lon="9.658745">
        <ele>735.613866</ele>
        <time>2025-11-12T00:08:21.714Z</time>
      </trkpt>
      <trkpt lat="48.554404" lon="9.659232">
        <ele>736.770378</ele>
        <time>2025-11-12T00:08:31.312Z</time>
      </trkpt>
      <trkpt lat="48.554266" lon="9.659959">
        <ele>738.512964</ele>
        <time>2025-11-12T00:08:45.989Z</time>
      </trkpt>
      <trkpt lat="48.554262" lon="9.660314">
        <ele>739.268638</ele>
        <time>2025-11-12T00:08:53.569Z</time>
      </trkpt>
      <trkpt lat="48.554316" lon="9.661096">
        <ele>740.942039</ele>
        <time>2025-11-12T00:09:10.952Z</time>
      </trkpt>
      <trkpt lat="48.554446" lon="9.663388">
        <ele>743.934285</ele>
        <time>2025-11-12T00:09:48.131Z</time>
      </trkpt>
      <trkpt lat="48.554398" lon="9.664501">
        <ele>743.804696</ele>
        <time>2025-11-12T00:09:57.442Z</time>
      </trkpt>
      <trkpt lat="48.554419" lon="9.664823">
        <ele>743.767104</ele>
        <time>2025-11-12T00:09:59.812Z</time>
      </trkpt>
      <trkpt lat="48.554516" lon="9.665422">
        <ele>743.530163</ele>
        <time>2025-11-12T00:10:04.168Z</time>
      </trkpt>
      <trkpt lat="48.554536" lon="9.665530">
        <ele>743.417696</ele>
        <time>2025-11-12T00:10:04.950Z</time>
      </trkpt>
      <trkpt lat="48.554767" lon="9.666232">
        <ele>742.631496</ele>
        <time>2025-11-12T00:10:10.477Z</time>
      </trkpt>
      <trkpt lat="48.555698" lon="9.668193">
        <ele>740.904128</ele>
        <time>2025-11-12T00:10:29.823Z</time>
      </trkpt>
      <trkpt lat="48.555965" lon="9.668982">
        <ele>740.804106</ele>
        <time>2025-11-12T00:10:38.501Z</time>
      </trkpt>
      <trkpt lat="48.556079" lon="9.669597">
        <ele>740.732018</ele>
        <time>2025-11-12T00:10:45.242Z</time>
      </trkpt>
      <trkpt lat="48.556217" lon="9.670928">
        <ele>740.899961</ele>
        <time>2025-11-12T00:11:00.623Z</time>
      </trkpt>
      <trkpt lat="48.556218" lon="9.670931">
        <ele>740.900734</ele>
        <time>2025-11-12T00:11:00.658Z</time>
      </trkpt>
      <trkpt lat="48.556739" lon="9.672370">
        <ele>741.278157</ele>
        <time>2025-11-12T00:11:17.809Z</time>
      </trkpt>
      <trkpt lat="48.556940" lon="9.673216">
        <ele>741.317254</ele>
        <time>2025-11-12T00:11:27.206Z</time>
      </trkpt>
      <trkpt lat="48.557046" lon="9.674114">
        <ele>741.325299</ele>
        <time>2025-11-12T00:11:37.086Z</time>
      </trkpt>
      <trkpt lat="48.557052" lon="9.674669">
        <ele>741.330194</ele>
        <time>2025-11-12T00:11:42.551Z</time>
      </trkpt>
      <trkpt lat="48.557088" lon="9.675153">
        <ele>741.334490</ele>
        <time>2025-11-12T00:11:46.998Z</time>
      </trkpt>
      <trkpt lat="48.557064" lon="9.675354">
        <ele>741.175109</ele>
        <time>2025-11-12T00:11:48.755Z</time>
      </trkpt>
      <trkpt lat="48.557186" lon="9.676607">
        <ele>740.160644</ele>
        <time>2025-11-12T00:11:58.322Z</time>
      </trkpt>
      <trkpt lat="48.557229" lon="9.677395">
        <ele>739.527310</ele>
        <time>2025-11-12T00:12:04.073Z</time>
      </trkpt>
      <trkpt lat="48.557226" lon="9.677849">
        <ele>739.163635</ele>
        <time>2025-11-12T00:12:07.693Z</time>
      </trkpt>
      <trkpt lat="48.557276" lon="9.678095">
        <ele>739.399486</ele>
        <time>2025-11-12T00:12:10.024Z</time>
      </trkpt>
      <trkpt lat="48.557340" lon="9.678218">
        <ele>739.550716</ele>
        <time>2025-11-12T00:12:11.493Z</time>
      </trkpt>
      <trkpt lat="48.557206" lon="9.678442">
        <ele>739.842563</ele>
        <time>2025-11-12T00:12:14.684Z</time>
      </trkpt>
      <trkpt lat="48.557072" lon="9.678656">
        <ele>740.127313</ele>
        <time>2025-11-12T00:12:18.072Z</time>
      </trkpt>
      <trkpt lat="48.556784" lon="9.679232">
        <ele>740.825081</ele>
        <time>2025-11-12T00:12:28.399Z</time>
      </trkpt>
      <trkpt lat="48.556747" lon="9.679362">
        <ele>740.961864</ele>
        <time>2025-11-12T00:12:30.823Z</time>
      </trkpt>
      <trkpt lat="48.556584" lon="9.680106">
        <ele>741.719388</ele>
        <time>2025-11-12T00:12:44.950Z</time>
      </trkpt>
      <trkpt lat="48.555767" lon="9.681417">
        <ele>744.555539</ele>
        <time>2025-11-12T00:13:17.965Z</time>
      </trkpt>
      <trkpt lat="48.555542" lon="9.681700">
        <ele>745.262688</ele>
        <time>2025-11-12T00:13:25.126Z</time>
      </trkpt>
      <trkpt lat="48.555197" lon="9.681984">
        <ele>746.088715</ele>
        <time>2025-11-12T00:13:33.534Z</time>
      </trkpt>
      <trkpt lat="48.554256" lon="9.682737">
        <ele>744.837022</ele>
        <time>2025-11-12T00:13:47.355Z</time>
      </trkpt>
      <trkpt lat="48.553312" lon="9.683757">
        <ele>742.657863</ele>
        <time>2025-11-12T00:13:59.324Z</time>
      </trkpt>
      <trkpt lat="48.552680" lon="9.684656">
        <ele>740.103095</ele>
        <time>2025-11-12T00:14:08.149Z</time>
      </trkpt>
      <trkpt lat="48.551796" lon="9.685863">
        <ele>737.024703</ele>
        <time>2025-11-12T00:14:20.514Z</time>
      </trkpt>
      <trkpt lat="48.551214" lon="9.686653">
        <ele>735.186241</ele>
        <time>2025-11-12T00:14:28.925Z</time>
      </trkpt>
      <trkpt lat="48.550634" lon="9.687586">
        <ele>733.840017</ele>
        <time>2025-11-12T00:14:38.560Z</time>
      </trkpt>
      <trkpt lat="48.550069" lon="9.688678">
        <ele>732.753539</ele>
        <time>2025-11-12T00:14:49.480Z</time>
      </trkpt>
      <trkpt lat="48.549738" lon="9.689436">
        <ele>732.349839</ele>
        <time>2025-11-12T00:14:57.352Z</time>
      </trkpt>
      <trkpt lat="48.548598" lon="9.691947">
        <ele>732.485288</ele>
        <time>2025-11-12T00:15:28.204Z</time>
      </trkpt>
      <trkpt lat="48.548427" lon="9.692216">
        <ele>732.596131</ele>
        <time>2025-11-12T00:15:32.237Z</time>
      </trkpt>
      <trkpt lat="48.548207" lon="9.692466">
        <ele>732.719731</ele>
        <time>2025-11-12T00:15:36.762Z</time>
      </trkpt>
      <trkpt lat="48.547502" lon="9.692965">
        <ele>733.069276</ele>
        <time>2025-11-12T00:15:50.045Z</time>
      </trkpt>
      <trkpt lat="48.546930" lon="9.693079">
        <ele>733.742474</ele>
        <time>2025-11-12T00:16:00.549Z</time>
      </trkpt>
      <trkpt lat="48.544756" lon="9.693383">
        <ele>736.747857</ele>
        <time>2025-11-12T00:16:45.090Z</time>
      </trkpt>
      <trkpt lat="48.541605" lon="9.693847">
        <ele>741.927425</ele>
        <time>2025-11-12T00:17:56.492Z</time>
      </trkpt>
      <trkpt lat="48.540496" lon="9.694175">
        <ele>742.761301</ele>
        <time>2025-11-12T00:18:16.091Z</time>
      </trkpt>
      <trkpt lat="48.539895" lon="9.694394">
        <ele>742.108357</ele>
        <time>2025-11-12T00:18:23.655Z</time>
      </trkpt>
      <trkpt lat="48.539452" lon="9.694606">
        <ele>741.359115</ele>
        <time>2025-11-12T00:18:28.835Z</time>
      </trkpt>
      <trkpt lat="48.538120" lon="9.695513">
        <ele>738.930349</ele>
        <time>2025-11-12T00:18:44.544Z</time>
      </trkpt>
      <trkpt lat="48.537162" lon="9.696395">
        <ele>736.984672</ele>
        <time>2025-11-12T00:18:57.348Z</time>
      </trkpt>
      <trkpt lat="48.536968" lon="9.696604">
        <ele>736.720512</ele>
        <time>2025-11-12T00:19:00.255Z</time>
      </trkpt>
      <trkpt lat="48.536168" lon="9.697468">
        <ele>735.927143</ele>
        <time>2025-11-12T00:19:12.705Z</time>
      </trkpt>
      <trkpt lat="48.535081" lon="9.698571">
        <ele>735.020648</ele>
        <time>2025-11-12T00:19:29.747Z</time>
      </trkpt>
      <trkpt lat="48.534386" lon="9.699098">
        <ele>734.571241</ele>
        <time>2025-11-12T00:19:39.683Z</time>
      </trkpt>
      <trkpt lat="48.534331" lon="9.699151">
        <ele>734.533539</ele>
        <time>2025-11-12T00:19:40.540Z</time>
      </trkpt>
      <trkpt lat="48.534094" lon="9.699453">
        <ele>734.366707</ele>
        <time>2025-11-12T00:19:44.645Z</time>
      </trkpt>
      <trkpt lat="48.533966" lon="9.699664">
        <ele>734.501999</ele>
        <time>2025-11-12T00:19:47.262Z</time>
      </trkpt>
      <trkpt lat="48.533847" lon="9.699903">
        <ele>734.643376</ele>
        <time>2025-11-12T00:19:50.086Z</time>
      </trkpt>
      <trkpt lat="48.533788" lon="9.700075">
        <ele>734.734959</ele>
        <time>2025-11-12T00:19:52.002Z</time>
      </trkpt>
      <trkpt lat="48.533658" lon="9.700515">
        <ele>734.962756</ele>
        <time>2025-11-12T00:19:56.931Z</time>
      </trkpt>
      <trkpt lat="48.533434" lon="9.702200">
        <ele>736.188845</ele>
        <time>2025-11-12T00:20:19.868Z</time>
      </trkpt>
      <trkpt lat="48.533385" lon="9.702789">
        <ele>737.354057</ele>
        <time>2025-11-12T00:20:29.624Z</time>
      </trkpt>
      <trkpt lat="48.533353" lon="9.703964">
        <ele>739.662367</ele>
        <time>2025-11-12T00:20:50.158Z</time>
      </trkpt>
      <trkpt lat="48.533305" lon="9.704461">
        <ele>740.648230</ele>
        <time>2025-11-12T00:21:00.138Z</time>
      </trkpt>
      <trkpt lat="48.533192" lon="9.704964">
        <ele>742.273805</ele>
        <time>2025-11-12T00:21:11.563Z</time>
      </trkpt>
      <trkpt lat="48.533044" lon="9.705410">
        <ele>744.051258</ele>
        <time>2025-11-12T00:21:23.137Z</time>
      </trkpt>
      <trkpt lat="48.532335" lon="9.706902">
        <ele>750.594425</ele>
        <time>2025-11-12T00:22:10.790Z</time>
      </trkpt>
      <trkpt lat="48.532061" lon="9.707470">
        <ele>752.057790</ele>
        <time>2025-11-12T00:22:27.809Z</time>
      </trkpt>
      <trkpt lat="48.531701" lon="9.708051">
        <ele>753.686259</ele>
        <time>2025-11-12T00:22:43.829Z</time>
      </trkpt>
      <trkpt lat="48.531395" lon="9.708545">
        <ele>755.070687</ele>
        <time>2025-11-12T00:22:54.649Z</time>
      </trkpt>
      <trkpt lat="48.530946" lon="9.709400">
        <ele>755.789883</ele>
        <time>2025-11-12T00:23:06.068Z</time>
      </trkpt>
      <trkpt lat="48.530753" lon="9.709903">
        <ele>755.329274</ele>
        <time>2025-11-12T00:23:10.539Z</time>
      </trkpt>
      <trkpt lat="48.530563" lon="9.710604">
        <ele>754.729126</ele>
        <time>2025-11-12T00:23:16.167Z</time>
      </trkpt>
      <trkpt lat="48.530479" lon="9.711125">
        <ele>754.304260</ele>
        <time>2025-11-12T00:23:20.069Z</time>
      </trkpt>
      <trkpt lat="48.530415" lon="9.711994">
        <ele>753.224712</ele>
        <time>2025-11-12T00:23:26.391Z</time>
      </trkpt>
      <trkpt lat="48.530428" lon="9.712659">
        <ele>752.243458</ele>
        <time>2025-11-12T00:23:31.204Z</time>
      </trkpt>
      <trkpt lat="48.530450" lon="9.713792">
        <ele>750.571647</ele>
        <time>2025-11-12T00:23:39.337Z</time>
      </trkpt>
      <trkpt lat="48.530421" lon="9.714387">
        <ele>749.534118</ele>
        <time>2025-11-12T00:23:43.494Z</time>
      </trkpt>
      <trkpt lat="48.530402" lon="9.714703">
        <ele>748.862814</ele>
        <time>2025-11-12T00:23:45.661Z</time>
      </trkpt>
      <trkpt lat="48.530278" lon="9.716167">
        <ele>745.740228</ele>
        <time>2025-11-12T00:23:55.554Z</time>
      </trkpt>
      <trkpt lat="48.530226" lon="9.716572">
        <ele>744.867420</ele>
        <time>2025-11-12T00:23:58.288Z</time>
      </trkpt>
      <trkpt lat="48.530082" lon="9.717275">
        <ele>742.921144</ele>
        <time>2025-11-12T00:24:03.140Z</time>
      </trkpt>
      <trkpt lat="48.529552" lon="9.718634">
        <ele>738.281713</ele>
        <time>2025-11-12T00:24:13.205Z</time>
      </trkpt>
      <trkpt lat="48.529299" lon="9.719345">
        <ele>735.785308</ele>
        <time>2025-11-12T00:24:18.206Z</time>
      </trkpt>
      <trkpt lat="48.529054" lon="9.720055">
        <ele>732.730859</ele>
        <time>2025-11-12T00:24:23.091Z</time>
      </trkpt>
      <trkpt lat="48.528498" lon="9.722424">
        <ele>723.696236</ele>
        <time>2025-11-12T00:24:38.380Z</time>
      </trkpt>
      <trkpt lat="48.528256" lon="9.723313">
        <ele>720.751472</ele>
        <time>2025-11-12T00:24:44.428Z</time>
      </trkpt>
      <trkpt lat="48.527989" lon="9.724035">
        <ele>718.217949</ele>
        <time>2025-11-12T00:24:49.821Z</time>
      </trkpt>
      <trkpt lat="48.527487" lon="9.725257">
        <ele>715.315230</ele>
        <time>2025-11-12T00:24:59.597Z</time>
      </trkpt>
      <trkpt lat="48.527211" lon="9.725967">
        <ele>713.784479</ele>
        <time>2025-11-12T00:25:05.314Z</time>
      </trkpt>
      <trkpt lat="48.526512" lon="9.727755">
        <ele>710.960209</ele>
        <time>2025-11-12T00:25:19.976Z</time>
      </trkpt>
      <trkpt lat="48.526277" lon="9.728228">
        <ele>710.288802</ele>
        <time>2025-11-12T00:25:24.416Z</time>
      </trkpt>
      <trkpt lat="48.525995" lon="9.728647">
        <ele>709.610485</ele>
        <time>2025-11-12T00:25:29.233Z</time>
      </trkpt>
      <trkpt lat="48.525677" lon="9.728992">
        <ele>709.915854</ele>
        <time>2025-11-12T00:25:34.569Z</time>
      </trkpt>
      <trkpt lat="48.525265" lon="9.729321">
        <ele>710.503673</ele>
        <time>2025-11-12T00:25:42.571Z</time>
      </trkpt>
      <trkpt lat="48.524679" lon="9.729734">
        <ele>711.319300</ele>
        <time>2025-11-12T00:25:56.986Z</time>
      </trkpt>
      <trkpt lat="48.524573" lon="9.729805">
        <ele>711.465554</ele>
        <time>2025-11-12T00:25:59.896Z</time>
      </trkpt>
      <trkpt lat="48.524416" lon="9.729935">
        <ele>711.691388</ele>
        <time>2025-11-12T00:26:04.507Z</time>
      </trkpt>
      <trkpt lat="48.524032" lon="9.730279">
        <ele>712.832728</ele>
        <time>2025-11-12T00:26:16.729Z</time>
      </trkpt>
      <trkpt lat="48.523777" lon="9.730617">
        <ele>713.771782</ele>
        <time>2025-11-12T00:26:26.551Z</time>
      </trkpt>
      <trkpt lat="48.522901" lon="9.732005">
        <ele>717.034756</ele>
        <time>2025-11-12T00:26:59.322Z</time>
      </trkpt>
      <trkpt lat="48.522834" lon="9.732116">
        <ele>717.181470</ele>
        <time>2025-11-12T00:27:01.386Z</time>
      </trkpt>
      <trkpt lat="48.522288" lon="9.732989">
        <ele>718.354476</ele>
        <time>2025-11-12T00:27:17.029Z</time>
      </trkpt>
      <trkpt lat="48.521874" lon="9.733578">
        <ele>719.193517</ele>
        <time>2025-11-12T00:27:27.767Z</time>
      </trkpt>
      <trkpt lat="48.521422" lon="9.734034">
        <ele>719.390506</ele>
        <time>2025-11-12T00:27:38.756Z</time>
      </trkpt>
      <trkpt lat="48.521164" lon="9.734363">
        <ele>719.381688</ele>
        <time>2025-11-12T00:27:45.461Z</time>
      </trkpt>
      <trkpt lat="48.520556" lon="9.735289">
        <ele>719.359140</ele>
        <time>2025-11-12T00:27:58.272Z</time>
      </trkpt>
      <trkpt lat="48.519935" lon="9.736112">
        <ele>717.175016</ele>
        <time>2025-11-12T00:28:06.855Z</time>
      </trkpt>
      <trkpt lat="48.519753" lon="9.736341">
        <ele>716.358070</ele>
        <time>2025-11-12T00:28:09.159Z</time>
      </trkpt>
      <trkpt lat="48.519307" lon="9.736813">
        <ele>714.479969</ele>
        <time>2025-11-12T00:28:14.361Z</time>
      </trkpt>
      <trkpt lat="48.518694" lon="9.737364">
        <ele>712.258709</ele>
        <time>2025-11-12T00:28:21.273Z</time>
      </trkpt>
      <trkpt lat="48.517718" lon="9.738261">
        <ele>709.149678</ele>
        <time>2025-11-12T00:28:33.255Z</time>
      </trkpt>
      <trkpt lat="48.517586" lon="9.738450">
        <ele>708.654668</ele>
        <time>2025-11-12T00:28:35.330Z</time>
      </trkpt>
      <trkpt lat="48.517497" lon="9.738683">
        <ele>708.215176</ele>
        <time>2025-11-12T00:28:37.390Z</time>
      </trkpt>
      <trkpt lat="48.517130" lon="9.739777">
        <ele>707.141021</ele>
        <time>2025-11-12T00:28:47.114Z</time>
      </trkpt>
      <trkpt lat="48.516919" lon="9.740488">
        <ele>706.458583</ele>
        <time>2025-11-12T00:28:53.374Z</time>
      </trkpt>
      <trkpt lat="48.516565" lon="9.741944">
        <ele>704.976803</ele>
        <time>2025-11-12T00:29:05.313Z</time>
      </trkpt>
      <trkpt lat="48.516448" lon="9.742321">
        <ele>704.554481</ele>
        <time>2025-11-12T00:29:08.455Z</time>
      </trkpt>
      <trkpt lat="48.516340" lon="9.742577">
        <ele>704.246598</ele>
        <time>2025-11-12T00:29:10.731Z</time>
      </trkpt>
      <trkpt lat="48.515780" lon="9.743818">
        <ele>702.996934</ele>
        <time>2025-11-12T00:29:22.001Z</time>
      </trkpt>
      <trkpt lat="48.515387" lon="9.744675">
        <ele>702.659669</ele>
        <time>2025-11-12T00:29:30.324Z</time>
      </trkpt>
      <trkpt lat="48.515448" lon="9.744732">
        <ele>702.624626</ele>
        <time>2025-11-12T00:29:31.284Z</time>
      </trkpt>
      <trkpt lat="48.515444" lon="9.744893">
        <ele>702.572494</ele>
        <time>2025-11-12T00:29:32.727Z</time>
      </trkpt>
      <trkpt lat="48.515501" lon="9.745034">
        <ele>702.519045</ele>
        <time>2025-11-12T00:29:34.280Z</time>
      </trkpt>
      <trkpt lat="48.515490" lon="9.745145">
        <ele>702.482729</ele>
        <time>2025-11-12T00:29:35.380Z</time>
      </trkpt>
      <trkpt lat="48.515562" lon="9.745169">
        <ele>702.446712</ele>
        <time>2025-11-12T00:29:36.498Z</time>
      </trkpt>
      <trkpt lat="48.515622" lon="9.745192">
        <ele>702.416473</ele>
        <time>2025-11-12T00:29:37.463Z</time>
      </trkpt>
      <trkpt lat="48.515633" lon="9.745285">
        <ele>702.385905</ele>
        <time>2025-11-12T00:29:38.471Z</time>
      </trkpt>
      <trkpt lat="48.515691" lon="9.745364">
        <ele>702.347747</ele>
        <time>2025-11-12T00:29:39.752Z</time>
      </trkpt>
      <trkpt lat="48.515821" lon="9.745325">
        <ele>702.283004</ele>
        <time>2025-11-12T00:29:42.033Z</time>
      </trkpt>
      <trkpt lat="48.515822" lon="9.745325">
        <ele>702.282515</ele>
        <time>2025-11-12T00:29:42.046Z</time>
      </trkpt>
      <trkpt lat="48.517699" lon="9.745861">
        <ele>704.328515</ele>
        <time>2025-11-12T00:30:20.896Z</time>
      </trkpt>
      <trkpt lat="48.518010" lon="9.745920">
        <ele>704.425085</ele>
        <time>2025-11-12T00:30:26.161Z</time>
      </trkpt>
      <trkpt lat="48.518014" lon="9.745920">
        <ele>704.426317</ele>
        <time>2025-11-12T00:30:26.226Z</time>
      </trkpt>
      <trkpt lat="48.518283" lon="9.745918">
        <ele>704.509194</ele>
        <time>2025-11-12T00:30:30.370Z</time>
      </trkpt>
      <trkpt lat="48.518416" lon="9.745883">
        <ele>704.550788</ele>
        <time>2025-11-12T00:30:32.335Z</time>
      </trkpt>
      <trkpt lat="48.518461" lon="9.745997">
        <ele>704.577870</ele>
        <time>2025-11-12T00:30:33.650Z</time>
      </trkpt>
      <trkpt lat="48.518625" lon="9.746171">
        <ele>704.639627</ele>
        <time>2025-11-12T00:30:36.630Z</time>
      </trkpt>
      <trkpt lat="48.519327" lon="9.746580">
        <ele>704.870890</ele>
        <time>2025-11-12T00:30:48.264Z</time>
      </trkpt>
      <trkpt lat="48.519603" lon="9.746735">
        <ele>704.850420</ele>
        <time>2025-11-12T00:30:52.780Z</time>
      </trkpt>
      <trkpt lat="48.519655" lon="9.746768">
        <ele>704.846499</ele>
        <time>2025-11-12T00:30:53.659Z</time>
      </trkpt>
      <trkpt lat="48.519725" lon="9.746814">
        <ele>704.841193</ele>
        <time>2025-11-12T00:30:54.843Z</time>
      </trkpt>
      <trkpt lat="48.520117" lon="9.747059">
        <ele>704.811702</ele>
        <time>2025-11-12T00:31:01.162Z</time>
      </trkpt>
      <trkpt lat="48.520468" lon="9.747264">
        <ele>704.785542</ele>
        <time>2025-11-12T00:31:06.817Z</time>
      </trkpt>
      <trkpt lat="48.520719" lon="9.747491">
        <ele>704.765204</ele>
        <time>2025-11-12T00:31:10.992Z</time>
      </trkpt>
      <trkpt lat="48.521028" lon="9.747876">
        <ele>704.675155</ele>
        <time>2025-11-12T00:31:16.364Z</time>
      </trkpt>
      <trkpt lat="48.522038" lon="9.749127">
        <ele>703.928543</ele>
        <time>2025-11-12T00:31:34.091Z</time>
      </trkpt>
      <trkpt lat="48.522229" lon="9.749234">
        <ele>703.812113</ele>
        <time>2025-11-12T00:31:36.763Z</time>
      </trkpt>
      <trkpt lat="48.521731" lon="9.756313">
        <ele>698.213910</ele>
        <time>2025-11-12T00:32:31.512Z</time>
      </trkpt>
      <trkpt lat="48.525793" lon="9.756417">
        <ele>698.117115</ele>
        <time>2025-11-12T00:33:59.801Z</time>
      </trkpt>
      <trkpt lat="48.526070" lon="9.756362">
        <ele>698.053246</ele>
        <time>2025-11-12T00:34:04.455Z</time>
      </trkpt>
      <trkpt lat="48.526786" lon="9.756077">
        <ele>696.563903</ele>
        <time>2025-11-12T00:34:15.799Z</time>
      </trkpt>
      <trkpt lat="48.527473" lon="9.755890">
        <ele>694.963603</ele>
        <time>2025-11-12T00:34:26.048Z</time>
      </trkpt>
      <trkpt lat="48.529195" lon="9.754939">
        <ele>692.380498</ele>
        <time>2025-11-12T00:34:55.260Z</time>
      </trkpt>
      <trkpt lat="48.529747" lon="9.754642">
        <ele>692.220303</ele>
        <time>2025-11-12T00:35:08.470Z</time>
      </trkpt>
      <trkpt lat="48.529821" lon="9.754639">
        <ele>692.365428</ele>
        <time>2025-11-12T00:35:10.363Z</time>
      </trkpt>
      <trkpt lat="48.529894" lon="9.754773">
        <ele>692.590695</ele>
        <time>2025-11-12T00:35:13.401Z</time>
      </trkpt>
      <trkpt lat="48.530605" lon="9.755728">
        <ele>694.456184</ele>
        <time>2025-11-12T00:35:42.174Z</time>
      </trkpt>
      <trkpt lat="48.530665" lon="9.755886">
        <ele>694.692639</ele>
        <time>2025-11-12T00:35:46.018Z</time>
      </trkpt>
      <trkpt lat="48.530708" lon="9.756099">
        <ele>694.981728</ele>
        <time>2025-11-12T00:35:50.618Z</time>
      </trkpt>
      <trkpt lat="48.530858" lon="9.757213">
        <ele>695.973175</ele>
        <time>2025-11-12T00:36:12.284Z</time>
      </trkpt>
      <trkpt lat="48.531376" lon="9.761370">
        <ele>697.753150</ele>
        <time>2025-11-12T00:37:14.113Z</time>
      </trkpt>
      <trkpt lat="48.531835" lon="9.765889">
        <ele>696.492539</ele>
        <time>2025-11-12T00:38:12.247Z</time>
      </trkpt>
      <trkpt lat="48.532968" lon="9.770519">
        <ele>691.741598</ele>
        <time>2025-11-12T00:39:05.207Z</time>
      </trkpt>
      <trkpt lat="48.535353" lon="9.775252">
        <ele>686.487467</ele>
        <time>2025-11-12T00:40:09.554Z</time>
      </trkpt>
      <trkpt lat="48.535764" lon="9.776093">
        <ele>686.104075</ele>
        <time>2025-11-12T00:40:24.401Z</time>
      </trkpt>
      <trkpt lat="48.537490" lon="9.779621">
        <ele>689.453080</ele>
        <time>2025-11-12T00:41:37.498Z</time>
      </trkpt>
      <trkpt lat="48.537732" lon="9.780246">
        <ele>690.123147</ele>
        <time>2025-11-12T00:41:49.513Z</time>
      </trkpt>
      <trkpt lat="48.537891" lon="9.780774">
        <ele>690.682153</ele>
        <time>2025-11-12T00:41:59.744Z</time>
      </trkpt>
      <trkpt lat="48.539810" lon="9.780664">
        <ele>694.458641</ele>
        <time>2025-11-12T00:42:56.883Z</time>
      </trkpt>
      <trkpt lat="48.540149" lon="9.782199">
        <ele>695.015975</ele>
        <time>2025-11-12T00:43:15.289Z</time>
      </trkpt>
      <trkpt lat="48.540356" lon="9.783002">
        <ele>695.312773</ele>
        <time>2025-11-12T00:43:22.654Z</time>
      </trkpt>
      <trkpt lat="48.540533" lon="9.783584">
        <ele>694.995259</ele>
        <time>2025-11-12T00:43:28.266Z</time>
      </trkpt>
      <trkpt lat="48.540654" lon="9.783991">
        <ele>694.771356</ele>
        <time>2025-11-12T00:43:32.233Z</time>
      </trkpt>
      <trkpt lat="48.540749" lon="9.784360">
        <ele>694.572663</ele>
        <time>2025-11-12T00:43:35.644Z</time>
      </trkpt>
      <trkpt lat="48.540811" lon="9.784683">
        <ele>694.403889</ele>
        <time>2025-11-12T00:43:38.466Z</time>
      </trkpt>
      <trkpt lat="48.540891" lon="9.785190">
        <ele>694.142322</ele>
        <time>2025-11-12T00:43:42.652Z</time>
      </trkpt>
      <trkpt lat="48.540966" lon="9.785729">
        <ele>693.888643</ele>
        <time>2025-11-12T00:43:46.896Z</time>
      </trkpt>
      <trkpt lat="48.541053" lon="9.786219">
        <ele>693.702051</ele>
        <time>2025-11-12T00:43:50.941Z</time>
      </trkpt>
      <trkpt lat="48.541084" lon="9.786366">
        <ele>693.645307</ele>
        <time>2025-11-12T00:43:52.223Z</time>
      </trkpt>
      <trkpt lat="48.541135" lon="9.786613">
        <ele>693.550144</ele>
        <time>2025-11-12T00:43:54.397Z</time>
      </trkpt>
      <trkpt lat="48.541212" lon="9.786999">
        <ele>693.401868</ele>
        <time>2025-11-12T00:43:57.856Z</time>
      </trkpt>
      <trkpt lat="48.541221" lon="9.787150">
        <ele>693.346105</ele>
        <time>2025-11-12T00:43:59.191Z</time>
      </trkpt>
      <trkpt lat="48.541204" lon="9.787281">
        <ele>693.297006</ele>
        <time>2025-11-12T00:44:00.398Z</time>
      </trkpt>
      <trkpt lat="48.541172" lon="9.787505">
        <ele>693.212722</ele>
        <time>2025-11-12T00:44:02.605Z</time>
      </trkpt>
      <trkpt lat="48.541147" lon="9.787678">
        <ele>693.147594</ele>
        <time>2025-11-12T00:44:04.416Z</time>
      </trkpt>
      <trkpt lat="48.541130" lon="9.787897">
        <ele>693.066493</ele>
        <time>2025-11-12T00:44:06.619Z</time>
      </trkpt>
      <trkpt lat="48.541082" lon="9.788490">
        <ele>692.695010</ele>
        <time>2025-11-12T00:44:12.742Z</time>
      </trkpt>
      <trkpt lat="48.541083" lon="9.788653">
        <ele>692.548450</ele>
        <time>2025-11-12T00:44:14.343Z</time>
      </trkpt>
      <trkpt lat="48.541084" lon="9.788769">
        <ele>692.444146</ele>
        <time>2025-11-12T00:44:15.526Z</time>
      </trkpt>
      <trkpt lat="48.541103" lon="9.789015">
        <ele>692.221468</ele>
        <time>2025-11-12T00:44:18.016Z</time>
      </trkpt>
      <trkpt lat="48.541128" lon="9.789203">
        <ele>692.049061</ele>
        <time>2025-11-12T00:44:19.850Z</time>
      </trkpt>
      <trkpt lat="48.541220" lon="9.789521">
        <ele>691.737044</ele>
        <time>2025-11-12T00:44:22.727Z</time>
      </trkpt>
      <trkpt lat="48.541352" lon="9.789927">
        <ele>691.330373</ele>
        <time>2025-11-12T00:44:25.949Z</time>
      </trkpt>
      <trkpt lat="48.541503" lon="9.790345">
        <ele>690.902250</ele>
        <time>2025-11-12T00:44:29.214Z</time>
      </trkpt>
      <trkpt lat="48.541724" lon="9.790775">
        <ele>690.428213</ele>
        <time>2025-11-12T00:44:32.931Z</time>
      </trkpt>
      <trkpt lat="48.541910" lon="9.791139">
        <ele>690.080754</ele>
        <time>2025-11-12T00:44:36.126Z</time>
      </trkpt>
      <trkpt lat="48.541885" lon="9.791221">
        <ele>690.012535</ele>
        <time>2025-11-12T00:44:36.764Z</time>
      </trkpt>
      <trkpt lat="48.541835" lon="9.791425">
        <ele>689.848155</ele>
        <time>2025-11-12T00:44:38.313Z</time>
      </trkpt>
      <trkpt lat="48.541900" lon="9.791485">
        <ele>689.761209</ele>
        <time>2025-11-12T00:44:39.140Z</time>
      </trkpt>
      <trkpt lat="48.541929" lon="9.791589">
        <ele>689.675934</ele>
        <time>2025-11-12T00:44:39.990Z</time>
      </trkpt>
      <trkpt lat="48.541929" lon="9.791784">
        <ele>689.528580</ele>
        <time>2025-11-12T00:44:41.489Z</time>
      </trkpt>
      <trkpt lat="48.541929" lon="9.791896">
        <ele>689.443945</ele>
        <time>2025-11-12T00:44:42.364Z</time>
      </trkpt>
      <trkpt lat="48.541928" lon="9.792441">
        <ele>689.032107</ele>
        <time>2025-11-12T00:44:46.917Z</time>
      </trkpt>
      <trkpt lat="48.541927" lon="9.792529">
        <ele>688.965599</ele>
        <time>2025-11-12T00:44:47.777Z</time>
      </trkpt>
      <trkpt lat="48.541957" lon="9.792952">
        <ele>688.644125</ele>
        <time>2025-11-12T00:44:52.661Z</time>
      </trkpt>
      <trkpt lat="48.541991" lon="9.793058">
        <ele>688.555119</ele>
        <time>2025-11-12T00:44:54.076Z</time>
      </trkpt>
      <trkpt lat="48.541998" lon="9.793078">
        <ele>688.538024</ele>
        <time>2025-11-12T00:44:54.336Z</time>
      </trkpt>
      <trkpt lat="48.542048" lon="9.793230">
        <ele>688.459663</ele>
        <time>2025-11-12T00:44:56.357Z</time>
      </trkpt>
      <trkpt lat="48.542178" lon="9.793438">
        <ele>688.474894</ele>
        <time>2025-11-12T00:44:59.375Z</time>
      </trkpt>
      <trkpt lat="48.542205" lon="9.793470">
        <ele>688.477654</ele>
        <time>2025-11-12T00:44:59.938Z</time>
      </trkpt>
      <trkpt lat="48.542326" lon="9.793610">
        <ele>688.489913</ele>
        <time>2025-11-12T00:45:02.566Z</time>
      </trkpt>
      <trkpt lat="48.542550" lon="9.793814">
        <ele>688.510950</ele>
        <time>2025-11-12T00:45:07.151Z</time>
      </trkpt>
      <trkpt lat="48.542683" lon="9.793902">
        <ele>688.522628</ele>
        <time>2025-11-12T00:45:09.611Z</time>
      </trkpt>
      <trkpt lat="48.543036" lon="9.793982">
        <ele>688.551336</ele>
        <time>2025-11-12T00:45:14.937Z</time>
      </trkpt>
      <trkpt lat="48.543167" lon="9.793965">
        <ele>688.561910</ele>
        <time>2025-11-12T00:45:16.667Z</time>
      </trkpt>
      <trkpt lat="48.543175" lon="9.794228">
        <ele>688.575929</ele>
        <time>2025-11-12T00:45:18.927Z</time>
      </trkpt>
      <trkpt lat="48.543402" lon="9.794510">
        <ele>688.599567</ele>
        <time>2025-11-12T00:45:24.315Z</time>
      </trkpt>
      <trkpt lat="48.543607" lon="9.794802">
        <ele>688.460629</ele>
        <time>2025-11-12T00:45:29.576Z</time>
      </trkpt>
      <trkpt lat="48.543897" lon="9.795215">
        <ele>688.248256</ele>
        <time>2025-11-12T00:45:37.887Z</time>
      </trkpt>
      <trkpt lat="48.544397" lon="9.795983">
        <ele>687.868292</ele>
        <time>2025-11-12T00:45:50.949Z</time>
      </trkpt>
      <trkpt lat="48.544510" lon="9.796163">
        <ele>687.780789</ele>
        <time>2025-11-12T00:45:53.846Z</time>
      </trkpt>
      <trkpt lat="48.544700" lon="9.796466">
        <ele>687.610661</ele>
        <time>2025-11-12T00:45:58.796Z</time>
      </trkpt>
      <trkpt lat="48.545176" lon="9.796972">
        <ele>686.519332</ele>
        <time>2025-11-12T00:46:05.840Z</time>
      </trkpt>
      <trkpt lat="48.545418" lon="9.797199">
        <ele>685.985226</ele>
        <time>2025-11-12T00:46:09.083Z</time>
      </trkpt>
      <trkpt lat="48.545606" lon="9.797369">
        <ele>685.574403</ele>
        <time>2025-11-12T00:46:11.452Z</time>
      </trkpt>
      <trkpt lat="48.545654" lon="9.797413">
        <ele>685.469130</ele>
        <time>2025-11-12T00:46:12.042Z</time>
      </trkpt>
      <trkpt lat="48.545895" lon="9.797690">
        <ele>684.901330</ele>
        <time>2025-11-12T00:46:15.241Z</time>
      </trkpt>
      <trkpt lat="48.546190" lon="9.798061">
        <ele>684.188797</ele>
        <time>2025-11-12T00:46:19.249Z</time>
      </trkpt>
      <trkpt lat="48.546843" lon="9.798877">
        <ele>682.728495</ele>
        <time>2025-11-12T00:46:28.006Z</time>
      </trkpt>
      <trkpt lat="48.546909" lon="9.798962">
        <ele>682.579047</ele>
        <time>2025-11-12T00:46:28.922Z</time>
      </trkpt>
      <trkpt lat="48.547160" lon="9.799293">
        <ele>682.004924</ele>
        <time>2025-11-12T00:46:32.540Z</time>
      </trkpt>
      <trkpt lat="48.547637" lon="9.799888">
        <ele>681.424883</ele>
        <time>2025-11-12T00:46:40.851Z</time>
      </trkpt>
      <trkpt lat="48.547766" lon="9.800011">
        <ele>681.712391</ele>
        <time>2025-11-12T00:46:43.750Z</time>
      </trkpt>
      <trkpt lat="48.548859" lon="9.801073">
        <ele>684.161698</ele>
        <time>2025-11-12T00:47:16.862Z</time>
      </trkpt>
      <trkpt lat="48.549042" lon="9.801252">
        <ele>684.563060</ele>
        <time>2025-11-12T00:47:22.489Z</time>
      </trkpt>
      <trkpt lat="48.549617" lon="9.801775">
        <ele>684.792453</ele>
        <time>2025-11-12T00:47:37.320Z</time>
      </trkpt>
      <trkpt lat="48.550348" lon="9.802446">
        <ele>685.084794</ele>
        <time>2025-11-12T00:47:49.615Z</time>
      </trkpt>
      <trkpt lat="48.550555" lon="9.802671">
        <ele>685.171951</ele>
        <time>2025-11-12T00:47:52.527Z</time>
      </trkpt>
      <trkpt lat="48.550990" lon="9.803306">
        <ele>683.835025</ele>
        <time>2025-11-12T00:47:59.059Z</time>
      </trkpt>
      <trkpt lat="48.551389" lon="9.804015">
        <ele>682.444718</ele>
        <time>2025-11-12T00:48:05.504Z</time>
      </trkpt>
      <trkpt lat="48.552493" lon="9.806053">
        <ele>678.270823</ele>
        <time>2025-11-12T00:48:23.917Z</time>
      </trkpt>
      <trkpt lat="48.552666" lon="9.806334">
        <ele>677.644799</ele>
        <time>2025-11-12T00:48:26.652Z</time>
      </trkpt>
      <trkpt lat="48.552914" lon="9.806613">
        <ele>676.882763</ele>
        <time>2025-11-12T00:48:29.977Z</time>
      </trkpt>
      <trkpt lat="48.553796" lon="9.807137">
        <ele>674.751604</ele>
        <time>2025-11-12T00:48:40.061Z</time>
      </trkpt>
      <trkpt lat="48.553954" lon="9.807373">
        <ele>674.256459</ele>
        <time>2025-11-12T00:48:42.414Z</time>
      </trkpt>
      <trkpt lat="48.554378" lon="9.808285">
        <ele>672.640637</ele>
        <time>2025-11-12T00:48:50.362Z</time>
      </trkpt>
      <trkpt lat="48.555312" lon="9.810265">
        <ele>670.664270</ele>
        <time>2025-11-12T00:49:09.295Z</time>
      </trkpt>
      <trkpt lat="48.555868" lon="9.811424">
        <ele>670.593274</ele>
        <time>2025-11-12T00:49:22.912Z</time>
      </trkpt>
      <trkpt lat="48.556027" lon="9.811757">
        <ele>670.637156</ele>
        <time>2025-11-12T00:49:27.477Z</time>
      </trkpt>
      <trkpt lat="48.556343" lon="9.812320">
        <ele>670.716046</ele>
        <time>2025-11-12T00:49:36.074Z</time>
      </trkpt>
      <trkpt lat="48.556445" lon="9.812449">
        <ele>670.737524</ele>
        <time>2025-11-12T00:49:38.432Z</time>
      </trkpt>
      <trkpt lat="48.557304" lon="9.813127">
        <ele>670.290396</ele>
        <time>2025-11-12T00:49:54.262Z</time>
      </trkpt>
      <trkpt lat="48.557576" lon="9.813419">
        <ele>670.107360</ele>
        <time>2025-11-12T00:49:58.510Z</time>
      </trkpt>
      <trkpt lat="48.557750" lon="9.813664">
        <ele>669.976889</ele>
        <time>2025-11-12T00:50:01.238Z</time>
      </trkpt>
      <trkpt lat="48.558066" lon="9.814324">
        <ele>669.610086</ele>
        <time>2025-11-12T00:50:07.193Z</time>
      </trkpt>
      <trkpt lat="48.558187" lon="9.814640">
        <ele>669.371664</ele>
        <time>2025-11-12T00:50:09.878Z</time>
      </trkpt>
      <trkpt lat="48.558292" lon="9.815095">
        <ele>669.056968</ele>
        <time>2025-11-12T00:50:13.506Z</time>
      </trkpt>
      <trkpt lat="48.558370" lon="9.815375">
        <ele>668.858570</ele>
        <time>2025-11-12T00:50:15.882Z</time>
      </trkpt>
      <trkpt lat="48.558182" lon="9.815461">
        <ele>668.664747</ele>
        <time>2025-11-12T00:50:18.259Z</time>
      </trkpt>
      <trkpt lat="48.557864" lon="9.815406">
        <ele>668.348916</ele>
        <time>2025-11-12T00:50:22.343Z</time>
      </trkpt>
      <trkpt lat="48.557324" lon="9.815561">
        <ele>668.052329</ele>
        <time>2025-11-12T00:50:30.658Z</time>
      </trkpt>
      <trkpt lat="48.556666" lon="9.815630">
        <ele>668.248947</ele>
        <time>2025-11-12T00:50:41.908Z</time>
      </trkpt>
      <trkpt lat="48.556396" lon="9.815732">
        <ele>668.331910</ele>
        <time>2025-11-12T00:50:46.413Z</time>
      </trkpt>
      <trkpt lat="48.556111" lon="9.815953">
        <ele>668.427403</ele>
        <time>2025-11-12T00:50:51.409Z</time>
      </trkpt>
      <trkpt lat="48.555933" lon="9.816155">
        <ele>668.493765</ele>
        <time>2025-11-12T00:50:54.920Z</time>
      </trkpt>
      <trkpt lat="48.555350" lon="9.816918">
        <ele>669.061387</ele>
        <time>2025-11-12T00:51:07.805Z</time>
      </trkpt>
      <trkpt lat="48.554614" lon="9.817959">
        <ele>669.889913</ele>
        <time>2025-11-12T00:51:26.484Z</time>
      </trkpt>
      <trkpt lat="48.553598" lon="9.819296">
        <ele>671.865355</ele>
        <time>2025-11-12T00:51:54.150Z</time>
      </trkpt>
      <trkpt lat="48.552468" lon="9.820772">
        <ele>674.721924</ele>
        <time>2025-11-12T00:52:27.309Z</time>
      </trkpt>
      <trkpt lat="48.551705" lon="9.821563">
        <ele>676.747046</ele>
        <time>2025-11-12T00:52:49.275Z</time>
      </trkpt>
      <trkpt lat="48.550023" lon="9.823012">
        <ele>683.611375</ele>
        <time>2025-11-12T00:53:43.634Z</time>
      </trkpt>
      <trkpt lat="48.549042" lon="9.823841">
        <ele>689.670321</ele>
        <time>2025-11-12T00:54:26.354Z</time>
      </trkpt>
      <trkpt lat="48.548767" lon="9.824141">
        <ele>691.498749</ele>
        <time>2025-11-12T00:54:40.042Z</time>
      </trkpt>
      <trkpt lat="48.548341" lon="9.824696">
        <ele>694.154364</ele>
        <time>2025-11-12T00:55:01.707Z</time>
      </trkpt>
      <trkpt lat="48.547631" lon="9.825933">
        <ele>698.945583</ele>
        <time>2025-11-12T00:55:37.662Z</time>
      </trkpt>
      <trkpt lat="48.547674" lon="9.826215">
        <ele>699.792456</ele>
        <time>2025-11-12T00:55:43.075Z</time>
      </trkpt>
      <trkpt lat="48.547728" lon="9.826442">
        <ele>700.406939</ele>
        <time>2025-11-12T00:55:47.462Z</time>
      </trkpt>
      <trkpt lat="48.548145" lon="9.828176">
        <ele>701.322418</ele>
        <time>2025-11-12T00:56:12.275Z</time>
      </trkpt>
      <trkpt lat="48.548800" lon="9.831000">
        <ele>699.093173</ele>
        <time>2025-11-12T00:56:34.940Z</time>
      </trkpt>
      <trkpt lat="48.548947" lon="9.831491">
        <ele>698.433032</ele>
        <time>2025-11-12T00:56:38.798Z</time>
      </trkpt>
      <trkpt lat="48.549374" lon="9.832868">
        <ele>694.001310</ele>
        <time>2025-11-12T00:56:48.810Z</time>
      </trkpt>
      <trkpt lat="48.550391" lon="9.835606">
        <ele>683.510878</ele>
        <time>2025-11-12T00:57:07.927Z</time>
      </trkpt>
      <trkpt lat="48.550715" lon="9.836391">
        <ele>680.372977</ele>
        <time>2025-11-12T00:57:13.746Z</time>
      </trkpt>
      <trkpt lat="48.551171" lon="9.837150">
        <ele>678.173681</ele>
        <time>2025-11-12T00:57:20.470Z</time>
      </trkpt>
      <trkpt lat="48.552267" lon="9.838631">
        <ele>674.478612</ele>
        <time>2025-11-12T00:57:35.763Z</time>
      </trkpt>
      <trkpt lat="48.552610" lon="9.839053">
        <ele>674.129647</ele>
        <time>2025-11-12T00:57:41.715Z</time>
      </trkpt>
      <trkpt lat="48.552840" lon="9.839213">
        <ele>673.929892</ele>
        <time>2025-11-12T00:57:45.624Z</time>
      </trkpt>
      <trkpt lat="48.553394" lon="9.839411">
        <ele>673.480787</ele>
        <time>2025-11-12T00:57:55.579Z</time>
      </trkpt>
      <trkpt lat="48.554344" lon="9.839550">
        <ele>671.766815</ele>
        <time>2025-11-12T00:58:07.722Z</time>
      </trkpt>
      <trkpt lat="48.555117" lon="9.839635">
        <ele>670.286760</ele>
        <time>2025-11-12T00:58:19.189Z</time>
      </trkpt>
      <trkpt lat="48.555608" lon="9.839728">
        <ele>668.945624</ele>
        <time>2025-11-12T00:58:26.096Z</time>
      </trkpt>
      <trkpt lat="48.556783" lon="9.839859">
        <ele>665.275800</ele>
        <time>2025-11-12T00:58:43.180Z</time>
      </trkpt>
      <trkpt lat="48.558000" lon="9.840439">
        <ele>663.478157</ele>
        <time>2025-11-12T00:59:03.321Z</time>
      </trkpt>
      <trkpt lat="48.558804" lon="9.840965">
        <ele>662.929654</ele>
        <time>2025-11-12T00:59:20.231Z</time>
      </trkpt>
      <trkpt lat="48.560271" lon="9.841843">
        <ele>667.693947</ele>
        <time>2025-11-12T01:00:10.912Z</time>
      </trkpt>
      <trkpt lat="48.560487" lon="9.841838">
        <ele>668.534489</ele>
        <time>2025-11-12T01:00:19.657Z</time>
      </trkpt>
      <trkpt lat="48.562004" lon="9.841739">
        <ele>678.120474</ele>
        <time>2025-11-12T01:01:29.044Z</time>
      </trkpt>
      <trkpt lat="48.562843" lon="9.841719">
        <ele>684.049475</ele>
        <time>2025-11-12T01:02:13.073Z</time>
      </trkpt>
      <trkpt lat="48.563044" lon="9.841774">
        <ele>685.548488</ele>
        <time>2025-11-12T01:02:23.947Z</time>
      </trkpt>
      <trkpt lat="48.563390" lon="9.842051">
        <ele>688.421939</ele>
        <time>2025-11-12T01:02:44.413Z</time>
      </trkpt>
      <trkpt lat="48.563880" lon="9.842506">
        <ele>692.642455</ele>
        <time>2025-11-12T01:03:12.644Z</time>
      </trkpt>
      <trkpt lat="48.565190" lon="9.843498">
        <ele>699.133456</ele>
        <time>2025-11-12T01:04:10.880Z</time>
      </trkpt>
      <trkpt lat="48.566595" lon="9.844086">
        <ele>701.232254</ele>
        <time>2025-11-12T01:04:50.700Z</time>
      </trkpt>
      <trkpt lat="48.567483" lon="9.844593">
        <ele>700.501364</ele>
        <time>2025-11-12T01:05:06.717Z</time>
      </trkpt>
      <trkpt lat="48.569555" lon="9.845362">
        <ele>690.464198</ele>
        <time>2025-11-12T01:05:35.638Z</time>
      </trkpt>
      <trkpt lat="48.572124" lon="9.846397">
        <ele>672.906055</ele>
        <time>2025-11-12T01:06:09.811Z</time>
      </trkpt>
      <trkpt lat="48.572581" lon="9.846628">
        <ele>669.426062</ele>
        <time>2025-11-12T01:06:15.977Z</time>
      </trkpt>
      <trkpt lat="48.572785" lon="9.846731">
        <ele>667.731274</ele>
        <time>2025-11-12T01:06:18.741Z</time>
      </trkpt>
      <trkpt lat="48.573374" lon="9.847112">
        <ele>662.682905</ele>
        <time>2025-11-12T01:06:26.839Z</time>
      </trkpt>
      <trkpt lat="48.573574" lon="9.847089">
        <ele>661.102411</ele>
        <time>2025-11-12T01:06:29.314Z</time>
      </trkpt>
      <trkpt lat="48.573679" lon="9.846980">
        <ele>660.098674</ele>
        <time>2025-11-12T01:06:30.867Z</time>
      </trkpt>
      <trkpt lat="48.573760" lon="9.846943">
        <ele>659.431904</ele>
        <time>2025-11-12T01:06:31.907Z</time>
      </trkpt>
      <trkpt lat="48.573894" lon="9.847020">
        <ele>658.302284</ele>
        <time>2025-11-12T01:06:33.662Z</time>
      </trkpt>
      <trkpt lat="48.573724" lon="9.847682">
        <ele>654.754167</ele>
        <time>2025-11-12T01:06:37.847Z</time>
      </trkpt>
      <trkpt lat="48.573605" lon="9.848057">
        <ele>652.774626</ele>
        <time>2025-11-12T01:06:40.337Z</time>
      </trkpt>
      <trkpt lat="48.573595" lon="9.848183">
        <ele>652.170608</ele>
        <time>2025-11-12T01:06:41.093Z</time>
      </trkpt>
      <trkpt lat="48.573625" lon="9.848285">
        <ele>651.639317</ele>
        <time>2025-11-12T01:06:41.753Z</time>
      </trkpt>
      <trkpt lat="48.573698" lon="9.848351">
        <ele>651.027398</ele>
        <time>2025-11-12T01:06:42.503Z</time>
      </trkpt>
      <trkpt lat="48.573773" lon="9.848359">
        <ele>650.486538</ele>
        <time>2025-11-12T01:06:43.170Z</time>
      </trkpt>
      <trkpt lat="48.573895" lon="9.848287">
        <ele>649.544387</ele>
        <time>2025-11-12T01:06:44.332Z</time>
      </trkpt>
      <trkpt lat="48.573985" lon="9.848141">
        <ele>648.594623</ele>
        <time>2025-11-12T01:06:45.505Z</time>
      </trkpt>
      <trkpt lat="48.574125" lon="9.847976">
        <ele>647.317514</ele>
        <time>2025-11-12T01:06:47.090Z</time>
      </trkpt>
      <trkpt lat="48.574228" lon="9.847922">
        <ele>646.533264</ele>
        <time>2025-11-12T01:06:48.070Z</time>
      </trkpt>
      <trkpt lat="48.574377" lon="9.847961">
        <ele>645.445468</ele>
        <time>2025-11-12T01:06:49.435Z</time>
      </trkpt>
      <trkpt lat="48.574440" lon="9.848014">
        <ele>644.926796</ele>
        <time>2025-11-12T01:06:50.093Z</time>
      </trkpt>
      <trkpt lat="48.574545" lon="9.848244">
        <ele>643.596797</ele>
        <time>2025-11-12T01:06:51.806Z</time>
      </trkpt>
      <trkpt lat="48.574582" lon="9.848328">
        <ele>643.156315</ele>
        <time>2025-11-12T01:06:52.429Z</time>
      </trkpt>
      <trkpt lat="48.574738" lon="9.848747">
        <ele>641.157160</ele>
        <time>2025-11-12T01:06:55.377Z</time>
      </trkpt>
      <trkpt lat="48.574950" lon="9.849492">
        <ele>637.785005</ele>
        <time>2025-11-12T01:07:00.133Z</time>
      </trkpt>
      <trkpt lat="48.574971" lon="9.849576">
        <ele>637.411622</ele>
        <time>2025-11-12T01:07:00.878Z</time>
      </trkpt>
      <trkpt lat="48.575024" lon="9.849786">
        <ele>636.477051</ele>
        <time>2025-11-12T01:07:02.785Z</time>
      </trkpt>
      <trkpt lat="48.575077" lon="9.850003">
        <ele>635.515229</ele>
        <time>2025-11-12T01:07:04.762Z</time>
      </trkpt>
      <trkpt lat="48.575260" lon="9.850619">
        <ele>632.707499</ele>
        <time>2025-11-12T01:07:10.671Z</time>
      </trkpt>
      <trkpt lat="48.575468" lon="9.851056">
        <ele>631.243248</ele>
        <time>2025-11-12T01:07:15.554Z</time>
      </trkpt>
      <trkpt lat="48.575644" lon="9.851427">
        <ele>630.230919</ele>
        <time>2025-11-12T01:07:19.845Z</time>
      </trkpt>
      <trkpt lat="48.575659" lon="9.851458">
        <ele>630.145754</ele>
        <time>2025-11-12T01:07:20.199Z</time>
      </trkpt>
      <trkpt lat="48.575852" lon="9.851784">
        <ele>629.175684</ele>
        <time>2025-11-12T01:07:24.336Z</time>
      </trkpt>
      <trkpt lat="48.576293" lon="9.852564">
        <ele>626.900516</ele>
        <time>2025-11-12T01:07:34.463Z</time>
      </trkpt>
      <trkpt lat="48.576389" lon="9.852798">
        <ele>626.289960</ele>
        <time>2025-11-12T01:07:37.293Z</time>
      </trkpt>
      <trkpt lat="48.576372" lon="9.853032">
        <ele>625.983618</ele>
        <time>2025-11-12T01:07:39.010Z</time>
      </trkpt>
      <trkpt lat="48.576241" lon="9.853416">
        <ele>625.648644</ele>
        <time>2025-11-12T01:07:42.237Z</time>
      </trkpt>
      <trkpt lat="48.575655" lon="9.854721">
        <ele>624.425806</ele>
        <time>2025-11-12T01:07:54.893Z</time>
      </trkpt>
      <trkpt lat="48.575648" lon="9.854961">
        <ele>624.239544</ele>
        <time>2025-11-12T01:07:57.053Z</time>
      </trkpt>
      <trkpt lat="48.575744" lon="9.855228">
        <ele>624.003936</ele>
        <time>2025-11-12T01:07:59.676Z</time>
      </trkpt>
      <trkpt lat="48.575994" lon="9.855595">
        <ele>623.991143</ele>
        <time>2025-11-12T01:08:04.329Z</time>
      </trkpt>
      <trkpt lat="48.576075" lon="9.855790">
        <ele>623.990844</ele>
        <time>2025-11-12T01:08:06.364Z</time>
      </trkpt>
      <trkpt lat="48.576081" lon="9.855889">
        <ele>623.990715</ele>
        <time>2025-11-12T01:08:07.294Z</time>
      </trkpt>
      <trkpt lat="48.575997" lon="9.856294">
        <ele>623.990163</ele>
        <time>2025-11-12T01:08:11.550Z</time>
      </trkpt>
      <trkpt lat="48.575992" lon="9.856474">
        <ele>623.989929</ele>
        <time>2025-11-12T01:08:13.424Z</time>
      </trkpt>
      <trkpt lat="48.575941" lon="9.856534">
        <ele>623.989802</ele>
        <time>2025-11-12T01:08:14.482Z</time>
      </trkpt>
      <trkpt lat="48.575711" lon="9.857267">
        <ele>623.988749</ele>
        <time>2025-11-12T01:08:23.353Z</time>
      </trkpt>
      <trkpt lat="48.575630" lon="9.857544">
        <ele>623.988355</ele>
        <time>2025-11-12T01:08:26.286Z</time>
      </trkpt>
      <trkpt lat="48.575362" lon="9.858436">
        <ele>624.065170</ele>
        <time>2025-11-12T01:08:36.351Z</time>
      </trkpt>
      <trkpt lat="48.574970" lon="9.859829">
        <ele>624.191929</ele>
        <time>2025-11-12T01:08:51.770Z</time>
      </trkpt>
      <trkpt lat="48.574899" lon="9.860252">
        <ele>624.172100</ele>
        <time>2025-11-12T01:08:56.044Z</time>
      </trkpt>
      <trkpt lat="48.574867" lon="9.860633">
        <ele>624.059894</ele>
        <time>2025-11-12T01:08:59.952Z</time>
      </trkpt>
      <trkpt lat="48.574865" lon="9.860727">
        <ele>624.032416</ele>
        <time>2025-11-12T01:09:00.904Z</time>
      </trkpt>
      <trkpt lat="48.574885" lon="9.862034">
        <ele>623.650462</ele>
        <time>2025-11-12T01:09:13.301Z</time>
      </trkpt>
      <trkpt lat="48.574889" lon="9.862269">
        <ele>623.581782</ele>
        <time>2025-11-12T01:09:15.406Z</time>
      </trkpt>
      <trkpt lat="48.574946" lon="9.863989">
        <ele>620.779787</ele>
        <time>2025-11-12T01:09:28.470Z</time>
      </trkpt>
      <trkpt lat="48.574969" lon="9.864505">
        <ele>619.616176</ele>
        <time>2025-11-12T01:09:31.835Z</time>
      </trkpt>
      <trkpt lat="48.575028" lon="9.864962">
        <ele>618.568553</ele>
        <time>2025-11-12T01:09:34.778Z</time>
      </trkpt>
      <trkpt lat="48.575402" lon="9.866487">
        <ele>612.924681</ele>
        <time>2025-11-12T01:09:44.678Z</time>
      </trkpt>
      <trkpt lat="48.575608" lon="9.867342">
        <ele>609.181678</ele>
        <time>2025-11-12T01:09:50.132Z</time>
      </trkpt>
      <trkpt lat="48.575793" lon="9.868320">
        <ele>604.868400</ele>
        <time>2025-11-12T01:09:56.250Z</time>
      </trkpt>
      <trkpt lat="48.575861" lon="9.868740">
        <ele>602.885722</ele>
        <time>2025-11-12T01:09:58.845Z</time>
      </trkpt>
      <trkpt lat="48.576083" lon="9.870232">
        <ele>595.873504</ele>
        <time>2025-11-12T01:10:07.950Z</time>
      </trkpt>
      <trkpt lat="48.576145" lon="9.871184">
        <ele>591.658917</ele>
        <time>2025-11-12T01:10:13.558Z</time>
      </trkpt>
      <trkpt lat="48.576138" lon="9.872972">
        <ele>584.109076</ele>
        <time>2025-11-12T01:10:24.172Z</time>
      </trkpt>
      <trkpt lat="48.576133" lon="9.873401">
        <ele>582.297372</ele>
        <time>2025-11-12T01:10:26.877Z</time>
      </trkpt>
      <trkpt lat="48.576133" lon="9.873547">
        <ele>582.068593</ele>
        <time>2025-11-12T01:10:27.832Z</time>
      </trkpt>
      <trkpt lat="48.576143" lon="9.873804">
        <ele>581.828502</ele>
        <time>2025-11-12T01:10:29.568Z</time>
      </trkpt>
      <trkpt lat="48.576142" lon="9.874222">
        <ele>581.438675</ele>
        <time>2025-11-12T01:10:32.505Z</time>
      </trkpt>
      <trkpt lat="48.576225" lon="9.874241">
        <ele>581.320348</ele>
        <time>2025-11-12T01:10:33.447Z</time>
      </trkpt>
      <trkpt lat="48.576331" lon="9.874183">
        <ele>581.161446</ele>
        <time>2025-11-12T01:10:34.790Z</time>
      </trkpt>
      <trkpt lat="48.576620" lon="9.873902">
        <ele>580.677073</ele>
        <time>2025-11-12T01:10:39.391Z</time>
      </trkpt>
      <trkpt lat="48.576688" lon="9.873879">
        <ele>580.578853</ele>
        <time>2025-11-12T01:10:40.383Z</time>
      </trkpt>
      <trkpt lat="48.576812" lon="9.873933">
        <ele>580.396958</ele>
        <time>2025-11-12T01:10:42.299Z</time>
      </trkpt>
      <trkpt lat="48.576850" lon="9.874014">
        <ele>580.304356</ele>
        <time>2025-11-12T01:10:43.256Z</time>
      </trkpt>
      <trkpt lat="48.576951" lon="9.874261">
        <ele>580.033565</ele>
        <time>2025-11-12T01:10:46.081Z</time>
      </trkpt>
      <trkpt lat="48.576969" lon="9.874462">
        <ele>579.844408</ele>
        <time>2025-11-12T01:10:48.062Z</time>
      </trkpt>
      <trkpt lat="48.576943" lon="9.874574">
        <ele>579.733716</ele>
        <time>2025-11-12T01:10:49.264Z</time>
      </trkpt>
      <trkpt lat="48.576894" lon="9.874647">
        <ele>579.644689</ele>
        <time>2025-11-12T01:10:50.319Z</time>
      </trkpt>
      <trkpt lat="48.576493" lon="9.874981">
        <ele>579.791726</ele>
        <time>2025-11-12T01:10:57.789Z</time>
      </trkpt>
      <trkpt lat="48.576443" lon="9.875134">
        <ele>579.827983</ele>
        <time>2025-11-12T01:10:59.720Z</time>
      </trkpt>
      <trkpt lat="48.576442" lon="9.875222">
        <ele>579.846684</ele>
        <time>2025-11-12T01:11:00.694Z</time>
      </trkpt>
      <trkpt lat="48.576483" lon="9.875548">
        <ele>579.917190</ele>
        <time>2025-11-12T01:11:04.426Z</time>
      </trkpt>
      <trkpt lat="48.576574" lon="9.875978">
        <ele>580.013113</ele>
        <time>2025-11-12T01:11:09.483Z</time>
      </trkpt>
      <trkpt lat="48.576642" lon="9.876380">
        <ele>580.101274</ele>
        <time>2025-11-12T01:11:15.252Z</time>
      </trkpt>
      <trkpt lat="48.576645" lon="9.876615">
        <ele>580.151215</ele>
        <time>2025-11-12T01:11:18.449Z</time>
      </trkpt>
      <trkpt lat="48.576615" lon="9.876750">
        <ele>580.181473</ele>
        <time>2025-11-12T01:11:20.401Z</time>
      </trkpt>
      <trkpt lat="48.576378" lon="9.877142">
        <ele>580.263247</ele>
        <time>2025-11-12T01:11:27.842Z</time>
      </trkpt>
      <trkpt lat="48.576152" lon="9.877174">
        <ele>580.305332</ele>
        <time>2025-11-12T01:11:31.522Z</time>
      </trkpt>
      <trkpt lat="48.576067" lon="9.877186">
        <ele>580.321160</ele>
        <time>2025-11-12T01:11:32.851Z</time>
      </trkpt>
      <trkpt lat="48.575904" lon="9.877282">
        <ele>580.353594</ele>
        <time>2025-11-12T01:11:35.513Z</time>
      </trkpt>
      <trkpt lat="48.575690" lon="9.877621">
        <ele>580.411071</ele>
        <time>2025-11-12T01:11:39.897Z</time>
      </trkpt>
      <trkpt lat="48.575400" lon="9.878248">
        <ele>580.504915</ele>
        <time>2025-11-12T01:11:46.964Z</time>
      </trkpt>
      <trkpt lat="48.575176" lon="9.878766">
        <ele>580.798803</ele>
        <time>2025-11-12T01:11:54.014Z</time>
      </trkpt>
      <trkpt lat="48.575018" lon="9.879187">
        <ele>581.346220</ele>
        <time>2025-11-12T01:12:00.339Z</time>
      </trkpt>
      <trkpt lat="48.575226" lon="9.879478">
        <ele>581.830720</ele>
        <time>2025-11-12T01:12:06.326Z</time>
      </trkpt>
      <trkpt lat="48.575538" lon="9.879780">
        <ele>582.464049</ele>
        <time>2025-11-12T01:12:14.489Z</time>
      </trkpt>
      <trkpt lat="48.576076" lon="9.880150">
        <ele>583.474435</ele>
        <time>2025-11-12T01:12:28.800Z</time>
      </trkpt>
      <trkpt lat="48.576719" lon="9.880496">
        <ele>584.923040</ele>
        <time>2025-11-12T01:12:46.347Z</time>
      </trkpt>
      <trkpt lat="48.577302" lon="9.880917">
        <ele>586.335083</ele>
        <time>2025-11-12T01:13:02.395Z</time>
      </trkpt>
      <trkpt lat="48.577816" lon="9.881384">
        <ele>587.593284</ele>
        <time>2025-11-12T01:13:15.364Z</time>
      </trkpt>
      <trkpt lat="48.578653" lon="9.882367">
        <ele>588.498124</ele>
        <time>2025-11-12T01:13:34.863Z</time>
      </trkpt>
      <trkpt lat="48.580058" lon="9.884209">
        <ele>590.274262</ele>
        <time>2025-11-12T01:14:05.742Z</time>
      </trkpt>
      <trkpt lat="48.580498" lon="9.884922">
        <ele>590.941339</ele>
        <time>2025-11-12T01:14:19.565Z</time>
      </trkpt>
      <trkpt lat="48.581179" lon="9.886425">
        <ele>594.185213</ele>
        <time>2025-11-12T01:14:50.592Z</time>
      </trkpt>
      <trkpt lat="48.581780" lon="9.888048">
        <ele>597.603735</ele>
        <time>2025-11-12T01:15:24.293Z</time>
      </trkpt>
      <trkpt lat="48.581997" lon="9.888770">
        <ele>599.102649</ele>
        <time>2025-11-12T01:15:37.524Z</time>
      </trkpt>
      <trkpt lat="48.582154" lon="9.889437">
        <ele>600.440789</ele>
        <time>2025-11-12T01:15:49.101Z</time>
      </trkpt>
      <trkpt lat="48.582220" lon="9.889861">
        <ele>601.396432</ele>
        <time>2025-11-12T01:15:56.465Z</time>
      </trkpt>
      <trkpt lat="48.582280" lon="9.890515">
        <ele>603.101577</ele>
        <time>2025-11-12T01:16:08.536Z</time>
      </trkpt>
      <trkpt lat="48.582275" lon="9.891312">
        <ele>605.159953</ele>
        <time>2025-11-12T01:16:24.771Z</time>
      </trkpt>
      <trkpt lat="48.582158" lon="9.892551">
        <ele>608.428660</ele>
        <time>2025-11-12T01:16:52.449Z</time>
      </trkpt>
      <trkpt lat="48.582020" lon="9.893587">
        <ele>611.370853</ele>
        <time>2025-11-12T01:17:16.550Z</time>
      </trkpt>
      <trkpt lat="48.581893" lon="9.895059">
        <ele>615.501190</ele>
        <time>2025-11-12T01:17:46.166Z</time>
      </trkpt>
      <trkpt lat="48.581868" lon="9.895992">
        <ele>617.431724</ele>
        <time>2025-11-12T01:18:03.467Z</time>
      </trkpt>
      <trkpt lat="48.581889" lon="9.896605">
        <ele>618.700784</ele>
        <time>2025-11-12T01:18:14.230Z</time>
      </trkpt>
      <trkpt lat="48.581927" lon="9.897364">
        <ele>620.274483</ele>
        <time>2025-11-12T01:18:27.260Z</time>
      </trkpt>
      <trkpt lat="48.582109" lon="9.899553">
        <ele>625.146962</ele>
        <time>2025-11-12T01:19:07.679Z</time>
      </trkpt>
      <trkpt lat="48.582190" lon="9.900634">
        <ele>627.636899</ele>
        <time>2025-11-12T01:19:29.160Z</time>
      </trkpt>
      <trkpt lat="48.582218" lon="9.901501">
        <ele>629.852210</ele>
        <time>2025-11-12T01:19:46.408Z</time>
      </trkpt>
      <trkpt lat="48.582201" lon="9.902472">
        <ele>632.331171</ele>
        <time>2025-11-12T01:20:05.622Z</time>
      </trkpt>
      <trkpt lat="48.582119" lon="9.903464">
        <ele>635.082161</ele>
        <time>2025-11-12T01:20:25.926Z</time>
      </trkpt>
      <trkpt lat="48.582045" lon="9.903933">
        <ele>636.645715</ele>
        <time>2025-11-12T01:20:36.158Z</time>
      </trkpt>
      <trkpt lat="48.581771" lon="9.905185">
        <ele>640.922164</ele>
        <time>2025-11-12T01:21:06.289Z</time>
      </trkpt>
      <trkpt lat="48.581214" lon="9.907099">
        <ele>648.453932</ele>
        <time>2025-11-12T01:21:58.882Z</time>
      </trkpt>
      <trkpt lat="48.581089" lon="9.907526">
        <ele>650.207982</ele>
        <time>2025-11-12T01:22:11.133Z</time>
      </trkpt>
      <trkpt lat="48.580982" lon="9.907806">
        <ele>651.422675</ele>
        <time>2025-11-12T01:22:19.497Z</time>
      </trkpt>
      <trkpt lat="48.580445" lon="9.908711">
        <ele>654.887797</ele>
        <time>2025-11-12T01:22:48.215Z</time>
      </trkpt>
      <trkpt lat="48.580363" lon="9.908896">
        <ele>655.396884</ele>
        <time>2025-11-12T01:22:52.921Z</time>
      </trkpt>
      <trkpt lat="48.580324" lon="9.909178">
        <ele>656.055513</ele>
        <time>2025-11-12T01:22:58.627Z</time>
      </trkpt>
      <trkpt lat="48.580345" lon="9.909377">
        <ele>656.516207</ele>
        <time>2025-11-12T01:23:02.365Z</time>
      </trkpt>
      <trkpt lat="48.580362" lon="9.909501">
        <ele>656.805712</ele>
        <time>2025-11-12T01:23:04.615Z</time>
      </trkpt>
      <trkpt lat="48.580378" lon="9.909605">
        <ele>657.049816</ele>
        <time>2025-11-12T01:23:06.407Z</time>
      </trkpt>
      <trkpt lat="48.580437" lon="9.909942">
        <ele>657.846767</ele>
        <time>2025-11-12T01:23:11.939Z</time>
      </trkpt>
      <trkpt lat="48.580542" lon="9.910491">
        <ele>659.153253</ele>
        <time>2025-11-12T01:23:20.115Z</time>
      </trkpt>
      <trkpt lat="48.580779" lon="9.911380">
        <ele>661.115068</ele>
        <time>2025-11-12T01:23:33.485Z</time>
      </trkpt>
      <trkpt lat="48.581046" lon="9.912195">
        <ele>662.950140</ele>
        <time>2025-11-12T01:23:49.195Z</time>
      </trkpt>
      <trkpt lat="48.581243" lon="9.912710">
        <ele>664.150492</ele>
        <time>2025-11-12T01:24:01.542Z</time>
      </trkpt>
      <trkpt lat="48.581348" lon="9.913055">
        <ele>664.932574</ele>
        <time>2025-11-12T01:24:10.041Z</time>
      </trkpt>
      <trkpt lat="48.581471" lon="9.913672">
        <ele>666.741757</ele>
        <time>2025-11-12T01:24:24.771Z</time>
      </trkpt>
      <trkpt lat="48.581566" lon="9.914146">
        <ele>668.132251</ele>
        <time>2025-11-12T01:24:35.784Z</time>
      </trkpt>
      <trkpt lat="48.581624" lon="9.914467">
        <ele>669.066473</ele>
        <time>2025-11-12T01:24:43.042Z</time>
      </trkpt>
      <trkpt lat="48.581682" lon="9.914749">
        <ele>669.895571</ele>
        <time>2025-11-12T01:24:49.618Z</time>
      </trkpt>
      <trkpt lat="48.581808" lon="9.915210">
        <ele>671.295942</ele>
        <time>2025-11-12T01:25:00.068Z</time>
      </trkpt>
      <trkpt lat="48.581894" lon="9.915519">
        <ele>672.237106</ele>
        <time>2025-11-12T01:25:06.493Z</time>
      </trkpt>
      <trkpt lat="48.581924" lon="9.915722">
        <ele>672.677843</ele>
        <time>2025-11-12T01:25:10.304Z</time>
      </trkpt>
      <trkpt lat="48.581998" lon="9.915752">
        <ele>672.853539</ele>
        <time>2025-11-12T01:25:12.390Z</time>
      </trkpt>
      <trkpt lat="48.582052" lon="9.915773">
        <ele>672.981406</ele>
        <time>2025-11-12T01:25:13.846Z</time>
      </trkpt>
      <trkpt lat="48.582363" lon="9.915897">
        <ele>673.718991</ele>
        <time>2025-11-12T01:25:22.106Z</time>
      </trkpt>
      <trkpt lat="48.583199" lon="9.916405">
        <ele>675.785229</ele>
        <time>2025-11-12T01:25:43.627Z</time>
      </trkpt>
      <trkpt lat="48.583544" lon="9.916713">
        <ele>676.684317</ele>
        <time>2025-11-12T01:25:51.677Z</time>
      </trkpt>
      <trkpt lat="48.583792" lon="9.917114">
        <ele>677.281885</ele>
        <time>2025-11-12T01:25:58.421Z</time>
      </trkpt>
      <trkpt lat="48.583906" lon="9.917315">
        <ele>677.570094</ele>
        <time>2025-11-12T01:26:01.767Z</time>
      </trkpt>
      <trkpt lat="48.584050" lon="9.917506">
        <ele>677.885337</ele>
        <time>2025-11-12T01:26:05.534Z</time>
      </trkpt>
      <trkpt lat="48.584094" lon="9.917563">
        <ele>677.980690</ele>
        <time>2025-11-12T01:26:06.682Z</time>
      </trkpt>
      <trkpt lat="48.584408" lon="9.917810">
        <ele>678.563160</ele>
        <time>2025-11-12T01:26:14.266Z</time>
      </trkpt>
      <trkpt lat="48.584655" lon="9.917932">
        <ele>678.990755</ele>
        <time>2025-11-12T01:26:20.101Z</time>
      </trkpt>
      <trkpt lat="48.585575" lon="9.918304">
        <ele>680.878012</ele>
        <time>2025-11-12T01:26:43.034Z</time>
      </trkpt>
      <trkpt lat="48.586021" lon="9.918542">
        <ele>681.914778</ele>
        <time>2025-11-12T01:26:55.136Z</time>
      </trkpt>
      <trkpt lat="48.586333" lon="9.918824">
        <ele>682.711607</ele>
        <time>2025-11-12T01:27:03.796Z</time>
      </trkpt>
      <trkpt lat="48.586528" lon="9.919056">
        <ele>683.255550</ele>
        <time>2025-11-12T01:27:09.344Z</time>
      </trkpt>
      <trkpt lat="48.587057" lon="9.919859">
        <ele>684.127852</ele>
        <time>2025-11-12T01:27:24.512Z</time>
      </trkpt>
      <trkpt lat="48.587341" lon="9.920160">
        <ele>684.457856</ele>
        <time>2025-11-12T01:27:31.161Z</time>
      </trkpt>
      <trkpt lat="48.587702" lon="9.920395">
        <ele>684.831821</ele>
        <time>2025-11-12T01:27:38.333Z</time>
      </trkpt>
      <trkpt lat="48.587973" lon="9.920480">
        <ele>685.095157</ele>
        <time>2025-11-12T01:27:43.088Z</time>
      </trkpt>
      <trkpt lat="48.588275" lon="9.920512">
        <ele>685.139910</ele>
        <time>2025-11-12T01:27:47.843Z</time>
      </trkpt>
      <trkpt lat="48.588519" lon="9.920464">
        <ele>684.953086</ele>
        <time>2025-11-12T01:27:51.402Z</time>
      </trkpt>
      <trkpt lat="48.588788" lon="9.920364">
        <ele>684.742759</ele>
        <time>2025-11-12T01:27:55.203Z</time>
      </trkpt>
      <trkpt lat="48.590228" lon="9.919553">
        <ele>683.360202</ele>
        <time>2025-11-12T01:28:13.440Z</time>
      </trkpt>
      <trkpt lat="48.591386" lon="9.918978">
        <ele>681.782567</ele>
        <time>2025-11-12T01:28:27.417Z</time>
      </trkpt>
      <trkpt lat="48.592292" lon="9.918645">
        <ele>682.595438</ele>
        <time>2025-11-12T01:28:39.155Z</time>
      </trkpt>
      <trkpt lat="48.592341" lon="9.918627">
        <ele>682.664900</ele>
        <time>2025-11-12T01:28:40.090Z</time>
      </trkpt>
      <trkpt lat="48.592901" lon="9.918458">
        <ele>683.451528</ele>
        <time>2025-11-12T01:28:52.622Z</time>
      </trkpt>
      <trkpt lat="48.593221" lon="9.918356">
        <ele>683.902023</ele>
        <time>2025-11-12T01:29:02.557Z</time>
      </trkpt>
      <trkpt lat="48.593477" lon="9.918236">
        <ele>684.459292</ele>
        <time>2025-11-12T01:29:12.171Z</time>
      </trkpt>
      <trkpt lat="48.593555" lon="9.918142">
        <ele>684.704626</ele>
        <time>2025-11-12T01:29:15.879Z</time>
      </trkpt>
      <trkpt lat="48.593737" lon="9.917730">
        <ele>685.510597</ele>
        <time>2025-11-12T01:29:27.737Z</time>
      </trkpt>
      <trkpt lat="48.593854" lon="9.917622">
        <ele>685.847761</ele>
        <time>2025-11-12T01:29:32.428Z</time>
      </trkpt>
      <trkpt lat="48.594137" lon="9.917550">
        <ele>686.553611</ele>
        <time>2025-11-12T01:29:41.168Z</time>
      </trkpt>
      <trkpt lat="48.594390" lon="9.917549">
        <ele>687.175890</ele>
        <time>2025-11-12T01:29:47.282Z</time>
      </trkpt>
      <trkpt lat="48.594422" lon="9.917549">
        <ele>687.254597</ele>
        <time>2025-11-12T01:29:47.907Z</time>
      </trkpt>
      <trkpt lat="48.594651" lon="9.917552">
        <ele>687.817864</ele>
        <time>2025-11-12T01:29:51.569Z</time>
      </trkpt>
      <trkpt lat="48.594795" lon="9.917487">
        <ele>688.187492</ele>
        <time>2025-11-12T01:29:53.570Z</time>
      </trkpt>
      <trkpt lat="48.594931" lon="9.917302">
        <ele>688.114281</ele>
        <time>2025-11-12T01:29:55.808Z</time>
      </trkpt>
      <trkpt lat="48.595160" lon="9.916927">
        <ele>686.554024</ele>
        <time>2025-11-12T01:29:59.360Z</time>
      </trkpt>
      <trkpt lat="48.595228" lon="9.916870">
        <ele>686.194658</ele>
        <time>2025-11-12T01:30:00.117Z</time>
      </trkpt>
      <trkpt lat="48.595504" lon="9.916752">
        <ele>684.868960</ele>
        <time>2025-11-12T01:30:02.850Z</time>
      </trkpt>
      <trkpt lat="48.595638" lon="9.916660">
        <ele>684.188747</ele>
        <time>2025-11-12T01:30:04.218Z</time>
      </trkpt>
      <trkpt lat="48.595730" lon="9.916555">
        <ele>683.655980</ele>
        <time>2025-11-12T01:30:05.287Z</time>
      </trkpt>
      <trkpt lat="48.595826" lon="9.916381">
        <ele>682.963309</ele>
        <time>2025-11-12T01:30:06.657Z</time>
      </trkpt>
      <trkpt lat="48.596083" lon="9.915642">
        <ele>680.411024</ele>
        <time>2025-11-12T01:30:11.669Z</time>
      </trkpt>
      <trkpt lat="48.596244" lon="9.915360">
        <ele>679.049854</ele>
        <time>2025-11-12T01:30:13.886Z</time>
      </trkpt>
      <trkpt lat="48.596450" lon="9.915136">
        <ele>677.577340</ele>
        <time>2025-11-12T01:30:16.177Z</time>
      </trkpt>
      <trkpt lat="48.596761" lon="9.914912">
        <ele>675.578212</ele>
        <time>2025-11-12T01:30:19.294Z</time>
      </trkpt>
      <trkpt lat="48.596939" lon="9.914845">
        <ele>674.513700</ele>
        <time>2025-11-12T01:30:20.960Z</time>
      </trkpt>
      <trkpt lat="48.597125" lon="9.914823">
        <ele>673.430990</ele>
        <time>2025-11-12T01:30:22.666Z</time>
      </trkpt>
      <trkpt lat="48.597310" lon="9.914844">
        <ele>672.354360</ele>
        <time>2025-11-12T01:30:24.374Z</time>
      </trkpt>
      <trkpt lat="48.597527" lon="9.914914">
        <ele>671.066707</ele>
        <time>2025-11-12T01:30:26.448Z</time>
      </trkpt>
      <trkpt lat="48.598799" lon="9.915641">
        <ele>666.491634</ele>
        <time>2025-11-12T01:30:39.961Z</time>
      </trkpt>
      <trkpt lat="48.599081" lon="9.915795">
        <ele>665.635469</ele>
        <time>2025-11-12T01:30:43.271Z</time>
      </trkpt>
      <trkpt lat="48.599303" lon="9.915869">
        <ele>664.986322</ele>
        <time>2025-11-12T01:30:45.898Z</time>
      </trkpt>
      <trkpt lat="48.599570" lon="9.915921">
        <ele>664.562373</ele>
        <time>2025-11-12T01:30:49.157Z</time>
      </trkpt>
      <trkpt lat="48.599873" lon="9.915890">
        <ele>664.547913</ele>
        <time>2025-11-12T01:30:53.143Z</time>
      </trkpt>
      <trkpt lat="48.600046" lon="9.915841">
        <ele>664.539533</ele>
        <time>2025-11-12T01:30:55.656Z</time>
      </trkpt>
      <trkpt lat="48.600387" lon="9.915635">
        <ele>664.522049</ele>
        <time>2025-11-12T01:31:01.335Z</time>
      </trkpt>
      <trkpt lat="48.602890" lon="9.913675">
        <ele>665.381378</ele>
        <time>2025-11-12T01:31:48.311Z</time>
      </trkpt>
      <trkpt lat="48.603279" lon="9.913480">
        <ele>665.637972</ele>
        <time>2025-11-12T01:31:54.550Z</time>
      </trkpt>
      <trkpt lat="48.603791" lon="9.913312">
        <ele>665.966005</ele>
        <time>2025-11-12T01:32:03.420Z</time>
      </trkpt>
      <trkpt lat="48.603882" lon="9.913281">
        <ele>666.024410</ele>
        <time>2025-11-12T01:32:05.050Z</time>
      </trkpt>
      <trkpt lat="48.604731" lon="9.913031">
        <ele>667.079032</ele>
        <time>2025-11-12T01:32:20.805Z</time>
      </trkpt>
      <trkpt lat="48.606017" lon="9.912551">
        <ele>670.297980</ele>
        <time>2025-11-12T01:32:52.335Z</time>
      </trkpt>
      <trkpt lat="48.606829" lon="9.912215">
        <ele>673.905185</ele>
        <time>2025-11-12T01:33:21.643Z</time>
      </trkpt>
      <trkpt lat="48.607423" lon="9.912143">
        <ele>676.779965</ele>
        <time>2025-11-12T01:33:45.008Z</time>
      </trkpt>
      <trkpt lat="48.608127" lon="9.912076">
        <ele>679.808322</ele>
        <time>2025-11-12T01:34:08.768Z</time>
      </trkpt>
      <trkpt lat="48.609375" lon="9.911979">
        <ele>682.813619</ele>
        <time>2025-11-12T01:34:38.179Z</time>
      </trkpt>
      <trkpt lat="48.610507" lon="9.912091">
        <ele>684.532206</ele>
        <time>2025-11-12T01:35:01.067Z</time>
      </trkpt>
      <trkpt lat="48.610737" lon="9.912128">
        <ele>684.773007</ele>
        <time>2025-11-12T01:35:05.492Z</time>
      </trkpt>
      <trkpt lat="48.610835" lon="9.912144">
        <ele>684.875627</ele>
        <time>2025-11-12T01:35:07.319Z</time>
      </trkpt>
      <trkpt lat="48.611153" lon="9.912144">
        <ele>685.206693</ele>
        <time>2025-11-12T01:35:13.055Z</time>
      </trkpt>
      <trkpt lat="48.611449" lon="9.912061">
        <ele>685.520107</ele>
        <time>2025-11-12T01:35:18.762Z</time>
      </trkpt>
      <trkpt lat="48.611521" lon="9.912025">
        <ele>685.599055</ele>
        <time>2025-11-12T01:35:20.114Z</time>
      </trkpt>
      <trkpt lat="48.612086" lon="9.911719">
        <ele>685.124436</ele>
        <time>2025-11-12T01:35:29.522Z</time>
      </trkpt>
      <trkpt lat="48.612284" lon="9.911639">
        <ele>684.940065</ele>
        <time>2025-11-12T01:35:32.350Z</time>
      </trkpt>
      <trkpt lat="48.612428" lon="9.911622">
        <ele>684.810125</ele>
        <time>2025-11-12T01:35:34.251Z</time>
      </trkpt>
      <trkpt lat="48.612560" lon="9.911656">
        <ele>684.689666</ele>
        <time>2025-11-12T01:35:35.953Z</time>
      </trkpt>
      <trkpt lat="48.612693" lon="9.911691">
        <ele>684.568218</ele>
        <time>2025-11-12T01:35:37.603Z</time>
      </trkpt>
      <trkpt lat="48.612877" lon="9.911800">
        <ele>684.390445</ele>
        <time>2025-11-12T01:35:39.981Z</time>
      </trkpt>
      <trkpt lat="48.612920" lon="9.911836">
        <ele>684.346231</ele>
        <time>2025-11-12T01:35:40.549Z</time>
      </trkpt>
      <trkpt lat="48.613217" lon="9.912133">
        <ele>684.025928</ele>
        <time>2025-11-12T01:35:44.551Z</time>
      </trkpt>
      <trkpt lat="48.613443" lon="9.912459">
        <ele>682.742849</ele>
        <time>2025-11-12T01:35:47.651Z</time>
      </trkpt>
      <trkpt lat="48.613643" lon="9.912909">
        <ele>681.227733</ele>
        <time>2025-11-12T01:35:51.062Z</time>
      </trkpt>
      <trkpt lat="48.613729" lon="9.913307">
        <ele>680.057739</ele>
        <time>2025-11-12T01:35:53.686Z</time>
      </trkpt>
      <trkpt lat="48.613737" lon="9.913437">
        <ele>679.692920</ele>
        <time>2025-11-12T01:35:54.499Z</time>
      </trkpt>
      <trkpt lat="48.613769" lon="9.914060">
        <ele>677.946872</ele>
        <time>2025-11-12T01:35:58.393Z</time>
      </trkpt>
      <trkpt lat="48.613774" lon="9.914113">
        <ele>677.797278</ele>
        <time>2025-11-12T01:35:58.727Z</time>
      </trkpt>
      <trkpt lat="48.613798" lon="9.914348">
        <ele>677.132848</ele>
        <time>2025-11-12T01:36:00.208Z</time>
      </trkpt>
      <trkpt lat="48.613870" lon="9.914695">
        <ele>676.285893</ele>
        <time>2025-11-12T01:36:02.499Z</time>
      </trkpt>
      <trkpt lat="48.613939" lon="9.914979">
        <ele>675.921459</ele>
        <time>2025-11-12T01:36:04.408Z</time>
      </trkpt>
      <trkpt lat="48.614107" lon="9.915544">
        <ele>675.175281</ele>
        <time>2025-11-12T01:36:08.479Z</time>
      </trkpt>
      <trkpt lat="48.614187" lon="9.915700">
        <ele>674.937486</ele>
        <time>2025-11-12T01:36:09.901Z</time>
      </trkpt>
      <trkpt lat="48.614328" lon="9.915883">
        <ele>674.599006</ele>
        <time>2025-11-12T01:36:12.017Z</time>
      </trkpt>
      <trkpt lat="48.614464" lon="9.915974">
        <ele>674.328078</ele>
        <time>2025-11-12T01:36:13.752Z</time>
      </trkpt>
      <trkpt lat="48.614596" lon="9.916016">
        <ele>674.082334</ele>
        <time>2025-11-12T01:36:15.341Z</time>
      </trkpt>
      <trkpt lat="48.614742" lon="9.916005">
        <ele>673.816018</ele>
        <time>2025-11-12T01:36:17.194Z</time>
      </trkpt>
      <trkpt lat="48.614849" lon="9.915997">
        <ele>673.620845</ele>
        <time>2025-11-12T01:36:18.749Z</time>
      </trkpt>
      <trkpt lat="48.614942" lon="9.915946">
        <ele>673.440624</ele>
        <time>2025-11-12T01:36:20.300Z</time>
      </trkpt>
      <trkpt lat="48.615059" lon="9.915882">
        <ele>673.213961</ele>
        <time>2025-11-12T01:36:22.576Z</time>
      </trkpt>
      <trkpt lat="48.615386" lon="9.915553">
        <ele>674.318762</ele>
        <time>2025-11-12T01:36:31.259Z</time>
      </trkpt>
      <trkpt lat="48.615599" lon="9.915339">
        <ele>675.180254</ele>
        <time>2025-11-12T01:36:37.960Z</time>
      </trkpt>
      <trkpt lat="48.615902" lon="9.915075">
        <ele>676.358329</ele>
        <time>2025-11-12T01:36:48.430Z</time>
      </trkpt>
      <trkpt lat="48.616044" lon="9.914937">
        <ele>676.926970</ele>
        <time>2025-11-12T01:36:53.746Z</time>
      </trkpt>
      <trkpt lat="48.616299" lon="9.914654">
        <ele>677.992520</ele>
        <time>2025-11-12T01:37:04.142Z</time>
      </trkpt>
      <trkpt lat="48.616587" lon="9.914368">
        <ele>679.153232</ele>
        <time>2025-11-12T01:37:16.158Z</time>
      </trkpt>
      <trkpt lat="48.616741" lon="9.914291">
        <ele>679.675555</ele>
        <time>2025-11-12T01:37:21.932Z</time>
      </trkpt>
      <trkpt lat="48.616876" lon="9.914224">
        <ele>680.131257</ele>
        <time>2025-11-12T01:37:26.788Z</time>
      </trkpt>
      <trkpt lat="48.617037" lon="9.914167">
        <ele>680.661594</ele>
        <time>2025-11-12T01:37:32.320Z</time>
      </trkpt>
      <trkpt lat="48.617204" lon="9.914111">
        <ele>681.210225</ele>
        <time>2025-11-12T01:37:37.792Z</time>
      </trkpt>
      <trkpt lat="48.618192" lon="9.913927">
        <ele>684.403008</ele>
        <time>2025-11-12T01:38:04.739Z</time>
      </trkpt>
      <trkpt lat="48.619279" lon="9.913700">
        <ele>684.663351</ele>
        <time>2025-11-12T01:38:23.798Z</time>
      </trkpt>
      <trkpt lat="48.620231" lon="9.913418">
        <ele>684.255540</ele>
        <time>2025-11-12T01:38:34.768Z</time>
      </trkpt>
      <trkpt lat="48.621410" lon="9.913069">
        <ele>682.710051</ele>
        <time>2025-11-12T01:38:47.840Z</time>
      </trkpt>
      <trkpt lat="48.621746" lon="9.913031">
        <ele>682.276598</ele>
        <time>2025-11-12T01:38:52.336Z</time>
      </trkpt>
      <trkpt lat="48.621983" lon="9.913095">
        <ele>682.092071</ele>
        <time>2025-11-12T01:38:56.325Z</time>
      </trkpt>
      <trkpt lat="48.622215" lon="9.913212">
        <ele>682.193310</ele>
        <time>2025-11-12T01:39:01.000Z</time>
      </trkpt>
      <trkpt lat="48.622529" lon="9.913434">
        <ele>682.336794</ele>
        <time>2025-11-12T01:39:08.366Z</time>
      </trkpt>
      <trkpt lat="48.622871" lon="9.913621">
        <ele>682.487338</ele>
        <time>2025-11-12T01:39:15.966Z</time>
      </trkpt>
      <trkpt lat="48.623128" lon="9.913695">
        <ele>682.595640</ele>
        <time>2025-11-12T01:39:21.068Z</time>
      </trkpt>
      <trkpt lat="48.623444" lon="9.913711">
        <ele>682.726530</ele>
        <time>2025-11-12T01:39:26.586Z</time>
      </trkpt>
      <trkpt lat="48.624934" lon="9.913374">
        <ele>680.290619</ele>
        <time>2025-11-12T01:39:43.074Z</time>
      </trkpt>
      <trkpt lat="48.625386" lon="9.913211">
        <ele>679.401135</ele>
        <time>2025-11-12T01:39:47.858Z</time>
      </trkpt>
      <trkpt lat="48.625761" lon="9.913062">
        <ele>679.028625</ele>
        <time>2025-11-12T01:39:51.996Z</time>
      </trkpt>
      <trkpt lat="48.627063" lon="9.912412">
        <ele>677.781898</ele>
        <time>2025-11-12T01:40:10.142Z</time>
      </trkpt>
      <trkpt lat="48.627613" lon="9.912179">
        <ele>677.358487</ele>
        <time>2025-11-12T01:40:19.151Z</time>
      </trkpt>
      <trkpt lat="48.628027" lon="9.912053">
        <ele>677.053715</ele>
        <time>2025-11-12T01:40:24.963Z</time>
      </trkpt>
      <trkpt lat="48.628608" lon="9.911936">
        <ele>676.630705</ele>
        <time>2025-11-12T01:40:32.195Z</time>
      </trkpt>
      <trkpt lat="48.629856" lon="9.911876">
        <ele>674.785539</ele>
        <time>2025-11-12T01:40:46.161Z</time>
      </trkpt>
      <trkpt lat="48.632013" lon="9.911692">
        <ele>671.507592</ele>
        <time>2025-11-12T01:41:10.472Z</time>
      </trkpt>
      <trkpt lat="48.632524" lon="9.911627">
        <ele>670.847144</ele>
        <time>2025-11-12T01:41:16.939Z</time>
      </trkpt>
      <trkpt lat="48.633058" lon="9.911513">
        <ele>670.805582</ele>
        <time>2025-11-12T01:41:24.194Z</time>
      </trkpt>
      <trkpt lat="48.633505" lon="9.911333">
        <ele>670.769934</ele>
        <time>2025-11-12T01:41:31.189Z</time>
      </trkpt>
      <trkpt lat="48.633681" lon="9.911263">
        <ele>670.755909</ele>
        <time>2025-11-12T01:41:34.116Z</time>
      </trkpt>
      <trkpt lat="48.634029" lon="9.911126">
        <ele>670.728197</ele>
        <time>2025-11-12T01:41:40.093Z</time>
      </trkpt>
      <trkpt lat="48.634963" lon="9.910821">
        <ele>670.298751</ele>
        <time>2025-11-12T01:41:55.105Z</time>
      </trkpt>
      <trkpt lat="48.635099" lon="9.910810">
        <ele>670.223299</ele>
        <time>2025-11-12T01:41:57.073Z</time>
      </trkpt>
      <trkpt lat="48.635742" lon="9.910713">
        <ele>669.865314</ele>
        <time>2025-11-12T01:42:05.013Z</time>
      </trkpt>
      <trkpt lat="48.636040" lon="9.910661">
        <ele>669.645281</ele>
        <time>2025-11-12T01:42:08.379Z</time>
      </trkpt>
      <trkpt lat="48.636104" lon="9.910651">
        <ele>669.493188</ele>
        <time>2025-11-12T01:42:09.105Z</time>
      </trkpt>
      <trkpt lat="48.636670" lon="9.910640">
        <ele>668.155119</ele>
        <time>2025-11-12T01:42:15.491Z</time>
      </trkpt>
      <trkpt lat="48.636916" lon="9.910679">
        <ele>667.570422</ele>
        <time>2025-11-12T01:42:18.143Z</time>
      </trkpt>
      <trkpt lat="48.636861" lon="9.911427">
        <ele>666.394743</ele>
        <time>2025-11-12T01:42:25.563Z</time>
      </trkpt>
      <trkpt lat="48.636786" lon="9.913432">
        <ele>662.941400</ele>
        <time>2025-11-12T01:42:45.034Z</time>
      </trkpt>
      <trkpt lat="48.636783" lon="9.913827">
        <ele>662.235857</ele>
        <time>2025-11-12T01:42:48.821Z</time>
      </trkpt>
      <trkpt lat="48.636821" lon="9.916893">
        <ele>658.189908</ele>
        <time>2025-11-12T01:43:20.672Z</time>
      </trkpt>
      <trkpt lat="48.636858" lon="9.918688">
        <ele>657.484171</ele>
        <time>2025-11-12T01:43:35.999Z</time>
      </trkpt>
      <trkpt lat="48.636900" lon="9.920720">
        <ele>657.714830</ele>
        <time>2025-11-12T01:43:58.390Z</time>
      </trkpt>
      <trkpt lat="48.636896" lon="9.921072">
        <ele>657.919513</ele>
        <time>2025-11-12T01:44:03.041Z</time>
      </trkpt>
      <trkpt lat="48.636547" lon="9.925214">
        <ele>658.852212</ele>
        <time>2025-11-12T01:44:54.752Z</time>
      </trkpt>
      <trkpt lat="48.636791" lon="9.925433">
        <ele>658.672652</ele>
        <time>2025-11-12T01:44:57.687Z</time>
      </trkpt>
      <trkpt lat="48.639074" lon="9.927487">
        <ele>648.729727</ele>
        <time>2025-11-12T01:45:22.502Z</time>
      </trkpt>
      <trkpt lat="48.639215" lon="9.927620">
        <ele>648.431412</ele>
        <time>2025-11-12T01:45:24.308Z</time>
      </trkpt>
      <trkpt lat="48.640293" lon="9.928781">
        <ele>649.173951</ele>
        <time>2025-11-12T01:45:55.927Z</time>
      </trkpt>
      <trkpt lat="48.640477" lon="9.928895">
        <ele>649.883218</ele>
        <time>2025-11-12T01:46:03.270Z</time>
      </trkpt>
      <trkpt lat="48.641012" lon="9.929092">
        <ele>651.847423</ele>
        <time>2025-11-12T01:46:22.752Z</time>
      </trkpt>
      <trkpt lat="48.641164" lon="9.929194">
        <ele>652.440573</ele>
        <time>2025-11-12T01:46:28.378Z</time>
      </trkpt>
      <trkpt lat="48.641338" lon="9.929388">
        <ele>653.211551</ele>
        <time>2025-11-12T01:46:35.573Z</time>
      </trkpt>
      <trkpt lat="48.642676" lon="9.931092">
        <ele>655.572270</ele>
        <time>2025-11-12T01:47:12.107Z</time>
      </trkpt>
      <trkpt lat="48.642271" lon="9.934824">
        <ele>651.154908</ele>
        <time>2025-11-12T01:47:39.345Z</time>
      </trkpt>
      <trkpt lat="48.642090" lon="9.936438">
        <ele>648.486983</ele>
        <time>2025-11-12T01:47:50.433Z</time>
      </trkpt>
      <trkpt lat="48.641601" lon="9.940967">
        <ele>643.191578</ele>
        <time>2025-11-12T01:48:24.402Z</time>
      </trkpt>
      <trkpt lat="48.641560" lon="9.941341">
        <ele>642.836151</ele>
        <time>2025-11-12T01:48:27.278Z</time>
      </trkpt>
      <trkpt lat="48.641551" lon="9.941781">
        <ele>642.423441</ele>
        <time>2025-11-12T01:48:30.734Z</time>
      </trkpt>
      <trkpt lat="48.641526" lon="9.942555">
        <ele>642.463214</ele>
        <time>2025-11-12T01:48:37.342Z</time>
      </trkpt>
      <trkpt lat="48.641549" lon="9.943441">
        <ele>642.966022</ele>
        <time>2025-11-12T01:48:47.803Z</time>
      </trkpt>
      <trkpt lat="48.641565" lon="9.944050">
        <ele>643.311637</ele>
        <time>2025-11-12T01:48:56.367Z</time>
      </trkpt>
      <trkpt lat="48.641596" lon="9.944788">
        <ele>643.740970</ele>
        <time>2025-11-12T01:49:07.331Z</time>
      </trkpt>
      <trkpt lat="48.641635" lon="9.945187">
        <ele>644.145699</ele>
        <time>2025-11-12T01:49:13.380Z</time>
      </trkpt>
      <trkpt lat="48.641828" lon="9.946136">
        <ele>645.142045</ele>
        <time>2025-11-12T01:49:27.814Z</time>
      </trkpt>
      <trkpt lat="48.641884" lon="9.946342">
        <ele>645.365563</ele>
        <time>2025-11-12T01:49:30.714Z</time>
      </trkpt>
      <trkpt lat="48.642728" lon="9.948681">
        <ele>648.297591</ele>
        <time>2025-11-12T01:50:04.970Z</time>
      </trkpt>
      <trkpt lat="48.642795" lon="9.949078">
        <ele>648.775398</ele>
        <time>2025-11-12T01:50:11.178Z</time>
      </trkpt>
      <trkpt lat="48.642797" lon="9.949322">
        <ele>649.059950</ele>
        <time>2025-11-12T01:50:15.098Z</time>
      </trkpt>
      <trkpt lat="48.642752" lon="9.949769">
        <ele>649.587215</ele>
        <time>2025-11-12T01:50:22.782Z</time>
      </trkpt>
      <trkpt lat="48.642649" lon="9.950529">
        <ele>651.362444</ele>
        <time>2025-11-12T01:50:36.591Z</time>
      </trkpt>
      <trkpt lat="48.642527" lon="9.951320">
        <ele>653.259351</ele>
        <time>2025-11-12T01:50:51.794Z</time>
      </trkpt>
      <trkpt lat="48.642365" lon="9.951847">
        <ele>654.616744</ele>
        <time>2025-11-12T01:51:03.508Z</time>
      </trkpt>
      <trkpt lat="48.642253" lon="9.952226">
        <ele>655.586326</ele>
        <time>2025-11-12T01:51:11.905Z</time>
      </trkpt>
      <trkpt lat="48.641786" lon="9.954396">
        <ele>661.948312</ele>
        <time>2025-11-12T01:52:09.305Z</time>
      </trkpt>
      <trkpt lat="48.641544" lon="9.955362">
        <ele>664.073826</ele>
        <time>2025-11-12T01:52:34.487Z</time>
      </trkpt>
      <trkpt lat="48.641531" lon="9.955490">
        <ele>664.197882</ele>
        <time>2025-11-12T01:52:37.533Z</time>
      </trkpt>
      <trkpt lat="48.641467" lon="9.955586">
        <ele>664.328518</ele>
        <time>2025-11-12T01:52:40.213Z</time>
      </trkpt>
      <trkpt lat="48.641249" lon="9.956168">
        <ele>664.969389</ele>
        <time>2025-11-12T01:52:52.322Z</time>
      </trkpt>
      <trkpt lat="48.641134" lon="9.956550">
        <ele>665.371514</ele>
        <time>2025-11-12T01:52:57.969Z</time>
      </trkpt>
      <trkpt lat="48.641072" lon="9.956899">
        <ele>665.717711</ele>
        <time>2025-11-12T01:53:01.549Z</time>
      </trkpt>
      <trkpt lat="48.641022" lon="9.957380">
        <ele>666.184151</ele>
        <time>2025-11-12T01:53:05.315Z</time>
      </trkpt>
      <trkpt lat="48.640210" lon="9.957046">
        <ele>664.630560</ele>
        <time>2025-11-12T01:53:17.706Z</time>
      </trkpt>
      <trkpt lat="48.640014" lon="9.956962">
        <ele>664.200492</ele>
        <time>2025-11-12T01:53:20.614Z</time>
      </trkpt>
      <trkpt lat="48.639769" lon="9.956876">
        <ele>663.669517</ele>
        <time>2025-11-12T01:53:24.187Z</time>
      </trkpt>
      <trkpt lat="48.639686" lon="9.956844">
        <ele>663.488690</ele>
        <time>2025-11-12T01:53:25.445Z</time>
      </trkpt>
      <trkpt lat="48.639342" lon="9.956712">
        <ele>662.739455</ele>
        <time>2025-11-12T01:53:30.871Z</time>
      </trkpt>
      <trkpt lat="48.638331" lon="9.956421">
        <ele>663.947033</ele>
        <time>2025-11-12T01:53:57.860Z</time>
      </trkpt>
      <trkpt lat="48.637203" lon="9.955893">
        <ele>664.757891</ele>
        <time>2025-11-12T01:54:36.215Z</time>
      </trkpt>
      <trkpt lat="48.636305" lon="9.955437">
        <ele>662.647579</ele>
        <time>2025-11-12T01:54:51.609Z</time>
      </trkpt>
      <trkpt lat="48.635043" lon="9.954892">
        <ele>655.894052</ele>
        <time>2025-11-12T01:55:08.633Z</time>
      </trkpt>
      <trkpt lat="48.634736" lon="9.954803">
        <ele>653.597562</ele>
        <time>2025-11-12T01:55:12.594Z</time>
      </trkpt>
      <trkpt lat="48.633631" lon="9.954652">
        <ele>644.683779</ele>
        <time>2025-11-12T01:55:26.471Z</time>
      </trkpt>
      <trkpt lat="48.632371" lon="9.954258">
        <ele>632.590870</ele>
        <time>2025-11-12T01:55:42.245Z</time>
      </trkpt>
      <trkpt lat="48.631934" lon="9.954292">
        <ele>628.332248</ele>
        <time>2025-11-12T01:55:47.564Z</time>
      </trkpt>
      <trkpt lat="48.631640" lon="9.954405">
        <ele>625.332299</ele>
        <time>2025-11-12T01:55:51.238Z</time>
      </trkpt>
      <trkpt lat="48.631048" lon="9.954656">
        <ele>619.252010</ele>
        <time>2025-11-12T01:55:58.694Z</time>
      </trkpt>
      <trkpt lat="48.630493" lon="9.954700">
        <ele>613.755628</ele>
        <time>2025-11-12T01:56:05.490Z</time>
      </trkpt>
      <trkpt lat="48.629941" lon="9.954628">
        <ele>610.268279</ele>
        <time>2025-11-12T01:56:12.435Z</time>
      </trkpt>
      <trkpt lat="48.629187" lon="9.954422">
        <ele>605.590097</ele>
        <time>2025-11-12T01:56:22.501Z</time>
      </trkpt>
      <trkpt lat="48.627617" lon="9.953752">
        <ele>599.263705</ele>
        <time>2025-11-12T01:56:45.858Z</time>
      </trkpt>
      <trkpt lat="48.627424" lon="9.953736">
        <ele>598.707700</ele>
        <time>2025-11-12T01:56:48.821Z</time>
      </trkpt>
      <trkpt lat="48.627199" lon="9.953780">
        <ele>598.055094</ele>
        <time>2025-11-12T01:56:52.378Z</time>
      </trkpt>
      <trkpt lat="48.625899" lon="9.954189">
        <ele>596.941518</ele>
        <time>2025-11-12T01:57:15.487Z</time>
      </trkpt>
      <trkpt lat="48.625527" lon="9.954325">
        <ele>596.804355</ele>
        <time>2025-11-12T01:57:23.168Z</time>
      </trkpt>
      <trkpt lat="48.625309" lon="9.954405">
        <ele>596.723958</ele>
        <time>2025-11-12T01:57:28.165Z</time>
      </trkpt>
      <trkpt lat="48.624925" lon="9.954585">
        <ele>597.403344</ele>
        <time>2025-11-12T01:57:38.368Z</time>
      </trkpt>
      <trkpt lat="48.624552" lon="9.954810">
        <ele>598.419798</ele>
        <time>2025-11-12T01:57:49.944Z</time>
      </trkpt>
      <trkpt lat="48.624255" lon="9.954890">
        <ele>599.183412</ele>
        <time>2025-11-12T01:57:59.311Z</time>
      </trkpt>
      <trkpt lat="48.623521" lon="9.954892">
        <ele>601.041379</ele>
        <time>2025-11-12T01:58:23.864Z</time>
      </trkpt>
      <trkpt lat="48.622659" lon="9.954812">
        <ele>604.156590</ele>
        <time>2025-11-12T01:58:53.767Z</time>
      </trkpt>
      <trkpt lat="48.622345" lon="9.954852">
        <ele>605.326169</ele>
        <time>2025-11-12T01:59:04.618Z</time>
      </trkpt>
      <trkpt lat="48.621809" lon="9.954981">
        <ele>607.340625</ele>
        <time>2025-11-12T01:59:23.612Z</time>
      </trkpt>
      <trkpt lat="48.620751" lon="9.955255">
        <ele>611.174326</ele>
        <time>2025-11-12T02:00:04.483Z</time>
      </trkpt>
      <trkpt lat="48.620617" lon="9.955234">
        <ele>611.652328</ele>
        <time>2025-11-12T02:00:09.689Z</time>
      </trkpt>
      <trkpt lat="48.620526" lon="9.955182">
        <ele>611.997480</ele>
        <time>2025-11-12T02:00:13.424Z</time>
      </trkpt>
      <trkpt lat="48.620248" lon="9.954931">
        <ele>613.146206</ele>
        <time>2025-11-12T02:00:25.050Z</time>
      </trkpt>
      <trkpt lat="48.619751" lon="9.954396">
        <ele>613.316539</ele>
        <time>2025-11-12T02:00:41.967Z</time>
      </trkpt>
      <trkpt lat="48.619552" lon="9.954255">
        <ele>612.568745</ele>
        <time>2025-11-12T02:00:46.066Z</time>
      </trkpt>
      <trkpt lat="48.619189" lon="9.954160">
        <ele>611.315116</ele>
        <time>2025-11-12T02:00:51.649Z</time>
      </trkpt>
      <trkpt lat="48.618557" lon="9.953936">
        <ele>609.106193</ele>
        <time>2025-11-12T02:01:00.261Z</time>
      </trkpt>
      <trkpt lat="48.617896" lon="9.953586">
        <ele>606.228616</ele>
        <time>2025-11-12T02:01:09.002Z</time>
      </trkpt>
      <trkpt lat="48.617327" lon="9.953140">
        <ele>603.303723</ele>
        <time>2025-11-12T02:01:17.228Z</time>
      </trkpt>
      <trkpt lat="48.617148" lon="9.952930">
        <ele>602.269843</ele>
        <time>2025-11-12T02:01:20.321Z</time>
      </trkpt>
      <trkpt lat="48.617004" lon="9.952673">
        <ele>601.253359</ele>
        <time>2025-11-12T02:01:23.595Z</time>
      </trkpt>
      <trkpt lat="48.616951" lon="9.952555">
        <ele>600.822923</ele>
        <time>2025-11-12T02:01:25.146Z</time>
      </trkpt>
      <trkpt lat="48.616562" lon="9.951671">
        <ele>603.875946</ele>
        <time>2025-11-12T02:01:46.233Z</time>
      </trkpt>
      <trkpt lat="48.616434" lon="9.951474">
        <ele>605.267231</ele>
        <time>2025-11-12T02:01:55.094Z</time>
      </trkpt>
      <trkpt lat="48.616312" lon="9.951431">
        <ele>606.221650</ele>
        <time>2025-11-12T02:02:01.827Z</time>
      </trkpt>
      <trkpt lat="48.616154" lon="9.951427">
        <ele>607.425622</ele>
        <time>2025-11-12T02:02:11.070Z</time>
      </trkpt>
      <trkpt lat="48.615224" lon="9.951522">
        <ele>614.795947</ele>
        <time>2025-11-12T02:03:14.114Z</time>
      </trkpt>
      <trkpt lat="48.614882" lon="9.951455">
        <ele>618.243103</ele>
        <time>2025-11-12T02:03:38.406Z</time>
      </trkpt>
      <trkpt lat="48.613779" lon="9.950132">
        <ele>632.010804</ele>
        <time>2025-11-12T02:05:01.960Z</time>
      </trkpt>
      <trkpt lat="48.613369" lon="9.949703">
        <ele>634.730996</ele>
        <time>2025-11-12T02:05:24.879Z</time>
      </trkpt>
      <trkpt lat="48.612138" lon="9.948734">
        <ele>642.075467</ele>
        <time>2025-11-12T02:06:09.423Z</time>
      </trkpt>
      <trkpt lat="48.611552" lon="9.948411">
        <ele>644.560722</ele>
        <time>2025-11-12T02:06:28.431Z</time>
      </trkpt>
      <trkpt lat="48.611363" lon="9.948248">
        <ele>645.427660</ele>
        <time>2025-11-12T02:06:35.221Z</time>
      </trkpt>
      <trkpt lat="48.611161" lon="9.947935">
        <ele>646.579989</ele>
        <time>2025-11-12T02:06:44.214Z</time>
      </trkpt>
      <trkpt lat="48.610908" lon="9.947384">
        <ele>648.347354</ele>
        <time>2025-11-12T02:06:57.801Z</time>
      </trkpt>
      <trkpt lat="48.610692" lon="9.946990">
        <ele>649.559294</ele>
        <time>2025-11-12T02:07:07.984Z</time>
      </trkpt>
      <trkpt lat="48.610486" lon="9.946670">
        <ele>650.585716</ele>
        <time>2025-11-12T02:07:16.556Z</time>
      </trkpt>
      <trkpt lat="48.609637" lon="9.945505">
        <ele>654.570324</ele>
        <time>2025-11-12T02:07:47.974Z</time>
      </trkpt>
      <trkpt lat="48.608710" lon="9.944324">
        <ele>659.146928</ele>
        <time>2025-11-12T02:08:24.715Z</time>
      </trkpt>
      <trkpt lat="48.608366" lon="9.943947">
        <ele>660.761073</ele>
        <time>2025-11-12T02:08:38.272Z</time>
      </trkpt>
      <trkpt lat="48.607969" lon="9.943599">
        <ele>662.302006</ele>
        <time>2025-11-12T02:08:52.176Z</time>
      </trkpt>
      <trkpt lat="48.607631" lon="9.943380">
        <ele>663.341719</ele>
        <time>2025-11-12T02:09:02.735Z</time>
      </trkpt>
      <trkpt lat="48.606334" lon="9.942879">
        <ele>667.148328</ele>
        <time>2025-11-12T02:09:34.808Z</time>
      </trkpt>
      <trkpt lat="48.605371" lon="9.942494">
        <ele>670.150041</ele>
        <time>2025-11-12T02:10:05.698Z</time>
      </trkpt>
      <trkpt lat="48.604928" lon="9.942337">
        <ele>671.521200</ele>
        <time>2025-11-12T02:10:21.650Z</time>
      </trkpt>
      <trkpt lat="48.604455" lon="9.942287">
        <ele>672.752961</ele>
        <time>2025-11-12T02:10:38.285Z</time>
      </trkpt>
      <trkpt lat="48.604343" lon="9.942239">
        <ele>673.009213</ele>
        <time>2025-11-12T02:10:42.424Z</time>
      </trkpt>
      <trkpt lat="48.604266" lon="9.942168">
        <ele>673.207734</ele>
        <time>2025-11-12T02:10:45.592Z</time>
      </trkpt>
      <trkpt lat="48.604114" lon="9.941693">
        <ele>673.975853</ele>
        <time>2025-11-12T02:10:57.142Z</time>
      </trkpt>
      <trkpt lat="48.603942" lon="9.941522">
        <ele>674.428963</ele>
        <time>2025-11-12T02:11:03.090Z</time>
      </trkpt>
      <trkpt lat="48.603915" lon="9.941548">
        <ele>674.499424</ele>
        <time>2025-11-12T02:11:03.844Z</time>
      </trkpt>
      <trkpt lat="48.603792" lon="9.941722">
        <ele>674.870178</ele>
        <time>2025-11-12T02:11:07.631Z</time>
      </trkpt>
      <trkpt lat="48.603510" lon="9.942193">
        <ele>675.795051</ele>
        <time>2025-11-12T02:11:16.125Z</time>
      </trkpt>
      <trkpt lat="48.603402" lon="9.942427">
        <ele>676.173561</ele>
        <time>2025-11-12T02:11:19.185Z</time>
      </trkpt>
      <trkpt lat="48.603347" lon="9.942656">
        <ele>676.124091</ele>
        <time>2025-11-12T02:11:21.431Z</time>
      </trkpt>
      <trkpt lat="48.603225" lon="9.943420">
        <ele>675.964502</ele>
        <time>2025-11-12T02:11:28.550Z</time>
      </trkpt>
      <trkpt lat="48.603032" lon="9.944228">
        <ele>675.790063</ele>
        <time>2025-11-12T02:11:36.103Z</time>
      </trkpt>
      <trkpt lat="48.602994" lon="9.944483">
        <ele>675.736987</ele>
        <time>2025-11-12T02:11:38.319Z</time>
      </trkpt>
      <trkpt lat="48.602983" lon="9.944782">
        <ele>675.676181</ele>
        <time>2025-11-12T02:11:40.841Z</time>
      </trkpt>
      <trkpt lat="48.603035" lon="9.945113">
        <ele>675.592194</ele>
        <time>2025-11-12T02:11:43.706Z</time>
      </trkpt>
      <trkpt lat="48.603535" lon="9.946907">
        <ele>674.881484</ele>
        <time>2025-11-12T02:12:00.323Z</time>
      </trkpt>
      <trkpt lat="48.603671" lon="9.947526">
        <ele>674.643367</ele>
        <time>2025-11-12T02:12:06.031Z</time>
      </trkpt>
      <trkpt lat="48.603752" lon="9.948063">
        <ele>674.812183</ele>
        <time>2025-11-12T02:12:11.249Z</time>
      </trkpt>
      <trkpt lat="48.603780" lon="9.948370">
        <ele>674.918683</ele>
        <time>2025-11-12T02:12:14.425Z</time>
      </trkpt>
      <trkpt lat="48.603794" lon="9.949148">
        <ele>675.186143</ele>
        <time>2025-11-12T02:12:23.166Z</time>
      </trkpt>
      <trkpt lat="48.603653" lon="9.952191">
        <ele>676.117436</ele>
        <time>2025-11-12T02:13:01.465Z</time>
      </trkpt>
      <trkpt lat="48.603636" lon="9.952457">
        <ele>676.193160</ele>
        <time>2025-11-12T02:13:04.109Z</time>
      </trkpt>
      <trkpt lat="48.603552" lon="9.953205">
        <ele>675.849390</ele>
        <time>2025-11-12T02:13:10.524Z</time>
      </trkpt>
      <trkpt lat="48.603407" lon="9.953943">
        <ele>674.322392</ele>
        <time>2025-11-12T02:13:16.226Z</time>
      </trkpt>
      <trkpt lat="48.602771" lon="9.956318">
        <ele>667.654807</ele>
        <time>2025-11-12T02:13:32.712Z</time>
      </trkpt>
      <trkpt lat="48.602646" lon="9.956859">
        <ele>665.460186</ele>
        <time>2025-11-12T02:13:36.155Z</time>
      </trkpt>
      <trkpt lat="48.602570" lon="9.957351">
        <ele>663.525313</ele>
        <time>2025-11-12T02:13:39.152Z</time>
      </trkpt>
      <trkpt lat="48.602417" lon="9.959219">
        <ele>657.475221</ele>
        <time>2025-11-12T02:13:50.415Z</time>
      </trkpt>
      <trkpt lat="48.602400" lon="9.959392">
        <ele>656.989689</ele>
        <time>2025-11-12T02:13:51.517Z</time>
      </trkpt>
      <trkpt lat="48.601971" lon="9.962386">
        <ele>651.225809</ele>
        <time>2025-11-12T02:14:13.348Z</time>
      </trkpt>
      <trkpt lat="48.601567" lon="9.967495">
        <ele>647.579355</ele>
        <time>2025-11-12T02:14:56.156Z</time>
      </trkpt>
      <trkpt lat="48.601547" lon="9.968623">
        <ele>646.713908</ele>
        <time>2025-11-12T02:15:04.952Z</time>
      </trkpt>
      <trkpt lat="48.601551" lon="9.968765">
        <ele>646.604900</ele>
        <time>2025-11-12T02:15:06.030Z</time>
      </trkpt>
      <trkpt lat="48.601588" lon="9.970486">
        <ele>644.968792</ele>
        <time>2025-11-12T02:15:18.716Z</time>
      </trkpt>
      <trkpt lat="48.601657" lon="9.971183">
        <ele>644.288953</ele>
        <time>2025-11-12T02:15:24.080Z</time>
      </trkpt>
      <trkpt lat="48.601847" lon="9.972173">
        <ele>643.847996</ele>
        <time>2025-11-12T02:15:32.656Z</time>
      </trkpt>
      <trkpt lat="48.602008" lon="9.972843">
        <ele>643.805343</ele>
        <time>2025-11-12T02:15:39.461Z</time>
      </trkpt>
      <trkpt lat="48.602117" lon="9.973320">
        <ele>643.775146</ele>
        <time>2025-11-12T02:15:44.796Z</time>
      </trkpt>
      <trkpt lat="48.602203" lon="9.973921">
        <ele>643.738354</ele>
        <time>2025-11-12T02:15:51.535Z</time>
      </trkpt>
      <trkpt lat="48.602237" lon="9.974431">
        <ele>643.769038</ele>
        <time>2025-11-12T02:15:57.324Z</time>
      </trkpt>
      <trkpt lat="48.602241" lon="9.974481">
        <ele>643.779075</ele>
        <time>2025-11-12T02:15:57.890Z</time>
      </trkpt>
      <trkpt lat="48.602343" lon="9.977075">
        <ele>644.150992</ele>
        <time>2025-11-12T02:16:25.798Z</time>
      </trkpt>
      <trkpt lat="48.602313" lon="9.978169">
        <ele>643.405434</ele>
        <time>2025-11-12T02:16:35.124Z</time>
      </trkpt>
      <trkpt lat="48.602311" lon="9.978354">
        <ele>643.279449</ele>
        <time>2025-11-12T02:16:36.603Z</time>
      </trkpt>
      <trkpt lat="48.602460" lon="9.979766">
        <ele>642.077308</ele>
        <time>2025-11-12T02:16:47.466Z</time>
      </trkpt>
      <trkpt lat="48.602465" lon="9.980255">
        <ele>641.026418</ele>
        <time>2025-11-12T02:16:50.998Z</time>
      </trkpt>
      <trkpt lat="48.602354" lon="9.980659">
        <ele>640.086351</ele>
        <time>2025-11-12T02:16:54.079Z</time>
      </trkpt>
      <trkpt lat="48.602138" lon="9.981001">
        <ele>639.070128</ele>
        <time>2025-11-12T02:16:57.285Z</time>
      </trkpt>
      <trkpt lat="48.602009" lon="9.981099">
        <ele>638.601025</ele>
        <time>2025-11-12T02:16:58.723Z</time>
      </trkpt>
      <trkpt lat="48.601521" lon="9.981259">
        <ele>636.978444</ele>
        <time>2025-11-12T02:17:03.570Z</time>
      </trkpt>
      <trkpt lat="48.600341" lon="9.981565">
        <ele>630.486671</ele>
        <time>2025-11-12T02:17:14.685Z</time>
      </trkpt>
      <trkpt lat="48.599480" lon="9.981754">
        <ele>625.745688</ele>
        <time>2025-11-12T02:17:22.627Z</time>
      </trkpt>
      <trkpt lat="48.599101" lon="9.981754">
        <ele>624.126980</ele>
        <time>2025-11-12T02:17:26.062Z</time>
      </trkpt>
      <trkpt lat="48.598184" lon="9.981585">
        <ele>620.181493</ele>
        <time>2025-11-12T02:17:34.614Z</time>
      </trkpt>
      <trkpt lat="48.597741" lon="9.981620">
        <ele>619.278709</ele>
        <time>2025-11-12T02:17:40.203Z</time>
      </trkpt>
      <trkpt lat="48.597438" lon="9.981797">
        <ele>621.478953</ele>
        <time>2025-11-12T02:17:47.982Z</time>
      </trkpt>
      <trkpt lat="48.597308" lon="9.981873">
        <ele>622.423048</ele>
        <time>2025-11-12T02:17:52.417Z</time>
      </trkpt>
      <trkpt lat="48.597118" lon="9.981983">
        <ele>623.801148</ele>
        <time>2025-11-12T02:18:00.234Z</time>
      </trkpt>
      <trkpt lat="48.596734" lon="9.982123">
        <ele>626.476761</ele>
        <time>2025-11-12T02:18:19.234Z</time>
      </trkpt>
      <trkpt lat="48.596411" lon="9.982063">
        <ele>628.681089</ele>
        <time>2025-11-12T02:18:38.622Z</time>
      </trkpt>
      <trkpt lat="48.596176" lon="9.981844">
        <ele>630.550940</ele>
        <time>2025-11-12T02:18:56.881Z</time>
      </trkpt>
      <trkpt lat="48.595927" lon="9.981127">
        <ele>635.447761</ele>
        <time>2025-11-12T02:19:30.396Z</time>
      </trkpt>
      <trkpt lat="48.595662" lon="9.980809">
        <ele>638.613875</ele>
        <time>2025-11-12T02:19:49.575Z</time>
      </trkpt>
      <trkpt lat="48.595539" lon="9.980750">
        <ele>639.821503</ele>
        <time>2025-11-12T02:19:56.549Z</time>
      </trkpt>
      <trkpt lat="48.595409" lon="9.980734">
        <ele>641.042128</ele>
        <time>2025-11-12T02:20:03.383Z</time>
      </trkpt>
      <trkpt lat="48.595304" lon="9.980763">
        <ele>642.041026</ele>
        <time>2025-11-12T02:20:08.741Z</time>
      </trkpt>
      <trkpt lat="48.595152" lon="9.980904">
        <ele>643.709888</ele>
        <time>2025-11-12T02:20:17.284Z</time>
      </trkpt>
      <trkpt lat="48.595059" lon="9.981075">
        <ele>645.080178</ele>
        <time>2025-11-12T02:20:23.939Z</time>
      </trkpt>
      <trkpt lat="48.595008" lon="9.981269">
        <ele>646.372315</ele>
        <time>2025-11-12T02:20:29.913Z</time>
      </trkpt>
      <trkpt lat="48.594892" lon="9.982057">
        <ele>649.644716</ele>
        <time>2025-11-12T02:20:50.653Z</time>
      </trkpt>
      <trkpt lat="48.594775" lon="9.982463">
        <ele>651.102422</ele>
        <time>2025-11-12T02:21:00.783Z</time>
      </trkpt>
      <trkpt lat="48.594645" lon="9.982729">
        <ele>652.191075</ele>
        <time>2025-11-12T02:21:08.211Z</time>
      </trkpt>
      <trkpt lat="48.594499" lon="9.982929">
        <ele>653.171549</ele>
        <time>2025-11-12T02:21:15.058Z</time>
      </trkpt>
      <trkpt lat="48.594245" lon="9.983149">
        <ele>654.628368</ele>
        <time>2025-11-12T02:21:25.534Z</time>
      </trkpt>
      <trkpt lat="48.593230" lon="9.983729">
        <ele>655.864913</ele>
        <time>2025-11-12T02:21:56.747Z</time>
      </trkpt>
      <trkpt lat="48.592597" lon="9.984051">
        <ele>655.107392</ele>
        <time>2025-11-12T02:22:04.429Z</time>
      </trkpt>
      <trkpt lat="48.591232" lon="9.984746">
        <ele>647.231150</ele>
        <time>2025-11-12T02:22:17.294Z</time>
      </trkpt>
      <trkpt lat="48.589838" lon="9.985259">
        <ele>638.161004</ele>
        <time>2025-11-12T02:22:29.954Z</time>
      </trkpt>
      <trkpt lat="48.589623" lon="9.985377">
        <ele>637.042790</ele>
        <time>2025-11-12T02:22:32.081Z</time>
      </trkpt>
      <trkpt lat="48.589389" lon="9.985542">
        <ele>635.780495</ele>
        <time>2025-11-12T02:22:34.540Z</time>
      </trkpt>
      <trkpt lat="48.589127" lon="9.985790">
        <ele>634.269278</ele>
        <time>2025-11-12T02:22:37.628Z</time>
      </trkpt>
      <trkpt lat="48.588533" lon="9.986534">
        <ele>632.614061</ele>
        <time>2025-11-12T02:22:46.758Z</time>
      </trkpt>
      <trkpt lat="48.588459" lon="9.986641">
        <ele>632.660982</ele>
        <time>2025-11-12T02:22:48.327Z</time>
      </trkpt>
      <trkpt lat="48.588291" lon="9.986889">
        <ele>632.768574</ele>
        <time>2025-11-12T02:22:52.328Z</time>
      </trkpt>
      <trkpt lat="48.588162" lon="9.987162">
        <ele>632.870263</ele>
        <time>2025-11-12T02:22:56.816Z</time>
      </trkpt>
      <trkpt lat="48.588018" lon="9.987574">
        <ele>633.011498</ele>
        <time>2025-11-12T02:23:03.687Z</time>
      </trkpt>
      <trkpt lat="48.587977" lon="9.987912">
        <ele>633.115653</ele>
        <time>2025-11-12T02:23:08.839Z</time>
      </trkpt>
      <trkpt lat="48.588029" lon="9.988179">
        <ele>633.200014</ele>
        <time>2025-11-12T02:23:12.866Z</time>
      </trkpt>
      <trkpt lat="48.588129" lon="9.988491">
        <ele>633.102277</ele>
        <time>2025-11-12T02:23:17.467Z</time>
      </trkpt>
      <trkpt lat="48.588190" lon="9.988753">
        <ele>632.832160</ele>
        <time>2025-11-12T02:23:20.616Z</time>
      </trkpt>
      <trkpt lat="48.588197" lon="9.988936">
        <ele>632.653896</ele>
        <time>2025-11-12T02:23:22.485Z</time>
      </trkpt>
      <trkpt lat="48.588200" lon="9.989019">
        <ele>632.573059</ele>
        <time>2025-11-12T02:23:23.267Z</time>
      </trkpt>
      <trkpt lat="48.588202" lon="9.989431">
        <ele>632.172380</ele>
        <time>2025-11-12T02:23:26.893Z</time>
      </trkpt>
      <trkpt lat="48.588197" lon="9.989522">
        <ele>632.083578</ele>
        <time>2025-11-12T02:23:27.640Z</time>
      </trkpt>
      <trkpt lat="48.588178" lon="9.989864">
        <ele>631.749813</ele>
        <time>2025-11-12T02:23:30.290Z</time>
      </trkpt>
      <trkpt lat="48.588168" lon="9.990047">
        <ele>631.571240</ele>
        <time>2025-11-12T02:23:31.608Z</time>
      </trkpt>
      <trkpt lat="48.588160" lon="9.990184">
        <ele>631.437490</ele>
        <time>2025-11-12T02:23:32.560Z</time>
      </trkpt>
      <trkpt lat="48.588146" lon="9.990448">
        <ele>631.179927</ele>
        <time>2025-11-12T02:23:34.347Z</time>
      </trkpt>
      <trkpt lat="48.588142" lon="9.990507">
        <ele>631.122249</ele>
        <time>2025-11-12T02:23:34.742Z</time>
      </trkpt>
      <trkpt lat="48.588133" lon="9.990662">
        <ele>630.970933</ele>
        <time>2025-11-12T02:23:35.756Z</time>
      </trkpt>
      <trkpt lat="48.588054" lon="9.991746">
        <ele>628.771209</ele>
        <time>2025-11-12T02:23:42.714Z</time>
      </trkpt>
      <trkpt lat="48.587984" lon="9.992652">
        <ele>626.444963</ele>
        <time>2025-11-12T02:23:48.627Z</time>
      </trkpt>
      <trkpt lat="48.587912" lon="9.993350">
        <ele>624.643363</ele>
        <time>2025-11-12T02:23:53.282Z</time>
      </trkpt>
      <trkpt lat="48.587799" lon="9.993849">
        <ele>623.150353</ele>
        <time>2025-11-12T02:23:56.781Z</time>
      </trkpt>
      <trkpt lat="48.587711" lon="9.994124">
        <ele>622.067743</ele>
        <time>2025-11-12T02:23:58.775Z</time>
      </trkpt>
      <trkpt lat="48.587468" lon="9.994654">
        <ele>619.782417</ele>
        <time>2025-11-12T02:24:02.903Z</time>
      </trkpt>
      <trkpt lat="48.587210" lon="9.995057">
        <ele>617.794878</ele>
        <time>2025-11-12T02:24:06.403Z</time>
      </trkpt>
      <trkpt lat="48.586361" lon="9.995928">
        <ele>611.741557</ele>
        <time>2025-11-12T02:24:15.630Z</time>
      </trkpt>
      <trkpt lat="48.586150" lon="9.996255">
        <ele>609.606188</ele>
        <time>2025-11-12T02:24:18.298Z</time>
      </trkpt>
      <trkpt lat="48.585775" lon="9.996991">
        <ele>605.263456</ele>
        <time>2025-11-12T02:24:23.739Z</time>
      </trkpt>
      <trkpt lat="48.585285" lon="9.998106">
        <ele>599.850958</ele>
        <time>2025-11-12T02:24:31.790Z</time>
      </trkpt>
      <trkpt lat="48.585084" lon="9.998691">
        <ele>597.889261</ele>
        <time>2025-11-12T02:24:35.950Z</time>
      </trkpt>
      <trkpt lat="48.585034" lon="9.998955">
        <ele>597.072069</ele>
        <time>2025-11-12T02:24:37.713Z</time>
      </trkpt>
      <trkpt lat="48.585003" lon="9.999432">
        <ele>595.645749</ele>
        <time>2025-11-12T02:24:40.812Z</time>
      </trkpt>
      <trkpt lat="48.585221" lon="10.001774">
        <ele>591.059286</ele>
        <time>2025-11-12T02:24:56.560Z</time>
      </trkpt>
      <trkpt lat="48.585381" lon="10.003310">
        <ele>589.802827</ele>
        <time>2025-11-12T02:25:10.107Z</time>
      </trkpt>
      <trkpt lat="48.585472" lon="10.003900">
        <ele>590.376822</ele>
        <time>2025-11-12T02:25:15.903Z</time>
      </trkpt>
      <trkpt lat="48.585526" lon="10.004072">
        <ele>590.557208</ele>
        <time>2025-11-12T02:25:17.933Z</time>
      </trkpt>
      <trkpt lat="48.585571" lon="10.004187">
        <ele>590.683801</ele>
        <time>2025-11-12T02:25:19.385Z</time>
      </trkpt>
      <trkpt lat="48.585718" lon="10.004410">
        <ele>590.982080</ele>
        <time>2025-11-12T02:25:23.226Z</time>
      </trkpt>
      <trkpt lat="48.586092" lon="10.004694">
        <ele>591.581537</ele>
        <time>2025-11-12T02:25:33.533Z</time>
      </trkpt>
      <trkpt lat="48.586627" lon="10.004795">
        <ele>593.069178</ele>
        <time>2025-11-12T02:25:50.561Z</time>
      </trkpt>
      <trkpt lat="48.586836" lon="10.004983">
        <ele>594.136362</ele>
        <time>2025-11-12T02:25:58.764Z</time>
      </trkpt>
      <trkpt lat="48.586900" lon="10.005161">
        <ele>594.724427</ele>
        <time>2025-11-12T02:26:03.608Z</time>
      </trkpt>
      <trkpt lat="48.587005" lon="10.005721">
        <ele>596.413949</ele>
        <time>2025-11-12T02:26:18.518Z</time>
      </trkpt>
      <trkpt lat="48.587153" lon="10.006208">
        <ele>597.969582</ele>
        <time>2025-11-12T02:26:31.585Z</time>
      </trkpt>
      <trkpt lat="48.587154" lon="10.006364">
        <ele>598.422414</ele>
        <time>2025-11-12T02:26:35.080Z</time>
      </trkpt>
      <trkpt lat="48.587092" lon="10.006471">
        <ele>598.835305</ele>
        <time>2025-11-12T02:26:38.101Z</time>
      </trkpt>
      <trkpt lat="48.587001" lon="10.006544">
        <ele>599.287359</ele>
        <time>2025-11-12T02:26:41.190Z</time>
      </trkpt>
      <trkpt lat="48.586915" lon="10.006528">
        <ele>599.667582</ele>
        <time>2025-11-12T02:26:43.615Z</time>
      </trkpt>
      <trkpt lat="48.586832" lon="10.006412">
        <ele>600.058678</ele>
        <time>2025-11-12T02:26:46.571Z</time>
      </trkpt>
      <trkpt lat="48.586719" lon="10.005697">
        <ele>601.344159</ele>
        <time>2025-11-12T02:26:56.378Z</time>
      </trkpt>
      <trkpt lat="48.586598" lon="10.005445">
        <ele>601.888677</ele>
        <time>2025-11-12T02:26:59.718Z</time>
      </trkpt>
      <trkpt lat="48.586458" lon="10.005344">
        <ele>602.298754</ele>
        <time>2025-11-12T02:27:02.285Z</time>
      </trkpt>
      <trkpt lat="48.586304" lon="10.005301">
        <ele>602.712744</ele>
        <time>2025-11-12T02:27:05.139Z</time>
      </trkpt>
      <trkpt lat="48.586145" lon="10.005318">
        <ele>603.134116</ele>
        <time>2025-11-12T02:27:08.409Z</time>
      </trkpt>
      <trkpt lat="48.586016" lon="10.005386">
        <ele>603.495269</ele>
        <time>2025-11-12T02:27:11.602Z</time>
      </trkpt>
      <trkpt lat="48.585875" lon="10.005552">
        <ele>603.967708</ele>
        <time>2025-11-12T02:27:16.348Z</time>
      </trkpt>
      <trkpt lat="48.585704" lon="10.006006">
        <ele>605.310697</ele>
        <time>2025-11-12T02:27:27.616Z</time>
      </trkpt>
      <trkpt lat="48.585436" lon="10.007257">
        <ele>611.963786</ele>
        <time>2025-11-12T02:28:07.101Z</time>
      </trkpt>
      <trkpt lat="48.584826" lon="10.009216">
        <ele>622.696836</ele>
        <time>2025-11-12T02:29:20.383Z</time>
      </trkpt>
      <trkpt lat="48.584534" lon="10.009813">
        <ele>626.268542</ele>
        <time>2025-11-12T02:29:42.469Z</time>
      </trkpt>
      <trkpt lat="48.583908" lon="10.010682">
        <ele>631.882934</ele>
        <time>2025-11-12T02:30:15.268Z</time>
      </trkpt>
      <trkpt lat="48.583706" lon="10.010837">
        <ele>632.556354</ele>
        <time>2025-11-12T02:30:23.122Z</time>
      </trkpt>
      <trkpt lat="48.583531" lon="10.010923">
        <ele>633.103377</ele>
        <time>2025-11-12T02:30:29.283Z</time>
      </trkpt>
      <trkpt lat="48.583343" lon="10.010964">
        <ele>633.668033</ele>
        <time>2025-11-12T02:30:35.005Z</time>
      </trkpt>
      <trkpt lat="48.582699" lon="10.011048">
        <ele>635.589571</ele>
        <time>2025-11-12T02:30:50.393Z</time>
      </trkpt>
      <trkpt lat="48.582473" lon="10.011172">
        <ele>636.304290</ele>
        <time>2025-11-12T02:30:55.040Z</time>
      </trkpt>
      <trkpt lat="48.582265" lon="10.011430">
        <ele>636.855657</ele>
        <time>2025-11-12T02:30:59.833Z</time>
      </trkpt>
      <trkpt lat="48.582174" lon="10.011690">
        <ele>636.893483</ele>
        <time>2025-11-12T02:31:03.074Z</time>
      </trkpt>
      <trkpt lat="48.582088" lon="10.011980">
        <ele>636.934351</ele>
        <time>2025-11-12T02:31:06.297Z</time>
      </trkpt>
      <trkpt lat="48.582044" lon="10.012670">
        <ele>637.023493</ele>
        <time>2025-11-12T02:31:12.549Z</time>
      </trkpt>
      <trkpt lat="48.582042" lon="10.013537">
        <ele>637.134986</ele>
        <time>2025-11-12T02:31:21.112Z</time>
      </trkpt>
      <trkpt lat="48.582107" lon="10.014466">
        <ele>636.919207</ele>
        <time>2025-11-12T02:31:31.301Z</time>
      </trkpt>
      <trkpt lat="48.582247" lon="10.016513">
        <ele>635.861290</ele>
        <time>2025-11-12T02:31:48.890Z</time>
      </trkpt>
      <trkpt lat="48.582273" lon="10.016969">
        <ele>634.994982</ele>
        <time>2025-11-12T02:31:52.106Z</time>
      </trkpt>
      <trkpt lat="48.582411" lon="10.018348">
        <ele>631.522859</ele>
        <time>2025-11-12T02:32:01.322Z</time>
      </trkpt>
      <trkpt lat="48.582556" lon="10.019644">
        <ele>629.021520</ele>
        <time>2025-11-12T02:32:09.501Z</time>
      </trkpt>
      <trkpt lat="48.582603" lon="10.020072">
        <ele>629.021520</ele>
        <time>2025-11-12T02:32:12.152Z</time>
      </trkpt>
      <trkpt lat="48.582668" lon="10.020664">
        <ele>629.021520</ele>
        <time>2025-11-12T02:32:15.797Z</time>
      </trkpt>
      <trkpt lat="48.582748" lon="10.021394">
        <ele>629.021520</ele>
        <time>2025-11-12T02:32:20.270Z</time>
      </trkpt>
      <trkpt lat="48.582782" lon="10.021694">
        <ele>629.021520</ele>
        <time>2025-11-12T02:32:22.108Z</time>
      </trkpt>
      <trkpt lat="48.582791" lon="10.021823">
        <ele>629.021520</ele>
        <time>2025-11-12T02:32:22.903Z</time>
      </trkpt>
      <trkpt lat="48.582473" lon="10.021885">
        <ele>629.021520</ele>
        <time>2025-11-12T02:32:27.239Z</time>
      </trkpt>
      <trkpt lat="48.582127" lon="10.021952">
        <ele>629.021520</ele>
        <time>2025-11-12T02:32:32.146Z</time>
      </trkpt>
      <trkpt lat="48.582035" lon="10.021996">
        <ele>629.021520</ele>
        <time>2025-11-12T02:32:33.541Z</time>
      </trkpt>
    </trkseg>
  </trk>
</gpx>